<?xml version="1.0" encoding="UTF-8" standalone="no" ?>
<gpx xmlns="http://www.topografix.com/GPX/1/1" xmlns:xsi="http://www.w3.org/2001/XMLSchema-instance" xsi:schemaLocation="http://www.topografix.com/GPX/1/1 http://www.topografix.com/GPX/1/1/gpx.xsd" version="1.1" creator="VisuGPX - https://www.visugpx.com">
  <metadata>
    <name>Autour de Crespian</name>
    <desc><![CDATA[Carrière romaine, Grottes et Castellas sur le parcours]]></desc>
  </metadata>
  <trk>
    <name><![CDATA[07-DEC-18 15:01:19]]></name>
    <trkseg>
      <trkpt lat="43.88151" lon="4.0986">
        <ele>54.93</ele>
        <time>2018-12-07T07:39:39Z</time>
      </trkpt>
      <trkpt lat="43.8815" lon="4.09861">
        <ele>59.74</ele>
        <time>2018-12-07T07:39:44Z</time>
      </trkpt>
      <trkpt lat="43.8815" lon="4.09861">
        <ele>61.66</ele>
        <time>2018-12-07T07:40:00Z</time>
      </trkpt>
      <trkpt lat="43.88149" lon="4.09861">
        <ele>65.51</ele>
        <time>2018-12-07T07:40:06Z</time>
      </trkpt>
      <trkpt lat="43.88149" lon="4.09861">
        <ele>61.66</ele>
        <time>2018-12-07T07:40:07Z</time>
      </trkpt>
      <trkpt lat="43.88148" lon="4.09861">
        <ele>61.18</ele>
        <time>2018-12-07T07:40:24Z</time>
      </trkpt>
      <trkpt lat="43.88157" lon="4.09862">
        <ele>61.18</ele>
        <time>2018-12-07T07:40:44Z</time>
      </trkpt>
      <trkpt lat="43.88159" lon="4.09862">
        <ele>61.66</ele>
        <time>2018-12-07T07:41:06Z</time>
      </trkpt>
      <trkpt lat="43.88161" lon="4.09862">
        <ele>61.66</ele>
        <time>2018-12-07T07:41:24Z</time>
      </trkpt>
      <trkpt lat="43.88161" lon="4.09862">
        <ele>60.22</ele>
        <time>2018-12-07T07:41:30Z</time>
      </trkpt>
      <trkpt lat="43.88161" lon="4.09862">
        <ele>63.58</ele>
        <time>2018-12-07T07:41:31Z</time>
      </trkpt>
      <trkpt lat="43.88161" lon="4.09862">
        <ele>62.62</ele>
        <time>2018-12-07T07:41:32Z</time>
      </trkpt>
      <trkpt lat="43.8816" lon="4.09862">
        <ele>61.66</ele>
        <time>2018-12-07T07:41:33Z</time>
      </trkpt>
      <trkpt lat="43.88157" lon="4.09857">
        <ele>61.66</ele>
        <time>2018-12-07T07:41:41Z</time>
      </trkpt>
      <trkpt lat="43.88149" lon="4.09848">
        <ele>63.1</ele>
        <time>2018-12-07T07:42:00Z</time>
      </trkpt>
      <trkpt lat="43.88127" lon="4.09835">
        <ele>61.18</ele>
        <time>2018-12-07T07:42:21Z</time>
      </trkpt>
      <trkpt lat="43.88125" lon="4.0984">
        <ele>62.62</ele>
        <time>2018-12-07T07:42:31Z</time>
      </trkpt>
      <trkpt lat="43.88118" lon="4.09859">
        <ele>63.1</ele>
        <time>2018-12-07T07:42:48Z</time>
      </trkpt>
      <trkpt lat="43.88115" lon="4.09863">
        <ele>63.1</ele>
        <time>2018-12-07T07:42:53Z</time>
      </trkpt>
      <trkpt lat="43.88112" lon="4.09867">
        <ele>62.62</ele>
        <time>2018-12-07T07:42:57Z</time>
      </trkpt>
      <trkpt lat="43.88109" lon="4.09872">
        <ele>63.1</ele>
        <time>2018-12-07T07:42:59Z</time>
      </trkpt>
      <trkpt lat="43.88098" lon="4.09902">
        <ele>64.55</ele>
        <time>2018-12-07T07:43:20Z</time>
      </trkpt>
      <trkpt lat="43.8809" lon="4.09924">
        <ele>65.51</ele>
        <time>2018-12-07T07:43:39Z</time>
      </trkpt>
      <trkpt lat="43.88086" lon="4.09932">
        <ele>65.51</ele>
        <time>2018-12-07T07:43:45Z</time>
      </trkpt>
      <trkpt lat="43.88081" lon="4.09951">
        <ele>65.99</ele>
        <time>2018-12-07T07:43:56Z</time>
      </trkpt>
      <trkpt lat="43.88075" lon="4.09974">
        <ele>64.55</ele>
        <time>2018-12-07T07:44:12Z</time>
      </trkpt>
      <trkpt lat="43.88072" lon="4.09988">
        <ele>65.03</ele>
        <time>2018-12-07T07:44:19Z</time>
      </trkpt>
      <trkpt lat="43.88071" lon="4.10005">
        <ele>66.95</ele>
        <time>2018-12-07T07:44:28Z</time>
      </trkpt>
      <trkpt lat="43.88069" lon="4.10007">
        <ele>66.47</ele>
        <time>2018-12-07T07:44:29Z</time>
      </trkpt>
      <trkpt lat="43.88059" lon="4.1003">
        <ele>66.47</ele>
        <time>2018-12-07T07:44:44Z</time>
      </trkpt>
      <trkpt lat="43.88062" lon="4.1004">
        <ele>47.72</ele>
        <time>2018-12-07T07:44:56Z</time>
      </trkpt>
      <trkpt lat="43.88061" lon="4.1004">
        <ele>84.25</ele>
        <time>2018-12-07T07:44:57Z</time>
      </trkpt>
      <trkpt lat="43.88061" lon="4.10041">
        <ele>65.99</ele>
        <time>2018-12-07T07:44:58Z</time>
      </trkpt>
      <trkpt lat="43.8806" lon="4.10041">
        <ele>62.62</ele>
        <time>2018-12-07T07:44:59Z</time>
      </trkpt>
      <trkpt lat="43.88059" lon="4.10041">
        <ele>68.87</ele>
        <time>2018-12-07T07:45:00Z</time>
      </trkpt>
      <trkpt lat="43.88058" lon="4.10042">
        <ele>65.51</ele>
        <time>2018-12-07T07:45:02Z</time>
      </trkpt>
      <trkpt lat="43.88043" lon="4.1005">
        <ele>63.1</ele>
        <time>2018-12-07T07:45:21Z</time>
      </trkpt>
      <trkpt lat="43.88033" lon="4.10041">
        <ele>63.58</ele>
        <time>2018-12-07T07:45:34Z</time>
      </trkpt>
      <trkpt lat="43.88033" lon="4.10042">
        <ele>62.62</ele>
        <time>2018-12-07T07:45:41Z</time>
      </trkpt>
      <trkpt lat="43.88031" lon="4.1005">
        <ele>61.66</ele>
        <time>2018-12-07T07:45:48Z</time>
      </trkpt>
      <trkpt lat="43.88031" lon="4.10052">
        <ele>61.18</ele>
        <time>2018-12-07T07:45:49Z</time>
      </trkpt>
      <trkpt lat="43.88018" lon="4.10061">
        <ele>60.7</ele>
        <time>2018-12-07T07:46:02Z</time>
      </trkpt>
      <trkpt lat="43.88017" lon="4.10062">
        <ele>60.7</ele>
        <time>2018-12-07T07:46:03Z</time>
      </trkpt>
      <trkpt lat="43.88001" lon="4.1007">
        <ele>58.78</ele>
        <time>2018-12-07T07:46:16Z</time>
      </trkpt>
      <trkpt lat="43.87987" lon="4.10065">
        <ele>58.3</ele>
        <time>2018-12-07T07:46:23Z</time>
      </trkpt>
      <trkpt lat="43.87978" lon="4.10064">
        <ele>56.86</ele>
        <time>2018-12-07T07:46:29Z</time>
      </trkpt>
      <trkpt lat="43.87961" lon="4.10059">
        <ele>56.37</ele>
        <time>2018-12-07T07:46:40Z</time>
      </trkpt>
      <trkpt lat="43.87943" lon="4.10062">
        <ele>54.93</ele>
        <time>2018-12-07T07:46:58Z</time>
      </trkpt>
      <trkpt lat="43.87927" lon="4.10056">
        <ele>52.53</ele>
        <time>2018-12-07T07:47:14Z</time>
      </trkpt>
      <trkpt lat="43.87913" lon="4.10057">
        <ele>49.16</ele>
        <time>2018-12-07T07:47:29Z</time>
      </trkpt>
      <trkpt lat="43.87911" lon="4.10065">
        <ele>48.2</ele>
        <time>2018-12-07T07:47:45Z</time>
      </trkpt>
      <trkpt lat="43.87909" lon="4.10063">
        <ele>47.72</ele>
        <time>2018-12-07T07:47:58Z</time>
      </trkpt>
      <trkpt lat="43.87906" lon="4.10063">
        <ele>44.84</ele>
        <time>2018-12-07T07:48:11Z</time>
      </trkpt>
      <trkpt lat="43.87905" lon="4.10064">
        <ele>50.13</ele>
        <time>2018-12-07T07:48:14Z</time>
      </trkpt>
      <trkpt lat="43.87905" lon="4.10064">
        <ele>46.28</ele>
        <time>2018-12-07T07:48:15Z</time>
      </trkpt>
      <trkpt lat="43.87905" lon="4.10064">
        <ele>50.13</ele>
        <time>2018-12-07T07:48:17Z</time>
      </trkpt>
      <trkpt lat="43.87905" lon="4.10065">
        <ele>45.32</ele>
        <time>2018-12-07T07:48:18Z</time>
      </trkpt>
      <trkpt lat="43.87905" lon="4.10066">
        <ele>49.16</ele>
        <time>2018-12-07T07:48:19Z</time>
      </trkpt>
      <trkpt lat="43.87904" lon="4.10071">
        <ele>45.8</ele>
        <time>2018-12-07T07:48:27Z</time>
      </trkpt>
      <trkpt lat="43.87904" lon="4.10072">
        <ele>48.68</ele>
        <time>2018-12-07T07:48:28Z</time>
      </trkpt>
      <trkpt lat="43.879" lon="4.10083">
        <ele>50.13</ele>
        <time>2018-12-07T07:48:35Z</time>
      </trkpt>
      <trkpt lat="43.87895" lon="4.10094">
        <ele>49.65</ele>
        <time>2018-12-07T07:48:42Z</time>
      </trkpt>
      <trkpt lat="43.87893" lon="4.10096">
        <ele>48.68</ele>
        <time>2018-12-07T07:48:44Z</time>
      </trkpt>
      <trkpt lat="43.87891" lon="4.10099">
        <ele>50.13</ele>
        <time>2018-12-07T07:48:47Z</time>
      </trkpt>
      <trkpt lat="43.87888" lon="4.10103">
        <ele>51.09</ele>
        <time>2018-12-07T07:48:52Z</time>
      </trkpt>
      <trkpt lat="43.87884" lon="4.10104">
        <ele>48.68</ele>
        <time>2018-12-07T07:48:55Z</time>
      </trkpt>
      <trkpt lat="43.87882" lon="4.10103">
        <ele>52.53</ele>
        <time>2018-12-07T07:48:57Z</time>
      </trkpt>
      <trkpt lat="43.87881" lon="4.10103">
        <ele>50.61</ele>
        <time>2018-12-07T07:48:58Z</time>
      </trkpt>
      <trkpt lat="43.87879" lon="4.101">
        <ele>52.05</ele>
        <time>2018-12-07T07:49:03Z</time>
      </trkpt>
      <trkpt lat="43.87862" lon="4.10099">
        <ele>56.37</ele>
        <time>2018-12-07T07:49:16Z</time>
      </trkpt>
      <trkpt lat="43.8786" lon="4.10098">
        <ele>53.97</ele>
        <time>2018-12-07T07:49:17Z</time>
      </trkpt>
      <trkpt lat="43.87855" lon="4.10098">
        <ele>53.97</ele>
        <time>2018-12-07T07:49:21Z</time>
      </trkpt>
      <trkpt lat="43.87853" lon="4.10097">
        <ele>53.49</ele>
        <time>2018-12-07T07:49:23Z</time>
      </trkpt>
      <trkpt lat="43.87844" lon="4.10096">
        <ele>55.41</ele>
        <time>2018-12-07T07:49:33Z</time>
      </trkpt>
      <trkpt lat="43.87833" lon="4.10104">
        <ele>52.53</ele>
        <time>2018-12-07T07:49:44Z</time>
      </trkpt>
      <trkpt lat="43.87832" lon="4.10106">
        <ele>58.78</ele>
        <time>2018-12-07T07:49:45Z</time>
      </trkpt>
      <trkpt lat="43.87831" lon="4.10107">
        <ele>55.41</ele>
        <time>2018-12-07T07:49:46Z</time>
      </trkpt>
      <trkpt lat="43.87822" lon="4.10121">
        <ele>58.3</ele>
        <time>2018-12-07T07:50:00Z</time>
      </trkpt>
      <trkpt lat="43.87818" lon="4.10141">
        <ele>64.07</ele>
        <time>2018-12-07T07:50:17Z</time>
      </trkpt>
      <trkpt lat="43.87818" lon="4.10142">
        <ele>58.78</ele>
        <time>2018-12-07T07:50:18Z</time>
      </trkpt>
      <trkpt lat="43.87818" lon="4.10145">
        <ele>60.7</ele>
        <time>2018-12-07T07:50:21Z</time>
      </trkpt>
      <trkpt lat="43.87816" lon="4.10148">
        <ele>57.82</ele>
        <time>2018-12-07T07:50:27Z</time>
      </trkpt>
      <trkpt lat="43.87816" lon="4.10149">
        <ele>63.58</ele>
        <time>2018-12-07T07:50:28Z</time>
      </trkpt>
      <trkpt lat="43.87816" lon="4.10149">
        <ele>62.62</ele>
        <time>2018-12-07T07:50:29Z</time>
      </trkpt>
      <trkpt lat="43.87815" lon="4.10152">
        <ele>60.7</ele>
        <time>2018-12-07T07:50:31Z</time>
      </trkpt>
      <trkpt lat="43.87807" lon="4.10166">
        <ele>65.99</ele>
        <time>2018-12-07T07:50:45Z</time>
      </trkpt>
      <trkpt lat="43.87807" lon="4.10167">
        <ele>62.62</ele>
        <time>2018-12-07T07:50:46Z</time>
      </trkpt>
      <trkpt lat="43.87797" lon="4.10176">
        <ele>59.74</ele>
        <time>2018-12-07T07:51:04Z</time>
      </trkpt>
      <trkpt lat="43.87788" lon="4.1018">
        <ele>56.37</ele>
        <time>2018-12-07T07:51:12Z</time>
      </trkpt>
      <trkpt lat="43.87787" lon="4.10181">
        <ele>56.37</ele>
        <time>2018-12-07T07:51:13Z</time>
      </trkpt>
      <trkpt lat="43.87786" lon="4.10182">
        <ele>61.18</ele>
        <time>2018-12-07T07:51:14Z</time>
      </trkpt>
      <trkpt lat="43.87785" lon="4.10183">
        <ele>59.26</ele>
        <time>2018-12-07T07:51:15Z</time>
      </trkpt>
      <trkpt lat="43.87763" lon="4.10194">
        <ele>57.34</ele>
        <time>2018-12-07T07:51:34Z</time>
      </trkpt>
      <trkpt lat="43.87761" lon="4.10196">
        <ele>59.26</ele>
        <time>2018-12-07T07:51:36Z</time>
      </trkpt>
      <trkpt lat="43.87757" lon="4.10197">
        <ele>58.78</ele>
        <time>2018-12-07T07:51:41Z</time>
      </trkpt>
      <trkpt lat="43.87751" lon="4.10194">
        <ele>58.78</ele>
        <time>2018-12-07T07:51:47Z</time>
      </trkpt>
      <trkpt lat="43.87739" lon="4.10191">
        <ele>58.78</ele>
        <time>2018-12-07T07:51:56Z</time>
      </trkpt>
      <trkpt lat="43.87729" lon="4.1019">
        <ele>57.82</ele>
        <time>2018-12-07T07:52:03Z</time>
      </trkpt>
      <trkpt lat="43.87722" lon="4.10188">
        <ele>58.78</ele>
        <time>2018-12-07T07:52:09Z</time>
      </trkpt>
      <trkpt lat="43.8772" lon="4.10188">
        <ele>57.82</ele>
        <time>2018-12-07T07:52:11Z</time>
      </trkpt>
      <trkpt lat="43.87708" lon="4.10192">
        <ele>57.34</ele>
        <time>2018-12-07T07:52:20Z</time>
      </trkpt>
      <trkpt lat="43.87704" lon="4.10194">
        <ele>59.74</ele>
        <time>2018-12-07T07:52:23Z</time>
      </trkpt>
      <trkpt lat="43.87702" lon="4.10194">
        <ele>58.3</ele>
        <time>2018-12-07T07:52:25Z</time>
      </trkpt>
      <trkpt lat="43.87697" lon="4.10193">
        <ele>58.78</ele>
        <time>2018-12-07T07:52:29Z</time>
      </trkpt>
      <trkpt lat="43.87692" lon="4.10192">
        <ele>59.26</ele>
        <time>2018-12-07T07:52:34Z</time>
      </trkpt>
      <trkpt lat="43.8769" lon="4.10191">
        <ele>58.3</ele>
        <time>2018-12-07T07:52:36Z</time>
      </trkpt>
      <trkpt lat="43.87676" lon="4.10185">
        <ele>59.74</ele>
        <time>2018-12-07T07:52:49Z</time>
      </trkpt>
      <trkpt lat="43.8767" lon="4.10184">
        <ele>57.34</ele>
        <time>2018-12-07T07:52:55Z</time>
      </trkpt>
      <trkpt lat="43.87651" lon="4.10175">
        <ele>63.1</ele>
        <time>2018-12-07T07:53:12Z</time>
      </trkpt>
      <trkpt lat="43.87649" lon="4.10174">
        <ele>59.74</ele>
        <time>2018-12-07T07:53:13Z</time>
      </trkpt>
      <trkpt lat="43.87647" lon="4.10173">
        <ele>59.26</ele>
        <time>2018-12-07T07:53:15Z</time>
      </trkpt>
      <trkpt lat="43.87637" lon="4.10171">
        <ele>62.62</ele>
        <time>2018-12-07T07:53:23Z</time>
      </trkpt>
      <trkpt lat="43.87636" lon="4.10171">
        <ele>59.74</ele>
        <time>2018-12-07T07:53:24Z</time>
      </trkpt>
      <trkpt lat="43.87616" lon="4.10157">
        <ele>59.74</ele>
        <time>2018-12-07T07:53:42Z</time>
      </trkpt>
      <trkpt lat="43.87607" lon="4.10156">
        <ele>58.78</ele>
        <time>2018-12-07T07:53:49Z</time>
      </trkpt>
      <trkpt lat="43.87604" lon="4.10157">
        <ele>60.22</ele>
        <time>2018-12-07T07:53:52Z</time>
      </trkpt>
      <trkpt lat="43.87595" lon="4.10156">
        <ele>59.26</ele>
        <time>2018-12-07T07:54:01Z</time>
      </trkpt>
      <trkpt lat="43.87594" lon="4.10156">
        <ele>57.82</ele>
        <time>2018-12-07T07:54:19Z</time>
      </trkpt>
      <trkpt lat="43.87585" lon="4.10167">
        <ele>63.1</ele>
        <time>2018-12-07T07:54:34Z</time>
      </trkpt>
      <trkpt lat="43.87585" lon="4.10168">
        <ele>61.18</ele>
        <time>2018-12-07T07:54:35Z</time>
      </trkpt>
      <trkpt lat="43.87583" lon="4.10172">
        <ele>60.22</ele>
        <time>2018-12-07T07:54:37Z</time>
      </trkpt>
      <trkpt lat="43.87582" lon="4.10173">
        <ele>61.18</ele>
        <time>2018-12-07T07:54:41Z</time>
      </trkpt>
      <trkpt lat="43.87579" lon="4.10174">
        <ele>59.74</ele>
        <time>2018-12-07T07:54:44Z</time>
      </trkpt>
      <trkpt lat="43.87576" lon="4.10174">
        <ele>60.7</ele>
        <time>2018-12-07T07:54:48Z</time>
      </trkpt>
      <trkpt lat="43.87575" lon="4.10174">
        <ele>57.34</ele>
        <time>2018-12-07T07:54:49Z</time>
      </trkpt>
      <trkpt lat="43.87574" lon="4.10175">
        <ele>64.07</ele>
        <time>2018-12-07T07:54:50Z</time>
      </trkpt>
      <trkpt lat="43.87572" lon="4.10175">
        <ele>60.22</ele>
        <time>2018-12-07T07:54:52Z</time>
      </trkpt>
      <trkpt lat="43.87571" lon="4.10175">
        <ele>60.22</ele>
        <time>2018-12-07T07:54:53Z</time>
      </trkpt>
      <trkpt lat="43.8757" lon="4.10175">
        <ele>64.07</ele>
        <time>2018-12-07T07:54:54Z</time>
      </trkpt>
      <trkpt lat="43.87569" lon="4.10175">
        <ele>60.7</ele>
        <time>2018-12-07T07:54:55Z</time>
      </trkpt>
      <trkpt lat="43.87568" lon="4.10175">
        <ele>63.58</ele>
        <time>2018-12-07T07:54:57Z</time>
      </trkpt>
      <trkpt lat="43.87568" lon="4.10177">
        <ele>58.78</ele>
        <time>2018-12-07T07:54:58Z</time>
      </trkpt>
      <trkpt lat="43.87567" lon="4.1018">
        <ele>65.03</ele>
        <time>2018-12-07T07:54:59Z</time>
      </trkpt>
      <trkpt lat="43.87566" lon="4.10181">
        <ele>60.22</ele>
        <time>2018-12-07T07:55:00Z</time>
      </trkpt>
      <trkpt lat="43.87566" lon="4.10183">
        <ele>66.95</ele>
        <time>2018-12-07T07:55:01Z</time>
      </trkpt>
      <trkpt lat="43.87565" lon="4.10185">
        <ele>59.74</ele>
        <time>2018-12-07T07:55:02Z</time>
      </trkpt>
      <trkpt lat="43.87565" lon="4.10186">
        <ele>65.03</ele>
        <time>2018-12-07T07:55:03Z</time>
      </trkpt>
      <trkpt lat="43.87563" lon="4.10188">
        <ele>60.22</ele>
        <time>2018-12-07T07:55:05Z</time>
      </trkpt>
      <trkpt lat="43.87563" lon="4.10189">
        <ele>66.95</ele>
        <time>2018-12-07T07:55:06Z</time>
      </trkpt>
      <trkpt lat="43.87562" lon="4.10189">
        <ele>63.1</ele>
        <time>2018-12-07T07:55:07Z</time>
      </trkpt>
      <trkpt lat="43.87558" lon="4.10191">
        <ele>66.47</ele>
        <time>2018-12-07T07:55:11Z</time>
      </trkpt>
      <trkpt lat="43.87557" lon="4.10192">
        <ele>63.58</ele>
        <time>2018-12-07T07:55:12Z</time>
      </trkpt>
      <trkpt lat="43.87554" lon="4.10193">
        <ele>67.43</ele>
        <time>2018-12-07T07:55:16Z</time>
      </trkpt>
      <trkpt lat="43.87553" lon="4.10193">
        <ele>63.58</ele>
        <time>2018-12-07T07:55:22Z</time>
      </trkpt>
      <trkpt lat="43.87551" lon="4.10193">
        <ele>67.43</ele>
        <time>2018-12-07T07:55:26Z</time>
      </trkpt>
      <trkpt lat="43.87536" lon="4.10197">
        <ele>71.27</ele>
        <time>2018-12-07T07:55:44Z</time>
      </trkpt>
      <trkpt lat="43.87535" lon="4.10196">
        <ele>67.43</ele>
        <time>2018-12-07T07:55:46Z</time>
      </trkpt>
      <trkpt lat="43.87533" lon="4.10196">
        <ele>70.79</ele>
        <time>2018-12-07T07:55:49Z</time>
      </trkpt>
      <trkpt lat="43.87523" lon="4.10202">
        <ele>74.64</ele>
        <time>2018-12-07T07:55:59Z</time>
      </trkpt>
      <trkpt lat="43.87513" lon="4.10204">
        <ele>73.68</ele>
        <time>2018-12-07T07:56:11Z</time>
      </trkpt>
      <trkpt lat="43.87507" lon="4.10197">
        <ele>76.08</ele>
        <time>2018-12-07T07:56:20Z</time>
      </trkpt>
      <trkpt lat="43.87505" lon="4.10195">
        <ele>77.04</ele>
        <time>2018-12-07T07:56:32Z</time>
      </trkpt>
      <trkpt lat="43.87503" lon="4.10192">
        <ele>80.41</ele>
        <time>2018-12-07T07:56:39Z</time>
      </trkpt>
      <trkpt lat="43.87503" lon="4.1019">
        <ele>77.04</ele>
        <time>2018-12-07T07:56:41Z</time>
      </trkpt>
      <trkpt lat="43.87502" lon="4.1019">
        <ele>77.04</ele>
        <time>2018-12-07T07:56:42Z</time>
      </trkpt>
      <trkpt lat="43.87502" lon="4.10187">
        <ele>80.41</ele>
        <time>2018-12-07T07:56:44Z</time>
      </trkpt>
      <trkpt lat="43.875" lon="4.10183">
        <ele>80.89</ele>
        <time>2018-12-07T07:56:50Z</time>
      </trkpt>
      <trkpt lat="43.87497" lon="4.10177">
        <ele>84.73</ele>
        <time>2018-12-07T07:57:02Z</time>
      </trkpt>
      <trkpt lat="43.87497" lon="4.10177">
        <ele>81.37</ele>
        <time>2018-12-07T07:57:03Z</time>
      </trkpt>
      <trkpt lat="43.87497" lon="4.10174">
        <ele>80.89</ele>
        <time>2018-12-07T07:57:08Z</time>
      </trkpt>
      <trkpt lat="43.87495" lon="4.10171">
        <ele>84.25</ele>
        <time>2018-12-07T07:57:10Z</time>
      </trkpt>
      <trkpt lat="43.87492" lon="4.10163">
        <ele>85.21</ele>
        <time>2018-12-07T07:57:18Z</time>
      </trkpt>
      <trkpt lat="43.87486" lon="4.10151">
        <ele>88.1</ele>
        <time>2018-12-07T07:57:28Z</time>
      </trkpt>
      <trkpt lat="43.87483" lon="4.10144">
        <ele>69.35</ele>
        <time>2018-12-07T07:57:30Z</time>
      </trkpt>
      <trkpt lat="43.87483" lon="4.10142">
        <ele>88.58</ele>
        <time>2018-12-07T07:57:31Z</time>
      </trkpt>
      <trkpt lat="43.87483" lon="4.10141">
        <ele>99.15</ele>
        <time>2018-12-07T07:57:33Z</time>
      </trkpt>
      <trkpt lat="43.87483" lon="4.1014">
        <ele>69.35</ele>
        <time>2018-12-07T07:57:34Z</time>
      </trkpt>
      <trkpt lat="43.87483" lon="4.10139">
        <ele>108.29</ele>
        <time>2018-12-07T07:57:35Z</time>
      </trkpt>
      <trkpt lat="43.87482" lon="4.10137">
        <ele>88.58</ele>
        <time>2018-12-07T07:57:36Z</time>
      </trkpt>
      <trkpt lat="43.87481" lon="4.10135">
        <ele>109.73</ele>
        <time>2018-12-07T07:57:38Z</time>
      </trkpt>
      <trkpt lat="43.87481" lon="4.10134">
        <ele>89.06</ele>
        <time>2018-12-07T07:57:39Z</time>
      </trkpt>
      <trkpt lat="43.87475" lon="4.10126">
        <ele>91.46</ele>
        <time>2018-12-07T07:57:50Z</time>
      </trkpt>
      <trkpt lat="43.87471" lon="4.10122">
        <ele>88.58</ele>
        <time>2018-12-07T07:57:54Z</time>
      </trkpt>
      <trkpt lat="43.87465" lon="4.10104">
        <ele>92.42</ele>
        <time>2018-12-07T07:58:10Z</time>
      </trkpt>
      <trkpt lat="43.87463" lon="4.10102">
        <ele>92.42</ele>
        <time>2018-12-07T07:58:26Z</time>
      </trkpt>
      <trkpt lat="43.87462" lon="4.10102">
        <ele>92.9</ele>
        <time>2018-12-07T07:58:49Z</time>
      </trkpt>
      <trkpt lat="43.87462" lon="4.10102">
        <ele>92.42</ele>
        <time>2018-12-07T07:59:06Z</time>
      </trkpt>
      <trkpt lat="43.87461" lon="4.10094">
        <ele>94.35</ele>
        <time>2018-12-07T07:59:18Z</time>
      </trkpt>
      <trkpt lat="43.87456" lon="4.10084">
        <ele>94.35</ele>
        <time>2018-12-07T07:59:25Z</time>
      </trkpt>
      <trkpt lat="43.87451" lon="4.1008">
        <ele>94.83</ele>
        <time>2018-12-07T07:59:30Z</time>
      </trkpt>
      <trkpt lat="43.87447" lon="4.10077">
        <ele>94.83</ele>
        <time>2018-12-07T07:59:34Z</time>
      </trkpt>
      <trkpt lat="43.87441" lon="4.10072">
        <ele>95.31</ele>
        <time>2018-12-07T07:59:47Z</time>
      </trkpt>
      <trkpt lat="43.87441" lon="4.10072">
        <ele>94.83</ele>
        <time>2018-12-07T07:59:48Z</time>
      </trkpt>
      <trkpt lat="43.87434" lon="4.10068">
        <ele>95.79</ele>
        <time>2018-12-07T07:59:58Z</time>
      </trkpt>
      <trkpt lat="43.87416" lon="4.1006">
        <ele>97.23</ele>
        <time>2018-12-07T08:00:15Z</time>
      </trkpt>
      <trkpt lat="43.874" lon="4.10056">
        <ele>96.75</ele>
        <time>2018-12-07T08:00:29Z</time>
      </trkpt>
      <trkpt lat="43.87384" lon="4.10052">
        <ele>96.27</ele>
        <time>2018-12-07T08:00:43Z</time>
      </trkpt>
      <trkpt lat="43.8738" lon="4.10049">
        <ele>96.27</ele>
        <time>2018-12-07T08:00:47Z</time>
      </trkpt>
      <trkpt lat="43.8737" lon="4.10054">
        <ele>95.79</ele>
        <time>2018-12-07T08:01:03Z</time>
      </trkpt>
      <trkpt lat="43.87367" lon="4.10054">
        <ele>95.79</ele>
        <time>2018-12-07T08:01:06Z</time>
      </trkpt>
      <trkpt lat="43.87356" lon="4.10048">
        <ele>95.79</ele>
        <time>2018-12-07T08:01:16Z</time>
      </trkpt>
      <trkpt lat="43.87354" lon="4.10048">
        <ele>95.31</ele>
        <time>2018-12-07T08:01:18Z</time>
      </trkpt>
      <trkpt lat="43.87344" lon="4.10045">
        <ele>94.83</ele>
        <time>2018-12-07T08:01:26Z</time>
      </trkpt>
      <trkpt lat="43.87331" lon="4.10046">
        <ele>94.83</ele>
        <time>2018-12-07T08:01:37Z</time>
      </trkpt>
      <trkpt lat="43.87329" lon="4.10045">
        <ele>94.83</ele>
        <time>2018-12-07T08:01:39Z</time>
      </trkpt>
      <trkpt lat="43.87311" lon="4.10037">
        <ele>94.35</ele>
        <time>2018-12-07T08:01:54Z</time>
      </trkpt>
      <trkpt lat="43.87305" lon="4.10034">
        <ele>94.35</ele>
        <time>2018-12-07T08:02:00Z</time>
      </trkpt>
      <trkpt lat="43.87303" lon="4.10035">
        <ele>94.35</ele>
        <time>2018-12-07T08:02:02Z</time>
      </trkpt>
      <trkpt lat="43.87297" lon="4.10033">
        <ele>93.87</ele>
        <time>2018-12-07T08:02:06Z</time>
      </trkpt>
      <trkpt lat="43.87282" lon="4.10037">
        <ele>93.87</ele>
        <time>2018-12-07T08:02:20Z</time>
      </trkpt>
      <trkpt lat="43.87281" lon="4.10037">
        <ele>93.87</ele>
        <time>2018-12-07T08:02:21Z</time>
      </trkpt>
      <trkpt lat="43.87273" lon="4.10039">
        <ele>93.87</ele>
        <time>2018-12-07T08:02:28Z</time>
      </trkpt>
      <trkpt lat="43.87262" lon="4.1004">
        <ele>93.39</ele>
        <time>2018-12-07T08:02:37Z</time>
      </trkpt>
      <trkpt lat="43.87258" lon="4.1004">
        <ele>93.39</ele>
        <time>2018-12-07T08:02:40Z</time>
      </trkpt>
      <trkpt lat="43.87239" lon="4.1004">
        <ele>92.42</ele>
        <time>2018-12-07T08:02:55Z</time>
      </trkpt>
      <trkpt lat="43.87223" lon="4.10041">
        <ele>92.42</ele>
        <time>2018-12-07T08:03:08Z</time>
      </trkpt>
      <trkpt lat="43.87207" lon="4.10041">
        <ele>92.42</ele>
        <time>2018-12-07T08:03:22Z</time>
      </trkpt>
      <trkpt lat="43.87197" lon="4.10044">
        <ele>93.39</ele>
        <time>2018-12-07T08:03:34Z</time>
      </trkpt>
      <trkpt lat="43.87193" lon="4.10045">
        <ele>91.94</ele>
        <time>2018-12-07T08:03:38Z</time>
      </trkpt>
      <trkpt lat="43.87188" lon="4.10044">
        <ele>92.42</ele>
        <time>2018-12-07T08:03:44Z</time>
      </trkpt>
      <trkpt lat="43.87182" lon="4.10042">
        <ele>85.69</ele>
        <time>2018-12-07T08:03:53Z</time>
      </trkpt>
      <trkpt lat="43.87181" lon="4.10043">
        <ele>96.27</ele>
        <time>2018-12-07T08:03:54Z</time>
      </trkpt>
      <trkpt lat="43.87181" lon="4.10043">
        <ele>91.94</ele>
        <time>2018-12-07T08:03:55Z</time>
      </trkpt>
      <trkpt lat="43.87181" lon="4.10043">
        <ele>96.75</ele>
        <time>2018-12-07T08:03:56Z</time>
      </trkpt>
      <trkpt lat="43.87181" lon="4.10043">
        <ele>93.87</ele>
        <time>2018-12-07T08:03:57Z</time>
      </trkpt>
      <trkpt lat="43.87181" lon="4.10043">
        <ele>93.39</ele>
        <time>2018-12-07T08:03:58Z</time>
      </trkpt>
      <trkpt lat="43.87178" lon="4.10051">
        <ele>93.39</ele>
        <time>2018-12-07T08:04:07Z</time>
      </trkpt>
      <trkpt lat="43.87177" lon="4.10051">
        <ele>93.39</ele>
        <time>2018-12-07T08:04:20Z</time>
      </trkpt>
      <trkpt lat="43.87177" lon="4.10051">
        <ele>92.9</ele>
        <time>2018-12-07T08:04:23Z</time>
      </trkpt>
      <trkpt lat="43.87177" lon="4.10053">
        <ele>92.42</ele>
        <time>2018-12-07T08:04:25Z</time>
      </trkpt>
      <trkpt lat="43.87174" lon="4.10069">
        <ele>93.87</ele>
        <time>2018-12-07T08:04:36Z</time>
      </trkpt>
      <trkpt lat="43.87173" lon="4.10085">
        <ele>95.31</ele>
        <time>2018-12-07T08:04:48Z</time>
      </trkpt>
      <trkpt lat="43.87172" lon="4.10087">
        <ele>95.79</ele>
        <time>2018-12-07T08:05:03Z</time>
      </trkpt>
      <trkpt lat="43.87173" lon="4.10089">
        <ele>96.27</ele>
        <time>2018-12-07T08:05:18Z</time>
      </trkpt>
      <trkpt lat="43.87172" lon="4.10089">
        <ele>96.27</ele>
        <time>2018-12-07T08:05:43Z</time>
      </trkpt>
      <trkpt lat="43.8717" lon="4.10092">
        <ele>99.15</ele>
        <time>2018-12-07T08:05:57Z</time>
      </trkpt>
      <trkpt lat="43.8717" lon="4.10102">
        <ele>98.67</ele>
        <time>2018-12-07T08:06:05Z</time>
      </trkpt>
      <trkpt lat="43.87169" lon="4.1011">
        <ele>101.56</ele>
        <time>2018-12-07T08:06:12Z</time>
      </trkpt>
      <trkpt lat="43.87169" lon="4.10111">
        <ele>99.15</ele>
        <time>2018-12-07T08:06:13Z</time>
      </trkpt>
      <trkpt lat="43.87168" lon="4.10114">
        <ele>98.67</ele>
        <time>2018-12-07T08:06:31Z</time>
      </trkpt>
      <trkpt lat="43.87168" lon="4.10114">
        <ele>98.67</ele>
        <time>2018-12-07T08:06:34Z</time>
      </trkpt>
      <trkpt lat="43.87162" lon="4.10109">
        <ele>99.15</ele>
        <time>2018-12-07T08:06:40Z</time>
      </trkpt>
      <trkpt lat="43.87161" lon="4.10109">
        <ele>98.67</ele>
        <time>2018-12-07T08:06:41Z</time>
      </trkpt>
      <trkpt lat="43.87155" lon="4.10111">
        <ele>77.04</ele>
        <time>2018-12-07T08:06:44Z</time>
      </trkpt>
      <trkpt lat="43.87154" lon="4.10112">
        <ele>103.96</ele>
        <time>2018-12-07T08:06:45Z</time>
      </trkpt>
      <trkpt lat="43.87152" lon="4.10111">
        <ele>98.19</ele>
        <time>2018-12-07T08:06:47Z</time>
      </trkpt>
      <trkpt lat="43.87151" lon="4.1011">
        <ele>98.19</ele>
        <time>2018-12-07T08:06:48Z</time>
      </trkpt>
      <trkpt lat="43.87148" lon="4.10107">
        <ele>98.67</ele>
        <time>2018-12-07T08:06:54Z</time>
      </trkpt>
      <trkpt lat="43.87137" lon="4.10105">
        <ele>96.27</ele>
        <time>2018-12-07T08:07:05Z</time>
      </trkpt>
      <trkpt lat="43.8713" lon="4.10099">
        <ele>97.23</ele>
        <time>2018-12-07T08:07:14Z</time>
      </trkpt>
      <trkpt lat="43.8712" lon="4.10095">
        <ele>95.79</ele>
        <time>2018-12-07T08:07:23Z</time>
      </trkpt>
      <trkpt lat="43.87104" lon="4.10103">
        <ele>95.79</ele>
        <time>2018-12-07T08:07:38Z</time>
      </trkpt>
      <trkpt lat="43.87092" lon="4.10109">
        <ele>95.79</ele>
        <time>2018-12-07T08:07:53Z</time>
      </trkpt>
      <trkpt lat="43.87091" lon="4.1011">
        <ele>95.31</ele>
        <time>2018-12-07T08:07:54Z</time>
      </trkpt>
      <trkpt lat="43.87072" lon="4.10108">
        <ele>95.31</ele>
        <time>2018-12-07T08:08:10Z</time>
      </trkpt>
      <trkpt lat="43.87055" lon="4.10113">
        <ele>95.79</ele>
        <time>2018-12-07T08:08:26Z</time>
      </trkpt>
      <trkpt lat="43.87042" lon="4.10114">
        <ele>94.83</ele>
        <time>2018-12-07T08:08:40Z</time>
      </trkpt>
      <trkpt lat="43.8703" lon="4.10113">
        <ele>94.83</ele>
        <time>2018-12-07T08:08:53Z</time>
      </trkpt>
      <trkpt lat="43.87029" lon="4.10114">
        <ele>93.87</ele>
        <time>2018-12-07T08:08:54Z</time>
      </trkpt>
      <trkpt lat="43.87024" lon="4.10117">
        <ele>95.31</ele>
        <time>2018-12-07T08:08:57Z</time>
      </trkpt>
      <trkpt lat="43.87019" lon="4.10118">
        <ele>95.31</ele>
        <time>2018-12-07T08:09:04Z</time>
      </trkpt>
      <trkpt lat="43.87015" lon="4.10117">
        <ele>95.31</ele>
        <time>2018-12-07T08:09:09Z</time>
      </trkpt>
      <trkpt lat="43.87009" lon="4.10114">
        <ele>95.31</ele>
        <time>2018-12-07T08:09:15Z</time>
      </trkpt>
      <trkpt lat="43.86987" lon="4.10107">
        <ele>93.87</ele>
        <time>2018-12-07T08:09:33Z</time>
      </trkpt>
      <trkpt lat="43.86976" lon="4.10111">
        <ele>93.87</ele>
        <time>2018-12-07T08:09:42Z</time>
      </trkpt>
      <trkpt lat="43.86957" lon="4.10108">
        <ele>95.31</ele>
        <time>2018-12-07T08:09:57Z</time>
      </trkpt>
      <trkpt lat="43.86951" lon="4.10104">
        <ele>78</ele>
        <time>2018-12-07T08:10:01Z</time>
      </trkpt>
      <trkpt lat="43.8695" lon="4.10104">
        <ele>113.57</ele>
        <time>2018-12-07T08:10:02Z</time>
      </trkpt>
      <trkpt lat="43.86945" lon="4.10101">
        <ele>94.35</ele>
        <time>2018-12-07T08:10:06Z</time>
      </trkpt>
      <trkpt lat="43.86937" lon="4.10108">
        <ele>94.83</ele>
        <time>2018-12-07T08:10:16Z</time>
      </trkpt>
      <trkpt lat="43.86934" lon="4.10112">
        <ele>94.83</ele>
        <time>2018-12-07T08:10:21Z</time>
      </trkpt>
      <trkpt lat="43.86931" lon="4.10117">
        <ele>95.79</ele>
        <time>2018-12-07T08:10:25Z</time>
      </trkpt>
      <trkpt lat="43.8692" lon="4.10128">
        <ele>95.31</ele>
        <time>2018-12-07T08:10:39Z</time>
      </trkpt>
      <trkpt lat="43.86918" lon="4.10129">
        <ele>95.31</ele>
        <time>2018-12-07T08:10:42Z</time>
      </trkpt>
      <trkpt lat="43.86914" lon="4.10136">
        <ele>95.31</ele>
        <time>2018-12-07T08:10:50Z</time>
      </trkpt>
      <trkpt lat="43.86905" lon="4.10152">
        <ele>95.79</ele>
        <time>2018-12-07T08:11:03Z</time>
      </trkpt>
      <trkpt lat="43.86897" lon="4.10168">
        <ele>96.27</ele>
        <time>2018-12-07T08:11:15Z</time>
      </trkpt>
      <trkpt lat="43.8689" lon="4.10183">
        <ele>95.31</ele>
        <time>2018-12-07T08:11:29Z</time>
      </trkpt>
      <trkpt lat="43.8689" lon="4.10184">
        <ele>99.15</ele>
        <time>2018-12-07T08:11:30Z</time>
      </trkpt>
      <trkpt lat="43.86885" lon="4.10192">
        <ele>97.71</ele>
        <time>2018-12-07T08:11:37Z</time>
      </trkpt>
      <trkpt lat="43.86882" lon="4.10198">
        <ele>97.23</ele>
        <time>2018-12-07T08:11:41Z</time>
      </trkpt>
      <trkpt lat="43.86872" lon="4.10214">
        <ele>98.19</ele>
        <time>2018-12-07T08:11:56Z</time>
      </trkpt>
      <trkpt lat="43.86872" lon="4.10215">
        <ele>97.23</ele>
        <time>2018-12-07T08:11:57Z</time>
      </trkpt>
      <trkpt lat="43.8688" lon="4.1023">
        <ele>99.63</ele>
        <time>2018-12-07T08:12:14Z</time>
      </trkpt>
      <trkpt lat="43.86886" lon="4.10233">
        <ele>101.56</ele>
        <time>2018-12-07T08:12:21Z</time>
      </trkpt>
      <trkpt lat="43.86889" lon="4.10239">
        <ele>102.04</ele>
        <time>2018-12-07T08:12:26Z</time>
      </trkpt>
      <trkpt lat="43.86889" lon="4.10248">
        <ele>101.56</ele>
        <time>2018-12-07T08:12:35Z</time>
      </trkpt>
      <trkpt lat="43.86889" lon="4.10253">
        <ele>101.56</ele>
        <time>2018-12-07T08:12:39Z</time>
      </trkpt>
      <trkpt lat="43.8689" lon="4.10282">
        <ele>102.52</ele>
        <time>2018-12-07T08:12:58Z</time>
      </trkpt>
      <trkpt lat="43.86888" lon="4.10288">
        <ele>102.52</ele>
        <time>2018-12-07T08:13:02Z</time>
      </trkpt>
      <trkpt lat="43.86888" lon="4.10303">
        <ele>103</ele>
        <time>2018-12-07T08:13:12Z</time>
      </trkpt>
      <trkpt lat="43.86889" lon="4.1031">
        <ele>103.96</ele>
        <time>2018-12-07T08:13:17Z</time>
      </trkpt>
      <trkpt lat="43.86886" lon="4.10319">
        <ele>98.19</ele>
        <time>2018-12-07T08:13:22Z</time>
      </trkpt>
      <trkpt lat="43.86886" lon="4.1032">
        <ele>116.94</ele>
        <time>2018-12-07T08:13:23Z</time>
      </trkpt>
      <trkpt lat="43.86886" lon="4.10321">
        <ele>104.44</ele>
        <time>2018-12-07T08:13:24Z</time>
      </trkpt>
      <trkpt lat="43.86886" lon="4.10323">
        <ele>103</ele>
        <time>2018-12-07T08:13:26Z</time>
      </trkpt>
      <trkpt lat="43.86884" lon="4.1033">
        <ele>103</ele>
        <time>2018-12-07T08:13:32Z</time>
      </trkpt>
      <trkpt lat="43.86881" lon="4.1035">
        <ele>102.04</ele>
        <time>2018-12-07T08:13:46Z</time>
      </trkpt>
      <trkpt lat="43.86878" lon="4.10362">
        <ele>101.56</ele>
        <time>2018-12-07T08:13:54Z</time>
      </trkpt>
      <trkpt lat="43.86878" lon="4.10369">
        <ele>102.04</ele>
        <time>2018-12-07T08:13:58Z</time>
      </trkpt>
      <trkpt lat="43.86876" lon="4.10389">
        <ele>101.56</ele>
        <time>2018-12-07T08:14:13Z</time>
      </trkpt>
      <trkpt lat="43.86876" lon="4.10395">
        <ele>101.56</ele>
        <time>2018-12-07T08:14:20Z</time>
      </trkpt>
      <trkpt lat="43.86876" lon="4.10409">
        <ele>101.56</ele>
        <time>2018-12-07T08:14:35Z</time>
      </trkpt>
      <trkpt lat="43.86875" lon="4.10429">
        <ele>102.52</ele>
        <time>2018-12-07T08:14:50Z</time>
      </trkpt>
      <trkpt lat="43.86869" lon="4.10439">
        <ele>101.56</ele>
        <time>2018-12-07T08:15:04Z</time>
      </trkpt>
      <trkpt lat="43.86865" lon="4.10461">
        <ele>102.52</ele>
        <time>2018-12-07T08:15:19Z</time>
      </trkpt>
      <trkpt lat="43.86865" lon="4.10473">
        <ele>103</ele>
        <time>2018-12-07T08:15:27Z</time>
      </trkpt>
      <trkpt lat="43.86863" lon="4.10492">
        <ele>103.96</ele>
        <time>2018-12-07T08:15:41Z</time>
      </trkpt>
      <trkpt lat="43.86859" lon="4.10514">
        <ele>105.4</ele>
        <time>2018-12-07T08:15:57Z</time>
      </trkpt>
      <trkpt lat="43.86849" lon="4.1053">
        <ele>104.92</ele>
        <time>2018-12-07T08:16:13Z</time>
      </trkpt>
      <trkpt lat="43.86844" lon="4.10538">
        <ele>104.92</ele>
        <time>2018-12-07T08:16:21Z</time>
      </trkpt>
      <trkpt lat="43.86836" lon="4.10554">
        <ele>104.92</ele>
        <time>2018-12-07T08:16:35Z</time>
      </trkpt>
      <trkpt lat="43.86828" lon="4.10572">
        <ele>105.4</ele>
        <time>2018-12-07T08:16:51Z</time>
      </trkpt>
      <trkpt lat="43.86822" lon="4.10592">
        <ele>106.36</ele>
        <time>2018-12-07T08:17:07Z</time>
      </trkpt>
      <trkpt lat="43.86818" lon="4.10612">
        <ele>107.32</ele>
        <time>2018-12-07T08:17:21Z</time>
      </trkpt>
      <trkpt lat="43.86814" lon="4.10626">
        <ele>106.36</ele>
        <time>2018-12-07T08:17:32Z</time>
      </trkpt>
      <trkpt lat="43.86813" lon="4.1063">
        <ele>107.32</ele>
        <time>2018-12-07T08:17:35Z</time>
      </trkpt>
      <trkpt lat="43.86811" lon="4.10636">
        <ele>107.81</ele>
        <time>2018-12-07T08:17:39Z</time>
      </trkpt>
      <trkpt lat="43.8681" lon="4.10644">
        <ele>107.81</ele>
        <time>2018-12-07T08:17:44Z</time>
      </trkpt>
      <trkpt lat="43.86806" lon="4.10658">
        <ele>108.29</ele>
        <time>2018-12-07T08:17:57Z</time>
      </trkpt>
      <trkpt lat="43.868" lon="4.1067">
        <ele>108.29</ele>
        <time>2018-12-07T08:18:17Z</time>
      </trkpt>
      <trkpt lat="43.86791" lon="4.1068">
        <ele>109.25</ele>
        <time>2018-12-07T08:18:32Z</time>
      </trkpt>
      <trkpt lat="43.86786" lon="4.10693">
        <ele>109.73</ele>
        <time>2018-12-07T08:18:43Z</time>
      </trkpt>
      <trkpt lat="43.86783" lon="4.10699">
        <ele>108.77</ele>
        <time>2018-12-07T08:18:49Z</time>
      </trkpt>
      <trkpt lat="43.86777" lon="4.10704">
        <ele>109.73</ele>
        <time>2018-12-07T08:18:57Z</time>
      </trkpt>
      <trkpt lat="43.86769" lon="4.10709">
        <ele>109.73</ele>
        <time>2018-12-07T08:19:05Z</time>
      </trkpt>
      <trkpt lat="43.86764" lon="4.10708">
        <ele>110.69</ele>
        <time>2018-12-07T08:19:17Z</time>
      </trkpt>
      <trkpt lat="43.86763" lon="4.10709">
        <ele>108.29</ele>
        <time>2018-12-07T08:19:22Z</time>
      </trkpt>
      <trkpt lat="43.86761" lon="4.10713">
        <ele>111.65</ele>
        <time>2018-12-07T08:19:27Z</time>
      </trkpt>
      <trkpt lat="43.86754" lon="4.1073">
        <ele>112.61</ele>
        <time>2018-12-07T08:19:39Z</time>
      </trkpt>
      <trkpt lat="43.86748" lon="4.10734">
        <ele>112.13</ele>
        <time>2018-12-07T08:19:56Z</time>
      </trkpt>
      <trkpt lat="43.86749" lon="4.10735">
        <ele>112.61</ele>
        <time>2018-12-07T08:20:23Z</time>
      </trkpt>
      <trkpt lat="43.86749" lon="4.10732">
        <ele>112.61</ele>
        <time>2018-12-07T08:20:34Z</time>
      </trkpt>
      <trkpt lat="43.86748" lon="4.10732">
        <ele>113.09</ele>
        <time>2018-12-07T08:21:03Z</time>
      </trkpt>
      <trkpt lat="43.86748" lon="4.10733">
        <ele>113.57</ele>
        <time>2018-12-07T08:21:41Z</time>
      </trkpt>
      <trkpt lat="43.86749" lon="4.10735">
        <ele>113.09</ele>
        <time>2018-12-07T08:22:00Z</time>
      </trkpt>
      <trkpt lat="43.86748" lon="4.1074">
        <ele>114.05</ele>
        <time>2018-12-07T08:22:16Z</time>
      </trkpt>
      <trkpt lat="43.86748" lon="4.10739">
        <ele>114.05</ele>
        <time>2018-12-07T08:22:46Z</time>
      </trkpt>
      <trkpt lat="43.86745" lon="4.10749">
        <ele>114.53</ele>
        <time>2018-12-07T08:23:02Z</time>
      </trkpt>
      <trkpt lat="43.86741" lon="4.10755">
        <ele>115.01</ele>
        <time>2018-12-07T08:23:09Z</time>
      </trkpt>
      <trkpt lat="43.86739" lon="4.1076">
        <ele>115.98</ele>
        <time>2018-12-07T08:23:13Z</time>
      </trkpt>
      <trkpt lat="43.86737" lon="4.10764">
        <ele>114.53</ele>
        <time>2018-12-07T08:23:16Z</time>
      </trkpt>
      <trkpt lat="43.86728" lon="4.10773">
        <ele>116.46</ele>
        <time>2018-12-07T08:23:30Z</time>
      </trkpt>
      <trkpt lat="43.8672" lon="4.10781">
        <ele>115.98</ele>
        <time>2018-12-07T08:23:41Z</time>
      </trkpt>
      <trkpt lat="43.86713" lon="4.10786">
        <ele>119.34</ele>
        <time>2018-12-07T08:23:51Z</time>
      </trkpt>
      <trkpt lat="43.86711" lon="4.10787">
        <ele>117.42</ele>
        <time>2018-12-07T08:23:53Z</time>
      </trkpt>
      <trkpt lat="43.86701" lon="4.10797">
        <ele>118.86</ele>
        <time>2018-12-07T08:24:05Z</time>
      </trkpt>
      <trkpt lat="43.86692" lon="4.10809">
        <ele>118.38</ele>
        <time>2018-12-07T08:24:19Z</time>
      </trkpt>
      <trkpt lat="43.8668" lon="4.10814">
        <ele>119.34</ele>
        <time>2018-12-07T08:24:33Z</time>
      </trkpt>
      <trkpt lat="43.86675" lon="4.10819">
        <ele>120.78</ele>
        <time>2018-12-07T08:24:40Z</time>
      </trkpt>
      <trkpt lat="43.86664" lon="4.10827">
        <ele>121.26</ele>
        <time>2018-12-07T08:24:52Z</time>
      </trkpt>
      <trkpt lat="43.86659" lon="4.10829">
        <ele>120.78</ele>
        <time>2018-12-07T08:24:56Z</time>
      </trkpt>
      <trkpt lat="43.86649" lon="4.1084">
        <ele>122.22</ele>
        <time>2018-12-07T08:25:09Z</time>
      </trkpt>
      <trkpt lat="43.86646" lon="4.10843">
        <ele>122.71</ele>
        <time>2018-12-07T08:25:12Z</time>
      </trkpt>
      <trkpt lat="43.86637" lon="4.10852">
        <ele>123.19</ele>
        <time>2018-12-07T08:25:22Z</time>
      </trkpt>
      <trkpt lat="43.86634" lon="4.10854">
        <ele>123.67</ele>
        <time>2018-12-07T08:25:25Z</time>
      </trkpt>
      <trkpt lat="43.86623" lon="4.10864">
        <ele>123.67</ele>
        <time>2018-12-07T08:25:39Z</time>
      </trkpt>
      <trkpt lat="43.86609" lon="4.10877">
        <ele>125.11</ele>
        <time>2018-12-07T08:25:54Z</time>
      </trkpt>
      <trkpt lat="43.86606" lon="4.10879">
        <ele>125.59</ele>
        <time>2018-12-07T08:25:58Z</time>
      </trkpt>
      <trkpt lat="43.86602" lon="4.10885">
        <ele>125.11</ele>
        <time>2018-12-07T08:26:03Z</time>
      </trkpt>
      <trkpt lat="43.86589" lon="4.109">
        <ele>128.47</ele>
        <time>2018-12-07T08:26:18Z</time>
      </trkpt>
      <trkpt lat="43.86588" lon="4.10901">
        <ele>127.99</ele>
        <time>2018-12-07T08:26:19Z</time>
      </trkpt>
      <trkpt lat="43.86587" lon="4.10902">
        <ele>127.03</ele>
        <time>2018-12-07T08:26:21Z</time>
      </trkpt>
      <trkpt lat="43.8658" lon="4.10908">
        <ele>128.47</ele>
        <time>2018-12-07T08:26:28Z</time>
      </trkpt>
      <trkpt lat="43.8657" lon="4.10921">
        <ele>129.92</ele>
        <time>2018-12-07T08:26:41Z</time>
      </trkpt>
      <trkpt lat="43.86568" lon="4.10922">
        <ele>128.95</ele>
        <time>2018-12-07T08:26:43Z</time>
      </trkpt>
      <trkpt lat="43.86567" lon="4.10924">
        <ele>130.4</ele>
        <time>2018-12-07T08:26:45Z</time>
      </trkpt>
      <trkpt lat="43.86566" lon="4.10926">
        <ele>129.43</ele>
        <time>2018-12-07T08:26:46Z</time>
      </trkpt>
      <trkpt lat="43.86562" lon="4.10933">
        <ele>132.32</ele>
        <time>2018-12-07T08:26:52Z</time>
      </trkpt>
      <trkpt lat="43.86556" lon="4.10946">
        <ele>131.36</ele>
        <time>2018-12-07T08:27:03Z</time>
      </trkpt>
      <trkpt lat="43.86555" lon="4.10949">
        <ele>132.8</ele>
        <time>2018-12-07T08:27:05Z</time>
      </trkpt>
      <trkpt lat="43.86553" lon="4.10956">
        <ele>133.28</ele>
        <time>2018-12-07T08:27:10Z</time>
      </trkpt>
      <trkpt lat="43.86546" lon="4.10977">
        <ele>134.72</ele>
        <time>2018-12-07T08:27:25Z</time>
      </trkpt>
      <trkpt lat="43.86545" lon="4.1098">
        <ele>134.24</ele>
        <time>2018-12-07T08:27:27Z</time>
      </trkpt>
      <trkpt lat="43.86534" lon="4.11">
        <ele>137.61</ele>
        <time>2018-12-07T08:27:43Z</time>
      </trkpt>
      <trkpt lat="43.8653" lon="4.11018">
        <ele>138.09</ele>
        <time>2018-12-07T08:27:57Z</time>
      </trkpt>
      <trkpt lat="43.86524" lon="4.11029">
        <ele>138.09</ele>
        <time>2018-12-07T08:28:07Z</time>
      </trkpt>
      <trkpt lat="43.86519" lon="4.11036">
        <ele>143.85</ele>
        <time>2018-12-07T08:28:13Z</time>
      </trkpt>
      <trkpt lat="43.86516" lon="4.11039">
        <ele>140.01</ele>
        <time>2018-12-07T08:28:16Z</time>
      </trkpt>
      <trkpt lat="43.86515" lon="4.1104">
        <ele>143.37</ele>
        <time>2018-12-07T08:28:18Z</time>
      </trkpt>
      <trkpt lat="43.86502" lon="4.11053">
        <ele>141.93</ele>
        <time>2018-12-07T08:28:33Z</time>
      </trkpt>
      <trkpt lat="43.86501" lon="4.11053">
        <ele>147.22</ele>
        <time>2018-12-07T08:28:34Z</time>
      </trkpt>
      <trkpt lat="43.86499" lon="4.11054">
        <ele>144.34</ele>
        <time>2018-12-07T08:28:35Z</time>
      </trkpt>
      <trkpt lat="43.86497" lon="4.11055">
        <ele>145.3</ele>
        <time>2018-12-07T08:28:38Z</time>
      </trkpt>
      <trkpt lat="43.86483" lon="4.11053">
        <ele>145.78</ele>
        <time>2018-12-07T08:28:52Z</time>
      </trkpt>
      <trkpt lat="43.86482" lon="4.11053">
        <ele>145.78</ele>
        <time>2018-12-07T08:28:53Z</time>
      </trkpt>
      <trkpt lat="43.86479" lon="4.11054">
        <ele>145.78</ele>
        <time>2018-12-07T08:28:55Z</time>
      </trkpt>
      <trkpt lat="43.86475" lon="4.11056">
        <ele>146.74</ele>
        <time>2018-12-07T08:29:08Z</time>
      </trkpt>
      <trkpt lat="43.86475" lon="4.11054">
        <ele>147.22</ele>
        <time>2018-12-07T08:29:26Z</time>
      </trkpt>
      <trkpt lat="43.86475" lon="4.11054">
        <ele>147.22</ele>
        <time>2018-12-07T08:29:42Z</time>
      </trkpt>
      <trkpt lat="43.86475" lon="4.11055">
        <ele>147.7</ele>
        <time>2018-12-07T08:30:04Z</time>
      </trkpt>
      <trkpt lat="43.86475" lon="4.11055">
        <ele>147.22</ele>
        <time>2018-12-07T08:30:28Z</time>
      </trkpt>
      <trkpt lat="43.86474" lon="4.11055">
        <ele>143.37</ele>
        <time>2018-12-07T08:30:41Z</time>
      </trkpt>
      <trkpt lat="43.86474" lon="4.11056">
        <ele>154.43</ele>
        <time>2018-12-07T08:30:42Z</time>
      </trkpt>
      <trkpt lat="43.86474" lon="4.11056">
        <ele>148.18</ele>
        <time>2018-12-07T08:30:43Z</time>
      </trkpt>
      <trkpt lat="43.86474" lon="4.11056">
        <ele>147.7</ele>
        <time>2018-12-07T08:30:59Z</time>
      </trkpt>
      <trkpt lat="43.86474" lon="4.11057">
        <ele>147.7</ele>
        <time>2018-12-07T08:31:20Z</time>
      </trkpt>
      <trkpt lat="43.86473" lon="4.11056">
        <ele>147.7</ele>
        <time>2018-12-07T08:31:42Z</time>
      </trkpt>
      <trkpt lat="43.86473" lon="4.11057">
        <ele>148.18</ele>
        <time>2018-12-07T08:32:03Z</time>
      </trkpt>
      <trkpt lat="43.86473" lon="4.11057">
        <ele>148.18</ele>
        <time>2018-12-07T08:32:21Z</time>
      </trkpt>
      <trkpt lat="43.86473" lon="4.11057">
        <ele>148.18</ele>
        <time>2018-12-07T08:32:45Z</time>
      </trkpt>
      <trkpt lat="43.86473" lon="4.11056">
        <ele>148.18</ele>
        <time>2018-12-07T08:33:05Z</time>
      </trkpt>
      <trkpt lat="43.86473" lon="4.11057">
        <ele>148.18</ele>
        <time>2018-12-07T08:33:23Z</time>
      </trkpt>
      <trkpt lat="43.86474" lon="4.11059">
        <ele>148.66</ele>
        <time>2018-12-07T08:33:25Z</time>
      </trkpt>
      <trkpt lat="43.86475" lon="4.11067">
        <ele>147.7</ele>
        <time>2018-12-07T08:33:31Z</time>
      </trkpt>
      <trkpt lat="43.86477" lon="4.11074">
        <ele>149.62</ele>
        <time>2018-12-07T08:33:36Z</time>
      </trkpt>
      <trkpt lat="43.86478" lon="4.11094">
        <ele>151.06</ele>
        <time>2018-12-07T08:33:51Z</time>
      </trkpt>
      <trkpt lat="43.86478" lon="4.11096">
        <ele>151.54</ele>
        <time>2018-12-07T08:33:53Z</time>
      </trkpt>
      <trkpt lat="43.86479" lon="4.11104">
        <ele>150.58</ele>
        <time>2018-12-07T08:33:59Z</time>
      </trkpt>
      <trkpt lat="43.86478" lon="4.11108">
        <ele>152.03</ele>
        <time>2018-12-07T08:34:02Z</time>
      </trkpt>
      <trkpt lat="43.86478" lon="4.11114">
        <ele>153.47</ele>
        <time>2018-12-07T08:34:06Z</time>
      </trkpt>
      <trkpt lat="43.86477" lon="4.11121">
        <ele>152.03</ele>
        <time>2018-12-07T08:34:10Z</time>
      </trkpt>
      <trkpt lat="43.86477" lon="4.11125">
        <ele>153.95</ele>
        <time>2018-12-07T08:34:13Z</time>
      </trkpt>
      <trkpt lat="43.86477" lon="4.11131">
        <ele>154.91</ele>
        <time>2018-12-07T08:34:17Z</time>
      </trkpt>
      <trkpt lat="43.86472" lon="4.11143">
        <ele>155.87</ele>
        <time>2018-12-07T08:34:30Z</time>
      </trkpt>
      <trkpt lat="43.86468" lon="4.11148">
        <ele>156.35</ele>
        <time>2018-12-07T08:34:44Z</time>
      </trkpt>
      <trkpt lat="43.86467" lon="4.11149">
        <ele>156.35</ele>
        <time>2018-12-07T08:35:02Z</time>
      </trkpt>
      <trkpt lat="43.86466" lon="4.1115">
        <ele>156.83</ele>
        <time>2018-12-07T08:35:20Z</time>
      </trkpt>
      <trkpt lat="43.86466" lon="4.11151">
        <ele>156.83</ele>
        <time>2018-12-07T08:35:33Z</time>
      </trkpt>
      <trkpt lat="43.86465" lon="4.11156">
        <ele>157.79</ele>
        <time>2018-12-07T08:35:37Z</time>
      </trkpt>
      <trkpt lat="43.86464" lon="4.11157">
        <ele>157.79</ele>
        <time>2018-12-07T08:35:38Z</time>
      </trkpt>
      <trkpt lat="43.8646" lon="4.11167">
        <ele>158.27</ele>
        <time>2018-12-07T08:35:45Z</time>
      </trkpt>
      <trkpt lat="43.86457" lon="4.11175">
        <ele>157.79</ele>
        <time>2018-12-07T08:35:49Z</time>
      </trkpt>
      <trkpt lat="43.86457" lon="4.11188">
        <ele>159.72</ele>
        <time>2018-12-07T08:35:58Z</time>
      </trkpt>
      <trkpt lat="43.86463" lon="4.11202">
        <ele>159.72</ele>
        <time>2018-12-07T08:36:11Z</time>
      </trkpt>
      <trkpt lat="43.86464" lon="4.11204">
        <ele>162.12</ele>
        <time>2018-12-07T08:36:13Z</time>
      </trkpt>
      <trkpt lat="43.86468" lon="4.11208">
        <ele>161.64</ele>
        <time>2018-12-07T08:36:17Z</time>
      </trkpt>
      <trkpt lat="43.86472" lon="4.11215">
        <ele>162.6</ele>
        <time>2018-12-07T08:36:23Z</time>
      </trkpt>
      <trkpt lat="43.86475" lon="4.11221">
        <ele>162.12</ele>
        <time>2018-12-07T08:36:27Z</time>
      </trkpt>
      <trkpt lat="43.86478" lon="4.1124">
        <ele>163.56</ele>
        <time>2018-12-07T08:36:40Z</time>
      </trkpt>
      <trkpt lat="43.86478" lon="4.1125">
        <ele>165</ele>
        <time>2018-12-07T08:36:46Z</time>
      </trkpt>
      <trkpt lat="43.8648" lon="4.11258">
        <ele>164.04</ele>
        <time>2018-12-07T08:36:53Z</time>
      </trkpt>
      <trkpt lat="43.86489" lon="4.11267">
        <ele>165.48</ele>
        <time>2018-12-07T08:37:04Z</time>
      </trkpt>
      <trkpt lat="43.86491" lon="4.11268">
        <ele>165.96</ele>
        <time>2018-12-07T08:37:07Z</time>
      </trkpt>
      <trkpt lat="43.86495" lon="4.11271">
        <ele>166.45</ele>
        <time>2018-12-07T08:37:11Z</time>
      </trkpt>
      <trkpt lat="43.86502" lon="4.11272">
        <ele>166.45</ele>
        <time>2018-12-07T08:37:18Z</time>
      </trkpt>
      <trkpt lat="43.86506" lon="4.11272">
        <ele>167.89</ele>
        <time>2018-12-07T08:37:22Z</time>
      </trkpt>
      <trkpt lat="43.86515" lon="4.1127">
        <ele>169.33</ele>
        <time>2018-12-07T08:37:30Z</time>
      </trkpt>
      <trkpt lat="43.86522" lon="4.11271">
        <ele>169.33</ele>
        <time>2018-12-07T08:37:36Z</time>
      </trkpt>
      <trkpt lat="43.86526" lon="4.1127">
        <ele>170.29</ele>
        <time>2018-12-07T08:37:40Z</time>
      </trkpt>
      <trkpt lat="43.86527" lon="4.1127">
        <ele>169.81</ele>
        <time>2018-12-07T08:37:41Z</time>
      </trkpt>
      <trkpt lat="43.86544" lon="4.11279">
        <ele>171.25</ele>
        <time>2018-12-07T08:37:55Z</time>
      </trkpt>
      <trkpt lat="43.86556" lon="4.11291">
        <ele>172.21</ele>
        <time>2018-12-07T08:38:09Z</time>
      </trkpt>
      <trkpt lat="43.86563" lon="4.11304">
        <ele>172.21</ele>
        <time>2018-12-07T08:38:21Z</time>
      </trkpt>
      <trkpt lat="43.86568" lon="4.1131">
        <ele>175.58</ele>
        <time>2018-12-07T08:38:27Z</time>
      </trkpt>
      <trkpt lat="43.86577" lon="4.11319">
        <ele>174.62</ele>
        <time>2018-12-07T08:38:38Z</time>
      </trkpt>
      <trkpt lat="43.86581" lon="4.11324">
        <ele>177.02</ele>
        <time>2018-12-07T08:38:43Z</time>
      </trkpt>
      <trkpt lat="43.86583" lon="4.11326">
        <ele>175.58</ele>
        <time>2018-12-07T08:38:45Z</time>
      </trkpt>
      <trkpt lat="43.86594" lon="4.11336">
        <ele>176.06</ele>
        <time>2018-12-07T08:38:57Z</time>
      </trkpt>
      <trkpt lat="43.86596" lon="4.11339">
        <ele>179.9</ele>
        <time>2018-12-07T08:39:01Z</time>
      </trkpt>
      <trkpt lat="43.86599" lon="4.11341">
        <ele>179.42</ele>
        <time>2018-12-07T08:39:16Z</time>
      </trkpt>
      <trkpt lat="43.86603" lon="4.11344">
        <ele>178.46</ele>
        <time>2018-12-07T08:39:21Z</time>
      </trkpt>
      <trkpt lat="43.86604" lon="4.11346">
        <ele>180.38</ele>
        <time>2018-12-07T08:39:23Z</time>
      </trkpt>
      <trkpt lat="43.86612" lon="4.11353">
        <ele>169.33</ele>
        <time>2018-12-07T08:39:32Z</time>
      </trkpt>
      <trkpt lat="43.86613" lon="4.11354">
        <ele>200.09</ele>
        <time>2018-12-07T08:39:33Z</time>
      </trkpt>
      <trkpt lat="43.86614" lon="4.11354">
        <ele>179.9</ele>
        <time>2018-12-07T08:39:34Z</time>
      </trkpt>
      <trkpt lat="43.86617" lon="4.11357">
        <ele>167.89</ele>
        <time>2018-12-07T08:39:37Z</time>
      </trkpt>
      <trkpt lat="43.86618" lon="4.11357">
        <ele>195.77</ele>
        <time>2018-12-07T08:39:38Z</time>
      </trkpt>
      <trkpt lat="43.86619" lon="4.11358">
        <ele>182.31</ele>
        <time>2018-12-07T08:39:39Z</time>
      </trkpt>
      <trkpt lat="43.8662" lon="4.11359">
        <ele>176.06</ele>
        <time>2018-12-07T08:39:40Z</time>
      </trkpt>
      <trkpt lat="43.86621" lon="4.1136">
        <ele>182.31</ele>
        <time>2018-12-07T08:39:41Z</time>
      </trkpt>
      <trkpt lat="43.86623" lon="4.11361">
        <ele>189.04</ele>
        <time>2018-12-07T08:39:43Z</time>
      </trkpt>
      <trkpt lat="43.86623" lon="4.11362">
        <ele>184.23</ele>
        <time>2018-12-07T08:39:44Z</time>
      </trkpt>
      <trkpt lat="43.86625" lon="4.11363">
        <ele>182.79</ele>
        <time>2018-12-07T08:39:46Z</time>
      </trkpt>
      <trkpt lat="43.86635" lon="4.11375">
        <ele>184.23</ele>
        <time>2018-12-07T08:39:59Z</time>
      </trkpt>
      <trkpt lat="43.86636" lon="4.11376">
        <ele>184.71</ele>
        <time>2018-12-07T08:40:01Z</time>
      </trkpt>
      <trkpt lat="43.86633" lon="4.11379">
        <ele>185.67</ele>
        <time>2018-12-07T08:40:11Z</time>
      </trkpt>
      <trkpt lat="43.86645" lon="4.11384">
        <ele>185.19</ele>
        <time>2018-12-07T08:40:22Z</time>
      </trkpt>
      <trkpt lat="43.86656" lon="4.11391">
        <ele>185.19</ele>
        <time>2018-12-07T08:40:33Z</time>
      </trkpt>
      <trkpt lat="43.86667" lon="4.11401">
        <ele>185.19</ele>
        <time>2018-12-07T08:40:46Z</time>
      </trkpt>
      <trkpt lat="43.86681" lon="4.11415">
        <ele>185.67</ele>
        <time>2018-12-07T08:41:02Z</time>
      </trkpt>
      <trkpt lat="43.86689" lon="4.11427">
        <ele>187.11</ele>
        <time>2018-12-07T08:41:13Z</time>
      </trkpt>
      <trkpt lat="43.86698" lon="4.11442">
        <ele>188.08</ele>
        <time>2018-12-07T08:41:27Z</time>
      </trkpt>
      <trkpt lat="43.86707" lon="4.11454">
        <ele>188.56</ele>
        <time>2018-12-07T08:41:38Z</time>
      </trkpt>
      <trkpt lat="43.8672" lon="4.11461">
        <ele>190.48</ele>
        <time>2018-12-07T08:41:52Z</time>
      </trkpt>
      <trkpt lat="43.86721" lon="4.11462">
        <ele>189.04</ele>
        <time>2018-12-07T08:41:54Z</time>
      </trkpt>
      <trkpt lat="43.86724" lon="4.11461">
        <ele>190.96</ele>
        <time>2018-12-07T08:41:57Z</time>
      </trkpt>
      <trkpt lat="43.86724" lon="4.11461">
        <ele>190.96</ele>
        <time>2018-12-07T08:41:58Z</time>
      </trkpt>
      <trkpt lat="43.86731" lon="4.11462">
        <ele>191.92</ele>
        <time>2018-12-07T08:42:04Z</time>
      </trkpt>
      <trkpt lat="43.86733" lon="4.11462">
        <ele>191.44</ele>
        <time>2018-12-07T08:42:07Z</time>
      </trkpt>
      <trkpt lat="43.86737" lon="4.11464">
        <ele>192.88</ele>
        <time>2018-12-07T08:42:11Z</time>
      </trkpt>
      <trkpt lat="43.86752" lon="4.11468">
        <ele>193.84</ele>
        <time>2018-12-07T08:42:25Z</time>
      </trkpt>
      <trkpt lat="43.86759" lon="4.11471">
        <ele>196.25</ele>
        <time>2018-12-07T08:42:33Z</time>
      </trkpt>
      <trkpt lat="43.86762" lon="4.11472">
        <ele>195.28</ele>
        <time>2018-12-07T08:42:36Z</time>
      </trkpt>
      <trkpt lat="43.86766" lon="4.11474">
        <ele>195.77</ele>
        <time>2018-12-07T08:42:41Z</time>
      </trkpt>
      <trkpt lat="43.86772" lon="4.11477">
        <ele>195.77</ele>
        <time>2018-12-07T08:42:47Z</time>
      </trkpt>
      <trkpt lat="43.86785" lon="4.11484">
        <ele>196.73</ele>
        <time>2018-12-07T08:42:59Z</time>
      </trkpt>
      <trkpt lat="43.86793" lon="4.11493">
        <ele>199.61</ele>
        <time>2018-12-07T08:43:09Z</time>
      </trkpt>
      <trkpt lat="43.86801" lon="4.11505">
        <ele>199.13</ele>
        <time>2018-12-07T08:43:21Z</time>
      </trkpt>
      <trkpt lat="43.86807" lon="4.11517">
        <ele>187.59</ele>
        <time>2018-12-07T08:43:31Z</time>
      </trkpt>
      <trkpt lat="43.86808" lon="4.11518">
        <ele>198.17</ele>
        <time>2018-12-07T08:43:32Z</time>
      </trkpt>
      <trkpt lat="43.86809" lon="4.11519">
        <ele>205.38</ele>
        <time>2018-12-07T08:43:33Z</time>
      </trkpt>
      <trkpt lat="43.8681" lon="4.1152">
        <ele>199.61</ele>
        <time>2018-12-07T08:43:34Z</time>
      </trkpt>
      <trkpt lat="43.86816" lon="4.11529">
        <ele>199.13</ele>
        <time>2018-12-07T08:43:43Z</time>
      </trkpt>
      <trkpt lat="43.86819" lon="4.11531">
        <ele>199.61</ele>
        <time>2018-12-07T08:43:46Z</time>
      </trkpt>
      <trkpt lat="43.86822" lon="4.11533">
        <ele>199.13</ele>
        <time>2018-12-07T08:43:48Z</time>
      </trkpt>
      <trkpt lat="43.86825" lon="4.11536">
        <ele>200.09</ele>
        <time>2018-12-07T08:43:52Z</time>
      </trkpt>
      <trkpt lat="43.86839" lon="4.11544">
        <ele>200.09</ele>
        <time>2018-12-07T08:44:05Z</time>
      </trkpt>
      <trkpt lat="43.86852" lon="4.11553">
        <ele>202.01</ele>
        <time>2018-12-07T08:44:18Z</time>
      </trkpt>
      <trkpt lat="43.86861" lon="4.11561">
        <ele>202.98</ele>
        <time>2018-12-07T08:44:31Z</time>
      </trkpt>
      <trkpt lat="43.86869" lon="4.11568">
        <ele>203.46</ele>
        <time>2018-12-07T08:44:43Z</time>
      </trkpt>
      <trkpt lat="43.86878" lon="4.11583">
        <ele>205.86</ele>
        <time>2018-12-07T08:44:57Z</time>
      </trkpt>
      <trkpt lat="43.86888" lon="4.11598">
        <ele>205.86</ele>
        <time>2018-12-07T08:45:10Z</time>
      </trkpt>
      <trkpt lat="43.86889" lon="4.11599">
        <ele>205.86</ele>
        <time>2018-12-07T08:45:12Z</time>
      </trkpt>
      <trkpt lat="43.86901" lon="4.11618">
        <ele>205.38</ele>
        <time>2018-12-07T08:45:29Z</time>
      </trkpt>
      <trkpt lat="43.86903" lon="4.1162">
        <ele>205.38</ele>
        <time>2018-12-07T08:45:31Z</time>
      </trkpt>
      <trkpt lat="43.86907" lon="4.11623">
        <ele>205.38</ele>
        <time>2018-12-07T08:45:35Z</time>
      </trkpt>
      <trkpt lat="43.86917" lon="4.11638">
        <ele>204.42</ele>
        <time>2018-12-07T08:45:49Z</time>
      </trkpt>
      <trkpt lat="43.86919" lon="4.11641">
        <ele>204.9</ele>
        <time>2018-12-07T08:45:52Z</time>
      </trkpt>
      <trkpt lat="43.86932" lon="4.11657">
        <ele>203.94</ele>
        <time>2018-12-07T08:46:07Z</time>
      </trkpt>
      <trkpt lat="43.86937" lon="4.11665">
        <ele>203.46</ele>
        <time>2018-12-07T08:46:14Z</time>
      </trkpt>
      <trkpt lat="43.86939" lon="4.11668">
        <ele>203.46</ele>
        <time>2018-12-07T08:46:17Z</time>
      </trkpt>
      <trkpt lat="43.8695" lon="4.11685">
        <ele>202.98</ele>
        <time>2018-12-07T08:46:31Z</time>
      </trkpt>
      <trkpt lat="43.86952" lon="4.11687">
        <ele>202.01</ele>
        <time>2018-12-07T08:46:34Z</time>
      </trkpt>
      <trkpt lat="43.86955" lon="4.11692">
        <ele>192.88</ele>
        <time>2018-12-07T08:46:37Z</time>
      </trkpt>
      <trkpt lat="43.86955" lon="4.11693">
        <ele>201.05</ele>
        <time>2018-12-07T08:46:38Z</time>
      </trkpt>
      <trkpt lat="43.86956" lon="4.11694">
        <ele>207.3</ele>
        <time>2018-12-07T08:46:39Z</time>
      </trkpt>
      <trkpt lat="43.86956" lon="4.11695">
        <ele>202.49</ele>
        <time>2018-12-07T08:46:40Z</time>
      </trkpt>
      <trkpt lat="43.86959" lon="4.117">
        <ele>202.01</ele>
        <time>2018-12-07T08:46:45Z</time>
      </trkpt>
      <trkpt lat="43.86962" lon="4.11708">
        <ele>201.05</ele>
        <time>2018-12-07T08:46:50Z</time>
      </trkpt>
      <trkpt lat="43.86974" lon="4.11728">
        <ele>200.57</ele>
        <time>2018-12-07T08:47:06Z</time>
      </trkpt>
      <trkpt lat="43.86983" lon="4.11742">
        <ele>200.57</ele>
        <time>2018-12-07T08:47:20Z</time>
      </trkpt>
      <trkpt lat="43.86985" lon="4.11752">
        <ele>201.05</ele>
        <time>2018-12-07T08:47:26Z</time>
      </trkpt>
      <trkpt lat="43.86992" lon="4.11767">
        <ele>203.46</ele>
        <time>2018-12-07T08:47:39Z</time>
      </trkpt>
      <trkpt lat="43.86995" lon="4.11776">
        <ele>202.98</ele>
        <time>2018-12-07T08:47:45Z</time>
      </trkpt>
      <trkpt lat="43.87" lon="4.11795">
        <ele>202.01</ele>
        <time>2018-12-07T08:47:58Z</time>
      </trkpt>
      <trkpt lat="43.87002" lon="4.11811">
        <ele>202.49</ele>
        <time>2018-12-07T08:48:08Z</time>
      </trkpt>
      <trkpt lat="43.87004" lon="4.11814">
        <ele>197.21</ele>
        <time>2018-12-07T08:48:12Z</time>
      </trkpt>
      <trkpt lat="43.87004" lon="4.11815">
        <ele>214.99</ele>
        <time>2018-12-07T08:48:13Z</time>
      </trkpt>
      <trkpt lat="43.87004" lon="4.11816">
        <ele>202.01</ele>
        <time>2018-12-07T08:48:14Z</time>
      </trkpt>
      <trkpt lat="43.87005" lon="4.11822">
        <ele>200.09</ele>
        <time>2018-12-07T08:48:19Z</time>
      </trkpt>
      <trkpt lat="43.87006" lon="4.11827">
        <ele>200.09</ele>
        <time>2018-12-07T08:48:22Z</time>
      </trkpt>
      <trkpt lat="43.87009" lon="4.11841">
        <ele>198.65</ele>
        <time>2018-12-07T08:48:32Z</time>
      </trkpt>
      <trkpt lat="43.8701" lon="4.11853">
        <ele>197.21</ele>
        <time>2018-12-07T08:48:41Z</time>
      </trkpt>
      <trkpt lat="43.87011" lon="4.1186">
        <ele>197.21</ele>
        <time>2018-12-07T08:48:45Z</time>
      </trkpt>
      <trkpt lat="43.87015" lon="4.11876">
        <ele>195.77</ele>
        <time>2018-12-07T08:48:57Z</time>
      </trkpt>
      <trkpt lat="43.87015" lon="4.1188">
        <ele>195.28</ele>
        <time>2018-12-07T08:49:00Z</time>
      </trkpt>
      <trkpt lat="43.87018" lon="4.11892">
        <ele>193.84</ele>
        <time>2018-12-07T08:49:09Z</time>
      </trkpt>
      <trkpt lat="43.87021" lon="4.11896">
        <ele>194.32</ele>
        <time>2018-12-07T08:49:12Z</time>
      </trkpt>
      <trkpt lat="43.87023" lon="4.11903">
        <ele>193.84</ele>
        <time>2018-12-07T08:49:17Z</time>
      </trkpt>
      <trkpt lat="43.87025" lon="4.1191">
        <ele>192.88</ele>
        <time>2018-12-07T08:49:22Z</time>
      </trkpt>
      <trkpt lat="43.87032" lon="4.11929">
        <ele>191.92</ele>
        <time>2018-12-07T08:49:36Z</time>
      </trkpt>
      <trkpt lat="43.87034" lon="4.11937">
        <ele>190.96</ele>
        <time>2018-12-07T08:49:43Z</time>
      </trkpt>
      <trkpt lat="43.87044" lon="4.11957">
        <ele>190.48</ele>
        <time>2018-12-07T08:49:59Z</time>
      </trkpt>
      <trkpt lat="43.87046" lon="4.11962">
        <ele>190</ele>
        <time>2018-12-07T08:50:03Z</time>
      </trkpt>
      <trkpt lat="43.87052" lon="4.11973">
        <ele>190.48</ele>
        <time>2018-12-07T08:50:13Z</time>
      </trkpt>
      <trkpt lat="43.87055" lon="4.11979">
        <ele>190.96</ele>
        <time>2018-12-07T08:50:17Z</time>
      </trkpt>
      <trkpt lat="43.87056" lon="4.11981">
        <ele>190.96</ele>
        <time>2018-12-07T08:50:19Z</time>
      </trkpt>
      <trkpt lat="43.87076" lon="4.12003">
        <ele>190.96</ele>
        <time>2018-12-07T08:50:40Z</time>
      </trkpt>
      <trkpt lat="43.87086" lon="4.12009">
        <ele>190.48</ele>
        <time>2018-12-07T08:50:52Z</time>
      </trkpt>
      <trkpt lat="43.87091" lon="4.12012">
        <ele>190</ele>
        <time>2018-12-07T08:50:56Z</time>
      </trkpt>
      <trkpt lat="43.8711" lon="4.12013">
        <ele>190</ele>
        <time>2018-12-07T08:51:13Z</time>
      </trkpt>
      <trkpt lat="43.87126" lon="4.12011">
        <ele>190</ele>
        <time>2018-12-07T08:51:27Z</time>
      </trkpt>
      <trkpt lat="43.87144" lon="4.12009">
        <ele>191.44</ele>
        <time>2018-12-07T08:51:42Z</time>
      </trkpt>
      <trkpt lat="43.87157" lon="4.12007">
        <ele>192.4</ele>
        <time>2018-12-07T08:51:56Z</time>
      </trkpt>
      <trkpt lat="43.87159" lon="4.12007">
        <ele>191.44</ele>
        <time>2018-12-07T08:51:58Z</time>
      </trkpt>
      <trkpt lat="43.87164" lon="4.12008">
        <ele>191.44</ele>
        <time>2018-12-07T08:52:02Z</time>
      </trkpt>
      <trkpt lat="43.87182" lon="4.12009">
        <ele>191.92</ele>
        <time>2018-12-07T08:52:18Z</time>
      </trkpt>
      <trkpt lat="43.87199" lon="4.12009">
        <ele>193.84</ele>
        <time>2018-12-07T08:52:33Z</time>
      </trkpt>
      <trkpt lat="43.87207" lon="4.12009">
        <ele>194.8</ele>
        <time>2018-12-07T08:52:41Z</time>
      </trkpt>
      <trkpt lat="43.87229" lon="4.12004">
        <ele>195.28</ele>
        <time>2018-12-07T08:52:59Z</time>
      </trkpt>
      <trkpt lat="43.87243" lon="4.11998">
        <ele>197.69</ele>
        <time>2018-12-07T08:53:14Z</time>
      </trkpt>
      <trkpt lat="43.87259" lon="4.11996">
        <ele>197.69</ele>
        <time>2018-12-07T08:53:29Z</time>
      </trkpt>
      <trkpt lat="43.87261" lon="4.11997">
        <ele>181.83</ele>
        <time>2018-12-07T08:53:31Z</time>
      </trkpt>
      <trkpt lat="43.87263" lon="4.11997">
        <ele>202.49</ele>
        <time>2018-12-07T08:53:32Z</time>
      </trkpt>
      <trkpt lat="43.87263" lon="4.11997">
        <ele>198.17</ele>
        <time>2018-12-07T08:53:33Z</time>
      </trkpt>
      <trkpt lat="43.87268" lon="4.11996">
        <ele>197.21</ele>
        <time>2018-12-07T08:53:38Z</time>
      </trkpt>
      <trkpt lat="43.8729" lon="4.11992">
        <ele>197.21</ele>
        <time>2018-12-07T08:53:57Z</time>
      </trkpt>
      <trkpt lat="43.87297" lon="4.11989">
        <ele>196.73</ele>
        <time>2018-12-07T08:54:04Z</time>
      </trkpt>
      <trkpt lat="43.8731" lon="4.11983">
        <ele>197.21</ele>
        <time>2018-12-07T08:54:16Z</time>
      </trkpt>
      <trkpt lat="43.87321" lon="4.1198">
        <ele>196.25</ele>
        <time>2018-12-07T08:54:25Z</time>
      </trkpt>
      <trkpt lat="43.87343" lon="4.11979">
        <ele>195.77</ele>
        <time>2018-12-07T08:54:43Z</time>
      </trkpt>
      <trkpt lat="43.87362" lon="4.11978">
        <ele>196.25</ele>
        <time>2018-12-07T08:55:00Z</time>
      </trkpt>
      <trkpt lat="43.87381" lon="4.11977">
        <ele>195.77</ele>
        <time>2018-12-07T08:55:16Z</time>
      </trkpt>
      <trkpt lat="43.87401" lon="4.11972">
        <ele>195.28</ele>
        <time>2018-12-07T08:55:34Z</time>
      </trkpt>
      <trkpt lat="43.87404" lon="4.1197">
        <ele>194.8</ele>
        <time>2018-12-07T08:55:37Z</time>
      </trkpt>
      <trkpt lat="43.87418" lon="4.11956">
        <ele>194.32</ele>
        <time>2018-12-07T08:55:53Z</time>
      </trkpt>
      <trkpt lat="43.87436" lon="4.11947">
        <ele>194.8</ele>
        <time>2018-12-07T08:56:09Z</time>
      </trkpt>
      <trkpt lat="43.87454" lon="4.11949">
        <ele>193.36</ele>
        <time>2018-12-07T08:56:26Z</time>
      </trkpt>
      <trkpt lat="43.87471" lon="4.11956">
        <ele>193.36</ele>
        <time>2018-12-07T08:56:42Z</time>
      </trkpt>
      <trkpt lat="43.87493" lon="4.11956">
        <ele>191.44</ele>
        <time>2018-12-07T08:57:01Z</time>
      </trkpt>
      <trkpt lat="43.87513" lon="4.11961">
        <ele>191.44</ele>
        <time>2018-12-07T08:57:19Z</time>
      </trkpt>
      <trkpt lat="43.87515" lon="4.11961">
        <ele>193.36</ele>
        <time>2018-12-07T08:57:21Z</time>
      </trkpt>
      <trkpt lat="43.87517" lon="4.11962">
        <ele>191.44</ele>
        <time>2018-12-07T08:57:23Z</time>
      </trkpt>
      <trkpt lat="43.87524" lon="4.11966">
        <ele>193.84</ele>
        <time>2018-12-07T08:57:30Z</time>
      </trkpt>
      <trkpt lat="43.87538" lon="4.11973">
        <ele>194.8</ele>
        <time>2018-12-07T08:57:44Z</time>
      </trkpt>
      <trkpt lat="43.87544" lon="4.11977">
        <ele>195.28</ele>
        <time>2018-12-07T08:57:50Z</time>
      </trkpt>
      <trkpt lat="43.87545" lon="4.11977">
        <ele>194.8</ele>
        <time>2018-12-07T08:57:51Z</time>
      </trkpt>
      <trkpt lat="43.87549" lon="4.11979">
        <ele>187.11</ele>
        <time>2018-12-07T08:57:54Z</time>
      </trkpt>
      <trkpt lat="43.8755" lon="4.1198">
        <ele>208.74</ele>
        <time>2018-12-07T08:57:55Z</time>
      </trkpt>
      <trkpt lat="43.87551" lon="4.11981">
        <ele>196.73</ele>
        <time>2018-12-07T08:57:56Z</time>
      </trkpt>
      <trkpt lat="43.87563" lon="4.11989">
        <ele>195.77</ele>
        <time>2018-12-07T08:58:09Z</time>
      </trkpt>
      <trkpt lat="43.87576" lon="4.11994">
        <ele>195.77</ele>
        <time>2018-12-07T08:58:21Z</time>
      </trkpt>
      <trkpt lat="43.87576" lon="4.11994">
        <ele>195.77</ele>
        <time>2018-12-07T08:58:22Z</time>
      </trkpt>
      <trkpt lat="43.87585" lon="4.11996">
        <ele>196.25</ele>
        <time>2018-12-07T08:58:29Z</time>
      </trkpt>
      <trkpt lat="43.8759" lon="4.11999">
        <ele>196.25</ele>
        <time>2018-12-07T08:58:34Z</time>
      </trkpt>
      <trkpt lat="43.876" lon="4.11999">
        <ele>195.77</ele>
        <time>2018-12-07T08:58:43Z</time>
      </trkpt>
      <trkpt lat="43.87603" lon="4.12">
        <ele>196.25</ele>
        <time>2018-12-07T08:58:46Z</time>
      </trkpt>
      <trkpt lat="43.8761" lon="4.12">
        <ele>195.77</ele>
        <time>2018-12-07T08:58:53Z</time>
      </trkpt>
      <trkpt lat="43.87613" lon="4.12">
        <ele>195.77</ele>
        <time>2018-12-07T08:58:55Z</time>
      </trkpt>
      <trkpt lat="43.87625" lon="4.12">
        <ele>195.77</ele>
        <time>2018-12-07T08:59:06Z</time>
      </trkpt>
      <trkpt lat="43.87633" lon="4.12">
        <ele>195.77</ele>
        <time>2018-12-07T08:59:13Z</time>
      </trkpt>
      <trkpt lat="43.87645" lon="4.12002">
        <ele>195.77</ele>
        <time>2018-12-07T08:59:23Z</time>
      </trkpt>
      <trkpt lat="43.87648" lon="4.12002">
        <ele>195.28</ele>
        <time>2018-12-07T08:59:26Z</time>
      </trkpt>
      <trkpt lat="43.87655" lon="4.12003">
        <ele>195.77</ele>
        <time>2018-12-07T08:59:33Z</time>
      </trkpt>
      <trkpt lat="43.87671" lon="4.12003">
        <ele>195.77</ele>
        <time>2018-12-07T08:59:45Z</time>
      </trkpt>
      <trkpt lat="43.87682" lon="4.12">
        <ele>196.73</ele>
        <time>2018-12-07T08:59:56Z</time>
      </trkpt>
      <trkpt lat="43.87698" lon="4.11993">
        <ele>195.28</ele>
        <time>2018-12-07T09:00:08Z</time>
      </trkpt>
      <trkpt lat="43.87709" lon="4.11988">
        <ele>195.77</ele>
        <time>2018-12-07T09:00:19Z</time>
      </trkpt>
      <trkpt lat="43.87715" lon="4.11988">
        <ele>195.77</ele>
        <time>2018-12-07T09:00:26Z</time>
      </trkpt>
      <trkpt lat="43.87721" lon="4.1199">
        <ele>196.73</ele>
        <time>2018-12-07T09:00:30Z</time>
      </trkpt>
      <trkpt lat="43.87732" lon="4.11989">
        <ele>196.73</ele>
        <time>2018-12-07T09:00:42Z</time>
      </trkpt>
      <trkpt lat="43.8775" lon="4.11988">
        <ele>197.69</ele>
        <time>2018-12-07T09:00:56Z</time>
      </trkpt>
      <trkpt lat="43.87761" lon="4.11991">
        <ele>199.13</ele>
        <time>2018-12-07T09:01:07Z</time>
      </trkpt>
      <trkpt lat="43.87771" lon="4.11996">
        <ele>199.61</ele>
        <time>2018-12-07T09:01:18Z</time>
      </trkpt>
      <trkpt lat="43.87779" lon="4.12">
        <ele>200.09</ele>
        <time>2018-12-07T09:01:25Z</time>
      </trkpt>
      <trkpt lat="43.87784" lon="4.12003">
        <ele>200.57</ele>
        <time>2018-12-07T09:01:32Z</time>
      </trkpt>
      <trkpt lat="43.87787" lon="4.12004">
        <ele>201.53</ele>
        <time>2018-12-07T09:01:35Z</time>
      </trkpt>
      <trkpt lat="43.878" lon="4.12009">
        <ele>202.98</ele>
        <time>2018-12-07T09:01:46Z</time>
      </trkpt>
      <trkpt lat="43.87817" lon="4.12011">
        <ele>203.94</ele>
        <time>2018-12-07T09:01:59Z</time>
      </trkpt>
      <trkpt lat="43.87832" lon="4.1201">
        <ele>206.82</ele>
        <time>2018-12-07T09:02:11Z</time>
      </trkpt>
      <trkpt lat="43.87834" lon="4.1201">
        <ele>206.82</ele>
        <time>2018-12-07T09:02:12Z</time>
      </trkpt>
      <trkpt lat="43.87851" lon="4.12014">
        <ele>207.3</ele>
        <time>2018-12-07T09:02:26Z</time>
      </trkpt>
      <trkpt lat="43.87864" lon="4.12018">
        <ele>209.7</ele>
        <time>2018-12-07T09:02:39Z</time>
      </trkpt>
      <trkpt lat="43.87869" lon="4.12019">
        <ele>209.22</ele>
        <time>2018-12-07T09:02:51Z</time>
      </trkpt>
      <trkpt lat="43.87869" lon="4.12019">
        <ele>209.22</ele>
        <time>2018-12-07T09:03:18Z</time>
      </trkpt>
      <trkpt lat="43.87869" lon="4.12019">
        <ele>209.7</ele>
        <time>2018-12-07T09:03:58Z</time>
      </trkpt>
      <trkpt lat="43.87869" lon="4.1202">
        <ele>209.7</ele>
        <time>2018-12-07T09:04:28Z</time>
      </trkpt>
      <trkpt lat="43.87869" lon="4.1202">
        <ele>209.7</ele>
        <time>2018-12-07T09:04:48Z</time>
      </trkpt>
      <trkpt lat="43.87869" lon="4.1202">
        <ele>209.7</ele>
        <time>2018-12-07T09:05:13Z</time>
      </trkpt>
      <trkpt lat="43.87869" lon="4.12021">
        <ele>209.7</ele>
        <time>2018-12-07T09:05:38Z</time>
      </trkpt>
      <trkpt lat="43.87869" lon="4.1202">
        <ele>209.7</ele>
        <time>2018-12-07T09:06:08Z</time>
      </trkpt>
      <trkpt lat="43.87869" lon="4.1202">
        <ele>208.26</ele>
        <time>2018-12-07T09:06:22Z</time>
      </trkpt>
      <trkpt lat="43.87869" lon="4.1202">
        <ele>211.63</ele>
        <time>2018-12-07T09:06:23Z</time>
      </trkpt>
      <trkpt lat="43.87869" lon="4.1202">
        <ele>210.19</ele>
        <time>2018-12-07T09:06:29Z</time>
      </trkpt>
      <trkpt lat="43.87868" lon="4.1202">
        <ele>211.15</ele>
        <time>2018-12-07T09:06:44Z</time>
      </trkpt>
      <trkpt lat="43.87869" lon="4.1202">
        <ele>210.19</ele>
        <time>2018-12-07T09:07:12Z</time>
      </trkpt>
      <trkpt lat="43.87868" lon="4.1202">
        <ele>210.19</ele>
        <time>2018-12-07T09:07:28Z</time>
      </trkpt>
      <trkpt lat="43.87868" lon="4.12019">
        <ele>210.67</ele>
        <time>2018-12-07T09:08:01Z</time>
      </trkpt>
      <trkpt lat="43.87868" lon="4.12019">
        <ele>210.67</ele>
        <time>2018-12-07T09:08:24Z</time>
      </trkpt>
      <trkpt lat="43.87868" lon="4.12019">
        <ele>211.15</ele>
        <time>2018-12-07T09:08:50Z</time>
      </trkpt>
      <trkpt lat="43.87868" lon="4.12019">
        <ele>211.15</ele>
        <time>2018-12-07T09:09:15Z</time>
      </trkpt>
      <trkpt lat="43.87868" lon="4.12019">
        <ele>211.15</ele>
        <time>2018-12-07T09:09:42Z</time>
      </trkpt>
      <trkpt lat="43.87868" lon="4.12019">
        <ele>211.63</ele>
        <time>2018-12-07T09:10:01Z</time>
      </trkpt>
      <trkpt lat="43.87868" lon="4.12017">
        <ele>209.7</ele>
        <time>2018-12-07T09:10:08Z</time>
      </trkpt>
      <trkpt lat="43.87868" lon="4.12017">
        <ele>214.03</ele>
        <time>2018-12-07T09:10:09Z</time>
      </trkpt>
      <trkpt lat="43.87868" lon="4.12017">
        <ele>212.59</ele>
        <time>2018-12-07T09:10:10Z</time>
      </trkpt>
      <trkpt lat="43.87868" lon="4.12019">
        <ele>211.63</ele>
        <time>2018-12-07T09:10:12Z</time>
      </trkpt>
      <trkpt lat="43.87869" lon="4.12019">
        <ele>211.63</ele>
        <time>2018-12-07T09:10:32Z</time>
      </trkpt>
      <trkpt lat="43.87868" lon="4.12019">
        <ele>211.63</ele>
        <time>2018-12-07T09:10:58Z</time>
      </trkpt>
      <trkpt lat="43.87869" lon="4.12019">
        <ele>211.63</ele>
        <time>2018-12-07T09:11:24Z</time>
      </trkpt>
      <trkpt lat="43.8787" lon="4.12021">
        <ele>212.11</ele>
        <time>2018-12-07T09:11:40Z</time>
      </trkpt>
      <trkpt lat="43.87877" lon="4.12025">
        <ele>213.07</ele>
        <time>2018-12-07T09:11:51Z</time>
      </trkpt>
      <trkpt lat="43.87884" lon="4.12029">
        <ele>212.59</ele>
        <time>2018-12-07T09:12:00Z</time>
      </trkpt>
      <trkpt lat="43.87896" lon="4.12037">
        <ele>214.99</ele>
        <time>2018-12-07T09:12:11Z</time>
      </trkpt>
      <trkpt lat="43.87908" lon="4.12044">
        <ele>216.91</ele>
        <time>2018-12-07T09:12:24Z</time>
      </trkpt>
      <trkpt lat="43.87912" lon="4.12044">
        <ele>214.03</ele>
        <time>2018-12-07T09:12:27Z</time>
      </trkpt>
      <trkpt lat="43.87916" lon="4.12047">
        <ele>212.59</ele>
        <time>2018-12-07T09:12:31Z</time>
      </trkpt>
      <trkpt lat="43.87918" lon="4.12048">
        <ele>217.88</ele>
        <time>2018-12-07T09:12:32Z</time>
      </trkpt>
      <trkpt lat="43.87919" lon="4.12048">
        <ele>216.43</ele>
        <time>2018-12-07T09:12:33Z</time>
      </trkpt>
      <trkpt lat="43.87928" lon="4.12057">
        <ele>219.8</ele>
        <time>2018-12-07T09:12:44Z</time>
      </trkpt>
      <trkpt lat="43.8793" lon="4.12058">
        <ele>216.43</ele>
        <time>2018-12-07T09:12:45Z</time>
      </trkpt>
      <trkpt lat="43.87936" lon="4.12062">
        <ele>220.28</ele>
        <time>2018-12-07T09:12:51Z</time>
      </trkpt>
      <trkpt lat="43.87936" lon="4.12063">
        <ele>215.95</ele>
        <time>2018-12-07T09:12:52Z</time>
      </trkpt>
      <trkpt lat="43.8794" lon="4.12069">
        <ele>220.76</ele>
        <time>2018-12-07T09:12:57Z</time>
      </trkpt>
      <trkpt lat="43.87942" lon="4.1207">
        <ele>217.4</ele>
        <time>2018-12-07T09:12:59Z</time>
      </trkpt>
      <trkpt lat="43.87949" lon="4.12077">
        <ele>222.2</ele>
        <time>2018-12-07T09:13:08Z</time>
      </trkpt>
      <trkpt lat="43.8795" lon="4.12077">
        <ele>218.36</ele>
        <time>2018-12-07T09:13:09Z</time>
      </trkpt>
      <trkpt lat="43.87957" lon="4.12086">
        <ele>221.72</ele>
        <time>2018-12-07T09:13:18Z</time>
      </trkpt>
      <trkpt lat="43.87958" lon="4.12088">
        <ele>217.4</ele>
        <time>2018-12-07T09:13:20Z</time>
      </trkpt>
      <trkpt lat="43.87959" lon="4.12089">
        <ele>221.72</ele>
        <time>2018-12-07T09:13:21Z</time>
      </trkpt>
      <trkpt lat="43.87968" lon="4.12095">
        <ele>221.24</ele>
        <time>2018-12-07T09:13:30Z</time>
      </trkpt>
      <trkpt lat="43.87972" lon="4.12098">
        <ele>222.2</ele>
        <time>2018-12-07T09:13:34Z</time>
      </trkpt>
      <trkpt lat="43.87988" lon="4.1211">
        <ele>223.16</ele>
        <time>2018-12-07T09:13:51Z</time>
      </trkpt>
      <trkpt lat="43.87994" lon="4.12114">
        <ele>224.61</ele>
        <time>2018-12-07T09:13:58Z</time>
      </trkpt>
      <trkpt lat="43.87996" lon="4.12115">
        <ele>224.12</ele>
        <time>2018-12-07T09:14:00Z</time>
      </trkpt>
      <trkpt lat="43.88005" lon="4.12121">
        <ele>227.49</ele>
        <time>2018-12-07T09:14:07Z</time>
      </trkpt>
      <trkpt lat="43.88006" lon="4.12121">
        <ele>223.64</ele>
        <time>2018-12-07T09:14:08Z</time>
      </trkpt>
      <trkpt lat="43.88009" lon="4.12123">
        <ele>227.01</ele>
        <time>2018-12-07T09:14:10Z</time>
      </trkpt>
      <trkpt lat="43.8801" lon="4.12124">
        <ele>225.09</ele>
        <time>2018-12-07T09:14:11Z</time>
      </trkpt>
      <trkpt lat="43.88012" lon="4.12126">
        <ele>224.12</ele>
        <time>2018-12-07T09:14:13Z</time>
      </trkpt>
      <trkpt lat="43.88012" lon="4.12127">
        <ele>227.97</ele>
        <time>2018-12-07T09:14:14Z</time>
      </trkpt>
      <trkpt lat="43.88013" lon="4.12128">
        <ele>226.05</ele>
        <time>2018-12-07T09:14:15Z</time>
      </trkpt>
      <trkpt lat="43.88016" lon="4.12132">
        <ele>228.93</ele>
        <time>2018-12-07T09:14:19Z</time>
      </trkpt>
      <trkpt lat="43.88016" lon="4.12133">
        <ele>225.57</ele>
        <time>2018-12-07T09:14:20Z</time>
      </trkpt>
      <trkpt lat="43.8802" lon="4.12141">
        <ele>229.89</ele>
        <time>2018-12-07T09:14:26Z</time>
      </trkpt>
      <trkpt lat="43.8802" lon="4.12142">
        <ele>226.53</ele>
        <time>2018-12-07T09:14:27Z</time>
      </trkpt>
      <trkpt lat="43.88028" lon="4.12158">
        <ele>218.84</ele>
        <time>2018-12-07T09:14:41Z</time>
      </trkpt>
      <trkpt lat="43.88029" lon="4.12159">
        <ele>240.47</ele>
        <time>2018-12-07T09:14:42Z</time>
      </trkpt>
      <trkpt lat="43.88029" lon="4.1216">
        <ele>216.43</ele>
        <time>2018-12-07T09:14:43Z</time>
      </trkpt>
      <trkpt lat="43.8803" lon="4.12161">
        <ele>234.22</ele>
        <time>2018-12-07T09:14:44Z</time>
      </trkpt>
      <trkpt lat="43.88031" lon="4.12162">
        <ele>240.95</ele>
        <time>2018-12-07T09:14:45Z</time>
      </trkpt>
      <trkpt lat="43.88032" lon="4.12163">
        <ele>228.45</ele>
        <time>2018-12-07T09:14:46Z</time>
      </trkpt>
      <trkpt lat="43.88033" lon="4.12165">
        <ele>227.97</ele>
        <time>2018-12-07T09:14:48Z</time>
      </trkpt>
      <trkpt lat="43.88035" lon="4.12166">
        <ele>227.97</ele>
        <time>2018-12-07T09:14:51Z</time>
      </trkpt>
      <trkpt lat="43.88043" lon="4.12171">
        <ele>226.53</ele>
        <time>2018-12-07T09:14:59Z</time>
      </trkpt>
      <trkpt lat="43.88053" lon="4.12179">
        <ele>226.53</ele>
        <time>2018-12-07T09:15:11Z</time>
      </trkpt>
      <trkpt lat="43.88058" lon="4.12183">
        <ele>226.05</ele>
        <time>2018-12-07T09:15:24Z</time>
      </trkpt>
      <trkpt lat="43.88059" lon="4.12184">
        <ele>227.49</ele>
        <time>2018-12-07T09:15:32Z</time>
      </trkpt>
      <trkpt lat="43.88072" lon="4.12194">
        <ele>224.12</ele>
        <time>2018-12-07T09:15:47Z</time>
      </trkpt>
      <trkpt lat="43.8809" lon="4.12206">
        <ele>223.16</ele>
        <time>2018-12-07T09:16:05Z</time>
      </trkpt>
      <trkpt lat="43.881" lon="4.12217">
        <ele>223.64</ele>
        <time>2018-12-07T09:16:18Z</time>
      </trkpt>
      <trkpt lat="43.88103" lon="4.12218">
        <ele>223.64</ele>
        <time>2018-12-07T09:16:20Z</time>
      </trkpt>
      <trkpt lat="43.88116" lon="4.12227">
        <ele>223.64</ele>
        <time>2018-12-07T09:16:31Z</time>
      </trkpt>
      <trkpt lat="43.88119" lon="4.12229">
        <ele>222.68</ele>
        <time>2018-12-07T09:16:34Z</time>
      </trkpt>
      <trkpt lat="43.88137" lon="4.12243">
        <ele>221.72</ele>
        <time>2018-12-07T09:16:52Z</time>
      </trkpt>
      <trkpt lat="43.88146" lon="4.12254">
        <ele>220.76</ele>
        <time>2018-12-07T09:17:05Z</time>
      </trkpt>
      <trkpt lat="43.88151" lon="4.12257">
        <ele>221.24</ele>
        <time>2018-12-07T09:17:09Z</time>
      </trkpt>
      <trkpt lat="43.88166" lon="4.12267">
        <ele>220.28</ele>
        <time>2018-12-07T09:17:25Z</time>
      </trkpt>
      <trkpt lat="43.88171" lon="4.12272">
        <ele>220.76</ele>
        <time>2018-12-07T09:17:32Z</time>
      </trkpt>
      <trkpt lat="43.88178" lon="4.12279">
        <ele>220.76</ele>
        <time>2018-12-07T09:17:40Z</time>
      </trkpt>
      <trkpt lat="43.88181" lon="4.12283">
        <ele>219.32</ele>
        <time>2018-12-07T09:17:43Z</time>
      </trkpt>
      <trkpt lat="43.88192" lon="4.12298">
        <ele>218.84</ele>
        <time>2018-12-07T09:17:55Z</time>
      </trkpt>
      <trkpt lat="43.88202" lon="4.12321">
        <ele>219.8</ele>
        <time>2018-12-07T09:18:13Z</time>
      </trkpt>
      <trkpt lat="43.8821" lon="4.12338">
        <ele>220.28</ele>
        <time>2018-12-07T09:18:25Z</time>
      </trkpt>
      <trkpt lat="43.88217" lon="4.12357">
        <ele>219.32</ele>
        <time>2018-12-07T09:18:40Z</time>
      </trkpt>
      <trkpt lat="43.88221" lon="4.12366">
        <ele>219.8</ele>
        <time>2018-12-07T09:18:46Z</time>
      </trkpt>
      <trkpt lat="43.88232" lon="4.12384">
        <ele>221.24</ele>
        <time>2018-12-07T09:19:00Z</time>
      </trkpt>
      <trkpt lat="43.88232" lon="4.12385">
        <ele>221.24</ele>
        <time>2018-12-07T09:19:01Z</time>
      </trkpt>
      <trkpt lat="43.88243" lon="4.12407">
        <ele>222.2</ele>
        <time>2018-12-07T09:19:18Z</time>
      </trkpt>
      <trkpt lat="43.88253" lon="4.12424">
        <ele>224.12</ele>
        <time>2018-12-07T09:19:32Z</time>
      </trkpt>
      <trkpt lat="43.88261" lon="4.12437">
        <ele>225.09</ele>
        <time>2018-12-07T09:19:46Z</time>
      </trkpt>
      <trkpt lat="43.88265" lon="4.12442">
        <ele>225.09</ele>
        <time>2018-12-07T09:19:51Z</time>
      </trkpt>
      <trkpt lat="43.88273" lon="4.12449">
        <ele>225.57</ele>
        <time>2018-12-07T09:19:59Z</time>
      </trkpt>
      <trkpt lat="43.88281" lon="4.12454">
        <ele>225.57</ele>
        <time>2018-12-07T09:20:07Z</time>
      </trkpt>
      <trkpt lat="43.88287" lon="4.12457">
        <ele>227.49</ele>
        <time>2018-12-07T09:20:13Z</time>
      </trkpt>
      <trkpt lat="43.88293" lon="4.12459">
        <ele>227.49</ele>
        <time>2018-12-07T09:20:18Z</time>
      </trkpt>
      <trkpt lat="43.883" lon="4.12463">
        <ele>227.49</ele>
        <time>2018-12-07T09:20:25Z</time>
      </trkpt>
      <trkpt lat="43.88317" lon="4.12471">
        <ele>223.64</ele>
        <time>2018-12-07T09:20:41Z</time>
      </trkpt>
      <trkpt lat="43.88318" lon="4.12472">
        <ele>214.99</ele>
        <time>2018-12-07T09:20:42Z</time>
      </trkpt>
      <trkpt lat="43.88319" lon="4.12473">
        <ele>248.16</ele>
        <time>2018-12-07T09:20:43Z</time>
      </trkpt>
      <trkpt lat="43.8832" lon="4.12473">
        <ele>227.97</ele>
        <time>2018-12-07T09:20:44Z</time>
      </trkpt>
      <trkpt lat="43.88323" lon="4.12475">
        <ele>227.49</ele>
        <time>2018-12-07T09:20:47Z</time>
      </trkpt>
      <trkpt lat="43.88325" lon="4.12478">
        <ele>227.49</ele>
        <time>2018-12-07T09:20:49Z</time>
      </trkpt>
      <trkpt lat="43.88327" lon="4.12482">
        <ele>226.53</ele>
        <time>2018-12-07T09:20:54Z</time>
      </trkpt>
      <trkpt lat="43.88332" lon="4.12488">
        <ele>226.05</ele>
        <time>2018-12-07T09:20:59Z</time>
      </trkpt>
      <trkpt lat="43.8834" lon="4.12499">
        <ele>224.12</ele>
        <time>2018-12-07T09:21:09Z</time>
      </trkpt>
      <trkpt lat="43.88343" lon="4.12509">
        <ele>223.16</ele>
        <time>2018-12-07T09:21:17Z</time>
      </trkpt>
      <trkpt lat="43.88345" lon="4.12521">
        <ele>223.16</ele>
        <time>2018-12-07T09:21:25Z</time>
      </trkpt>
      <trkpt lat="43.88347" lon="4.12529">
        <ele>222.68</ele>
        <time>2018-12-07T09:21:30Z</time>
      </trkpt>
      <trkpt lat="43.88348" lon="4.12533">
        <ele>222.2</ele>
        <time>2018-12-07T09:21:34Z</time>
      </trkpt>
      <trkpt lat="43.8835" lon="4.12535">
        <ele>222.2</ele>
        <time>2018-12-07T09:21:36Z</time>
      </trkpt>
      <trkpt lat="43.88353" lon="4.12542">
        <ele>222.2</ele>
        <time>2018-12-07T09:21:41Z</time>
      </trkpt>
      <trkpt lat="43.88355" lon="4.12544">
        <ele>222.2</ele>
        <time>2018-12-07T09:21:43Z</time>
      </trkpt>
      <trkpt lat="43.88365" lon="4.12559">
        <ele>221.72</ele>
        <time>2018-12-07T09:21:57Z</time>
      </trkpt>
      <trkpt lat="43.88368" lon="4.12562">
        <ele>221.72</ele>
        <time>2018-12-07T09:22:00Z</time>
      </trkpt>
      <trkpt lat="43.88371" lon="4.12567">
        <ele>222.68</ele>
        <time>2018-12-07T09:22:03Z</time>
      </trkpt>
      <trkpt lat="43.88381" lon="4.12584">
        <ele>222.2</ele>
        <time>2018-12-07T09:22:17Z</time>
      </trkpt>
      <trkpt lat="43.88391" lon="4.12596">
        <ele>222.2</ele>
        <time>2018-12-07T09:22:29Z</time>
      </trkpt>
      <trkpt lat="43.88394" lon="4.12601">
        <ele>222.68</ele>
        <time>2018-12-07T09:22:34Z</time>
      </trkpt>
      <trkpt lat="43.88398" lon="4.12605">
        <ele>222.2</ele>
        <time>2018-12-07T09:22:38Z</time>
      </trkpt>
      <trkpt lat="43.88405" lon="4.12613">
        <ele>223.64</ele>
        <time>2018-12-07T09:22:46Z</time>
      </trkpt>
      <trkpt lat="43.88417" lon="4.12624">
        <ele>225.57</ele>
        <time>2018-12-07T09:22:59Z</time>
      </trkpt>
      <trkpt lat="43.88419" lon="4.12626">
        <ele>222.68</ele>
        <time>2018-12-07T09:23:02Z</time>
      </trkpt>
      <trkpt lat="43.88425" lon="4.12629">
        <ele>225.57</ele>
        <time>2018-12-07T09:23:08Z</time>
      </trkpt>
      <trkpt lat="43.88429" lon="4.1263">
        <ele>226.05</ele>
        <time>2018-12-07T09:23:13Z</time>
      </trkpt>
      <trkpt lat="43.88445" lon="4.12638">
        <ele>226.53</ele>
        <time>2018-12-07T09:23:28Z</time>
      </trkpt>
      <trkpt lat="43.88454" lon="4.12654">
        <ele>227.01</ele>
        <time>2018-12-07T09:23:40Z</time>
      </trkpt>
      <trkpt lat="43.88456" lon="4.1266">
        <ele>227.49</ele>
        <time>2018-12-07T09:23:44Z</time>
      </trkpt>
      <trkpt lat="43.88457" lon="4.12663">
        <ele>226.53</ele>
        <time>2018-12-07T09:23:46Z</time>
      </trkpt>
      <trkpt lat="43.88459" lon="4.12688">
        <ele>226.53</ele>
        <time>2018-12-07T09:24:02Z</time>
      </trkpt>
      <trkpt lat="43.8846" lon="4.12705">
        <ele>226.53</ele>
        <time>2018-12-07T09:24:13Z</time>
      </trkpt>
      <trkpt lat="43.88468" lon="4.12723">
        <ele>226.53</ele>
        <time>2018-12-07T09:24:27Z</time>
      </trkpt>
      <trkpt lat="43.88469" lon="4.12733">
        <ele>227.49</ele>
        <time>2018-12-07T09:24:39Z</time>
      </trkpt>
      <trkpt lat="43.88469" lon="4.12733">
        <ele>227.01</ele>
        <time>2018-12-07T09:24:57Z</time>
      </trkpt>
      <trkpt lat="43.88469" lon="4.12736">
        <ele>227.01</ele>
        <time>2018-12-07T09:25:02Z</time>
      </trkpt>
      <trkpt lat="43.88469" lon="4.12754">
        <ele>228.45</ele>
        <time>2018-12-07T09:25:15Z</time>
      </trkpt>
      <trkpt lat="43.88469" lon="4.12759">
        <ele>227.97</ele>
        <time>2018-12-07T09:25:22Z</time>
      </trkpt>
      <trkpt lat="43.8847" lon="4.12768">
        <ele>228.45</ele>
        <time>2018-12-07T09:25:32Z</time>
      </trkpt>
      <trkpt lat="43.8847" lon="4.12774">
        <ele>216.91</ele>
        <time>2018-12-07T09:25:39Z</time>
      </trkpt>
      <trkpt lat="43.88471" lon="4.12776">
        <ele>231.33</ele>
        <time>2018-12-07T09:25:40Z</time>
      </trkpt>
      <trkpt lat="43.88471" lon="4.12777">
        <ele>230.85</ele>
        <time>2018-12-07T09:25:41Z</time>
      </trkpt>
      <trkpt lat="43.88471" lon="4.12779">
        <ele>227.97</ele>
        <time>2018-12-07T09:25:43Z</time>
      </trkpt>
      <trkpt lat="43.88472" lon="4.12793">
        <ele>227.01</ele>
        <time>2018-12-07T09:25:52Z</time>
      </trkpt>
      <trkpt lat="43.88473" lon="4.12812">
        <ele>226.53</ele>
        <time>2018-12-07T09:26:03Z</time>
      </trkpt>
      <trkpt lat="43.88474" lon="4.12817">
        <ele>226.53</ele>
        <time>2018-12-07T09:26:07Z</time>
      </trkpt>
      <trkpt lat="43.88477" lon="4.12834">
        <ele>225.57</ele>
        <time>2018-12-07T09:26:19Z</time>
      </trkpt>
      <trkpt lat="43.88482" lon="4.12847">
        <ele>225.57</ele>
        <time>2018-12-07T09:26:31Z</time>
      </trkpt>
      <trkpt lat="43.88484" lon="4.12851">
        <ele>225.09</ele>
        <time>2018-12-07T09:26:34Z</time>
      </trkpt>
      <trkpt lat="43.8849" lon="4.1286">
        <ele>225.09</ele>
        <time>2018-12-07T09:26:43Z</time>
      </trkpt>
      <trkpt lat="43.88495" lon="4.12871">
        <ele>225.09</ele>
        <time>2018-12-07T09:26:51Z</time>
      </trkpt>
      <trkpt lat="43.88504" lon="4.12885">
        <ele>224.61</ele>
        <time>2018-12-07T09:27:02Z</time>
      </trkpt>
      <trkpt lat="43.88513" lon="4.12903">
        <ele>224.61</ele>
        <time>2018-12-07T09:27:16Z</time>
      </trkpt>
      <trkpt lat="43.88519" lon="4.12912">
        <ele>223.64</ele>
        <time>2018-12-07T09:27:24Z</time>
      </trkpt>
      <trkpt lat="43.88524" lon="4.1292">
        <ele>224.12</ele>
        <time>2018-12-07T09:27:29Z</time>
      </trkpt>
      <trkpt lat="43.88533" lon="4.12937">
        <ele>222.68</ele>
        <time>2018-12-07T09:27:43Z</time>
      </trkpt>
      <trkpt lat="43.88534" lon="4.12939">
        <ele>223.16</ele>
        <time>2018-12-07T09:27:45Z</time>
      </trkpt>
      <trkpt lat="43.88536" lon="4.1294">
        <ele>223.16</ele>
        <time>2018-12-07T09:27:47Z</time>
      </trkpt>
      <trkpt lat="43.88542" lon="4.12952">
        <ele>222.68</ele>
        <time>2018-12-07T09:27:56Z</time>
      </trkpt>
      <trkpt lat="43.88549" lon="4.12963">
        <ele>222.68</ele>
        <time>2018-12-07T09:28:06Z</time>
      </trkpt>
      <trkpt lat="43.88551" lon="4.12965">
        <ele>222.68</ele>
        <time>2018-12-07T09:28:08Z</time>
      </trkpt>
      <trkpt lat="43.8856" lon="4.1299">
        <ele>222.2</ele>
        <time>2018-12-07T09:28:25Z</time>
      </trkpt>
      <trkpt lat="43.88561" lon="4.12992">
        <ele>209.7</ele>
        <time>2018-12-07T09:28:26Z</time>
      </trkpt>
      <trkpt lat="43.88561" lon="4.12993">
        <ele>224.12</ele>
        <time>2018-12-07T09:28:27Z</time>
      </trkpt>
      <trkpt lat="43.88561" lon="4.12997">
        <ele>222.2</ele>
        <time>2018-12-07T09:28:30Z</time>
      </trkpt>
      <trkpt lat="43.88558" lon="4.13001">
        <ele>222.2</ele>
        <time>2018-12-07T09:28:42Z</time>
      </trkpt>
      <trkpt lat="43.88558" lon="4.13001">
        <ele>222.2</ele>
        <time>2018-12-07T09:28:54Z</time>
      </trkpt>
      <trkpt lat="43.88557" lon="4.13">
        <ele>217.4</ele>
        <time>2018-12-07T09:28:57Z</time>
      </trkpt>
      <trkpt lat="43.88557" lon="4.13">
        <ele>229.89</ele>
        <time>2018-12-07T09:28:58Z</time>
      </trkpt>
      <trkpt lat="43.88557" lon="4.13">
        <ele>223.16</ele>
        <time>2018-12-07T09:28:59Z</time>
      </trkpt>
      <trkpt lat="43.88557" lon="4.12999">
        <ele>222.2</ele>
        <time>2018-12-07T09:29:02Z</time>
      </trkpt>
      <trkpt lat="43.88554" lon="4.12999">
        <ele>222.2</ele>
        <time>2018-12-07T09:29:21Z</time>
      </trkpt>
      <trkpt lat="43.88553" lon="4.12999">
        <ele>224.12</ele>
        <time>2018-12-07T09:29:22Z</time>
      </trkpt>
      <trkpt lat="43.88544" lon="4.13">
        <ele>223.64</ele>
        <time>2018-12-07T09:29:31Z</time>
      </trkpt>
      <trkpt lat="43.8854" lon="4.13001">
        <ele>223.16</ele>
        <time>2018-12-07T09:29:35Z</time>
      </trkpt>
      <trkpt lat="43.88535" lon="4.13001">
        <ele>226.05</ele>
        <time>2018-12-07T09:29:40Z</time>
      </trkpt>
      <trkpt lat="43.88518" lon="4.13002">
        <ele>227.49</ele>
        <time>2018-12-07T09:29:56Z</time>
      </trkpt>
      <trkpt lat="43.88507" lon="4.12999">
        <ele>227.49</ele>
        <time>2018-12-07T09:30:09Z</time>
      </trkpt>
      <trkpt lat="43.8849" lon="4.12999">
        <ele>229.89</ele>
        <time>2018-12-07T09:30:25Z</time>
      </trkpt>
      <trkpt lat="43.88476" lon="4.13">
        <ele>232.3</ele>
        <time>2018-12-07T09:30:40Z</time>
      </trkpt>
      <trkpt lat="43.88466" lon="4.13004">
        <ele>230.85</ele>
        <time>2018-12-07T09:30:50Z</time>
      </trkpt>
      <trkpt lat="43.88462" lon="4.1301">
        <ele>234.22</ele>
        <time>2018-12-07T09:30:56Z</time>
      </trkpt>
      <trkpt lat="43.88456" lon="4.13019">
        <ele>234.7</ele>
        <time>2018-12-07T09:31:07Z</time>
      </trkpt>
      <trkpt lat="43.88449" lon="4.13035">
        <ele>236.62</ele>
        <time>2018-12-07T09:31:21Z</time>
      </trkpt>
      <trkpt lat="43.88447" lon="4.13036">
        <ele>236.14</ele>
        <time>2018-12-07T09:31:23Z</time>
      </trkpt>
      <trkpt lat="43.88438" lon="4.13051">
        <ele>236.62</ele>
        <time>2018-12-07T09:31:38Z</time>
      </trkpt>
      <trkpt lat="43.88437" lon="4.13053">
        <ele>237.58</ele>
        <time>2018-12-07T09:31:40Z</time>
      </trkpt>
      <trkpt lat="43.88435" lon="4.13057">
        <ele>239.02</ele>
        <time>2018-12-07T09:31:43Z</time>
      </trkpt>
      <trkpt lat="43.88431" lon="4.13062">
        <ele>242.87</ele>
        <time>2018-12-07T09:31:49Z</time>
      </trkpt>
      <trkpt lat="43.88431" lon="4.13062">
        <ele>240.47</ele>
        <time>2018-12-07T09:31:50Z</time>
      </trkpt>
      <trkpt lat="43.88424" lon="4.13075">
        <ele>242.87</ele>
        <time>2018-12-07T09:32:03Z</time>
      </trkpt>
      <trkpt lat="43.88421" lon="4.1308">
        <ele>239.99</ele>
        <time>2018-12-07T09:32:08Z</time>
      </trkpt>
      <trkpt lat="43.88421" lon="4.13081">
        <ele>243.35</ele>
        <time>2018-12-07T09:32:09Z</time>
      </trkpt>
      <trkpt lat="43.88417" lon="4.13089">
        <ele>244.79</ele>
        <time>2018-12-07T09:32:17Z</time>
      </trkpt>
      <trkpt lat="43.88411" lon="4.13101">
        <ele>246.23</ele>
        <time>2018-12-07T09:32:28Z</time>
      </trkpt>
      <trkpt lat="43.88408" lon="4.13106">
        <ele>246.72</ele>
        <time>2018-12-07T09:32:32Z</time>
      </trkpt>
      <trkpt lat="43.88403" lon="4.13112">
        <ele>247.2</ele>
        <time>2018-12-07T09:32:39Z</time>
      </trkpt>
      <trkpt lat="43.884" lon="4.13113">
        <ele>246.72</ele>
        <time>2018-12-07T09:32:54Z</time>
      </trkpt>
      <trkpt lat="43.88396" lon="4.13116">
        <ele>247.2</ele>
        <time>2018-12-07T09:33:09Z</time>
      </trkpt>
      <trkpt lat="43.88394" lon="4.13119">
        <ele>247.68</ele>
        <time>2018-12-07T09:33:12Z</time>
      </trkpt>
      <trkpt lat="43.88383" lon="4.13131">
        <ele>250.56</ele>
        <time>2018-12-07T09:33:27Z</time>
      </trkpt>
      <trkpt lat="43.88381" lon="4.13134">
        <ele>250.08</ele>
        <time>2018-12-07T09:33:30Z</time>
      </trkpt>
      <trkpt lat="43.88376" lon="4.13141">
        <ele>252</ele>
        <time>2018-12-07T09:33:38Z</time>
      </trkpt>
      <trkpt lat="43.88372" lon="4.13146">
        <ele>254.89</ele>
        <time>2018-12-07T09:33:47Z</time>
      </trkpt>
      <trkpt lat="43.88371" lon="4.13146">
        <ele>252.48</ele>
        <time>2018-12-07T09:33:48Z</time>
      </trkpt>
      <trkpt lat="43.88362" lon="4.13155">
        <ele>254.41</ele>
        <time>2018-12-07T09:34:01Z</time>
      </trkpt>
      <trkpt lat="43.88353" lon="4.13161">
        <ele>254.41</ele>
        <time>2018-12-07T09:34:11Z</time>
      </trkpt>
      <trkpt lat="43.88348" lon="4.13166">
        <ele>258.25</ele>
        <time>2018-12-07T09:34:16Z</time>
      </trkpt>
      <trkpt lat="43.88341" lon="4.13171">
        <ele>240.47</ele>
        <time>2018-12-07T09:34:25Z</time>
      </trkpt>
      <trkpt lat="43.8834" lon="4.13171">
        <ele>260.65</ele>
        <time>2018-12-07T09:34:26Z</time>
      </trkpt>
      <trkpt lat="43.88338" lon="4.13171">
        <ele>274.11</ele>
        <time>2018-12-07T09:34:27Z</time>
      </trkpt>
      <trkpt lat="43.88337" lon="4.13171">
        <ele>258.73</ele>
        <time>2018-12-07T09:34:28Z</time>
      </trkpt>
      <trkpt lat="43.88337" lon="4.13172">
        <ele>258.73</ele>
        <time>2018-12-07T09:34:29Z</time>
      </trkpt>
      <trkpt lat="43.88329" lon="4.13175">
        <ele>259.69</ele>
        <time>2018-12-07T09:34:40Z</time>
      </trkpt>
      <trkpt lat="43.88326" lon="4.13176">
        <ele>259.69</ele>
        <time>2018-12-07T09:34:43Z</time>
      </trkpt>
      <trkpt lat="43.88319" lon="4.13181">
        <ele>261.14</ele>
        <time>2018-12-07T09:34:52Z</time>
      </trkpt>
      <trkpt lat="43.88315" lon="4.13183">
        <ele>262.58</ele>
        <time>2018-12-07T09:34:55Z</time>
      </trkpt>
      <trkpt lat="43.88311" lon="4.13185">
        <ele>262.1</ele>
        <time>2018-12-07T09:34:59Z</time>
      </trkpt>
      <trkpt lat="43.88305" lon="4.13184">
        <ele>262.58</ele>
        <time>2018-12-07T09:35:06Z</time>
      </trkpt>
      <trkpt lat="43.88303" lon="4.13184">
        <ele>264.98</ele>
        <time>2018-12-07T09:35:08Z</time>
      </trkpt>
      <trkpt lat="43.883" lon="4.13184">
        <ele>262.58</ele>
        <time>2018-12-07T09:35:11Z</time>
      </trkpt>
      <trkpt lat="43.88298" lon="4.13186">
        <ele>264.5</ele>
        <time>2018-12-07T09:35:15Z</time>
      </trkpt>
      <trkpt lat="43.88291" lon="4.13192">
        <ele>265.94</ele>
        <time>2018-12-07T09:35:23Z</time>
      </trkpt>
      <trkpt lat="43.88287" lon="4.13197">
        <ele>264.98</ele>
        <time>2018-12-07T09:35:29Z</time>
      </trkpt>
      <trkpt lat="43.88284" lon="4.13202">
        <ele>265.46</ele>
        <time>2018-12-07T09:35:33Z</time>
      </trkpt>
      <trkpt lat="43.8828" lon="4.13205">
        <ele>265.94</ele>
        <time>2018-12-07T09:35:37Z</time>
      </trkpt>
      <trkpt lat="43.88273" lon="4.13204">
        <ele>266.9</ele>
        <time>2018-12-07T09:35:43Z</time>
      </trkpt>
      <trkpt lat="43.88266" lon="4.132">
        <ele>266.9</ele>
        <time>2018-12-07T09:35:56Z</time>
      </trkpt>
      <trkpt lat="43.88265" lon="4.132">
        <ele>266.9</ele>
        <time>2018-12-07T09:36:14Z</time>
      </trkpt>
      <trkpt lat="43.88257" lon="4.1319">
        <ele>266.42</ele>
        <time>2018-12-07T09:36:25Z</time>
      </trkpt>
      <trkpt lat="43.8824" lon="4.13184">
        <ele>267.38</ele>
        <time>2018-12-07T09:36:38Z</time>
      </trkpt>
      <trkpt lat="43.88227" lon="4.13179">
        <ele>267.38</ele>
        <time>2018-12-07T09:36:51Z</time>
      </trkpt>
      <trkpt lat="43.88227" lon="4.13179">
        <ele>267.38</ele>
        <time>2018-12-07T09:37:04Z</time>
      </trkpt>
      <trkpt lat="43.88227" lon="4.13178">
        <ele>266.9</ele>
        <time>2018-12-07T09:37:13Z</time>
      </trkpt>
      <trkpt lat="43.8822" lon="4.13178">
        <ele>266.9</ele>
        <time>2018-12-07T09:37:18Z</time>
      </trkpt>
      <trkpt lat="43.88207" lon="4.13172">
        <ele>266.42</ele>
        <time>2018-12-07T09:37:29Z</time>
      </trkpt>
      <trkpt lat="43.88206" lon="4.13171">
        <ele>265.94</ele>
        <time>2018-12-07T09:37:31Z</time>
      </trkpt>
      <trkpt lat="43.88195" lon="4.13175">
        <ele>265.46</ele>
        <time>2018-12-07T09:37:39Z</time>
      </trkpt>
      <trkpt lat="43.88187" lon="4.13175">
        <ele>264.98</ele>
        <time>2018-12-07T09:37:45Z</time>
      </trkpt>
      <trkpt lat="43.88178" lon="4.13176">
        <ele>264.02</ele>
        <time>2018-12-07T09:37:54Z</time>
      </trkpt>
      <trkpt lat="43.88176" lon="4.13178">
        <ele>264.5</ele>
        <time>2018-12-07T09:37:56Z</time>
      </trkpt>
      <trkpt lat="43.88175" lon="4.1318">
        <ele>263.06</ele>
        <time>2018-12-07T09:37:58Z</time>
      </trkpt>
      <trkpt lat="43.88159" lon="4.13196">
        <ele>263.54</ele>
        <time>2018-12-07T09:38:12Z</time>
      </trkpt>
      <trkpt lat="43.88157" lon="4.132">
        <ele>263.54</ele>
        <time>2018-12-07T09:38:16Z</time>
      </trkpt>
      <trkpt lat="43.88155" lon="4.13206">
        <ele>264.02</ele>
        <time>2018-12-07T09:38:19Z</time>
      </trkpt>
      <trkpt lat="43.88156" lon="4.13203">
        <ele>263.54</ele>
        <time>2018-12-07T09:38:23Z</time>
      </trkpt>
      <trkpt lat="43.88157" lon="4.13199">
        <ele>263.54</ele>
        <time>2018-12-07T09:38:26Z</time>
      </trkpt>
      <trkpt lat="43.88164" lon="4.13187">
        <ele>263.54</ele>
        <time>2018-12-07T09:38:36Z</time>
      </trkpt>
      <trkpt lat="43.88167" lon="4.13186">
        <ele>263.06</ele>
        <time>2018-12-07T09:38:38Z</time>
      </trkpt>
      <trkpt lat="43.88173" lon="4.13179">
        <ele>264.02</ele>
        <time>2018-12-07T09:38:45Z</time>
      </trkpt>
      <trkpt lat="43.88182" lon="4.13174">
        <ele>264.5</ele>
        <time>2018-12-07T09:38:58Z</time>
      </trkpt>
      <trkpt lat="43.88179" lon="4.13175">
        <ele>264.02</ele>
        <time>2018-12-07T09:39:02Z</time>
      </trkpt>
      <trkpt lat="43.88166" lon="4.13185">
        <ele>263.54</ele>
        <time>2018-12-07T09:39:15Z</time>
      </trkpt>
      <trkpt lat="43.88163" lon="4.1319">
        <ele>263.54</ele>
        <time>2018-12-07T09:39:19Z</time>
      </trkpt>
      <trkpt lat="43.88157" lon="4.132">
        <ele>264.02</ele>
        <time>2018-12-07T09:39:28Z</time>
      </trkpt>
      <trkpt lat="43.88155" lon="4.13208">
        <ele>264.02</ele>
        <time>2018-12-07T09:39:33Z</time>
      </trkpt>
      <trkpt lat="43.88147" lon="4.13221">
        <ele>264.98</ele>
        <time>2018-12-07T09:39:46Z</time>
      </trkpt>
      <trkpt lat="43.88143" lon="4.13235">
        <ele>264.98</ele>
        <time>2018-12-07T09:39:57Z</time>
      </trkpt>
      <trkpt lat="43.88141" lon="4.13248">
        <ele>252.48</ele>
        <time>2018-12-07T09:40:11Z</time>
      </trkpt>
      <trkpt lat="43.88141" lon="4.13248">
        <ele>270.75</ele>
        <time>2018-12-07T09:40:12Z</time>
      </trkpt>
      <trkpt lat="43.88141" lon="4.13248">
        <ele>264.98</ele>
        <time>2018-12-07T09:40:13Z</time>
      </trkpt>
      <trkpt lat="43.88141" lon="4.13248">
        <ele>269.31</ele>
        <time>2018-12-07T09:40:15Z</time>
      </trkpt>
      <trkpt lat="43.88141" lon="4.13248">
        <ele>254.89</ele>
        <time>2018-12-07T09:40:16Z</time>
      </trkpt>
      <trkpt lat="43.88141" lon="4.13248">
        <ele>270.75</ele>
        <time>2018-12-07T09:40:17Z</time>
      </trkpt>
      <trkpt lat="43.88141" lon="4.13248">
        <ele>275.07</ele>
        <time>2018-12-07T09:40:19Z</time>
      </trkpt>
      <trkpt lat="43.88141" lon="4.13248">
        <ele>268.35</ele>
        <time>2018-12-07T09:40:20Z</time>
      </trkpt>
      <trkpt lat="43.88141" lon="4.13249">
        <ele>266.42</ele>
        <time>2018-12-07T09:40:22Z</time>
      </trkpt>
      <trkpt lat="43.88142" lon="4.13256">
        <ele>266.42</ele>
        <time>2018-12-07T09:40:28Z</time>
      </trkpt>
      <trkpt lat="43.88143" lon="4.13262">
        <ele>268.35</ele>
        <time>2018-12-07T09:40:32Z</time>
      </trkpt>
      <trkpt lat="43.8815" lon="4.13267">
        <ele>268.83</ele>
        <time>2018-12-07T09:40:45Z</time>
      </trkpt>
      <trkpt lat="43.88151" lon="4.13266">
        <ele>268.35</ele>
        <time>2018-12-07T09:40:53Z</time>
      </trkpt>
      <trkpt lat="43.88155" lon="4.13266">
        <ele>270.27</ele>
        <time>2018-12-07T09:40:58Z</time>
      </trkpt>
      <trkpt lat="43.88159" lon="4.13268">
        <ele>264.98</ele>
        <time>2018-12-07T09:41:06Z</time>
      </trkpt>
      <trkpt lat="43.88159" lon="4.13268">
        <ele>274.11</ele>
        <time>2018-12-07T09:41:07Z</time>
      </trkpt>
      <trkpt lat="43.8816" lon="4.13269">
        <ele>268.83</ele>
        <time>2018-12-07T09:41:08Z</time>
      </trkpt>
      <trkpt lat="43.88162" lon="4.13268">
        <ele>269.79</ele>
        <time>2018-12-07T09:41:20Z</time>
      </trkpt>
      <trkpt lat="43.88163" lon="4.13268">
        <ele>269.31</ele>
        <time>2018-12-07T09:41:38Z</time>
      </trkpt>
      <trkpt lat="43.8817" lon="4.1327">
        <ele>271.23</ele>
        <time>2018-12-07T09:41:51Z</time>
      </trkpt>
      <trkpt lat="43.88173" lon="4.13271">
        <ele>267.86</ele>
        <time>2018-12-07T09:41:56Z</time>
      </trkpt>
      <trkpt lat="43.88173" lon="4.13271">
        <ele>271.23</ele>
        <time>2018-12-07T09:41:57Z</time>
      </trkpt>
      <trkpt lat="43.88176" lon="4.13273">
        <ele>270.27</ele>
        <time>2018-12-07T09:42:10Z</time>
      </trkpt>
      <trkpt lat="43.88177" lon="4.13274">
        <ele>270.27</ele>
        <time>2018-12-07T09:42:38Z</time>
      </trkpt>
      <trkpt lat="43.88176" lon="4.13273">
        <ele>270.27</ele>
        <time>2018-12-07T09:42:59Z</time>
      </trkpt>
      <trkpt lat="43.88176" lon="4.13273">
        <ele>270.27</ele>
        <time>2018-12-07T09:43:21Z</time>
      </trkpt>
      <trkpt lat="43.88176" lon="4.13273">
        <ele>270.27</ele>
        <time>2018-12-07T09:43:44Z</time>
      </trkpt>
      <trkpt lat="43.88176" lon="4.13273">
        <ele>269.79</ele>
        <time>2018-12-07T09:44:10Z</time>
      </trkpt>
      <trkpt lat="43.88174" lon="4.13275">
        <ele>259.69</ele>
        <time>2018-12-07T09:44:23Z</time>
      </trkpt>
      <trkpt lat="43.88174" lon="4.13275">
        <ele>278.44</ele>
        <time>2018-12-07T09:44:24Z</time>
      </trkpt>
      <trkpt lat="43.88175" lon="4.13276">
        <ele>269.79</ele>
        <time>2018-12-07T09:44:25Z</time>
      </trkpt>
      <trkpt lat="43.88175" lon="4.13275">
        <ele>268.83</ele>
        <time>2018-12-07T09:44:27Z</time>
      </trkpt>
      <trkpt lat="43.88175" lon="4.13277">
        <ele>261.14</ele>
        <time>2018-12-07T09:44:38Z</time>
      </trkpt>
      <trkpt lat="43.88175" lon="4.13277">
        <ele>268.83</ele>
        <time>2018-12-07T09:44:39Z</time>
      </trkpt>
      <trkpt lat="43.88178" lon="4.13285">
        <ele>266.42</ele>
        <time>2018-12-07T09:44:52Z</time>
      </trkpt>
      <trkpt lat="43.88176" lon="4.13286">
        <ele>267.86</ele>
        <time>2018-12-07T09:45:06Z</time>
      </trkpt>
      <trkpt lat="43.88176" lon="4.13287">
        <ele>263.06</ele>
        <time>2018-12-07T09:45:18Z</time>
      </trkpt>
      <trkpt lat="43.88176" lon="4.13287">
        <ele>273.15</ele>
        <time>2018-12-07T09:45:19Z</time>
      </trkpt>
      <trkpt lat="43.88176" lon="4.13287">
        <ele>267.38</ele>
        <time>2018-12-07T09:45:20Z</time>
      </trkpt>
      <trkpt lat="43.88176" lon="4.13287">
        <ele>268.35</ele>
        <time>2018-12-07T09:45:51Z</time>
      </trkpt>
      <trkpt lat="43.88176" lon="4.13287">
        <ele>265.46</ele>
        <time>2018-12-07T09:45:53Z</time>
      </trkpt>
      <trkpt lat="43.88177" lon="4.13287">
        <ele>271.71</ele>
        <time>2018-12-07T09:45:54Z</time>
      </trkpt>
      <trkpt lat="43.88177" lon="4.13287">
        <ele>267.86</ele>
        <time>2018-12-07T09:45:55Z</time>
      </trkpt>
      <trkpt lat="43.88177" lon="4.13281">
        <ele>266.9</ele>
        <time>2018-12-07T09:46:08Z</time>
      </trkpt>
      <trkpt lat="43.88177" lon="4.13278">
        <ele>267.86</ele>
        <time>2018-12-07T09:46:12Z</time>
      </trkpt>
      <trkpt lat="43.88178" lon="4.13277">
        <ele>269.31</ele>
        <time>2018-12-07T09:46:14Z</time>
      </trkpt>
      <trkpt lat="43.88177" lon="4.13274">
        <ele>264.5</ele>
        <time>2018-12-07T09:46:18Z</time>
      </trkpt>
      <trkpt lat="43.88177" lon="4.13274">
        <ele>269.31</ele>
        <time>2018-12-07T09:46:19Z</time>
      </trkpt>
      <trkpt lat="43.88175" lon="4.13272">
        <ele>269.31</ele>
        <time>2018-12-07T09:46:29Z</time>
      </trkpt>
      <trkpt lat="43.88173" lon="4.13273">
        <ele>265.94</ele>
        <time>2018-12-07T09:46:37Z</time>
      </trkpt>
      <trkpt lat="43.88173" lon="4.13273">
        <ele>274.59</ele>
        <time>2018-12-07T09:46:38Z</time>
      </trkpt>
      <trkpt lat="43.88173" lon="4.13272">
        <ele>269.31</ele>
        <time>2018-12-07T09:46:39Z</time>
      </trkpt>
      <trkpt lat="43.88173" lon="4.13272">
        <ele>268.83</ele>
        <time>2018-12-07T09:47:02Z</time>
      </trkpt>
      <trkpt lat="43.88173" lon="4.13272">
        <ele>269.31</ele>
        <time>2018-12-07T09:47:22Z</time>
      </trkpt>
      <trkpt lat="43.88172" lon="4.13271">
        <ele>269.31</ele>
        <time>2018-12-07T09:47:34Z</time>
      </trkpt>
      <trkpt lat="43.8817" lon="4.13268">
        <ele>268.83</ele>
        <time>2018-12-07T09:47:53Z</time>
      </trkpt>
      <trkpt lat="43.88166" lon="4.13265">
        <ele>269.31</ele>
        <time>2018-12-07T09:48:00Z</time>
      </trkpt>
      <trkpt lat="43.88161" lon="4.13267">
        <ele>267.86</ele>
        <time>2018-12-07T09:48:13Z</time>
      </trkpt>
      <trkpt lat="43.88155" lon="4.13267">
        <ele>267.86</ele>
        <time>2018-12-07T09:48:20Z</time>
      </trkpt>
      <trkpt lat="43.88151" lon="4.13266">
        <ele>268.35</ele>
        <time>2018-12-07T09:48:23Z</time>
      </trkpt>
      <trkpt lat="43.88149" lon="4.13267">
        <ele>267.38</ele>
        <time>2018-12-07T09:48:25Z</time>
      </trkpt>
      <trkpt lat="43.88145" lon="4.13263">
        <ele>267.86</ele>
        <time>2018-12-07T09:48:31Z</time>
      </trkpt>
      <trkpt lat="43.88142" lon="4.1325">
        <ele>265.94</ele>
        <time>2018-12-07T09:48:43Z</time>
      </trkpt>
      <trkpt lat="43.88141" lon="4.13235">
        <ele>264.98</ele>
        <time>2018-12-07T09:48:56Z</time>
      </trkpt>
      <trkpt lat="43.88141" lon="4.13228">
        <ele>264.02</ele>
        <time>2018-12-07T09:49:02Z</time>
      </trkpt>
      <trkpt lat="43.88142" lon="4.13224">
        <ele>264.02</ele>
        <time>2018-12-07T09:49:05Z</time>
      </trkpt>
      <trkpt lat="43.8815" lon="4.13212">
        <ele>263.54</ele>
        <time>2018-12-07T09:49:19Z</time>
      </trkpt>
      <trkpt lat="43.88156" lon="4.13198">
        <ele>263.54</ele>
        <time>2018-12-07T09:49:33Z</time>
      </trkpt>
      <trkpt lat="43.88158" lon="4.13193">
        <ele>263.54</ele>
        <time>2018-12-07T09:49:39Z</time>
      </trkpt>
      <trkpt lat="43.8816" lon="4.13189">
        <ele>262.1</ele>
        <time>2018-12-07T09:49:43Z</time>
      </trkpt>
      <trkpt lat="43.88166" lon="4.13182">
        <ele>263.54</ele>
        <time>2018-12-07T09:49:55Z</time>
      </trkpt>
      <trkpt lat="43.88168" lon="4.13181">
        <ele>263.54</ele>
        <time>2018-12-07T09:49:57Z</time>
      </trkpt>
      <trkpt lat="43.88171" lon="4.13177">
        <ele>263.54</ele>
        <time>2018-12-07T09:50:01Z</time>
      </trkpt>
      <trkpt lat="43.88185" lon="4.13175">
        <ele>264.5</ele>
        <time>2018-12-07T09:50:15Z</time>
      </trkpt>
      <trkpt lat="43.88199" lon="4.13175">
        <ele>265.94</ele>
        <time>2018-12-07T09:50:29Z</time>
      </trkpt>
      <trkpt lat="43.88205" lon="4.13174">
        <ele>264.5</ele>
        <time>2018-12-07T09:50:36Z</time>
      </trkpt>
      <trkpt lat="43.8821" lon="4.13177">
        <ele>264.5</ele>
        <time>2018-12-07T09:50:40Z</time>
      </trkpt>
      <trkpt lat="43.88211" lon="4.13177">
        <ele>268.35</ele>
        <time>2018-12-07T09:50:41Z</time>
      </trkpt>
      <trkpt lat="43.88212" lon="4.13178">
        <ele>266.42</ele>
        <time>2018-12-07T09:50:42Z</time>
      </trkpt>
      <trkpt lat="43.88225" lon="4.13179">
        <ele>267.38</ele>
        <time>2018-12-07T09:50:59Z</time>
      </trkpt>
      <trkpt lat="43.88237" lon="4.13183">
        <ele>266.42</ele>
        <time>2018-12-07T09:51:13Z</time>
      </trkpt>
      <trkpt lat="43.88259" lon="4.13193">
        <ele>264.5</ele>
        <time>2018-12-07T09:51:32Z</time>
      </trkpt>
      <trkpt lat="43.8826" lon="4.13196">
        <ele>265.94</ele>
        <time>2018-12-07T09:51:35Z</time>
      </trkpt>
      <trkpt lat="43.88267" lon="4.13201">
        <ele>259.69</ele>
        <time>2018-12-07T09:51:47Z</time>
      </trkpt>
      <trkpt lat="43.88268" lon="4.13201">
        <ele>270.27</ele>
        <time>2018-12-07T09:51:48Z</time>
      </trkpt>
      <trkpt lat="43.88269" lon="4.13201">
        <ele>265.94</ele>
        <time>2018-12-07T09:51:49Z</time>
      </trkpt>
      <trkpt lat="43.88278" lon="4.13204">
        <ele>265.46</ele>
        <time>2018-12-07T09:52:00Z</time>
      </trkpt>
      <trkpt lat="43.88279" lon="4.13204">
        <ele>254.89</ele>
        <time>2018-12-07T09:52:02Z</time>
      </trkpt>
      <trkpt lat="43.8828" lon="4.13204">
        <ele>271.71</ele>
        <time>2018-12-07T09:52:03Z</time>
      </trkpt>
      <trkpt lat="43.88283" lon="4.13202">
        <ele>264.98</ele>
        <time>2018-12-07T09:52:06Z</time>
      </trkpt>
      <trkpt lat="43.8829" lon="4.13192">
        <ele>262.1</ele>
        <time>2018-12-07T09:52:17Z</time>
      </trkpt>
      <trkpt lat="43.8829" lon="4.13191">
        <ele>265.46</ele>
        <time>2018-12-07T09:52:18Z</time>
      </trkpt>
      <trkpt lat="43.88292" lon="4.1319">
        <ele>261.62</ele>
        <time>2018-12-07T09:52:20Z</time>
      </trkpt>
      <trkpt lat="43.88292" lon="4.13189">
        <ele>265.46</ele>
        <time>2018-12-07T09:52:21Z</time>
      </trkpt>
      <trkpt lat="43.88295" lon="4.13186">
        <ele>263.06</ele>
        <time>2018-12-07T09:52:24Z</time>
      </trkpt>
      <trkpt lat="43.88297" lon="4.13185">
        <ele>263.06</ele>
        <time>2018-12-07T09:52:27Z</time>
      </trkpt>
      <trkpt lat="43.88309" lon="4.13181">
        <ele>261.14</ele>
        <time>2018-12-07T09:52:40Z</time>
      </trkpt>
      <trkpt lat="43.88309" lon="4.13181">
        <ele>260.65</ele>
        <time>2018-12-07T09:52:41Z</time>
      </trkpt>
      <trkpt lat="43.88312" lon="4.13181">
        <ele>260.65</ele>
        <time>2018-12-07T09:52:44Z</time>
      </trkpt>
      <trkpt lat="43.88317" lon="4.13179">
        <ele>260.17</ele>
        <time>2018-12-07T09:52:49Z</time>
      </trkpt>
      <trkpt lat="43.8832" lon="4.13176">
        <ele>259.69</ele>
        <time>2018-12-07T09:52:52Z</time>
      </trkpt>
      <trkpt lat="43.88326" lon="4.13173">
        <ele>258.25</ele>
        <time>2018-12-07T09:52:59Z</time>
      </trkpt>
      <trkpt lat="43.88341" lon="4.13169">
        <ele>256.33</ele>
        <time>2018-12-07T09:53:14Z</time>
      </trkpt>
      <trkpt lat="43.88347" lon="4.13163">
        <ele>254.89</ele>
        <time>2018-12-07T09:53:21Z</time>
      </trkpt>
      <trkpt lat="43.88351" lon="4.13161">
        <ele>254.41</ele>
        <time>2018-12-07T09:53:25Z</time>
      </trkpt>
      <trkpt lat="43.88356" lon="4.13156">
        <ele>253.44</ele>
        <time>2018-12-07T09:53:31Z</time>
      </trkpt>
      <trkpt lat="43.88359" lon="4.13153">
        <ele>252.96</ele>
        <time>2018-12-07T09:53:35Z</time>
      </trkpt>
      <trkpt lat="43.88364" lon="4.13148">
        <ele>252</ele>
        <time>2018-12-07T09:53:41Z</time>
      </trkpt>
      <trkpt lat="43.88372" lon="4.13139">
        <ele>249.6</ele>
        <time>2018-12-07T09:53:53Z</time>
      </trkpt>
      <trkpt lat="43.88377" lon="4.13133">
        <ele>248.64</ele>
        <time>2018-12-07T09:54:01Z</time>
      </trkpt>
      <trkpt lat="43.88383" lon="4.13125">
        <ele>247.2</ele>
        <time>2018-12-07T09:54:10Z</time>
      </trkpt>
      <trkpt lat="43.88388" lon="4.13121">
        <ele>246.23</ele>
        <time>2018-12-07T09:54:16Z</time>
      </trkpt>
      <trkpt lat="43.88391" lon="4.13117">
        <ele>245.75</ele>
        <time>2018-12-07T09:54:20Z</time>
      </trkpt>
      <trkpt lat="43.88399" lon="4.13108">
        <ele>244.31</ele>
        <time>2018-12-07T09:54:33Z</time>
      </trkpt>
      <trkpt lat="43.88405" lon="4.13099">
        <ele>242.87</ele>
        <time>2018-12-07T09:54:43Z</time>
      </trkpt>
      <trkpt lat="43.88411" lon="4.13089">
        <ele>241.43</ele>
        <time>2018-12-07T09:54:52Z</time>
      </trkpt>
      <trkpt lat="43.88412" lon="4.13086">
        <ele>240.95</ele>
        <time>2018-12-07T09:54:54Z</time>
      </trkpt>
      <trkpt lat="43.88413" lon="4.13083">
        <ele>241.43</ele>
        <time>2018-12-07T09:54:56Z</time>
      </trkpt>
      <trkpt lat="43.8842" lon="4.13072">
        <ele>239.02</ele>
        <time>2018-12-07T09:55:09Z</time>
      </trkpt>
      <trkpt lat="43.88425" lon="4.13064">
        <ele>237.58</ele>
        <time>2018-12-07T09:55:20Z</time>
      </trkpt>
      <trkpt lat="43.88427" lon="4.13061">
        <ele>237.1</ele>
        <time>2018-12-07T09:55:23Z</time>
      </trkpt>
      <trkpt lat="43.88434" lon="4.13047">
        <ele>235.18</ele>
        <time>2018-12-07T09:55:36Z</time>
      </trkpt>
      <trkpt lat="43.88435" lon="4.13047">
        <ele>235.18</ele>
        <time>2018-12-07T09:55:37Z</time>
      </trkpt>
      <trkpt lat="43.88443" lon="4.13035">
        <ele>233.26</ele>
        <time>2018-12-07T09:55:50Z</time>
      </trkpt>
      <trkpt lat="43.8845" lon="4.13023">
        <ele>231.33</ele>
        <time>2018-12-07T09:56:02Z</time>
      </trkpt>
      <trkpt lat="43.88452" lon="4.13019">
        <ele>231.33</ele>
        <time>2018-12-07T09:56:05Z</time>
      </trkpt>
      <trkpt lat="43.88461" lon="4.13005">
        <ele>229.41</ele>
        <time>2018-12-07T09:56:18Z</time>
      </trkpt>
      <trkpt lat="43.88463" lon="4.13002">
        <ele>229.41</ele>
        <time>2018-12-07T09:56:20Z</time>
      </trkpt>
      <trkpt lat="43.88472" lon="4.13002">
        <ele>220.76</ele>
        <time>2018-12-07T09:56:28Z</time>
      </trkpt>
      <trkpt lat="43.88473" lon="4.13001">
        <ele>238.06</ele>
        <time>2018-12-07T09:56:29Z</time>
      </trkpt>
      <trkpt lat="43.88474" lon="4.13001">
        <ele>229.89</ele>
        <time>2018-12-07T09:56:30Z</time>
      </trkpt>
      <trkpt lat="43.88477" lon="4.13001">
        <ele>228.45</ele>
        <time>2018-12-07T09:56:32Z</time>
      </trkpt>
      <trkpt lat="43.88481" lon="4.12999">
        <ele>227.97</ele>
        <time>2018-12-07T09:56:36Z</time>
      </trkpt>
      <trkpt lat="43.88486" lon="4.13">
        <ele>227.01</ele>
        <time>2018-12-07T09:56:41Z</time>
      </trkpt>
      <trkpt lat="43.88498" lon="4.12999">
        <ele>225.57</ele>
        <time>2018-12-07T09:56:55Z</time>
      </trkpt>
      <trkpt lat="43.88505" lon="4.12998">
        <ele>225.09</ele>
        <time>2018-12-07T09:57:02Z</time>
      </trkpt>
      <trkpt lat="43.88522" lon="4.12999">
        <ele>223.16</ele>
        <time>2018-12-07T09:57:17Z</time>
      </trkpt>
      <trkpt lat="43.88534" lon="4.12998">
        <ele>221.72</ele>
        <time>2018-12-07T09:57:30Z</time>
      </trkpt>
      <trkpt lat="43.88544" lon="4.12999">
        <ele>220.28</ele>
        <time>2018-12-07T09:57:39Z</time>
      </trkpt>
      <trkpt lat="43.88546" lon="4.12999">
        <ele>220.76</ele>
        <time>2018-12-07T09:57:41Z</time>
      </trkpt>
      <trkpt lat="43.88557" lon="4.12999">
        <ele>220.28</ele>
        <time>2018-12-07T09:57:52Z</time>
      </trkpt>
      <trkpt lat="43.88562" lon="4.13002">
        <ele>218.84</ele>
        <time>2018-12-07T09:58:04Z</time>
      </trkpt>
      <trkpt lat="43.88565" lon="4.13002">
        <ele>218.84</ele>
        <time>2018-12-07T09:58:07Z</time>
      </trkpt>
      <trkpt lat="43.88578" lon="4.12999">
        <ele>218.36</ele>
        <time>2018-12-07T09:58:19Z</time>
      </trkpt>
      <trkpt lat="43.88587" lon="4.13002">
        <ele>218.36</ele>
        <time>2018-12-07T09:58:30Z</time>
      </trkpt>
      <trkpt lat="43.8859" lon="4.13">
        <ele>218.36</ele>
        <time>2018-12-07T09:58:33Z</time>
      </trkpt>
      <trkpt lat="43.88597" lon="4.12999">
        <ele>218.36</ele>
        <time>2018-12-07T09:58:40Z</time>
      </trkpt>
      <trkpt lat="43.8861" lon="4.12997">
        <ele>217.88</ele>
        <time>2018-12-07T09:58:50Z</time>
      </trkpt>
      <trkpt lat="43.88617" lon="4.12998">
        <ele>217.88</ele>
        <time>2018-12-07T09:59:03Z</time>
      </trkpt>
      <trkpt lat="43.88621" lon="4.12998">
        <ele>217.88</ele>
        <time>2018-12-07T09:59:15Z</time>
      </trkpt>
      <trkpt lat="43.88622" lon="4.12998">
        <ele>217.88</ele>
        <time>2018-12-07T09:59:40Z</time>
      </trkpt>
      <trkpt lat="43.88623" lon="4.12996">
        <ele>219.32</ele>
        <time>2018-12-07T10:00:06Z</time>
      </trkpt>
      <trkpt lat="43.88623" lon="4.12995">
        <ele>217.88</ele>
        <time>2018-12-07T10:00:17Z</time>
      </trkpt>
      <trkpt lat="43.88628" lon="4.12979">
        <ele>219.32</ele>
        <time>2018-12-07T10:00:29Z</time>
      </trkpt>
      <trkpt lat="43.88629" lon="4.12974">
        <ele>218.84</ele>
        <time>2018-12-07T10:00:33Z</time>
      </trkpt>
      <trkpt lat="43.88634" lon="4.12959">
        <ele>219.32</ele>
        <time>2018-12-07T10:00:43Z</time>
      </trkpt>
      <trkpt lat="43.88637" lon="4.1295">
        <ele>219.8</ele>
        <time>2018-12-07T10:00:51Z</time>
      </trkpt>
      <trkpt lat="43.88639" lon="4.12942">
        <ele>219.8</ele>
        <time>2018-12-07T10:01:02Z</time>
      </trkpt>
      <trkpt lat="43.88642" lon="4.12932">
        <ele>220.76</ele>
        <time>2018-12-07T10:01:14Z</time>
      </trkpt>
      <trkpt lat="43.88644" lon="4.12925">
        <ele>220.76</ele>
        <time>2018-12-07T10:01:19Z</time>
      </trkpt>
      <trkpt lat="43.88649" lon="4.12915">
        <ele>220.76</ele>
        <time>2018-12-07T10:01:29Z</time>
      </trkpt>
      <trkpt lat="43.88649" lon="4.12913">
        <ele>220.76</ele>
        <time>2018-12-07T10:01:30Z</time>
      </trkpt>
      <trkpt lat="43.88655" lon="4.12897">
        <ele>221.24</ele>
        <time>2018-12-07T10:01:42Z</time>
      </trkpt>
      <trkpt lat="43.8866" lon="4.12887">
        <ele>222.2</ele>
        <time>2018-12-07T10:01:53Z</time>
      </trkpt>
      <trkpt lat="43.88661" lon="4.12881">
        <ele>222.68</ele>
        <time>2018-12-07T10:01:58Z</time>
      </trkpt>
      <trkpt lat="43.88666" lon="4.12873">
        <ele>222.2</ele>
        <time>2018-12-07T10:02:05Z</time>
      </trkpt>
      <trkpt lat="43.88675" lon="4.12862">
        <ele>223.16</ele>
        <time>2018-12-07T10:02:17Z</time>
      </trkpt>
      <trkpt lat="43.88687" lon="4.12847">
        <ele>222.68</ele>
        <time>2018-12-07T10:02:30Z</time>
      </trkpt>
      <trkpt lat="43.88694" lon="4.12842">
        <ele>238.06</ele>
        <time>2018-12-07T10:02:39Z</time>
      </trkpt>
      <trkpt lat="43.88696" lon="4.12841">
        <ele>222.68</ele>
        <time>2018-12-07T10:02:40Z</time>
      </trkpt>
      <trkpt lat="43.88704" lon="4.1284">
        <ele>223.64</ele>
        <time>2018-12-07T10:02:51Z</time>
      </trkpt>
      <trkpt lat="43.8871" lon="4.12842">
        <ele>223.64</ele>
        <time>2018-12-07T10:03:02Z</time>
      </trkpt>
      <trkpt lat="43.88713" lon="4.12843">
        <ele>225.09</ele>
        <time>2018-12-07T10:03:04Z</time>
      </trkpt>
      <trkpt lat="43.88725" lon="4.12846">
        <ele>225.09</ele>
        <time>2018-12-07T10:03:15Z</time>
      </trkpt>
      <trkpt lat="43.88732" lon="4.12848">
        <ele>225.09</ele>
        <time>2018-12-07T10:03:21Z</time>
      </trkpt>
      <trkpt lat="43.88743" lon="4.1285">
        <ele>226.53</ele>
        <time>2018-12-07T10:03:30Z</time>
      </trkpt>
      <trkpt lat="43.88757" lon="4.12852">
        <ele>227.01</ele>
        <time>2018-12-07T10:03:43Z</time>
      </trkpt>
      <trkpt lat="43.88772" lon="4.12856">
        <ele>226.53</ele>
        <time>2018-12-07T10:03:56Z</time>
      </trkpt>
      <trkpt lat="43.88775" lon="4.12857">
        <ele>226.05</ele>
        <time>2018-12-07T10:03:59Z</time>
      </trkpt>
      <trkpt lat="43.8878" lon="4.12859">
        <ele>226.05</ele>
        <time>2018-12-07T10:04:03Z</time>
      </trkpt>
      <trkpt lat="43.88794" lon="4.12867">
        <ele>224.61</ele>
        <time>2018-12-07T10:04:15Z</time>
      </trkpt>
      <trkpt lat="43.88799" lon="4.12872">
        <ele>223.64</ele>
        <time>2018-12-07T10:04:22Z</time>
      </trkpt>
      <trkpt lat="43.88819" lon="4.12879">
        <ele>223.16</ele>
        <time>2018-12-07T10:04:39Z</time>
      </trkpt>
      <trkpt lat="43.88832" lon="4.12883">
        <ele>223.64</ele>
        <time>2018-12-07T10:04:50Z</time>
      </trkpt>
      <trkpt lat="43.8884" lon="4.12886">
        <ele>224.12</ele>
        <time>2018-12-07T10:04:57Z</time>
      </trkpt>
      <trkpt lat="43.88853" lon="4.12894">
        <ele>223.64</ele>
        <time>2018-12-07T10:05:10Z</time>
      </trkpt>
      <trkpt lat="43.88865" lon="4.12901">
        <ele>223.64</ele>
        <time>2018-12-07T10:05:21Z</time>
      </trkpt>
      <trkpt lat="43.88875" lon="4.12907">
        <ele>223.16</ele>
        <time>2018-12-07T10:05:31Z</time>
      </trkpt>
      <trkpt lat="43.8888" lon="4.12913">
        <ele>223.16</ele>
        <time>2018-12-07T10:05:36Z</time>
      </trkpt>
      <trkpt lat="43.88888" lon="4.12919">
        <ele>223.16</ele>
        <time>2018-12-07T10:05:45Z</time>
      </trkpt>
      <trkpt lat="43.88901" lon="4.12934">
        <ele>221.72</ele>
        <time>2018-12-07T10:05:58Z</time>
      </trkpt>
      <trkpt lat="43.88913" lon="4.12946">
        <ele>220.76</ele>
        <time>2018-12-07T10:06:10Z</time>
      </trkpt>
      <trkpt lat="43.88916" lon="4.12949">
        <ele>220.76</ele>
        <time>2018-12-07T10:06:15Z</time>
      </trkpt>
      <trkpt lat="43.88921" lon="4.12952">
        <ele>220.28</ele>
        <time>2018-12-07T10:06:19Z</time>
      </trkpt>
      <trkpt lat="43.88927" lon="4.12956">
        <ele>220.28</ele>
        <time>2018-12-07T10:06:25Z</time>
      </trkpt>
      <trkpt lat="43.88928" lon="4.12956">
        <ele>220.28</ele>
        <time>2018-12-07T10:06:27Z</time>
      </trkpt>
      <trkpt lat="43.88945" lon="4.12973">
        <ele>219.8</ele>
        <time>2018-12-07T10:06:44Z</time>
      </trkpt>
      <trkpt lat="43.88946" lon="4.12973">
        <ele>219.8</ele>
        <time>2018-12-07T10:06:45Z</time>
      </trkpt>
      <trkpt lat="43.88951" lon="4.12977">
        <ele>219.8</ele>
        <time>2018-12-07T10:06:49Z</time>
      </trkpt>
      <trkpt lat="43.88956" lon="4.1298">
        <ele>219.32</ele>
        <time>2018-12-07T10:06:54Z</time>
      </trkpt>
      <trkpt lat="43.88958" lon="4.1298">
        <ele>220.28</ele>
        <time>2018-12-07T10:06:57Z</time>
      </trkpt>
      <trkpt lat="43.88969" lon="4.1298">
        <ele>220.28</ele>
        <time>2018-12-07T10:07:11Z</time>
      </trkpt>
      <trkpt lat="43.8897" lon="4.12978">
        <ele>220.76</ele>
        <time>2018-12-07T10:07:13Z</time>
      </trkpt>
      <trkpt lat="43.88974" lon="4.12976">
        <ele>219.8</ele>
        <time>2018-12-07T10:07:17Z</time>
      </trkpt>
      <trkpt lat="43.8898" lon="4.12968">
        <ele>221.72</ele>
        <time>2018-12-07T10:07:24Z</time>
      </trkpt>
      <trkpt lat="43.88989" lon="4.12958">
        <ele>221.72</ele>
        <time>2018-12-07T10:07:35Z</time>
      </trkpt>
      <trkpt lat="43.88997" lon="4.12952">
        <ele>223.16</ele>
        <time>2018-12-07T10:07:43Z</time>
      </trkpt>
      <trkpt lat="43.88999" lon="4.12952">
        <ele>222.68</ele>
        <time>2018-12-07T10:07:45Z</time>
      </trkpt>
      <trkpt lat="43.89002" lon="4.12951">
        <ele>224.12</ele>
        <time>2018-12-07T10:07:47Z</time>
      </trkpt>
      <trkpt lat="43.89012" lon="4.12948">
        <ele>225.57</ele>
        <time>2018-12-07T10:07:57Z</time>
      </trkpt>
      <trkpt lat="43.89022" lon="4.1295">
        <ele>226.05</ele>
        <time>2018-12-07T10:08:05Z</time>
      </trkpt>
      <trkpt lat="43.89032" lon="4.12948">
        <ele>228.45</ele>
        <time>2018-12-07T10:08:16Z</time>
      </trkpt>
      <trkpt lat="43.89044" lon="4.12938">
        <ele>227.97</ele>
        <time>2018-12-07T10:08:29Z</time>
      </trkpt>
      <trkpt lat="43.89048" lon="4.12933">
        <ele>231.33</ele>
        <time>2018-12-07T10:08:34Z</time>
      </trkpt>
      <trkpt lat="43.89049" lon="4.12929">
        <ele>228.93</ele>
        <time>2018-12-07T10:08:37Z</time>
      </trkpt>
      <trkpt lat="43.89051" lon="4.12927">
        <ele>230.85</ele>
        <time>2018-12-07T10:08:39Z</time>
      </trkpt>
      <trkpt lat="43.89052" lon="4.12923">
        <ele>230.85</ele>
        <time>2018-12-07T10:08:42Z</time>
      </trkpt>
      <trkpt lat="43.89059" lon="4.12916">
        <ele>231.81</ele>
        <time>2018-12-07T10:08:53Z</time>
      </trkpt>
      <trkpt lat="43.89061" lon="4.12913">
        <ele>232.3</ele>
        <time>2018-12-07T10:09:06Z</time>
      </trkpt>
      <trkpt lat="43.89061" lon="4.12912">
        <ele>232.3</ele>
        <time>2018-12-07T10:09:27Z</time>
      </trkpt>
      <trkpt lat="43.89065" lon="4.12911">
        <ele>232.3</ele>
        <time>2018-12-07T10:09:38Z</time>
      </trkpt>
      <trkpt lat="43.89073" lon="4.12907">
        <ele>232.78</ele>
        <time>2018-12-07T10:09:50Z</time>
      </trkpt>
      <trkpt lat="43.8908" lon="4.12906">
        <ele>232.3</ele>
        <time>2018-12-07T10:09:57Z</time>
      </trkpt>
      <trkpt lat="43.89092" lon="4.12902">
        <ele>233.74</ele>
        <time>2018-12-07T10:10:09Z</time>
      </trkpt>
      <trkpt lat="43.891" lon="4.129">
        <ele>236.14</ele>
        <time>2018-12-07T10:10:18Z</time>
      </trkpt>
      <trkpt lat="43.89108" lon="4.12901">
        <ele>234.7</ele>
        <time>2018-12-07T10:10:25Z</time>
      </trkpt>
      <trkpt lat="43.89119" lon="4.129">
        <ele>234.22</ele>
        <time>2018-12-07T10:10:34Z</time>
      </trkpt>
      <trkpt lat="43.89132" lon="4.12899">
        <ele>234.7</ele>
        <time>2018-12-07T10:10:45Z</time>
      </trkpt>
      <trkpt lat="43.89134" lon="4.12899">
        <ele>236.14</ele>
        <time>2018-12-07T10:10:47Z</time>
      </trkpt>
      <trkpt lat="43.89141" lon="4.12901">
        <ele>235.66</ele>
        <time>2018-12-07T10:10:53Z</time>
      </trkpt>
      <trkpt lat="43.89148" lon="4.12902">
        <ele>236.14</ele>
        <time>2018-12-07T10:10:59Z</time>
      </trkpt>
      <trkpt lat="43.89165" lon="4.12908">
        <ele>238.06</ele>
        <time>2018-12-07T10:11:14Z</time>
      </trkpt>
      <trkpt lat="43.89175" lon="4.12915">
        <ele>238.06</ele>
        <time>2018-12-07T10:11:27Z</time>
      </trkpt>
      <trkpt lat="43.89177" lon="4.12915">
        <ele>238.06</ele>
        <time>2018-12-07T10:11:51Z</time>
      </trkpt>
      <trkpt lat="43.89179" lon="4.12917">
        <ele>239.02</ele>
        <time>2018-12-07T10:11:54Z</time>
      </trkpt>
      <trkpt lat="43.89183" lon="4.1292">
        <ele>238.06</ele>
        <time>2018-12-07T10:11:59Z</time>
      </trkpt>
      <trkpt lat="43.89187" lon="4.12924">
        <ele>238.06</ele>
        <time>2018-12-07T10:12:03Z</time>
      </trkpt>
      <trkpt lat="43.89197" lon="4.12932">
        <ele>237.1</ele>
        <time>2018-12-07T10:12:14Z</time>
      </trkpt>
      <trkpt lat="43.89198" lon="4.12933">
        <ele>237.1</ele>
        <time>2018-12-07T10:12:16Z</time>
      </trkpt>
      <trkpt lat="43.89201" lon="4.12934">
        <ele>233.74</ele>
        <time>2018-12-07T10:12:18Z</time>
      </trkpt>
      <trkpt lat="43.89202" lon="4.12935">
        <ele>239.99</ele>
        <time>2018-12-07T10:12:19Z</time>
      </trkpt>
      <trkpt lat="43.89204" lon="4.12936">
        <ele>239.99</ele>
        <time>2018-12-07T10:12:21Z</time>
      </trkpt>
      <trkpt lat="43.89206" lon="4.12938">
        <ele>237.1</ele>
        <time>2018-12-07T10:12:23Z</time>
      </trkpt>
      <trkpt lat="43.8921" lon="4.12941">
        <ele>241.91</ele>
        <time>2018-12-07T10:12:27Z</time>
      </trkpt>
      <trkpt lat="43.89213" lon="4.12942">
        <ele>236.62</ele>
        <time>2018-12-07T10:12:30Z</time>
      </trkpt>
      <trkpt lat="43.89222" lon="4.12947">
        <ele>236.62</ele>
        <time>2018-12-07T10:12:39Z</time>
      </trkpt>
      <trkpt lat="43.89234" lon="4.12954">
        <ele>236.14</ele>
        <time>2018-12-07T10:12:50Z</time>
      </trkpt>
      <trkpt lat="43.89241" lon="4.12958">
        <ele>235.66</ele>
        <time>2018-12-07T10:12:56Z</time>
      </trkpt>
      <trkpt lat="43.89246" lon="4.1296">
        <ele>235.66</ele>
        <time>2018-12-07T10:13:01Z</time>
      </trkpt>
      <trkpt lat="43.89263" lon="4.12969">
        <ele>235.18</ele>
        <time>2018-12-07T10:13:16Z</time>
      </trkpt>
      <trkpt lat="43.89274" lon="4.12977">
        <ele>235.18</ele>
        <time>2018-12-07T10:13:28Z</time>
      </trkpt>
      <trkpt lat="43.89284" lon="4.12978">
        <ele>235.66</ele>
        <time>2018-12-07T10:13:37Z</time>
      </trkpt>
      <trkpt lat="43.893" lon="4.12982">
        <ele>235.66</ele>
        <time>2018-12-07T10:13:50Z</time>
      </trkpt>
      <trkpt lat="43.89311" lon="4.12985">
        <ele>235.66</ele>
        <time>2018-12-07T10:14:00Z</time>
      </trkpt>
      <trkpt lat="43.89321" lon="4.12992">
        <ele>235.66</ele>
        <time>2018-12-07T10:14:10Z</time>
      </trkpt>
      <trkpt lat="43.89324" lon="4.12993">
        <ele>235.18</ele>
        <time>2018-12-07T10:14:13Z</time>
      </trkpt>
      <trkpt lat="43.89328" lon="4.12995">
        <ele>235.18</ele>
        <time>2018-12-07T10:14:17Z</time>
      </trkpt>
      <trkpt lat="43.89337" lon="4.13">
        <ele>235.18</ele>
        <time>2018-12-07T10:14:25Z</time>
      </trkpt>
      <trkpt lat="43.89345" lon="4.13007">
        <ele>235.18</ele>
        <time>2018-12-07T10:14:34Z</time>
      </trkpt>
      <trkpt lat="43.89356" lon="4.13013">
        <ele>234.22</ele>
        <time>2018-12-07T10:14:44Z</time>
      </trkpt>
      <trkpt lat="43.89365" lon="4.13019">
        <ele>233.74</ele>
        <time>2018-12-07T10:14:54Z</time>
      </trkpt>
      <trkpt lat="43.89378" lon="4.13028">
        <ele>233.26</ele>
        <time>2018-12-07T10:15:06Z</time>
      </trkpt>
      <trkpt lat="43.89383" lon="4.13031">
        <ele>232.3</ele>
        <time>2018-12-07T10:15:12Z</time>
      </trkpt>
      <trkpt lat="43.89394" lon="4.13039">
        <ele>231.33</ele>
        <time>2018-12-07T10:15:23Z</time>
      </trkpt>
      <trkpt lat="43.89398" lon="4.13043">
        <ele>230.85</ele>
        <time>2018-12-07T10:15:28Z</time>
      </trkpt>
      <trkpt lat="43.89401" lon="4.13043">
        <ele>230.85</ele>
        <time>2018-12-07T10:15:31Z</time>
      </trkpt>
      <trkpt lat="43.89416" lon="4.1305">
        <ele>230.37</ele>
        <time>2018-12-07T10:15:44Z</time>
      </trkpt>
      <trkpt lat="43.89426" lon="4.13054">
        <ele>229.89</ele>
        <time>2018-12-07T10:15:53Z</time>
      </trkpt>
      <trkpt lat="43.89432" lon="4.13057">
        <ele>228.93</ele>
        <time>2018-12-07T10:15:59Z</time>
      </trkpt>
      <trkpt lat="43.89437" lon="4.13058">
        <ele>228.93</ele>
        <time>2018-12-07T10:16:04Z</time>
      </trkpt>
      <trkpt lat="43.89454" lon="4.13064">
        <ele>228.45</ele>
        <time>2018-12-07T10:16:17Z</time>
      </trkpt>
      <trkpt lat="43.89468" lon="4.13071">
        <ele>227.97</ele>
        <time>2018-12-07T10:16:29Z</time>
      </trkpt>
      <trkpt lat="43.89471" lon="4.13072">
        <ele>227.49</ele>
        <time>2018-12-07T10:16:32Z</time>
      </trkpt>
      <trkpt lat="43.89473" lon="4.13074">
        <ele>227.49</ele>
        <time>2018-12-07T10:16:35Z</time>
      </trkpt>
      <trkpt lat="43.89482" lon="4.1308">
        <ele>227.01</ele>
        <time>2018-12-07T10:16:44Z</time>
      </trkpt>
      <trkpt lat="43.89485" lon="4.13082">
        <ele>226.53</ele>
        <time>2018-12-07T10:16:47Z</time>
      </trkpt>
      <trkpt lat="43.89491" lon="4.13085">
        <ele>226.05</ele>
        <time>2018-12-07T10:16:54Z</time>
      </trkpt>
      <trkpt lat="43.89496" lon="4.13087">
        <ele>226.05</ele>
        <time>2018-12-07T10:16:58Z</time>
      </trkpt>
      <trkpt lat="43.89499" lon="4.1309">
        <ele>225.57</ele>
        <time>2018-12-07T10:17:01Z</time>
      </trkpt>
      <trkpt lat="43.89502" lon="4.13091">
        <ele>226.05</ele>
        <time>2018-12-07T10:17:04Z</time>
      </trkpt>
      <trkpt lat="43.89508" lon="4.13096">
        <ele>225.57</ele>
        <time>2018-12-07T10:17:11Z</time>
      </trkpt>
      <trkpt lat="43.89519" lon="4.13103">
        <ele>225.09</ele>
        <time>2018-12-07T10:17:22Z</time>
      </trkpt>
      <trkpt lat="43.89522" lon="4.13106">
        <ele>225.09</ele>
        <time>2018-12-07T10:17:25Z</time>
      </trkpt>
      <trkpt lat="43.89529" lon="4.13113">
        <ele>224.61</ele>
        <time>2018-12-07T10:17:33Z</time>
      </trkpt>
      <trkpt lat="43.89534" lon="4.1312">
        <ele>224.61</ele>
        <time>2018-12-07T10:17:40Z</time>
      </trkpt>
      <trkpt lat="43.89537" lon="4.13122">
        <ele>224.12</ele>
        <time>2018-12-07T10:17:42Z</time>
      </trkpt>
      <trkpt lat="43.89548" lon="4.13135">
        <ele>224.12</ele>
        <time>2018-12-07T10:17:55Z</time>
      </trkpt>
      <trkpt lat="43.89548" lon="4.13137">
        <ele>224.12</ele>
        <time>2018-12-07T10:18:04Z</time>
      </trkpt>
      <trkpt lat="43.89549" lon="4.13137">
        <ele>224.12</ele>
        <time>2018-12-07T10:18:22Z</time>
      </trkpt>
      <trkpt lat="43.89552" lon="4.13138">
        <ele>223.64</ele>
        <time>2018-12-07T10:18:25Z</time>
      </trkpt>
      <trkpt lat="43.89555" lon="4.13141">
        <ele>223.64</ele>
        <time>2018-12-07T10:18:29Z</time>
      </trkpt>
      <trkpt lat="43.8956" lon="4.13146">
        <ele>223.64</ele>
        <time>2018-12-07T10:18:36Z</time>
      </trkpt>
      <trkpt lat="43.89575" lon="4.13156">
        <ele>222.2</ele>
        <time>2018-12-07T10:18:50Z</time>
      </trkpt>
      <trkpt lat="43.89591" lon="4.13167">
        <ele>222.68</ele>
        <time>2018-12-07T10:19:06Z</time>
      </trkpt>
      <trkpt lat="43.89605" lon="4.13174">
        <ele>222.2</ele>
        <time>2018-12-07T10:19:19Z</time>
      </trkpt>
      <trkpt lat="43.8962" lon="4.13179">
        <ele>215.95</ele>
        <time>2018-12-07T10:19:33Z</time>
      </trkpt>
      <trkpt lat="43.89621" lon="4.13179">
        <ele>227.97</ele>
        <time>2018-12-07T10:19:34Z</time>
      </trkpt>
      <trkpt lat="43.89622" lon="4.13179">
        <ele>226.05</ele>
        <time>2018-12-07T10:19:35Z</time>
      </trkpt>
      <trkpt lat="43.89625" lon="4.13179">
        <ele>229.41</ele>
        <time>2018-12-07T10:19:37Z</time>
      </trkpt>
      <trkpt lat="43.89626" lon="4.1318">
        <ele>222.2</ele>
        <time>2018-12-07T10:19:38Z</time>
      </trkpt>
      <trkpt lat="43.89632" lon="4.13183">
        <ele>216.91</ele>
        <time>2018-12-07T10:19:44Z</time>
      </trkpt>
      <trkpt lat="43.89633" lon="4.13183">
        <ele>222.2</ele>
        <time>2018-12-07T10:19:45Z</time>
      </trkpt>
      <trkpt lat="43.89639" lon="4.13185">
        <ele>221.72</ele>
        <time>2018-12-07T10:19:50Z</time>
      </trkpt>
      <trkpt lat="43.89653" lon="4.13186">
        <ele>221.24</ele>
        <time>2018-12-07T10:20:02Z</time>
      </trkpt>
      <trkpt lat="43.89658" lon="4.13186">
        <ele>221.24</ele>
        <time>2018-12-07T10:20:07Z</time>
      </trkpt>
      <trkpt lat="43.89666" lon="4.13188">
        <ele>220.76</ele>
        <time>2018-12-07T10:20:14Z</time>
      </trkpt>
      <trkpt lat="43.89669" lon="4.13188">
        <ele>221.24</ele>
        <time>2018-12-07T10:20:17Z</time>
      </trkpt>
      <trkpt lat="43.89676" lon="4.13191">
        <ele>221.24</ele>
        <time>2018-12-07T10:20:24Z</time>
      </trkpt>
      <trkpt lat="43.89682" lon="4.13197">
        <ele>220.76</ele>
        <time>2018-12-07T10:20:29Z</time>
      </trkpt>
      <trkpt lat="43.89684" lon="4.13201">
        <ele>220.76</ele>
        <time>2018-12-07T10:20:33Z</time>
      </trkpt>
      <trkpt lat="43.89686" lon="4.13216">
        <ele>219.8</ele>
        <time>2018-12-07T10:20:42Z</time>
      </trkpt>
      <trkpt lat="43.89686" lon="4.13225">
        <ele>219.8</ele>
        <time>2018-12-07T10:20:47Z</time>
      </trkpt>
      <trkpt lat="43.89685" lon="4.13252">
        <ele>219.8</ele>
        <time>2018-12-07T10:21:04Z</time>
      </trkpt>
      <trkpt lat="43.89686" lon="4.13276">
        <ele>218.36</ele>
        <time>2018-12-07T10:21:18Z</time>
      </trkpt>
      <trkpt lat="43.89689" lon="4.13298">
        <ele>219.32</ele>
        <time>2018-12-07T10:21:32Z</time>
      </trkpt>
      <trkpt lat="43.89691" lon="4.13322">
        <ele>218.36</ele>
        <time>2018-12-07T10:21:47Z</time>
      </trkpt>
      <trkpt lat="43.89696" lon="4.13345">
        <ele>218.36</ele>
        <time>2018-12-07T10:22:02Z</time>
      </trkpt>
      <trkpt lat="43.897" lon="4.13363">
        <ele>218.36</ele>
        <time>2018-12-07T10:22:15Z</time>
      </trkpt>
      <trkpt lat="43.89701" lon="4.13375">
        <ele>217.4</ele>
        <time>2018-12-07T10:22:22Z</time>
      </trkpt>
      <trkpt lat="43.897" lon="4.13397">
        <ele>218.36</ele>
        <time>2018-12-07T10:22:38Z</time>
      </trkpt>
      <trkpt lat="43.89702" lon="4.1342">
        <ele>218.84</ele>
        <time>2018-12-07T10:22:52Z</time>
      </trkpt>
      <trkpt lat="43.89702" lon="4.13422">
        <ele>218.84</ele>
        <time>2018-12-07T10:22:53Z</time>
      </trkpt>
      <trkpt lat="43.89699" lon="4.1343">
        <ele>218.84</ele>
        <time>2018-12-07T10:22:58Z</time>
      </trkpt>
      <trkpt lat="43.89699" lon="4.13433">
        <ele>218.84</ele>
        <time>2018-12-07T10:23:00Z</time>
      </trkpt>
      <trkpt lat="43.89691" lon="4.13453">
        <ele>218.36</ele>
        <time>2018-12-07T10:23:13Z</time>
      </trkpt>
      <trkpt lat="43.8969" lon="4.13457">
        <ele>219.32</ele>
        <time>2018-12-07T10:23:16Z</time>
      </trkpt>
      <trkpt lat="43.89679" lon="4.13473">
        <ele>218.84</ele>
        <time>2018-12-07T10:23:29Z</time>
      </trkpt>
      <trkpt lat="43.89667" lon="4.13486">
        <ele>219.32</ele>
        <time>2018-12-07T10:23:42Z</time>
      </trkpt>
      <trkpt lat="43.89658" lon="4.13497">
        <ele>220.76</ele>
        <time>2018-12-07T10:23:54Z</time>
      </trkpt>
      <trkpt lat="43.89646" lon="4.1351">
        <ele>220.28</ele>
        <time>2018-12-07T10:24:08Z</time>
      </trkpt>
      <trkpt lat="43.89636" lon="4.13521">
        <ele>220.76</ele>
        <time>2018-12-07T10:24:19Z</time>
      </trkpt>
      <trkpt lat="43.89635" lon="4.13524">
        <ele>220.28</ele>
        <time>2018-12-07T10:24:22Z</time>
      </trkpt>
      <trkpt lat="43.89623" lon="4.13534">
        <ele>222.68</ele>
        <time>2018-12-07T10:24:34Z</time>
      </trkpt>
      <trkpt lat="43.89622" lon="4.13536">
        <ele>222.68</ele>
        <time>2018-12-07T10:24:36Z</time>
      </trkpt>
      <trkpt lat="43.89611" lon="4.13546">
        <ele>223.64</ele>
        <time>2018-12-07T10:24:48Z</time>
      </trkpt>
      <trkpt lat="43.89605" lon="4.13554">
        <ele>226.05</ele>
        <time>2018-12-07T10:24:56Z</time>
      </trkpt>
      <trkpt lat="43.89596" lon="4.13564">
        <ele>226.53</ele>
        <time>2018-12-07T10:25:07Z</time>
      </trkpt>
      <trkpt lat="43.89594" lon="4.13566">
        <ele>226.05</ele>
        <time>2018-12-07T10:25:09Z</time>
      </trkpt>
      <trkpt lat="43.89587" lon="4.13572">
        <ele>227.97</ele>
        <time>2018-12-07T10:25:17Z</time>
      </trkpt>
      <trkpt lat="43.89583" lon="4.13576">
        <ele>229.89</ele>
        <time>2018-12-07T10:25:22Z</time>
      </trkpt>
      <trkpt lat="43.8958" lon="4.13579">
        <ele>229.41</ele>
        <time>2018-12-07T10:25:26Z</time>
      </trkpt>
      <trkpt lat="43.89575" lon="4.13583">
        <ele>230.37</ele>
        <time>2018-12-07T10:25:38Z</time>
      </trkpt>
      <trkpt lat="43.89572" lon="4.13585">
        <ele>231.33</ele>
        <time>2018-12-07T10:25:42Z</time>
      </trkpt>
      <trkpt lat="43.89563" lon="4.13593">
        <ele>231.33</ele>
        <time>2018-12-07T10:25:54Z</time>
      </trkpt>
      <trkpt lat="43.89552" lon="4.13604">
        <ele>231.81</ele>
        <time>2018-12-07T10:26:07Z</time>
      </trkpt>
      <trkpt lat="43.89551" lon="4.13605">
        <ele>231.81</ele>
        <time>2018-12-07T10:26:09Z</time>
      </trkpt>
      <trkpt lat="43.89548" lon="4.13609">
        <ele>232.3</ele>
        <time>2018-12-07T10:26:14Z</time>
      </trkpt>
      <trkpt lat="43.89543" lon="4.13612">
        <ele>231.81</ele>
        <time>2018-12-07T10:26:19Z</time>
      </trkpt>
      <trkpt lat="43.89539" lon="4.13616">
        <ele>231.81</ele>
        <time>2018-12-07T10:26:24Z</time>
      </trkpt>
      <trkpt lat="43.89527" lon="4.13633">
        <ele>231.33</ele>
        <time>2018-12-07T10:26:38Z</time>
      </trkpt>
      <trkpt lat="43.89526" lon="4.13634">
        <ele>233.26</ele>
        <time>2018-12-07T10:26:40Z</time>
      </trkpt>
      <trkpt lat="43.89525" lon="4.13639">
        <ele>232.78</ele>
        <time>2018-12-07T10:26:44Z</time>
      </trkpt>
      <trkpt lat="43.89524" lon="4.13649">
        <ele>234.7</ele>
        <time>2018-12-07T10:26:52Z</time>
      </trkpt>
      <trkpt lat="43.89524" lon="4.13651">
        <ele>233.74</ele>
        <time>2018-12-07T10:26:54Z</time>
      </trkpt>
      <trkpt lat="43.89524" lon="4.13654">
        <ele>234.7</ele>
        <time>2018-12-07T10:26:56Z</time>
      </trkpt>
      <trkpt lat="43.89524" lon="4.1366">
        <ele>238.54</ele>
        <time>2018-12-07T10:27:01Z</time>
      </trkpt>
      <trkpt lat="43.89526" lon="4.13665">
        <ele>235.66</ele>
        <time>2018-12-07T10:27:06Z</time>
      </trkpt>
      <trkpt lat="43.89527" lon="4.13669">
        <ele>236.62</ele>
        <time>2018-12-07T10:27:09Z</time>
      </trkpt>
      <trkpt lat="43.89531" lon="4.13685">
        <ele>237.58</ele>
        <time>2018-12-07T10:27:22Z</time>
      </trkpt>
      <trkpt lat="43.89532" lon="4.13689">
        <ele>239.02</ele>
        <time>2018-12-07T10:27:25Z</time>
      </trkpt>
      <trkpt lat="43.89532" lon="4.13693">
        <ele>237.58</ele>
        <time>2018-12-07T10:27:27Z</time>
      </trkpt>
      <trkpt lat="43.89531" lon="4.13713">
        <ele>238.54</ele>
        <time>2018-12-07T10:27:40Z</time>
      </trkpt>
      <trkpt lat="43.8953" lon="4.13727">
        <ele>239.51</ele>
        <time>2018-12-07T10:27:50Z</time>
      </trkpt>
      <trkpt lat="43.8953" lon="4.13749">
        <ele>240.95</ele>
        <time>2018-12-07T10:28:05Z</time>
      </trkpt>
      <trkpt lat="43.89532" lon="4.13766">
        <ele>243.35</ele>
        <time>2018-12-07T10:28:18Z</time>
      </trkpt>
      <trkpt lat="43.89532" lon="4.13769">
        <ele>241.91</ele>
        <time>2018-12-07T10:28:20Z</time>
      </trkpt>
      <trkpt lat="43.89533" lon="4.13776">
        <ele>242.87</ele>
        <time>2018-12-07T10:28:26Z</time>
      </trkpt>
      <trkpt lat="43.89536" lon="4.13784">
        <ele>243.83</ele>
        <time>2018-12-07T10:28:33Z</time>
      </trkpt>
      <trkpt lat="43.89537" lon="4.13793">
        <ele>249.12</ele>
        <time>2018-12-07T10:28:41Z</time>
      </trkpt>
      <trkpt lat="43.89537" lon="4.13797">
        <ele>248.64</ele>
        <time>2018-12-07T10:28:44Z</time>
      </trkpt>
      <trkpt lat="43.89538" lon="4.13801">
        <ele>249.12</ele>
        <time>2018-12-07T10:28:47Z</time>
      </trkpt>
      <trkpt lat="43.89542" lon="4.13814">
        <ele>247.2</ele>
        <time>2018-12-07T10:28:59Z</time>
      </trkpt>
      <trkpt lat="43.89547" lon="4.13835">
        <ele>248.16</ele>
        <time>2018-12-07T10:29:12Z</time>
      </trkpt>
      <trkpt lat="43.89552" lon="4.13854">
        <ele>249.12</ele>
        <time>2018-12-07T10:29:25Z</time>
      </trkpt>
      <trkpt lat="43.89553" lon="4.13862">
        <ele>249.6</ele>
        <time>2018-12-07T10:29:31Z</time>
      </trkpt>
      <trkpt lat="43.89555" lon="4.13874">
        <ele>250.08</ele>
        <time>2018-12-07T10:29:41Z</time>
      </trkpt>
      <trkpt lat="43.89555" lon="4.13888">
        <ele>250.08</ele>
        <time>2018-12-07T10:29:51Z</time>
      </trkpt>
      <trkpt lat="43.89554" lon="4.13895">
        <ele>250.08</ele>
        <time>2018-12-07T10:30:04Z</time>
      </trkpt>
      <trkpt lat="43.89554" lon="4.13894">
        <ele>249.6</ele>
        <time>2018-12-07T10:30:20Z</time>
      </trkpt>
      <trkpt lat="43.89554" lon="4.13894">
        <ele>245.75</ele>
        <time>2018-12-07T10:30:24Z</time>
      </trkpt>
      <trkpt lat="43.89554" lon="4.13894">
        <ele>254.89</ele>
        <time>2018-12-07T10:30:25Z</time>
      </trkpt>
      <trkpt lat="43.89554" lon="4.13894">
        <ele>250.56</ele>
        <time>2018-12-07T10:30:26Z</time>
      </trkpt>
      <trkpt lat="43.89554" lon="4.13894">
        <ele>246.23</ele>
        <time>2018-12-07T10:30:27Z</time>
      </trkpt>
      <trkpt lat="43.89554" lon="4.13894">
        <ele>251.04</ele>
        <time>2018-12-07T10:30:28Z</time>
      </trkpt>
      <trkpt lat="43.89553" lon="4.13894">
        <ele>250.08</ele>
        <time>2018-12-07T10:30:41Z</time>
      </trkpt>
      <trkpt lat="43.89554" lon="4.13893">
        <ele>250.08</ele>
        <time>2018-12-07T10:31:04Z</time>
      </trkpt>
      <trkpt lat="43.89554" lon="4.13892">
        <ele>250.08</ele>
        <time>2018-12-07T10:31:27Z</time>
      </trkpt>
      <trkpt lat="43.89553" lon="4.13895">
        <ele>250.08</ele>
        <time>2018-12-07T10:31:47Z</time>
      </trkpt>
      <trkpt lat="43.89553" lon="4.13894">
        <ele>250.08</ele>
        <time>2018-12-07T10:32:05Z</time>
      </trkpt>
      <trkpt lat="43.89554" lon="4.13894">
        <ele>250.08</ele>
        <time>2018-12-07T10:32:28Z</time>
      </trkpt>
      <trkpt lat="43.8956" lon="4.139">
        <ele>250.08</ele>
        <time>2018-12-07T10:32:43Z</time>
      </trkpt>
      <trkpt lat="43.89563" lon="4.13901">
        <ele>249.12</ele>
        <time>2018-12-07T10:32:50Z</time>
      </trkpt>
      <trkpt lat="43.89563" lon="4.13898">
        <ele>250.08</ele>
        <time>2018-12-07T10:32:52Z</time>
      </trkpt>
      <trkpt lat="43.8957" lon="4.13889">
        <ele>250.08</ele>
        <time>2018-12-07T10:33:06Z</time>
      </trkpt>
      <trkpt lat="43.8957" lon="4.13887">
        <ele>242.87</ele>
        <time>2018-12-07T10:33:07Z</time>
      </trkpt>
      <trkpt lat="43.89569" lon="4.13886">
        <ele>243.83</ele>
        <time>2018-12-07T10:33:08Z</time>
      </trkpt>
      <trkpt lat="43.89569" lon="4.13885">
        <ele>261.62</ele>
        <time>2018-12-07T10:33:09Z</time>
      </trkpt>
      <trkpt lat="43.89569" lon="4.13884">
        <ele>250.08</ele>
        <time>2018-12-07T10:33:10Z</time>
      </trkpt>
      <trkpt lat="43.89581" lon="4.13878">
        <ele>248.16</ele>
        <time>2018-12-07T10:33:24Z</time>
      </trkpt>
      <trkpt lat="43.89585" lon="4.13877">
        <ele>248.16</ele>
        <time>2018-12-07T10:33:43Z</time>
      </trkpt>
      <trkpt lat="43.89585" lon="4.13876">
        <ele>248.16</ele>
        <time>2018-12-07T10:34:08Z</time>
      </trkpt>
      <trkpt lat="43.89585" lon="4.13882">
        <ele>246.23</ele>
        <time>2018-12-07T10:34:26Z</time>
      </trkpt>
      <trkpt lat="43.89581" lon="4.13887">
        <ele>245.27</ele>
        <time>2018-12-07T10:34:37Z</time>
      </trkpt>
      <trkpt lat="43.89562" lon="4.13894">
        <ele>237.58</ele>
        <time>2018-12-07T10:34:56Z</time>
      </trkpt>
      <trkpt lat="43.89561" lon="4.13894">
        <ele>244.79</ele>
        <time>2018-12-07T10:34:57Z</time>
      </trkpt>
      <trkpt lat="43.89544" lon="4.13893">
        <ele>244.79</ele>
        <time>2018-12-07T10:35:16Z</time>
      </trkpt>
      <trkpt lat="43.89543" lon="4.13892">
        <ele>239.02</ele>
        <time>2018-12-07T10:35:23Z</time>
      </trkpt>
      <trkpt lat="43.89543" lon="4.13892">
        <ele>256.33</ele>
        <time>2018-12-07T10:35:24Z</time>
      </trkpt>
      <trkpt lat="43.89543" lon="4.13892">
        <ele>246.72</ele>
        <time>2018-12-07T10:35:25Z</time>
      </trkpt>
      <trkpt lat="43.89543" lon="4.13891">
        <ele>244.79</ele>
        <time>2018-12-07T10:35:27Z</time>
      </trkpt>
      <trkpt lat="43.89551" lon="4.13884">
        <ele>244.31</ele>
        <time>2018-12-07T10:35:48Z</time>
      </trkpt>
      <trkpt lat="43.89559" lon="4.13871">
        <ele>244.31</ele>
        <time>2018-12-07T10:36:03Z</time>
      </trkpt>
      <trkpt lat="43.89569" lon="4.13864">
        <ele>243.35</ele>
        <time>2018-12-07T10:36:23Z</time>
      </trkpt>
      <trkpt lat="43.89569" lon="4.13866">
        <ele>233.26</ele>
        <time>2018-12-07T10:36:28Z</time>
      </trkpt>
      <trkpt lat="43.89569" lon="4.13866">
        <ele>245.75</ele>
        <time>2018-12-07T10:36:29Z</time>
      </trkpt>
      <trkpt lat="43.89569" lon="4.13867">
        <ele>243.35</ele>
        <time>2018-12-07T10:36:30Z</time>
      </trkpt>
      <trkpt lat="43.89569" lon="4.13869">
        <ele>242.87</ele>
        <time>2018-12-07T10:36:37Z</time>
      </trkpt>
      <trkpt lat="43.89569" lon="4.1387">
        <ele>243.83</ele>
        <time>2018-12-07T10:36:39Z</time>
      </trkpt>
      <trkpt lat="43.89569" lon="4.13871">
        <ele>238.54</ele>
        <time>2018-12-07T10:36:44Z</time>
      </trkpt>
      <trkpt lat="43.89569" lon="4.13872">
        <ele>238.54</ele>
        <time>2018-12-07T10:36:45Z</time>
      </trkpt>
      <trkpt lat="43.89569" lon="4.13872">
        <ele>242.39</ele>
        <time>2018-12-07T10:36:46Z</time>
      </trkpt>
      <trkpt lat="43.89591" lon="4.13917">
        <ele>243.35</ele>
        <time>2018-12-07T10:37:51Z</time>
      </trkpt>
      <trkpt lat="43.89591" lon="4.13912">
        <ele>244.31</ele>
        <time>2018-12-07T10:37:55Z</time>
      </trkpt>
      <trkpt lat="43.8959" lon="4.13907">
        <ele>243.83</ele>
        <time>2018-12-07T10:38:07Z</time>
      </trkpt>
      <trkpt lat="43.89586" lon="4.13882">
        <ele>249.12</ele>
        <time>2018-12-07T10:38:17Z</time>
      </trkpt>
      <trkpt lat="43.89586" lon="4.13881">
        <ele>245.27</ele>
        <time>2018-12-07T10:38:18Z</time>
      </trkpt>
      <trkpt lat="43.89586" lon="4.13877">
        <ele>246.23</ele>
        <time>2018-12-07T10:38:38Z</time>
      </trkpt>
      <trkpt lat="43.89589" lon="4.1389">
        <ele>249.6</ele>
        <time>2018-12-07T10:38:51Z</time>
      </trkpt>
      <trkpt lat="43.89586" lon="4.13893">
        <ele>246.23</ele>
        <time>2018-12-07T10:38:59Z</time>
      </trkpt>
      <trkpt lat="43.89585" lon="4.13893">
        <ele>249.6</ele>
        <time>2018-12-07T10:39:00Z</time>
      </trkpt>
      <trkpt lat="43.89584" lon="4.13899">
        <ele>249.12</ele>
        <time>2018-12-07T10:39:11Z</time>
      </trkpt>
      <trkpt lat="43.89586" lon="4.13909">
        <ele>247.68</ele>
        <time>2018-12-07T10:39:23Z</time>
      </trkpt>
      <trkpt lat="43.89584" lon="4.13911">
        <ele>246.72</ele>
        <time>2018-12-07T10:39:42Z</time>
      </trkpt>
      <trkpt lat="43.89583" lon="4.13913">
        <ele>243.83</ele>
        <time>2018-12-07T10:40:05Z</time>
      </trkpt>
      <trkpt lat="43.89581" lon="4.13915">
        <ele>243.83</ele>
        <time>2018-12-07T10:40:09Z</time>
      </trkpt>
      <trkpt lat="43.89581" lon="4.13916">
        <ele>240.47</ele>
        <time>2018-12-07T10:40:14Z</time>
      </trkpt>
      <trkpt lat="43.89581" lon="4.13916">
        <ele>241.43</ele>
        <time>2018-12-07T10:40:15Z</time>
      </trkpt>
      <trkpt lat="43.89581" lon="4.13916">
        <ele>243.35</ele>
        <time>2018-12-07T10:40:17Z</time>
      </trkpt>
      <trkpt lat="43.89578" lon="4.13917">
        <ele>242.87</ele>
        <time>2018-12-07T10:40:39Z</time>
      </trkpt>
      <trkpt lat="43.89579" lon="4.13918">
        <ele>239.02</ele>
        <time>2018-12-07T10:41:12Z</time>
      </trkpt>
      <trkpt lat="43.89579" lon="4.13918">
        <ele>242.87</ele>
        <time>2018-12-07T10:41:13Z</time>
      </trkpt>
      <trkpt lat="43.89582" lon="4.13922">
        <ele>247.2</ele>
        <time>2018-12-07T10:41:28Z</time>
      </trkpt>
      <trkpt lat="43.89582" lon="4.13922">
        <ele>243.35</ele>
        <time>2018-12-07T10:41:29Z</time>
      </trkpt>
      <trkpt lat="43.89582" lon="4.13921">
        <ele>236.62</ele>
        <time>2018-12-07T10:41:33Z</time>
      </trkpt>
      <trkpt lat="43.89582" lon="4.13921">
        <ele>242.87</ele>
        <time>2018-12-07T10:41:34Z</time>
      </trkpt>
      <trkpt lat="43.89582" lon="4.13921">
        <ele>247.68</ele>
        <time>2018-12-07T10:41:37Z</time>
      </trkpt>
      <trkpt lat="43.89582" lon="4.13921">
        <ele>244.79</ele>
        <time>2018-12-07T10:41:38Z</time>
      </trkpt>
      <trkpt lat="43.89582" lon="4.13922">
        <ele>243.35</ele>
        <time>2018-12-07T10:41:40Z</time>
      </trkpt>
      <trkpt lat="43.89583" lon="4.13923">
        <ele>243.35</ele>
        <time>2018-12-07T10:41:43Z</time>
      </trkpt>
      <trkpt lat="43.89587" lon="4.13918">
        <ele>237.58</ele>
        <time>2018-12-07T10:41:48Z</time>
      </trkpt>
      <trkpt lat="43.89588" lon="4.13917">
        <ele>242.39</ele>
        <time>2018-12-07T10:41:49Z</time>
      </trkpt>
      <trkpt lat="43.89589" lon="4.13916">
        <ele>246.72</ele>
        <time>2018-12-07T10:41:50Z</time>
      </trkpt>
      <trkpt lat="43.8959" lon="4.13915">
        <ele>244.31</ele>
        <time>2018-12-07T10:41:51Z</time>
      </trkpt>
      <trkpt lat="43.89591" lon="4.13914">
        <ele>239.99</ele>
        <time>2018-12-07T10:41:52Z</time>
      </trkpt>
      <trkpt lat="43.89592" lon="4.13913">
        <ele>240.95</ele>
        <time>2018-12-07T10:41:53Z</time>
      </trkpt>
      <trkpt lat="43.89594" lon="4.13911">
        <ele>246.23</ele>
        <time>2018-12-07T10:41:55Z</time>
      </trkpt>
      <trkpt lat="43.89595" lon="4.1391">
        <ele>242.87</ele>
        <time>2018-12-07T10:41:56Z</time>
      </trkpt>
      <trkpt lat="43.89595" lon="4.13909">
        <ele>237.1</ele>
        <time>2018-12-07T10:41:57Z</time>
      </trkpt>
      <trkpt lat="43.89596" lon="4.13908">
        <ele>245.27</ele>
        <time>2018-12-07T10:41:58Z</time>
      </trkpt>
      <trkpt lat="43.89598" lon="4.13906">
        <ele>240.47</ele>
        <time>2018-12-07T10:42:00Z</time>
      </trkpt>
      <trkpt lat="43.89599" lon="4.13904">
        <ele>240.95</ele>
        <time>2018-12-07T10:42:01Z</time>
      </trkpt>
      <trkpt lat="43.89601" lon="4.13902">
        <ele>244.79</ele>
        <time>2018-12-07T10:42:03Z</time>
      </trkpt>
      <trkpt lat="43.89602" lon="4.13901">
        <ele>238.54</ele>
        <time>2018-12-07T10:42:04Z</time>
      </trkpt>
      <trkpt lat="43.89603" lon="4.139">
        <ele>242.39</ele>
        <time>2018-12-07T10:42:05Z</time>
      </trkpt>
      <trkpt lat="43.89609" lon="4.13893">
        <ele>234.7</ele>
        <time>2018-12-07T10:42:12Z</time>
      </trkpt>
      <trkpt lat="43.8961" lon="4.13892">
        <ele>242.39</ele>
        <time>2018-12-07T10:42:13Z</time>
      </trkpt>
      <trkpt lat="43.89557" lon="4.13922">
        <ele>245.75</ele>
        <time>2018-12-07T10:44:22Z</time>
      </trkpt>
      <trkpt lat="43.89567" lon="4.13919">
        <ele>246.23</ele>
        <time>2018-12-07T10:44:24Z</time>
      </trkpt>
      <trkpt lat="43.89587" lon="4.13909">
        <ele>248.16</ele>
        <time>2018-12-07T10:44:41Z</time>
      </trkpt>
      <trkpt lat="43.89583" lon="4.139">
        <ele>248.16</ele>
        <time>2018-12-07T10:44:54Z</time>
      </trkpt>
      <trkpt lat="43.89589" lon="4.13892">
        <ele>247.68</ele>
        <time>2018-12-07T10:45:12Z</time>
      </trkpt>
      <trkpt lat="43.89587" lon="4.13882">
        <ele>247.2</ele>
        <time>2018-12-07T10:45:28Z</time>
      </trkpt>
      <trkpt lat="43.89584" lon="4.13877">
        <ele>247.68</ele>
        <time>2018-12-07T10:45:36Z</time>
      </trkpt>
      <trkpt lat="43.89577" lon="4.13879">
        <ele>248.64</ele>
        <time>2018-12-07T10:45:48Z</time>
      </trkpt>
      <trkpt lat="43.89571" lon="4.13886">
        <ele>248.64</ele>
        <time>2018-12-07T10:45:57Z</time>
      </trkpt>
      <trkpt lat="43.89568" lon="4.13894">
        <ele>249.6</ele>
        <time>2018-12-07T10:46:11Z</time>
      </trkpt>
      <trkpt lat="43.89566" lon="4.13897">
        <ele>249.12</ele>
        <time>2018-12-07T10:46:29Z</time>
      </trkpt>
      <trkpt lat="43.89565" lon="4.13899">
        <ele>249.6</ele>
        <time>2018-12-07T10:46:53Z</time>
      </trkpt>
      <trkpt lat="43.89564" lon="4.13899">
        <ele>246.23</ele>
        <time>2018-12-07T10:47:17Z</time>
      </trkpt>
      <trkpt lat="43.89564" lon="4.13899">
        <ele>250.08</ele>
        <time>2018-12-07T10:47:19Z</time>
      </trkpt>
      <trkpt lat="43.89564" lon="4.13899">
        <ele>249.12</ele>
        <time>2018-12-07T10:47:25Z</time>
      </trkpt>
      <trkpt lat="43.89564" lon="4.13899">
        <ele>249.12</ele>
        <time>2018-12-07T10:47:47Z</time>
      </trkpt>
      <trkpt lat="43.89564" lon="4.13899">
        <ele>248.64</ele>
        <time>2018-12-07T10:47:48Z</time>
      </trkpt>
      <trkpt lat="43.89555" lon="4.13887">
        <ele>250.08</ele>
        <time>2018-12-07T10:48:02Z</time>
      </trkpt>
      <trkpt lat="43.89553" lon="4.1387">
        <ele>250.08</ele>
        <time>2018-12-07T10:48:15Z</time>
      </trkpt>
      <trkpt lat="43.8955" lon="4.13856">
        <ele>249.12</ele>
        <time>2018-12-07T10:48:27Z</time>
      </trkpt>
      <trkpt lat="43.89546" lon="4.13835">
        <ele>248.16</ele>
        <time>2018-12-07T10:48:43Z</time>
      </trkpt>
      <trkpt lat="43.89542" lon="4.13812">
        <ele>246.72</ele>
        <time>2018-12-07T10:49:00Z</time>
      </trkpt>
      <trkpt lat="43.89537" lon="4.13795">
        <ele>246.72</ele>
        <time>2018-12-07T10:49:14Z</time>
      </trkpt>
      <trkpt lat="43.89533" lon="4.13779">
        <ele>243.83</ele>
        <time>2018-12-07T10:49:29Z</time>
      </trkpt>
      <trkpt lat="43.89526" lon="4.13758">
        <ele>241.91</ele>
        <time>2018-12-07T10:49:43Z</time>
      </trkpt>
      <trkpt lat="43.89528" lon="4.13745">
        <ele>240.95</ele>
        <time>2018-12-07T10:49:50Z</time>
      </trkpt>
      <trkpt lat="43.89528" lon="4.13735">
        <ele>240.47</ele>
        <time>2018-12-07T10:49:58Z</time>
      </trkpt>
      <trkpt lat="43.89527" lon="4.13718">
        <ele>239.02</ele>
        <time>2018-12-07T10:50:09Z</time>
      </trkpt>
      <trkpt lat="43.89528" lon="4.13715">
        <ele>238.54</ele>
        <time>2018-12-07T10:50:11Z</time>
      </trkpt>
      <trkpt lat="43.89528" lon="4.13712">
        <ele>238.54</ele>
        <time>2018-12-07T10:50:13Z</time>
      </trkpt>
      <trkpt lat="43.89529" lon="4.13698">
        <ele>238.54</ele>
        <time>2018-12-07T10:50:21Z</time>
      </trkpt>
      <trkpt lat="43.89527" lon="4.13678">
        <ele>237.1</ele>
        <time>2018-12-07T10:50:32Z</time>
      </trkpt>
      <trkpt lat="43.89526" lon="4.13667">
        <ele>235.66</ele>
        <time>2018-12-07T10:50:39Z</time>
      </trkpt>
      <trkpt lat="43.89532" lon="4.13653">
        <ele>234.22</ele>
        <time>2018-12-07T10:50:47Z</time>
      </trkpt>
      <trkpt lat="43.89529" lon="4.13641">
        <ele>231.81</ele>
        <time>2018-12-07T10:50:57Z</time>
      </trkpt>
      <trkpt lat="43.89529" lon="4.13636">
        <ele>231.81</ele>
        <time>2018-12-07T10:51:00Z</time>
      </trkpt>
      <trkpt lat="43.89538" lon="4.13616">
        <ele>231.33</ele>
        <time>2018-12-07T10:51:14Z</time>
      </trkpt>
      <trkpt lat="43.89538" lon="4.13615">
        <ele>231.33</ele>
        <time>2018-12-07T10:51:15Z</time>
      </trkpt>
      <trkpt lat="43.89551" lon="4.13602">
        <ele>231.33</ele>
        <time>2018-12-07T10:51:27Z</time>
      </trkpt>
      <trkpt lat="43.89563" lon="4.13593">
        <ele>230.37</ele>
        <time>2018-12-07T10:51:39Z</time>
      </trkpt>
      <trkpt lat="43.89573" lon="4.13584">
        <ele>229.89</ele>
        <time>2018-12-07T10:51:49Z</time>
      </trkpt>
      <trkpt lat="43.89577" lon="4.13579">
        <ele>229.89</ele>
        <time>2018-12-07T10:51:56Z</time>
      </trkpt>
      <trkpt lat="43.89581" lon="4.13576">
        <ele>227.97</ele>
        <time>2018-12-07T10:52:00Z</time>
      </trkpt>
      <trkpt lat="43.89592" lon="4.13564">
        <ele>226.53</ele>
        <time>2018-12-07T10:52:12Z</time>
      </trkpt>
      <trkpt lat="43.89595" lon="4.13561">
        <ele>226.05</ele>
        <time>2018-12-07T10:52:15Z</time>
      </trkpt>
      <trkpt lat="43.8961" lon="4.13549">
        <ele>224.12</ele>
        <time>2018-12-07T10:52:28Z</time>
      </trkpt>
      <trkpt lat="43.89619" lon="4.1354">
        <ele>222.68</ele>
        <time>2018-12-07T10:52:39Z</time>
      </trkpt>
      <trkpt lat="43.8962" lon="4.13537">
        <ele>222.68</ele>
        <time>2018-12-07T10:52:41Z</time>
      </trkpt>
      <trkpt lat="43.89634" lon="4.13523">
        <ele>221.24</ele>
        <time>2018-12-07T10:52:56Z</time>
      </trkpt>
      <trkpt lat="43.89636" lon="4.1352">
        <ele>221.24</ele>
        <time>2018-12-07T10:52:59Z</time>
      </trkpt>
      <trkpt lat="43.8964" lon="4.13515">
        <ele>213.07</ele>
        <time>2018-12-07T10:53:03Z</time>
      </trkpt>
      <trkpt lat="43.89641" lon="4.13514">
        <ele>230.85</ele>
        <time>2018-12-07T10:53:04Z</time>
      </trkpt>
      <trkpt lat="43.89642" lon="4.13513">
        <ele>221.72</ele>
        <time>2018-12-07T10:53:05Z</time>
      </trkpt>
      <trkpt lat="43.89643" lon="4.13512">
        <ele>214.51</ele>
        <time>2018-12-07T10:53:06Z</time>
      </trkpt>
      <trkpt lat="43.89643" lon="4.13511">
        <ele>230.37</ele>
        <time>2018-12-07T10:53:07Z</time>
      </trkpt>
      <trkpt lat="43.89644" lon="4.1351">
        <ele>214.99</ele>
        <time>2018-12-07T10:53:08Z</time>
      </trkpt>
      <trkpt lat="43.89645" lon="4.13509">
        <ele>222.68</ele>
        <time>2018-12-07T10:53:09Z</time>
      </trkpt>
      <trkpt lat="43.89646" lon="4.13507">
        <ele>212.11</ele>
        <time>2018-12-07T10:53:11Z</time>
      </trkpt>
      <trkpt lat="43.89647" lon="4.13506">
        <ele>229.89</ele>
        <time>2018-12-07T10:53:12Z</time>
      </trkpt>
      <trkpt lat="43.89648" lon="4.13504">
        <ele>220.76</ele>
        <time>2018-12-07T10:53:13Z</time>
      </trkpt>
      <trkpt lat="43.8965" lon="4.13501">
        <ele>220.28</ele>
        <time>2018-12-07T10:53:16Z</time>
      </trkpt>
      <trkpt lat="43.89654" lon="4.13495">
        <ele>219.8</ele>
        <time>2018-12-07T10:53:21Z</time>
      </trkpt>
      <trkpt lat="43.89657" lon="4.1349">
        <ele>219.8</ele>
        <time>2018-12-07T10:53:25Z</time>
      </trkpt>
      <trkpt lat="43.8967" lon="4.13478">
        <ele>218.84</ele>
        <time>2018-12-07T10:53:39Z</time>
      </trkpt>
      <trkpt lat="43.89682" lon="4.1346">
        <ele>218.84</ele>
        <time>2018-12-07T10:53:54Z</time>
      </trkpt>
      <trkpt lat="43.89684" lon="4.13456">
        <ele>227.01</ele>
        <time>2018-12-07T10:53:57Z</time>
      </trkpt>
      <trkpt lat="43.89684" lon="4.13455">
        <ele>219.32</ele>
        <time>2018-12-07T10:53:58Z</time>
      </trkpt>
      <trkpt lat="43.89692" lon="4.13439">
        <ele>218.36</ele>
        <time>2018-12-07T10:54:10Z</time>
      </trkpt>
      <trkpt lat="43.89695" lon="4.13425">
        <ele>218.36</ele>
        <time>2018-12-07T10:54:19Z</time>
      </trkpt>
      <trkpt lat="43.89698" lon="4.13408">
        <ele>218.36</ele>
        <time>2018-12-07T10:54:30Z</time>
      </trkpt>
      <trkpt lat="43.89697" lon="4.13393">
        <ele>218.84</ele>
        <time>2018-12-07T10:54:40Z</time>
      </trkpt>
      <trkpt lat="43.89697" lon="4.13391">
        <ele>218.36</ele>
        <time>2018-12-07T10:54:42Z</time>
      </trkpt>
      <trkpt lat="43.897" lon="4.13384">
        <ele>218.84</ele>
        <time>2018-12-07T10:54:48Z</time>
      </trkpt>
      <trkpt lat="43.89695" lon="4.13358">
        <ele>218.84</ele>
        <time>2018-12-07T10:55:05Z</time>
      </trkpt>
      <trkpt lat="43.89694" lon="4.13339">
        <ele>219.32</ele>
        <time>2018-12-07T10:55:18Z</time>
      </trkpt>
      <trkpt lat="43.89691" lon="4.13326">
        <ele>218.84</ele>
        <time>2018-12-07T10:55:28Z</time>
      </trkpt>
      <trkpt lat="43.89689" lon="4.13316">
        <ele>219.32</ele>
        <time>2018-12-07T10:55:34Z</time>
      </trkpt>
      <trkpt lat="43.89687" lon="4.13295">
        <ele>218.84</ele>
        <time>2018-12-07T10:55:47Z</time>
      </trkpt>
      <trkpt lat="43.89686" lon="4.13285">
        <ele>218.84</ele>
        <time>2018-12-07T10:55:53Z</time>
      </trkpt>
      <trkpt lat="43.89686" lon="4.13276">
        <ele>219.32</ele>
        <time>2018-12-07T10:56:05Z</time>
      </trkpt>
      <trkpt lat="43.89684" lon="4.13267">
        <ele>219.8</ele>
        <time>2018-12-07T10:56:19Z</time>
      </trkpt>
      <trkpt lat="43.89683" lon="4.13255">
        <ele>219.32</ele>
        <time>2018-12-07T10:56:28Z</time>
      </trkpt>
      <trkpt lat="43.89683" lon="4.13252">
        <ele>220.28</ele>
        <time>2018-12-07T10:56:30Z</time>
      </trkpt>
      <trkpt lat="43.89683" lon="4.13231">
        <ele>219.8</ele>
        <time>2018-12-07T10:56:43Z</time>
      </trkpt>
      <trkpt lat="43.89683" lon="4.13226">
        <ele>220.28</ele>
        <time>2018-12-07T10:56:46Z</time>
      </trkpt>
      <trkpt lat="43.89685" lon="4.13222">
        <ele>219.32</ele>
        <time>2018-12-07T10:56:49Z</time>
      </trkpt>
      <trkpt lat="43.89687" lon="4.13213">
        <ele>220.28</ele>
        <time>2018-12-07T10:56:55Z</time>
      </trkpt>
      <trkpt lat="43.89695" lon="4.13199">
        <ele>222.2</ele>
        <time>2018-12-07T10:57:06Z</time>
      </trkpt>
      <trkpt lat="43.89704" lon="4.13198">
        <ele>221.24</ele>
        <time>2018-12-07T10:57:17Z</time>
      </trkpt>
      <trkpt lat="43.89706" lon="4.13199">
        <ele>220.76</ele>
        <time>2018-12-07T10:57:20Z</time>
      </trkpt>
      <trkpt lat="43.89712" lon="4.13202">
        <ele>220.76</ele>
        <time>2018-12-07T10:57:25Z</time>
      </trkpt>
      <trkpt lat="43.89727" lon="4.13209">
        <ele>221.72</ele>
        <time>2018-12-07T10:57:40Z</time>
      </trkpt>
      <trkpt lat="43.89731" lon="4.13212">
        <ele>221.72</ele>
        <time>2018-12-07T10:57:44Z</time>
      </trkpt>
      <trkpt lat="43.89749" lon="4.1322">
        <ele>223.64</ele>
        <time>2018-12-07T10:58:01Z</time>
      </trkpt>
      <trkpt lat="43.89749" lon="4.13221">
        <ele>222.68</ele>
        <time>2018-12-07T10:58:02Z</time>
      </trkpt>
      <trkpt lat="43.89754" lon="4.13223">
        <ele>222.68</ele>
        <time>2018-12-07T10:58:07Z</time>
      </trkpt>
      <trkpt lat="43.89768" lon="4.13234">
        <ele>222.68</ele>
        <time>2018-12-07T10:58:20Z</time>
      </trkpt>
      <trkpt lat="43.89784" lon="4.13245">
        <ele>223.16</ele>
        <time>2018-12-07T10:58:36Z</time>
      </trkpt>
      <trkpt lat="43.89795" lon="4.13253">
        <ele>224.61</ele>
        <time>2018-12-07T10:58:48Z</time>
      </trkpt>
      <trkpt lat="43.89807" lon="4.13253">
        <ele>224.12</ele>
        <time>2018-12-07T10:58:59Z</time>
      </trkpt>
      <trkpt lat="43.89821" lon="4.13256">
        <ele>225.57</ele>
        <time>2018-12-07T10:59:12Z</time>
      </trkpt>
      <trkpt lat="43.8984" lon="4.13256">
        <ele>226.53</ele>
        <time>2018-12-07T10:59:29Z</time>
      </trkpt>
      <trkpt lat="43.89851" lon="4.13252">
        <ele>226.53</ele>
        <time>2018-12-07T10:59:40Z</time>
      </trkpt>
      <trkpt lat="43.89871" lon="4.13245">
        <ele>227.97</ele>
        <time>2018-12-07T10:59:58Z</time>
      </trkpt>
      <trkpt lat="43.8988" lon="4.13243">
        <ele>228.45</ele>
        <time>2018-12-07T11:00:07Z</time>
      </trkpt>
      <trkpt lat="43.8989" lon="4.13241">
        <ele>229.89</ele>
        <time>2018-12-07T11:00:16Z</time>
      </trkpt>
      <trkpt lat="43.89906" lon="4.13238">
        <ele>229.41</ele>
        <time>2018-12-07T11:00:30Z</time>
      </trkpt>
      <trkpt lat="43.89913" lon="4.13236">
        <ele>230.37</ele>
        <time>2018-12-07T11:00:37Z</time>
      </trkpt>
      <trkpt lat="43.89929" lon="4.13232">
        <ele>231.33</ele>
        <time>2018-12-07T11:00:52Z</time>
      </trkpt>
      <trkpt lat="43.89941" lon="4.13229">
        <ele>232.3</ele>
        <time>2018-12-07T11:01:03Z</time>
      </trkpt>
      <trkpt lat="43.89949" lon="4.13226">
        <ele>233.26</ele>
        <time>2018-12-07T11:01:10Z</time>
      </trkpt>
      <trkpt lat="43.89967" lon="4.13225">
        <ele>233.74</ele>
        <time>2018-12-07T11:01:26Z</time>
      </trkpt>
      <trkpt lat="43.89972" lon="4.13224">
        <ele>237.1</ele>
        <time>2018-12-07T11:01:31Z</time>
      </trkpt>
      <trkpt lat="43.89977" lon="4.13222">
        <ele>233.74</ele>
        <time>2018-12-07T11:01:37Z</time>
      </trkpt>
      <trkpt lat="43.89988" lon="4.1322">
        <ele>235.66</ele>
        <time>2018-12-07T11:01:47Z</time>
      </trkpt>
      <trkpt lat="43.89992" lon="4.1322">
        <ele>240.47</ele>
        <time>2018-12-07T11:01:51Z</time>
      </trkpt>
      <trkpt lat="43.89993" lon="4.1322">
        <ele>240.47</ele>
        <time>2018-12-07T11:01:52Z</time>
      </trkpt>
      <trkpt lat="43.89994" lon="4.1322">
        <ele>236.14</ele>
        <time>2018-12-07T11:01:53Z</time>
      </trkpt>
      <trkpt lat="43.89995" lon="4.13219">
        <ele>236.14</ele>
        <time>2018-12-07T11:01:54Z</time>
      </trkpt>
      <trkpt lat="43.90005" lon="4.13219">
        <ele>236.14</ele>
        <time>2018-12-07T11:02:03Z</time>
      </trkpt>
      <trkpt lat="43.90015" lon="4.1322">
        <ele>236.62</ele>
        <time>2018-12-07T11:02:12Z</time>
      </trkpt>
      <trkpt lat="43.90024" lon="4.13221">
        <ele>237.1</ele>
        <time>2018-12-07T11:02:26Z</time>
      </trkpt>
      <trkpt lat="43.90028" lon="4.13222">
        <ele>237.58</ele>
        <time>2018-12-07T11:02:41Z</time>
      </trkpt>
      <trkpt lat="43.90033" lon="4.13224">
        <ele>238.06</ele>
        <time>2018-12-07T11:02:46Z</time>
      </trkpt>
      <trkpt lat="43.90041" lon="4.13228">
        <ele>238.06</ele>
        <time>2018-12-07T11:02:55Z</time>
      </trkpt>
      <trkpt lat="43.90052" lon="4.13232">
        <ele>238.06</ele>
        <time>2018-12-07T11:03:06Z</time>
      </trkpt>
      <trkpt lat="43.90054" lon="4.13233">
        <ele>237.58</ele>
        <time>2018-12-07T11:03:09Z</time>
      </trkpt>
      <trkpt lat="43.9006" lon="4.13236">
        <ele>237.58</ele>
        <time>2018-12-07T11:03:22Z</time>
      </trkpt>
      <trkpt lat="43.90061" lon="4.13237">
        <ele>237.58</ele>
        <time>2018-12-07T11:03:23Z</time>
      </trkpt>
      <trkpt lat="43.90068" lon="4.1324">
        <ele>237.1</ele>
        <time>2018-12-07T11:03:32Z</time>
      </trkpt>
      <trkpt lat="43.90076" lon="4.13244">
        <ele>236.62</ele>
        <time>2018-12-07T11:03:38Z</time>
      </trkpt>
      <trkpt lat="43.90083" lon="4.13248">
        <ele>236.14</ele>
        <time>2018-12-07T11:03:45Z</time>
      </trkpt>
      <trkpt lat="43.90096" lon="4.1326">
        <ele>234.22</ele>
        <time>2018-12-07T11:04:00Z</time>
      </trkpt>
      <trkpt lat="43.90101" lon="4.13265">
        <ele>233.74</ele>
        <time>2018-12-07T11:04:07Z</time>
      </trkpt>
      <trkpt lat="43.90104" lon="4.13267">
        <ele>233.26</ele>
        <time>2018-12-07T11:04:10Z</time>
      </trkpt>
      <trkpt lat="43.9011" lon="4.13273">
        <ele>232.78</ele>
        <time>2018-12-07T11:04:16Z</time>
      </trkpt>
      <trkpt lat="43.90121" lon="4.1328">
        <ele>231.33</ele>
        <time>2018-12-07T11:04:28Z</time>
      </trkpt>
      <trkpt lat="43.90136" lon="4.13288">
        <ele>230.37</ele>
        <time>2018-12-07T11:04:42Z</time>
      </trkpt>
      <trkpt lat="43.9015" lon="4.13294">
        <ele>229.41</ele>
        <time>2018-12-07T11:04:55Z</time>
      </trkpt>
      <trkpt lat="43.90157" lon="4.13298">
        <ele>228.93</ele>
        <time>2018-12-07T11:05:02Z</time>
      </trkpt>
      <trkpt lat="43.90167" lon="4.13305">
        <ele>227.97</ele>
        <time>2018-12-07T11:05:12Z</time>
      </trkpt>
      <trkpt lat="43.90178" lon="4.13314">
        <ele>226.53</ele>
        <time>2018-12-07T11:05:24Z</time>
      </trkpt>
      <trkpt lat="43.90193" lon="4.13326">
        <ele>224.61</ele>
        <time>2018-12-07T11:05:39Z</time>
      </trkpt>
      <trkpt lat="43.90203" lon="4.13335">
        <ele>223.16</ele>
        <time>2018-12-07T11:05:51Z</time>
      </trkpt>
      <trkpt lat="43.90217" lon="4.13347">
        <ele>221.72</ele>
        <time>2018-12-07T11:06:04Z</time>
      </trkpt>
      <trkpt lat="43.90224" lon="4.13355">
        <ele>221.24</ele>
        <time>2018-12-07T11:06:12Z</time>
      </trkpt>
      <trkpt lat="43.90233" lon="4.13365">
        <ele>221.24</ele>
        <time>2018-12-07T11:06:22Z</time>
      </trkpt>
      <trkpt lat="43.90246" lon="4.13379">
        <ele>220.28</ele>
        <time>2018-12-07T11:06:36Z</time>
      </trkpt>
      <trkpt lat="43.90254" lon="4.13393">
        <ele>219.8</ele>
        <time>2018-12-07T11:06:47Z</time>
      </trkpt>
      <trkpt lat="43.90255" lon="4.13396">
        <ele>219.8</ele>
        <time>2018-12-07T11:06:49Z</time>
      </trkpt>
      <trkpt lat="43.90263" lon="4.13415">
        <ele>218.84</ele>
        <time>2018-12-07T11:07:03Z</time>
      </trkpt>
      <trkpt lat="43.90267" lon="4.13426">
        <ele>218.36</ele>
        <time>2018-12-07T11:07:10Z</time>
      </trkpt>
      <trkpt lat="43.90268" lon="4.13428">
        <ele>217.88</ele>
        <time>2018-12-07T11:07:12Z</time>
      </trkpt>
      <trkpt lat="43.90276" lon="4.13442">
        <ele>217.4</ele>
        <time>2018-12-07T11:07:23Z</time>
      </trkpt>
      <trkpt lat="43.90289" lon="4.1345">
        <ele>215.95</ele>
        <time>2018-12-07T11:07:36Z</time>
      </trkpt>
      <trkpt lat="43.90304" lon="4.13456">
        <ele>215.47</ele>
        <time>2018-12-07T11:07:50Z</time>
      </trkpt>
      <trkpt lat="43.90317" lon="4.13466">
        <ele>215.47</ele>
        <time>2018-12-07T11:08:03Z</time>
      </trkpt>
      <trkpt lat="43.90321" lon="4.13467">
        <ele>215.47</ele>
        <time>2018-12-07T11:08:06Z</time>
      </trkpt>
      <trkpt lat="43.90337" lon="4.13481">
        <ele>214.99</ele>
        <time>2018-12-07T11:08:21Z</time>
      </trkpt>
      <trkpt lat="43.9035" lon="4.13489">
        <ele>215.47</ele>
        <time>2018-12-07T11:08:34Z</time>
      </trkpt>
      <trkpt lat="43.90364" lon="4.13497">
        <ele>216.43</ele>
        <time>2018-12-07T11:08:46Z</time>
      </trkpt>
      <trkpt lat="43.90373" lon="4.13504">
        <ele>216.43</ele>
        <time>2018-12-07T11:08:55Z</time>
      </trkpt>
      <trkpt lat="43.90386" lon="4.13514">
        <ele>215.95</ele>
        <time>2018-12-07T11:09:08Z</time>
      </trkpt>
      <trkpt lat="43.90398" lon="4.13526">
        <ele>214.51</ele>
        <time>2018-12-07T11:09:22Z</time>
      </trkpt>
      <trkpt lat="43.90403" lon="4.13532">
        <ele>213.55</ele>
        <time>2018-12-07T11:09:27Z</time>
      </trkpt>
      <trkpt lat="43.90412" lon="4.13539">
        <ele>212.59</ele>
        <time>2018-12-07T11:09:35Z</time>
      </trkpt>
      <trkpt lat="43.90416" lon="4.13545">
        <ele>212.59</ele>
        <time>2018-12-07T11:09:40Z</time>
      </trkpt>
      <trkpt lat="43.9042" lon="4.13548">
        <ele>212.59</ele>
        <time>2018-12-07T11:09:44Z</time>
      </trkpt>
      <trkpt lat="43.90427" lon="4.13553">
        <ele>211.15</ele>
        <time>2018-12-07T11:09:53Z</time>
      </trkpt>
      <trkpt lat="43.9043" lon="4.13555">
        <ele>210.67</ele>
        <time>2018-12-07T11:10:02Z</time>
      </trkpt>
      <trkpt lat="43.90432" lon="4.13568">
        <ele>210.67</ele>
        <time>2018-12-07T11:10:14Z</time>
      </trkpt>
      <trkpt lat="43.90433" lon="4.13573">
        <ele>210.67</ele>
        <time>2018-12-07T11:10:26Z</time>
      </trkpt>
      <trkpt lat="43.90435" lon="4.13577">
        <ele>210.67</ele>
        <time>2018-12-07T11:10:30Z</time>
      </trkpt>
      <trkpt lat="43.90437" lon="4.13591">
        <ele>211.15</ele>
        <time>2018-12-07T11:10:42Z</time>
      </trkpt>
      <trkpt lat="43.90438" lon="4.13591">
        <ele>211.15</ele>
        <time>2018-12-07T11:10:43Z</time>
      </trkpt>
      <trkpt lat="43.90442" lon="4.13595">
        <ele>211.15</ele>
        <time>2018-12-07T11:10:55Z</time>
      </trkpt>
      <trkpt lat="43.90444" lon="4.13592">
        <ele>211.63</ele>
        <time>2018-12-07T11:10:58Z</time>
      </trkpt>
      <trkpt lat="43.90446" lon="4.13592">
        <ele>207.78</ele>
        <time>2018-12-07T11:11:07Z</time>
      </trkpt>
      <trkpt lat="43.90447" lon="4.13592">
        <ele>215.47</ele>
        <time>2018-12-07T11:11:08Z</time>
      </trkpt>
      <trkpt lat="43.90447" lon="4.13591">
        <ele>212.11</ele>
        <time>2018-12-07T11:11:11Z</time>
      </trkpt>
      <trkpt lat="43.90448" lon="4.13591">
        <ele>212.11</ele>
        <time>2018-12-07T11:11:12Z</time>
      </trkpt>
      <trkpt lat="43.90451" lon="4.13589">
        <ele>212.11</ele>
        <time>2018-12-07T11:11:22Z</time>
      </trkpt>
      <trkpt lat="43.90455" lon="4.13578">
        <ele>212.11</ele>
        <time>2018-12-07T11:11:32Z</time>
      </trkpt>
      <trkpt lat="43.90462" lon="4.13569">
        <ele>212.59</ele>
        <time>2018-12-07T11:11:42Z</time>
      </trkpt>
      <trkpt lat="43.90464" lon="4.13564">
        <ele>212.11</ele>
        <time>2018-12-07T11:11:51Z</time>
      </trkpt>
      <trkpt lat="43.90466" lon="4.13564">
        <ele>212.59</ele>
        <time>2018-12-07T11:12:04Z</time>
      </trkpt>
      <trkpt lat="43.90468" lon="4.13563">
        <ele>212.59</ele>
        <time>2018-12-07T11:12:07Z</time>
      </trkpt>
      <trkpt lat="43.90472" lon="4.13559">
        <ele>213.07</ele>
        <time>2018-12-07T11:12:19Z</time>
      </trkpt>
      <trkpt lat="43.90474" lon="4.13555">
        <ele>213.07</ele>
        <time>2018-12-07T11:12:23Z</time>
      </trkpt>
      <trkpt lat="43.90486" lon="4.13538">
        <ele>214.03</ele>
        <time>2018-12-07T11:12:38Z</time>
      </trkpt>
      <trkpt lat="43.90487" lon="4.13535">
        <ele>214.03</ele>
        <time>2018-12-07T11:12:40Z</time>
      </trkpt>
      <trkpt lat="43.90488" lon="4.13533">
        <ele>214.51</ele>
        <time>2018-12-07T11:12:43Z</time>
      </trkpt>
      <trkpt lat="43.90492" lon="4.13528">
        <ele>214.51</ele>
        <time>2018-12-07T11:12:48Z</time>
      </trkpt>
      <trkpt lat="43.90501" lon="4.13522">
        <ele>214.51</ele>
        <time>2018-12-07T11:12:58Z</time>
      </trkpt>
      <trkpt lat="43.90504" lon="4.13522">
        <ele>214.51</ele>
        <time>2018-12-07T11:13:01Z</time>
      </trkpt>
      <trkpt lat="43.90518" lon="4.13536">
        <ele>215.47</ele>
        <time>2018-12-07T11:13:14Z</time>
      </trkpt>
      <trkpt lat="43.90526" lon="4.1355">
        <ele>216.91</ele>
        <time>2018-12-07T11:13:27Z</time>
      </trkpt>
      <trkpt lat="43.90524" lon="4.13549">
        <ele>216.91</ele>
        <time>2018-12-07T11:13:33Z</time>
      </trkpt>
      <trkpt lat="43.90521" lon="4.13537">
        <ele>215.95</ele>
        <time>2018-12-07T11:13:44Z</time>
      </trkpt>
      <trkpt lat="43.90523" lon="4.13532">
        <ele>215.95</ele>
        <time>2018-12-07T11:13:55Z</time>
      </trkpt>
      <trkpt lat="43.90523" lon="4.13542">
        <ele>216.43</ele>
        <time>2018-12-07T11:14:02Z</time>
      </trkpt>
      <trkpt lat="43.90526" lon="4.13552">
        <ele>216.91</ele>
        <time>2018-12-07T11:14:13Z</time>
      </trkpt>
      <trkpt lat="43.90527" lon="4.13551">
        <ele>216.91</ele>
        <time>2018-12-07T11:14:17Z</time>
      </trkpt>
      <trkpt lat="43.90525" lon="4.13541">
        <ele>216.43</ele>
        <time>2018-12-07T11:14:27Z</time>
      </trkpt>
      <trkpt lat="43.90524" lon="4.13535">
        <ele>216.43</ele>
        <time>2018-12-07T11:14:32Z</time>
      </trkpt>
      <trkpt lat="43.90524" lon="4.13531">
        <ele>215.95</ele>
        <time>2018-12-07T11:14:45Z</time>
      </trkpt>
      <trkpt lat="43.90524" lon="4.13531">
        <ele>215.47</ele>
        <time>2018-12-07T11:14:49Z</time>
      </trkpt>
      <trkpt lat="43.90525" lon="4.13529">
        <ele>215.95</ele>
        <time>2018-12-07T11:15:04Z</time>
      </trkpt>
      <trkpt lat="43.90525" lon="4.13529">
        <ele>214.99</ele>
        <time>2018-12-07T11:15:11Z</time>
      </trkpt>
      <trkpt lat="43.90525" lon="4.1353">
        <ele>215.95</ele>
        <time>2018-12-07T11:15:34Z</time>
      </trkpt>
      <trkpt lat="43.90525" lon="4.1353">
        <ele>211.15</ele>
        <time>2018-12-07T11:15:41Z</time>
      </trkpt>
      <trkpt lat="43.90525" lon="4.1353">
        <ele>220.28</ele>
        <time>2018-12-07T11:15:42Z</time>
      </trkpt>
      <trkpt lat="43.90525" lon="4.1353">
        <ele>216.91</ele>
        <time>2018-12-07T11:15:43Z</time>
      </trkpt>
      <trkpt lat="43.90525" lon="4.1353">
        <ele>215.95</ele>
        <time>2018-12-07T11:15:45Z</time>
      </trkpt>
      <trkpt lat="43.90524" lon="4.1353">
        <ele>215.95</ele>
        <time>2018-12-07T11:16:07Z</time>
      </trkpt>
      <trkpt lat="43.90524" lon="4.1353">
        <ele>215.95</ele>
        <time>2018-12-07T11:16:35Z</time>
      </trkpt>
      <trkpt lat="43.90524" lon="4.1353">
        <ele>215.95</ele>
        <time>2018-12-07T11:16:54Z</time>
      </trkpt>
      <trkpt lat="43.90523" lon="4.1353">
        <ele>217.88</ele>
        <time>2018-12-07T11:17:19Z</time>
      </trkpt>
      <trkpt lat="43.90523" lon="4.1353">
        <ele>213.55</ele>
        <time>2018-12-07T11:17:21Z</time>
      </trkpt>
      <trkpt lat="43.90523" lon="4.13529">
        <ele>215.47</ele>
        <time>2018-12-07T11:17:22Z</time>
      </trkpt>
      <trkpt lat="43.90523" lon="4.13529">
        <ele>217.88</ele>
        <time>2018-12-07T11:17:25Z</time>
      </trkpt>
      <trkpt lat="43.90523" lon="4.13529">
        <ele>224.12</ele>
        <time>2018-12-07T11:17:27Z</time>
      </trkpt>
      <trkpt lat="43.90523" lon="4.13529">
        <ele>216.43</ele>
        <time>2018-12-07T11:17:28Z</time>
      </trkpt>
      <trkpt lat="43.90524" lon="4.1353">
        <ele>215.95</ele>
        <time>2018-12-07T11:17:30Z</time>
      </trkpt>
      <trkpt lat="43.90524" lon="4.13529">
        <ele>215.95</ele>
        <time>2018-12-07T11:18:01Z</time>
      </trkpt>
      <trkpt lat="43.90524" lon="4.13529">
        <ele>215.95</ele>
        <time>2018-12-07T11:18:02Z</time>
      </trkpt>
      <trkpt lat="43.90524" lon="4.13529">
        <ele>218.84</ele>
        <time>2018-12-07T11:18:19Z</time>
      </trkpt>
      <trkpt lat="43.90524" lon="4.13529">
        <ele>216.43</ele>
        <time>2018-12-07T11:18:20Z</time>
      </trkpt>
      <trkpt lat="43.90524" lon="4.13529">
        <ele>216.91</ele>
        <time>2018-12-07T11:18:45Z</time>
      </trkpt>
      <trkpt lat="43.90524" lon="4.13529">
        <ele>215.95</ele>
        <time>2018-12-07T11:19:10Z</time>
      </trkpt>
      <trkpt lat="43.90523" lon="4.13529">
        <ele>215.95</ele>
        <time>2018-12-07T11:19:44Z</time>
      </trkpt>
      <trkpt lat="43.90524" lon="4.13529">
        <ele>215.95</ele>
        <time>2018-12-07T11:20:21Z</time>
      </trkpt>
      <trkpt lat="43.90524" lon="4.13529">
        <ele>215.95</ele>
        <time>2018-12-07T11:20:51Z</time>
      </trkpt>
      <trkpt lat="43.90524" lon="4.13529">
        <ele>216.91</ele>
        <time>2018-12-07T11:21:05Z</time>
      </trkpt>
      <trkpt lat="43.90524" lon="4.13529">
        <ele>216.43</ele>
        <time>2018-12-07T11:21:34Z</time>
      </trkpt>
      <trkpt lat="43.90524" lon="4.13529">
        <ele>215.95</ele>
        <time>2018-12-07T11:22:07Z</time>
      </trkpt>
      <trkpt lat="43.90524" lon="4.1353">
        <ele>215.95</ele>
        <time>2018-12-07T11:22:39Z</time>
      </trkpt>
      <trkpt lat="43.90524" lon="4.1353">
        <ele>215.95</ele>
        <time>2018-12-07T11:23:11Z</time>
      </trkpt>
      <trkpt lat="43.90524" lon="4.1353">
        <ele>215.95</ele>
        <time>2018-12-07T11:23:43Z</time>
      </trkpt>
      <trkpt lat="43.90523" lon="4.1353">
        <ele>215.95</ele>
        <time>2018-12-07T11:24:20Z</time>
      </trkpt>
      <trkpt lat="43.90524" lon="4.1353">
        <ele>215.95</ele>
        <time>2018-12-07T11:24:48Z</time>
      </trkpt>
      <trkpt lat="43.90524" lon="4.1353">
        <ele>215.47</ele>
        <time>2018-12-07T11:25:23Z</time>
      </trkpt>
      <trkpt lat="43.90524" lon="4.13529">
        <ele>215.47</ele>
        <time>2018-12-07T11:25:59Z</time>
      </trkpt>
      <trkpt lat="43.90524" lon="4.1353">
        <ele>215.47</ele>
        <time>2018-12-07T11:26:34Z</time>
      </trkpt>
      <trkpt lat="43.90524" lon="4.1353">
        <ele>215.47</ele>
        <time>2018-12-07T11:27:08Z</time>
      </trkpt>
      <trkpt lat="43.90524" lon="4.1353">
        <ele>215.47</ele>
        <time>2018-12-07T11:27:40Z</time>
      </trkpt>
      <trkpt lat="43.90524" lon="4.1353">
        <ele>215.47</ele>
        <time>2018-12-07T11:27:49Z</time>
      </trkpt>
      <trkpt lat="43.90524" lon="4.1353">
        <ele>212.11</ele>
        <time>2018-12-07T11:27:57Z</time>
      </trkpt>
      <trkpt lat="43.90524" lon="4.1353">
        <ele>216.43</ele>
        <time>2018-12-07T11:27:58Z</time>
      </trkpt>
      <trkpt lat="43.90524" lon="4.1353">
        <ele>211.15</ele>
        <time>2018-12-07T11:28:08Z</time>
      </trkpt>
      <trkpt lat="43.90524" lon="4.1353">
        <ele>213.55</ele>
        <time>2018-12-07T11:28:09Z</time>
      </trkpt>
      <trkpt lat="43.90524" lon="4.1353">
        <ele>216.43</ele>
        <time>2018-12-07T11:28:10Z</time>
      </trkpt>
      <trkpt lat="43.90524" lon="4.1353">
        <ele>220.28</ele>
        <time>2018-12-07T11:28:11Z</time>
      </trkpt>
      <trkpt lat="43.90524" lon="4.1353">
        <ele>215.47</ele>
        <time>2018-12-07T11:28:12Z</time>
      </trkpt>
      <trkpt lat="43.90524" lon="4.1353">
        <ele>211.63</ele>
        <time>2018-12-07T11:28:37Z</time>
      </trkpt>
      <trkpt lat="43.90524" lon="4.1353">
        <ele>215.47</ele>
        <time>2018-12-07T11:28:38Z</time>
      </trkpt>
      <trkpt lat="43.90524" lon="4.13529">
        <ele>215.47</ele>
        <time>2018-12-07T11:29:13Z</time>
      </trkpt>
      <trkpt lat="43.90524" lon="4.13529">
        <ele>210.67</ele>
        <time>2018-12-07T11:29:17Z</time>
      </trkpt>
      <trkpt lat="43.90524" lon="4.13529">
        <ele>214.99</ele>
        <time>2018-12-07T11:29:18Z</time>
      </trkpt>
      <trkpt lat="43.90524" lon="4.13529">
        <ele>220.28</ele>
        <time>2018-12-07T11:29:19Z</time>
      </trkpt>
      <trkpt lat="43.90524" lon="4.13529">
        <ele>215.47</ele>
        <time>2018-12-07T11:29:20Z</time>
      </trkpt>
      <trkpt lat="43.90524" lon="4.13529">
        <ele>215.47</ele>
        <time>2018-12-07T11:29:28Z</time>
      </trkpt>
      <trkpt lat="43.90524" lon="4.13529">
        <ele>215.47</ele>
        <time>2018-12-07T11:30:02Z</time>
      </trkpt>
      <trkpt lat="43.90523" lon="4.13529">
        <ele>214.99</ele>
        <time>2018-12-07T11:30:39Z</time>
      </trkpt>
      <trkpt lat="43.90523" lon="4.13529">
        <ele>214.99</ele>
        <time>2018-12-07T11:31:10Z</time>
      </trkpt>
      <trkpt lat="43.90523" lon="4.13529">
        <ele>209.22</ele>
        <time>2018-12-07T11:31:36Z</time>
      </trkpt>
      <trkpt lat="43.90523" lon="4.13529">
        <ele>219.8</ele>
        <time>2018-12-07T11:31:37Z</time>
      </trkpt>
      <trkpt lat="43.90523" lon="4.13529">
        <ele>214.99</ele>
        <time>2018-12-07T11:31:38Z</time>
      </trkpt>
      <trkpt lat="43.90523" lon="4.13529">
        <ele>211.63</ele>
        <time>2018-12-07T11:32:02Z</time>
      </trkpt>
      <trkpt lat="43.90523" lon="4.13529">
        <ele>214.99</ele>
        <time>2018-12-07T11:32:03Z</time>
      </trkpt>
      <trkpt lat="43.90523" lon="4.13529">
        <ele>215.95</ele>
        <time>2018-12-07T11:32:12Z</time>
      </trkpt>
      <trkpt lat="43.90523" lon="4.13529">
        <ele>214.99</ele>
        <time>2018-12-07T11:32:14Z</time>
      </trkpt>
      <trkpt lat="43.90523" lon="4.13529">
        <ele>214.99</ele>
        <time>2018-12-07T11:32:45Z</time>
      </trkpt>
      <trkpt lat="43.90524" lon="4.13528">
        <ele>214.51</ele>
        <time>2018-12-07T11:33:16Z</time>
      </trkpt>
      <trkpt lat="43.90524" lon="4.13528">
        <ele>214.99</ele>
        <time>2018-12-07T11:33:47Z</time>
      </trkpt>
      <trkpt lat="43.90524" lon="4.13528">
        <ele>211.15</ele>
        <time>2018-12-07T11:33:48Z</time>
      </trkpt>
      <trkpt lat="43.90524" lon="4.13528">
        <ele>215.95</ele>
        <time>2018-12-07T11:33:49Z</time>
      </trkpt>
      <trkpt lat="43.90524" lon="4.13528">
        <ele>214.51</ele>
        <time>2018-12-07T11:34:22Z</time>
      </trkpt>
      <trkpt lat="43.90524" lon="4.13529">
        <ele>214.51</ele>
        <time>2018-12-07T11:34:54Z</time>
      </trkpt>
      <trkpt lat="43.90524" lon="4.13529">
        <ele>214.99</ele>
        <time>2018-12-07T11:35:29Z</time>
      </trkpt>
      <trkpt lat="43.90524" lon="4.13529">
        <ele>214.51</ele>
        <time>2018-12-07T11:36:04Z</time>
      </trkpt>
      <trkpt lat="43.90524" lon="4.13529">
        <ele>214.99</ele>
        <time>2018-12-07T11:36:33Z</time>
      </trkpt>
      <trkpt lat="43.90524" lon="4.13529">
        <ele>214.99</ele>
        <time>2018-12-07T11:37:07Z</time>
      </trkpt>
      <trkpt lat="43.90524" lon="4.13529">
        <ele>218.36</ele>
        <time>2018-12-07T11:37:09Z</time>
      </trkpt>
      <trkpt lat="43.90524" lon="4.13529">
        <ele>216.43</ele>
        <time>2018-12-07T11:37:10Z</time>
      </trkpt>
      <trkpt lat="43.90524" lon="4.13529">
        <ele>214.99</ele>
        <time>2018-12-07T11:37:12Z</time>
      </trkpt>
      <trkpt lat="43.90524" lon="4.13529">
        <ele>209.22</ele>
        <time>2018-12-07T11:37:30Z</time>
      </trkpt>
      <trkpt lat="43.90524" lon="4.13529">
        <ele>215.47</ele>
        <time>2018-12-07T11:37:31Z</time>
      </trkpt>
      <trkpt lat="43.90524" lon="4.13529">
        <ele>218.84</ele>
        <time>2018-12-07T11:37:32Z</time>
      </trkpt>
      <trkpt lat="43.90524" lon="4.13529">
        <ele>215.95</ele>
        <time>2018-12-07T11:37:33Z</time>
      </trkpt>
      <trkpt lat="43.90524" lon="4.13529">
        <ele>214.99</ele>
        <time>2018-12-07T11:37:35Z</time>
      </trkpt>
      <trkpt lat="43.90524" lon="4.13529">
        <ele>214.51</ele>
        <time>2018-12-07T11:38:07Z</time>
      </trkpt>
      <trkpt lat="43.90523" lon="4.13528">
        <ele>214.99</ele>
        <time>2018-12-07T11:38:36Z</time>
      </trkpt>
      <trkpt lat="43.90524" lon="4.13528">
        <ele>214.51</ele>
        <time>2018-12-07T11:39:08Z</time>
      </trkpt>
      <trkpt lat="43.90524" lon="4.13529">
        <ele>207.78</ele>
        <time>2018-12-07T11:39:30Z</time>
      </trkpt>
      <trkpt lat="43.90524" lon="4.13529">
        <ele>213.55</ele>
        <time>2018-12-07T11:39:31Z</time>
      </trkpt>
      <trkpt lat="43.90524" lon="4.13529">
        <ele>220.76</ele>
        <time>2018-12-07T11:39:32Z</time>
      </trkpt>
      <trkpt lat="43.90524" lon="4.13529">
        <ele>214.03</ele>
        <time>2018-12-07T11:39:33Z</time>
      </trkpt>
      <trkpt lat="43.90524" lon="4.13528">
        <ele>214.03</ele>
        <time>2018-12-07T11:40:03Z</time>
      </trkpt>
      <trkpt lat="43.90524" lon="4.13528">
        <ele>214.03</ele>
        <time>2018-12-07T11:40:34Z</time>
      </trkpt>
      <trkpt lat="43.90524" lon="4.13528">
        <ele>214.03</ele>
        <time>2018-12-07T11:41:11Z</time>
      </trkpt>
      <trkpt lat="43.90524" lon="4.13529">
        <ele>214.03</ele>
        <time>2018-12-07T11:41:43Z</time>
      </trkpt>
      <trkpt lat="43.90524" lon="4.13529">
        <ele>206.34</ele>
        <time>2018-12-07T11:42:11Z</time>
      </trkpt>
      <trkpt lat="43.90524" lon="4.13529">
        <ele>211.15</ele>
        <time>2018-12-07T11:42:12Z</time>
      </trkpt>
      <trkpt lat="43.90524" lon="4.13529">
        <ele>219.32</ele>
        <time>2018-12-07T11:42:13Z</time>
      </trkpt>
      <trkpt lat="43.90524" lon="4.13529">
        <ele>214.51</ele>
        <time>2018-12-07T11:42:14Z</time>
      </trkpt>
      <trkpt lat="43.90524" lon="4.13529">
        <ele>212.59</ele>
        <time>2018-12-07T11:42:16Z</time>
      </trkpt>
      <trkpt lat="43.90524" lon="4.13529">
        <ele>217.4</ele>
        <time>2018-12-07T11:42:18Z</time>
      </trkpt>
      <trkpt lat="43.90524" lon="4.13529">
        <ele>214.51</ele>
        <time>2018-12-07T11:42:19Z</time>
      </trkpt>
      <trkpt lat="43.90524" lon="4.13529">
        <ele>209.22</ele>
        <time>2018-12-07T11:42:24Z</time>
      </trkpt>
      <trkpt lat="43.90524" lon="4.13529">
        <ele>219.8</ele>
        <time>2018-12-07T11:42:25Z</time>
      </trkpt>
      <trkpt lat="43.90524" lon="4.13529">
        <ele>214.03</ele>
        <time>2018-12-07T11:42:26Z</time>
      </trkpt>
      <trkpt lat="43.90524" lon="4.13529">
        <ele>210.67</ele>
        <time>2018-12-07T11:42:42Z</time>
      </trkpt>
      <trkpt lat="43.90524" lon="4.13529">
        <ele>218.36</ele>
        <time>2018-12-07T11:42:44Z</time>
      </trkpt>
      <trkpt lat="43.90524" lon="4.13529">
        <ele>216.91</ele>
        <time>2018-12-07T11:42:45Z</time>
      </trkpt>
      <trkpt lat="43.90524" lon="4.13529">
        <ele>214.03</ele>
        <time>2018-12-07T11:42:46Z</time>
      </trkpt>
      <trkpt lat="43.90524" lon="4.13529">
        <ele>213.55</ele>
        <time>2018-12-07T11:42:47Z</time>
      </trkpt>
      <trkpt lat="43.90524" lon="4.13529">
        <ele>214.03</ele>
        <time>2018-12-07T11:42:51Z</time>
      </trkpt>
      <trkpt lat="43.90524" lon="4.13529">
        <ele>214.03</ele>
        <time>2018-12-07T11:43:11Z</time>
      </trkpt>
      <trkpt lat="43.90524" lon="4.1353">
        <ele>214.03</ele>
        <time>2018-12-07T11:43:42Z</time>
      </trkpt>
      <trkpt lat="43.90524" lon="4.1353">
        <ele>214.03</ele>
        <time>2018-12-07T11:44:18Z</time>
      </trkpt>
      <trkpt lat="43.90524" lon="4.1353">
        <ele>214.51</ele>
        <time>2018-12-07T11:44:52Z</time>
      </trkpt>
      <trkpt lat="43.90524" lon="4.13529">
        <ele>214.51</ele>
        <time>2018-12-07T11:45:18Z</time>
      </trkpt>
      <trkpt lat="43.90524" lon="4.1353">
        <ele>214.51</ele>
        <time>2018-12-07T11:45:48Z</time>
      </trkpt>
      <trkpt lat="43.90524" lon="4.13529">
        <ele>214.51</ele>
        <time>2018-12-07T11:46:17Z</time>
      </trkpt>
      <trkpt lat="43.90524" lon="4.13529">
        <ele>214.03</ele>
        <time>2018-12-07T11:46:43Z</time>
      </trkpt>
      <trkpt lat="43.90524" lon="4.13529">
        <ele>214.03</ele>
        <time>2018-12-07T11:47:17Z</time>
      </trkpt>
      <trkpt lat="43.90524" lon="4.13529">
        <ele>214.51</ele>
        <time>2018-12-07T11:47:37Z</time>
      </trkpt>
      <trkpt lat="43.90524" lon="4.13529">
        <ele>214.51</ele>
        <time>2018-12-07T11:48:07Z</time>
      </trkpt>
      <trkpt lat="43.90524" lon="4.13529">
        <ele>214.03</ele>
        <time>2018-12-07T11:48:39Z</time>
      </trkpt>
      <trkpt lat="43.90524" lon="4.13529">
        <ele>214.99</ele>
        <time>2018-12-07T11:49:06Z</time>
      </trkpt>
      <trkpt lat="43.90524" lon="4.13529">
        <ele>208.26</ele>
        <time>2018-12-07T11:49:11Z</time>
      </trkpt>
      <trkpt lat="43.90524" lon="4.13529">
        <ele>220.28</ele>
        <time>2018-12-07T11:49:12Z</time>
      </trkpt>
      <trkpt lat="43.90524" lon="4.13529">
        <ele>214.51</ele>
        <time>2018-12-07T11:49:13Z</time>
      </trkpt>
      <trkpt lat="43.90524" lon="4.13529">
        <ele>214.99</ele>
        <time>2018-12-07T11:49:38Z</time>
      </trkpt>
      <trkpt lat="43.90524" lon="4.13529">
        <ele>212.59</ele>
        <time>2018-12-07T11:49:50Z</time>
      </trkpt>
      <trkpt lat="43.90524" lon="4.13529">
        <ele>217.88</ele>
        <time>2018-12-07T11:49:51Z</time>
      </trkpt>
      <trkpt lat="43.90524" lon="4.13529">
        <ele>214.99</ele>
        <time>2018-12-07T11:49:52Z</time>
      </trkpt>
      <trkpt lat="43.90524" lon="4.13529">
        <ele>214.51</ele>
        <time>2018-12-07T11:49:54Z</time>
      </trkpt>
      <trkpt lat="43.90524" lon="4.13528">
        <ele>214.51</ele>
        <time>2018-12-07T11:50:23Z</time>
      </trkpt>
      <trkpt lat="43.90521" lon="4.13534">
        <ele>214.51</ele>
        <time>2018-12-07T11:50:35Z</time>
      </trkpt>
      <trkpt lat="43.90525" lon="4.1355">
        <ele>215.47</ele>
        <time>2018-12-07T11:50:50Z</time>
      </trkpt>
      <trkpt lat="43.90526" lon="4.13551">
        <ele>215.95</ele>
        <time>2018-12-07T11:51:09Z</time>
      </trkpt>
      <trkpt lat="43.90526" lon="4.13551">
        <ele>215.95</ele>
        <time>2018-12-07T11:51:35Z</time>
      </trkpt>
      <trkpt lat="43.90525" lon="4.13552">
        <ele>215.47</ele>
        <time>2018-12-07T11:51:55Z</time>
      </trkpt>
      <trkpt lat="43.90525" lon="4.1355">
        <ele>215.47</ele>
        <time>2018-12-07T11:52:13Z</time>
      </trkpt>
      <trkpt lat="43.90523" lon="4.13544">
        <ele>214.99</ele>
        <time>2018-12-07T11:52:26Z</time>
      </trkpt>
      <trkpt lat="43.90521" lon="4.13542">
        <ele>214.51</ele>
        <time>2018-12-07T11:52:33Z</time>
      </trkpt>
      <trkpt lat="43.90517" lon="4.13542">
        <ele>214.51</ele>
        <time>2018-12-07T11:52:36Z</time>
      </trkpt>
      <trkpt lat="43.90511" lon="4.13546">
        <ele>214.51</ele>
        <time>2018-12-07T11:52:43Z</time>
      </trkpt>
      <trkpt lat="43.90507" lon="4.13549">
        <ele>214.03</ele>
        <time>2018-12-07T11:52:47Z</time>
      </trkpt>
      <trkpt lat="43.90503" lon="4.1355">
        <ele>213.55</ele>
        <time>2018-12-07T11:53:05Z</time>
      </trkpt>
      <trkpt lat="43.90502" lon="4.1355">
        <ele>214.03</ele>
        <time>2018-12-07T11:53:25Z</time>
      </trkpt>
      <trkpt lat="43.90506" lon="4.13545">
        <ele>213.55</ele>
        <time>2018-12-07T11:53:31Z</time>
      </trkpt>
      <trkpt lat="43.9051" lon="4.1354">
        <ele>214.03</ele>
        <time>2018-12-07T11:53:37Z</time>
      </trkpt>
      <trkpt lat="43.9052" lon="4.13528">
        <ele>214.03</ele>
        <time>2018-12-07T11:53:51Z</time>
      </trkpt>
      <trkpt lat="43.90522" lon="4.1353">
        <ele>214.51</ele>
        <time>2018-12-07T11:54:07Z</time>
      </trkpt>
      <trkpt lat="43.90522" lon="4.1353">
        <ele>214.51</ele>
        <time>2018-12-07T11:54:23Z</time>
      </trkpt>
      <trkpt lat="43.90522" lon="4.1353">
        <ele>214.51</ele>
        <time>2018-12-07T11:54:41Z</time>
      </trkpt>
      <trkpt lat="43.90517" lon="4.13527">
        <ele>214.03</ele>
        <time>2018-12-07T11:54:56Z</time>
      </trkpt>
      <trkpt lat="43.90511" lon="4.13525">
        <ele>212.11</ele>
        <time>2018-12-07T11:55:09Z</time>
      </trkpt>
      <trkpt lat="43.90511" lon="4.13525">
        <ele>214.51</ele>
        <time>2018-12-07T11:55:10Z</time>
      </trkpt>
      <trkpt lat="43.90508" lon="4.1352">
        <ele>214.03</ele>
        <time>2018-12-07T11:55:15Z</time>
      </trkpt>
      <trkpt lat="43.90507" lon="4.13501">
        <ele>213.55</ele>
        <time>2018-12-07T11:55:31Z</time>
      </trkpt>
      <trkpt lat="43.90508" lon="4.13501">
        <ele>214.03</ele>
        <time>2018-12-07T11:55:46Z</time>
      </trkpt>
      <trkpt lat="43.90508" lon="4.135">
        <ele>206.82</ele>
        <time>2018-12-07T11:55:53Z</time>
      </trkpt>
      <trkpt lat="43.90508" lon="4.135">
        <ele>219.32</ele>
        <time>2018-12-07T11:55:54Z</time>
      </trkpt>
      <trkpt lat="43.90508" lon="4.135">
        <ele>214.03</ele>
        <time>2018-12-07T11:55:55Z</time>
      </trkpt>
      <trkpt lat="43.90508" lon="4.135">
        <ele>210.67</ele>
        <time>2018-12-07T11:55:56Z</time>
      </trkpt>
      <trkpt lat="43.90508" lon="4.135">
        <ele>215.47</ele>
        <time>2018-12-07T11:55:57Z</time>
      </trkpt>
      <trkpt lat="43.90511" lon="4.13494">
        <ele>214.03</ele>
        <time>2018-12-07T11:56:09Z</time>
      </trkpt>
      <trkpt lat="43.90513" lon="4.13486">
        <ele>214.03</ele>
        <time>2018-12-07T11:56:27Z</time>
      </trkpt>
      <trkpt lat="43.90519" lon="4.13483">
        <ele>214.03</ele>
        <time>2018-12-07T11:56:42Z</time>
      </trkpt>
      <trkpt lat="43.90527" lon="4.13474">
        <ele>214.03</ele>
        <time>2018-12-07T11:56:58Z</time>
      </trkpt>
      <trkpt lat="43.90529" lon="4.13464">
        <ele>214.51</ele>
        <time>2018-12-07T11:57:09Z</time>
      </trkpt>
      <trkpt lat="43.90532" lon="4.13456">
        <ele>209.7</ele>
        <time>2018-12-07T11:57:21Z</time>
      </trkpt>
      <trkpt lat="43.90532" lon="4.13455">
        <ele>219.8</ele>
        <time>2018-12-07T11:57:22Z</time>
      </trkpt>
      <trkpt lat="43.90542" lon="4.13446">
        <ele>213.07</ele>
        <time>2018-12-07T11:57:37Z</time>
      </trkpt>
      <trkpt lat="43.90542" lon="4.13446">
        <ele>215.95</ele>
        <time>2018-12-07T11:57:38Z</time>
      </trkpt>
      <trkpt lat="43.90554" lon="4.13442">
        <ele>215.95</ele>
        <time>2018-12-07T11:57:54Z</time>
      </trkpt>
      <trkpt lat="43.90564" lon="4.13446">
        <ele>215.95</ele>
        <time>2018-12-07T11:58:06Z</time>
      </trkpt>
      <trkpt lat="43.90565" lon="4.13446">
        <ele>216.43</ele>
        <time>2018-12-07T11:58:07Z</time>
      </trkpt>
      <trkpt lat="43.90568" lon="4.13446">
        <ele>216.43</ele>
        <time>2018-12-07T11:58:11Z</time>
      </trkpt>
      <trkpt lat="43.90574" lon="4.13442">
        <ele>216.43</ele>
        <time>2018-12-07T11:58:20Z</time>
      </trkpt>
      <trkpt lat="43.90577" lon="4.13441">
        <ele>216.43</ele>
        <time>2018-12-07T11:58:26Z</time>
      </trkpt>
      <trkpt lat="43.9058" lon="4.13438">
        <ele>216.43</ele>
        <time>2018-12-07T11:58:30Z</time>
      </trkpt>
      <trkpt lat="43.90586" lon="4.1343">
        <ele>216.43</ele>
        <time>2018-12-07T11:58:42Z</time>
      </trkpt>
      <trkpt lat="43.90591" lon="4.13425">
        <ele>215.95</ele>
        <time>2018-12-07T11:58:49Z</time>
      </trkpt>
      <trkpt lat="43.90593" lon="4.13424">
        <ele>217.4</ele>
        <time>2018-12-07T11:58:51Z</time>
      </trkpt>
      <trkpt lat="43.90595" lon="4.13422">
        <ele>216.91</ele>
        <time>2018-12-07T11:58:53Z</time>
      </trkpt>
      <trkpt lat="43.90602" lon="4.13411">
        <ele>216.91</ele>
        <time>2018-12-07T11:59:05Z</time>
      </trkpt>
      <trkpt lat="43.90606" lon="4.13404">
        <ele>216.43</ele>
        <time>2018-12-07T11:59:12Z</time>
      </trkpt>
      <trkpt lat="43.90608" lon="4.13394">
        <ele>216.91</ele>
        <time>2018-12-07T11:59:19Z</time>
      </trkpt>
      <trkpt lat="43.90608" lon="4.13373">
        <ele>221.72</ele>
        <time>2018-12-07T11:59:33Z</time>
      </trkpt>
      <trkpt lat="43.90608" lon="4.13372">
        <ele>217.88</ele>
        <time>2018-12-07T11:59:34Z</time>
      </trkpt>
      <trkpt lat="43.9061" lon="4.1336">
        <ele>219.32</ele>
        <time>2018-12-07T11:59:46Z</time>
      </trkpt>
      <trkpt lat="43.9061" lon="4.13354">
        <ele>218.84</ele>
        <time>2018-12-07T11:59:50Z</time>
      </trkpt>
      <trkpt lat="43.90611" lon="4.13347">
        <ele>218.84</ele>
        <time>2018-12-07T11:59:57Z</time>
      </trkpt>
      <trkpt lat="43.90615" lon="4.13328">
        <ele>217.4</ele>
        <time>2018-12-07T12:00:10Z</time>
      </trkpt>
      <trkpt lat="43.90617" lon="4.13322">
        <ele>216.43</ele>
        <time>2018-12-07T12:00:14Z</time>
      </trkpt>
      <trkpt lat="43.90617" lon="4.13317">
        <ele>218.36</ele>
        <time>2018-12-07T12:00:17Z</time>
      </trkpt>
      <trkpt lat="43.90617" lon="4.13315">
        <ele>221.24</ele>
        <time>2018-12-07T12:00:19Z</time>
      </trkpt>
      <trkpt lat="43.90618" lon="4.13309">
        <ele>221.24</ele>
        <time>2018-12-07T12:00:22Z</time>
      </trkpt>
      <trkpt lat="43.90618" lon="4.13308">
        <ele>219.8</ele>
        <time>2018-12-07T12:00:23Z</time>
      </trkpt>
      <trkpt lat="43.90618" lon="4.13307">
        <ele>237.58</ele>
        <time>2018-12-07T12:00:24Z</time>
      </trkpt>
      <trkpt lat="43.90619" lon="4.13305">
        <ele>220.28</ele>
        <time>2018-12-07T12:00:25Z</time>
      </trkpt>
      <trkpt lat="43.90622" lon="4.13302">
        <ele>220.76</ele>
        <time>2018-12-07T12:00:30Z</time>
      </trkpt>
      <trkpt lat="43.90625" lon="4.13298">
        <ele>220.76</ele>
        <time>2018-12-07T12:00:34Z</time>
      </trkpt>
      <trkpt lat="43.90628" lon="4.13295">
        <ele>222.68</ele>
        <time>2018-12-07T12:00:39Z</time>
      </trkpt>
      <trkpt lat="43.90629" lon="4.13295">
        <ele>219.8</ele>
        <time>2018-12-07T12:00:40Z</time>
      </trkpt>
      <trkpt lat="43.90632" lon="4.13293">
        <ele>220.76</ele>
        <time>2018-12-07T12:00:44Z</time>
      </trkpt>
      <trkpt lat="43.90634" lon="4.13291">
        <ele>219.8</ele>
        <time>2018-12-07T12:00:46Z</time>
      </trkpt>
      <trkpt lat="43.90644" lon="4.13278">
        <ele>218.84</ele>
        <time>2018-12-07T12:01:01Z</time>
      </trkpt>
      <trkpt lat="43.90645" lon="4.13277">
        <ele>222.2</ele>
        <time>2018-12-07T12:01:02Z</time>
      </trkpt>
      <trkpt lat="43.90647" lon="4.13276">
        <ele>219.32</ele>
        <time>2018-12-07T12:01:05Z</time>
      </trkpt>
      <trkpt lat="43.90657" lon="4.13271">
        <ele>220.76</ele>
        <time>2018-12-07T12:01:16Z</time>
      </trkpt>
      <trkpt lat="43.90667" lon="4.13261">
        <ele>220.76</ele>
        <time>2018-12-07T12:01:29Z</time>
      </trkpt>
      <trkpt lat="43.90669" lon="4.13256">
        <ele>221.24</ele>
        <time>2018-12-07T12:01:33Z</time>
      </trkpt>
      <trkpt lat="43.90674" lon="4.13248">
        <ele>221.72</ele>
        <time>2018-12-07T12:01:47Z</time>
      </trkpt>
      <trkpt lat="43.90677" lon="4.13245">
        <ele>221.72</ele>
        <time>2018-12-07T12:02:05Z</time>
      </trkpt>
      <trkpt lat="43.90682" lon="4.13244">
        <ele>220.76</ele>
        <time>2018-12-07T12:02:11Z</time>
      </trkpt>
      <trkpt lat="43.90685" lon="4.13245">
        <ele>218.36</ele>
        <time>2018-12-07T12:02:14Z</time>
      </trkpt>
      <trkpt lat="43.90686" lon="4.13245">
        <ele>225.09</ele>
        <time>2018-12-07T12:02:15Z</time>
      </trkpt>
      <trkpt lat="43.90688" lon="4.13246">
        <ele>222.2</ele>
        <time>2018-12-07T12:02:17Z</time>
      </trkpt>
      <trkpt lat="43.90694" lon="4.13246">
        <ele>226.05</ele>
        <time>2018-12-07T12:02:22Z</time>
      </trkpt>
      <trkpt lat="43.90695" lon="4.13247">
        <ele>222.2</ele>
        <time>2018-12-07T12:02:23Z</time>
      </trkpt>
      <trkpt lat="43.90701" lon="4.13246">
        <ele>225.57</ele>
        <time>2018-12-07T12:02:28Z</time>
      </trkpt>
      <trkpt lat="43.90703" lon="4.13246">
        <ele>223.64</ele>
        <time>2018-12-07T12:02:30Z</time>
      </trkpt>
      <trkpt lat="43.90713" lon="4.13235">
        <ele>224.12</ele>
        <time>2018-12-07T12:02:44Z</time>
      </trkpt>
      <trkpt lat="43.90716" lon="4.13233">
        <ele>224.12</ele>
        <time>2018-12-07T12:02:48Z</time>
      </trkpt>
      <trkpt lat="43.90724" lon="4.13227">
        <ele>225.09</ele>
        <time>2018-12-07T12:02:56Z</time>
      </trkpt>
      <trkpt lat="43.90729" lon="4.13225">
        <ele>225.09</ele>
        <time>2018-12-07T12:03:00Z</time>
      </trkpt>
      <trkpt lat="43.9074" lon="4.13221">
        <ele>225.57</ele>
        <time>2018-12-07T12:03:10Z</time>
      </trkpt>
      <trkpt lat="43.90754" lon="4.13221">
        <ele>227.01</ele>
        <time>2018-12-07T12:03:23Z</time>
      </trkpt>
      <trkpt lat="43.90767" lon="4.13218">
        <ele>227.97</ele>
        <time>2018-12-07T12:03:36Z</time>
      </trkpt>
      <trkpt lat="43.90775" lon="4.13216">
        <ele>237.1</ele>
        <time>2018-12-07T12:03:44Z</time>
      </trkpt>
      <trkpt lat="43.90776" lon="4.13216">
        <ele>229.89</ele>
        <time>2018-12-07T12:03:45Z</time>
      </trkpt>
      <trkpt lat="43.90777" lon="4.13216">
        <ele>219.8</ele>
        <time>2018-12-07T12:03:46Z</time>
      </trkpt>
      <trkpt lat="43.90778" lon="4.13215">
        <ele>234.7</ele>
        <time>2018-12-07T12:03:47Z</time>
      </trkpt>
      <trkpt lat="43.90779" lon="4.13214">
        <ele>228.45</ele>
        <time>2018-12-07T12:03:48Z</time>
      </trkpt>
      <trkpt lat="43.90783" lon="4.13211">
        <ele>228.45</ele>
        <time>2018-12-07T12:04:02Z</time>
      </trkpt>
      <trkpt lat="43.90784" lon="4.13211">
        <ele>228.93</ele>
        <time>2018-12-07T12:04:09Z</time>
      </trkpt>
      <trkpt lat="43.9079" lon="4.13205">
        <ele>227.97</ele>
        <time>2018-12-07T12:04:17Z</time>
      </trkpt>
      <trkpt lat="43.90797" lon="4.13199">
        <ele>228.45</ele>
        <time>2018-12-07T12:04:25Z</time>
      </trkpt>
      <trkpt lat="43.90805" lon="4.13188">
        <ele>228.93</ele>
        <time>2018-12-07T12:04:38Z</time>
      </trkpt>
      <trkpt lat="43.90805" lon="4.13187">
        <ele>220.76</ele>
        <time>2018-12-07T12:04:41Z</time>
      </trkpt>
      <trkpt lat="43.90805" lon="4.13187">
        <ele>227.49</ele>
        <time>2018-12-07T12:04:43Z</time>
      </trkpt>
      <trkpt lat="43.90805" lon="4.13187">
        <ele>230.85</ele>
        <time>2018-12-07T12:04:45Z</time>
      </trkpt>
      <trkpt lat="43.90805" lon="4.13187">
        <ele>244.31</ele>
        <time>2018-12-07T12:04:46Z</time>
      </trkpt>
      <trkpt lat="43.90805" lon="4.13188">
        <ele>229.41</ele>
        <time>2018-12-07T12:04:47Z</time>
      </trkpt>
      <trkpt lat="43.90807" lon="4.13184">
        <ele>228.93</ele>
        <time>2018-12-07T12:04:57Z</time>
      </trkpt>
      <trkpt lat="43.90815" lon="4.13174">
        <ele>228.93</ele>
        <time>2018-12-07T12:05:08Z</time>
      </trkpt>
      <trkpt lat="43.90815" lon="4.13173">
        <ele>228.93</ele>
        <time>2018-12-07T12:05:09Z</time>
      </trkpt>
      <trkpt lat="43.90821" lon="4.13165">
        <ele>228.93</ele>
        <time>2018-12-07T12:05:22Z</time>
      </trkpt>
      <trkpt lat="43.90822" lon="4.13164">
        <ele>229.41</ele>
        <time>2018-12-07T12:05:32Z</time>
      </trkpt>
      <trkpt lat="43.90831" lon="4.13157">
        <ele>229.41</ele>
        <time>2018-12-07T12:05:42Z</time>
      </trkpt>
      <trkpt lat="43.90842" lon="4.13142">
        <ele>229.41</ele>
        <time>2018-12-07T12:05:55Z</time>
      </trkpt>
      <trkpt lat="43.90844" lon="4.13139">
        <ele>228.93</ele>
        <time>2018-12-07T12:05:57Z</time>
      </trkpt>
      <trkpt lat="43.90848" lon="4.13137">
        <ele>228.93</ele>
        <time>2018-12-07T12:06:02Z</time>
      </trkpt>
      <trkpt lat="43.90859" lon="4.13127">
        <ele>228.45</ele>
        <time>2018-12-07T12:06:14Z</time>
      </trkpt>
      <trkpt lat="43.90863" lon="4.13123">
        <ele>229.41</ele>
        <time>2018-12-07T12:06:19Z</time>
      </trkpt>
      <trkpt lat="43.90876" lon="4.13108">
        <ele>230.85</ele>
        <time>2018-12-07T12:06:33Z</time>
      </trkpt>
      <trkpt lat="43.90889" lon="4.13096">
        <ele>232.3</ele>
        <time>2018-12-07T12:06:46Z</time>
      </trkpt>
      <trkpt lat="43.90897" lon="4.13083">
        <ele>232.3</ele>
        <time>2018-12-07T12:06:58Z</time>
      </trkpt>
      <trkpt lat="43.90906" lon="4.13074">
        <ele>233.26</ele>
        <time>2018-12-07T12:07:10Z</time>
      </trkpt>
      <trkpt lat="43.90908" lon="4.13064">
        <ele>232.78</ele>
        <time>2018-12-07T12:07:15Z</time>
      </trkpt>
      <trkpt lat="43.9091" lon="4.1306">
        <ele>233.26</ele>
        <time>2018-12-07T12:07:18Z</time>
      </trkpt>
      <trkpt lat="43.90914" lon="4.13056">
        <ele>233.26</ele>
        <time>2018-12-07T12:07:24Z</time>
      </trkpt>
      <trkpt lat="43.90921" lon="4.13049">
        <ele>233.74</ele>
        <time>2018-12-07T12:07:33Z</time>
      </trkpt>
      <trkpt lat="43.90923" lon="4.13045">
        <ele>233.26</ele>
        <time>2018-12-07T12:07:36Z</time>
      </trkpt>
      <trkpt lat="43.90926" lon="4.13039">
        <ele>234.7</ele>
        <time>2018-12-07T12:07:41Z</time>
      </trkpt>
      <trkpt lat="43.90936" lon="4.13028">
        <ele>235.18</ele>
        <time>2018-12-07T12:07:55Z</time>
      </trkpt>
      <trkpt lat="43.90944" lon="4.13025">
        <ele>237.58</ele>
        <time>2018-12-07T12:08:10Z</time>
      </trkpt>
      <trkpt lat="43.90943" lon="4.13026">
        <ele>235.66</ele>
        <time>2018-12-07T12:08:20Z</time>
      </trkpt>
      <trkpt lat="43.90955" lon="4.13046">
        <ele>236.14</ele>
        <time>2018-12-07T12:08:35Z</time>
      </trkpt>
      <trkpt lat="43.90957" lon="4.13048">
        <ele>235.66</ele>
        <time>2018-12-07T12:08:38Z</time>
      </trkpt>
      <trkpt lat="43.90974" lon="4.13061">
        <ele>235.66</ele>
        <time>2018-12-07T12:08:53Z</time>
      </trkpt>
      <trkpt lat="43.90993" lon="4.13064">
        <ele>237.1</ele>
        <time>2018-12-07T12:09:08Z</time>
      </trkpt>
      <trkpt lat="43.90997" lon="4.13064">
        <ele>237.1</ele>
        <time>2018-12-07T12:09:12Z</time>
      </trkpt>
      <trkpt lat="43.91013" lon="4.13066">
        <ele>236.62</ele>
        <time>2018-12-07T12:09:28Z</time>
      </trkpt>
      <trkpt lat="43.91023" lon="4.13069">
        <ele>237.1</ele>
        <time>2018-12-07T12:09:41Z</time>
      </trkpt>
      <trkpt lat="43.91031" lon="4.13072">
        <ele>238.54</ele>
        <time>2018-12-07T12:09:49Z</time>
      </trkpt>
      <trkpt lat="43.91046" lon="4.13077">
        <ele>238.54</ele>
        <time>2018-12-07T12:10:03Z</time>
      </trkpt>
      <trkpt lat="43.91064" lon="4.13085">
        <ele>238.54</ele>
        <time>2018-12-07T12:10:19Z</time>
      </trkpt>
      <trkpt lat="43.91075" lon="4.13092">
        <ele>238.06</ele>
        <time>2018-12-07T12:10:32Z</time>
      </trkpt>
      <trkpt lat="43.91078" lon="4.13094">
        <ele>237.58</ele>
        <time>2018-12-07T12:10:34Z</time>
      </trkpt>
      <trkpt lat="43.91086" lon="4.13098">
        <ele>237.58</ele>
        <time>2018-12-07T12:10:43Z</time>
      </trkpt>
      <trkpt lat="43.91095" lon="4.13103">
        <ele>237.1</ele>
        <time>2018-12-07T12:10:52Z</time>
      </trkpt>
      <trkpt lat="43.91098" lon="4.13105">
        <ele>237.1</ele>
        <time>2018-12-07T12:10:54Z</time>
      </trkpt>
      <trkpt lat="43.91104" lon="4.13109">
        <ele>237.1</ele>
        <time>2018-12-07T12:11:01Z</time>
      </trkpt>
      <trkpt lat="43.91123" lon="4.13119">
        <ele>236.62</ele>
        <time>2018-12-07T12:11:18Z</time>
      </trkpt>
      <trkpt lat="43.91135" lon="4.13123">
        <ele>236.62</ele>
        <time>2018-12-07T12:11:30Z</time>
      </trkpt>
      <trkpt lat="43.91151" lon="4.13133">
        <ele>236.62</ele>
        <time>2018-12-07T12:11:46Z</time>
      </trkpt>
      <trkpt lat="43.91166" lon="4.13143">
        <ele>237.1</ele>
        <time>2018-12-07T12:12:02Z</time>
      </trkpt>
      <trkpt lat="43.91179" lon="4.13152">
        <ele>229.89</ele>
        <time>2018-12-07T12:12:15Z</time>
      </trkpt>
      <trkpt lat="43.9118" lon="4.13153">
        <ele>234.7</ele>
        <time>2018-12-07T12:12:16Z</time>
      </trkpt>
      <trkpt lat="43.91181" lon="4.13154">
        <ele>247.2</ele>
        <time>2018-12-07T12:12:17Z</time>
      </trkpt>
      <trkpt lat="43.91183" lon="4.13156">
        <ele>248.64</ele>
        <time>2018-12-07T12:12:19Z</time>
      </trkpt>
      <trkpt lat="43.91184" lon="4.13156">
        <ele>237.58</ele>
        <time>2018-12-07T12:12:20Z</time>
      </trkpt>
      <trkpt lat="43.91185" lon="4.13157">
        <ele>237.1</ele>
        <time>2018-12-07T12:12:22Z</time>
      </trkpt>
      <trkpt lat="43.91194" lon="4.1316">
        <ele>236.14</ele>
        <time>2018-12-07T12:12:35Z</time>
      </trkpt>
      <trkpt lat="43.91195" lon="4.13158">
        <ele>235.66</ele>
        <time>2018-12-07T12:12:51Z</time>
      </trkpt>
      <trkpt lat="43.91196" lon="4.13158">
        <ele>236.14</ele>
        <time>2018-12-07T12:13:13Z</time>
      </trkpt>
      <trkpt lat="43.91195" lon="4.13158">
        <ele>236.14</ele>
        <time>2018-12-07T12:13:37Z</time>
      </trkpt>
      <trkpt lat="43.91197" lon="4.13148">
        <ele>234.7</ele>
        <time>2018-12-07T12:13:49Z</time>
      </trkpt>
      <trkpt lat="43.91193" lon="4.13133">
        <ele>234.7</ele>
        <time>2018-12-07T12:14:03Z</time>
      </trkpt>
      <trkpt lat="43.91188" lon="4.13127">
        <ele>234.22</ele>
        <time>2018-12-07T12:14:12Z</time>
      </trkpt>
      <trkpt lat="43.91182" lon="4.13123">
        <ele>233.74</ele>
        <time>2018-12-07T12:14:17Z</time>
      </trkpt>
      <trkpt lat="43.9118" lon="4.13121">
        <ele>234.7</ele>
        <time>2018-12-07T12:14:19Z</time>
      </trkpt>
      <trkpt lat="43.91173" lon="4.1311">
        <ele>233.26</ele>
        <time>2018-12-07T12:14:32Z</time>
      </trkpt>
      <trkpt lat="43.91165" lon="4.13095">
        <ele>232.3</ele>
        <time>2018-12-07T12:14:46Z</time>
      </trkpt>
      <trkpt lat="43.91159" lon="4.13076">
        <ele>230.85</ele>
        <time>2018-12-07T12:14:59Z</time>
      </trkpt>
      <trkpt lat="43.91157" lon="4.13069">
        <ele>230.37</ele>
        <time>2018-12-07T12:15:04Z</time>
      </trkpt>
      <trkpt lat="43.9115" lon="4.13048">
        <ele>228.93</ele>
        <time>2018-12-07T12:15:19Z</time>
      </trkpt>
      <trkpt lat="43.91141" lon="4.13023">
        <ele>228.45</ele>
        <time>2018-12-07T12:15:33Z</time>
      </trkpt>
      <trkpt lat="43.91139" lon="4.13015">
        <ele>228.45</ele>
        <time>2018-12-07T12:15:38Z</time>
      </trkpt>
      <trkpt lat="43.91135" lon="4.12994">
        <ele>228.45</ele>
        <time>2018-12-07T12:15:50Z</time>
      </trkpt>
      <trkpt lat="43.91134" lon="4.12988">
        <ele>228.93</ele>
        <time>2018-12-07T12:15:55Z</time>
      </trkpt>
      <trkpt lat="43.91135" lon="4.12984">
        <ele>227.97</ele>
        <time>2018-12-07T12:15:57Z</time>
      </trkpt>
      <trkpt lat="43.91136" lon="4.12969">
        <ele>227.97</ele>
        <time>2018-12-07T12:16:08Z</time>
      </trkpt>
      <trkpt lat="43.91142" lon="4.12943">
        <ele>228.93</ele>
        <time>2018-12-07T12:16:22Z</time>
      </trkpt>
      <trkpt lat="43.91146" lon="4.12926">
        <ele>228.45</ele>
        <time>2018-12-07T12:16:36Z</time>
      </trkpt>
      <trkpt lat="43.91145" lon="4.12911">
        <ele>228.45</ele>
        <time>2018-12-07T12:16:49Z</time>
      </trkpt>
      <trkpt lat="43.91147" lon="4.12908">
        <ele>228.45</ele>
        <time>2018-12-07T12:17:04Z</time>
      </trkpt>
      <trkpt lat="43.91149" lon="4.12902">
        <ele>227.97</ele>
        <time>2018-12-07T12:17:19Z</time>
      </trkpt>
      <trkpt lat="43.91153" lon="4.12894">
        <ele>227.49</ele>
        <time>2018-12-07T12:17:25Z</time>
      </trkpt>
      <trkpt lat="43.91158" lon="4.12873">
        <ele>227.97</ele>
        <time>2018-12-07T12:17:37Z</time>
      </trkpt>
      <trkpt lat="43.91158" lon="4.12852">
        <ele>227.49</ele>
        <time>2018-12-07T12:17:49Z</time>
      </trkpt>
      <trkpt lat="43.9116" lon="4.12846">
        <ele>227.01</ele>
        <time>2018-12-07T12:17:53Z</time>
      </trkpt>
      <trkpt lat="43.9116" lon="4.12843">
        <ele>226.53</ele>
        <time>2018-12-07T12:17:55Z</time>
      </trkpt>
      <trkpt lat="43.91161" lon="4.12832">
        <ele>226.05</ele>
        <time>2018-12-07T12:18:01Z</time>
      </trkpt>
      <trkpt lat="43.91163" lon="4.12812">
        <ele>227.01</ele>
        <time>2018-12-07T12:18:14Z</time>
      </trkpt>
      <trkpt lat="43.91166" lon="4.12793">
        <ele>227.97</ele>
        <time>2018-12-07T12:18:26Z</time>
      </trkpt>
      <trkpt lat="43.91169" lon="4.1278">
        <ele>228.45</ele>
        <time>2018-12-07T12:18:34Z</time>
      </trkpt>
      <trkpt lat="43.91173" lon="4.12762">
        <ele>228.93</ele>
        <time>2018-12-07T12:18:47Z</time>
      </trkpt>
      <trkpt lat="43.91174" lon="4.12759">
        <ele>227.01</ele>
        <time>2018-12-07T12:18:49Z</time>
      </trkpt>
      <trkpt lat="43.91174" lon="4.12758">
        <ele>217.88</ele>
        <time>2018-12-07T12:18:50Z</time>
      </trkpt>
      <trkpt lat="43.91175" lon="4.12757">
        <ele>241.91</ele>
        <time>2018-12-07T12:18:51Z</time>
      </trkpt>
      <trkpt lat="43.91175" lon="4.12755">
        <ele>227.49</ele>
        <time>2018-12-07T12:18:52Z</time>
      </trkpt>
      <trkpt lat="43.91176" lon="4.12754">
        <ele>231.81</ele>
        <time>2018-12-07T12:18:53Z</time>
      </trkpt>
      <trkpt lat="43.91181" lon="4.12739">
        <ele>230.37</ele>
        <time>2018-12-07T12:19:05Z</time>
      </trkpt>
      <trkpt lat="43.91184" lon="4.12728">
        <ele>230.37</ele>
        <time>2018-12-07T12:19:18Z</time>
      </trkpt>
      <trkpt lat="43.91186" lon="4.12718">
        <ele>231.33</ele>
        <time>2018-12-07T12:19:23Z</time>
      </trkpt>
      <trkpt lat="43.91188" lon="4.12712">
        <ele>231.81</ele>
        <time>2018-12-07T12:19:28Z</time>
      </trkpt>
      <trkpt lat="43.91188" lon="4.12708">
        <ele>231.81</ele>
        <time>2018-12-07T12:19:31Z</time>
      </trkpt>
      <trkpt lat="43.91193" lon="4.12689">
        <ele>232.3</ele>
        <time>2018-12-07T12:19:44Z</time>
      </trkpt>
      <trkpt lat="43.91193" lon="4.12678">
        <ele>232.78</ele>
        <time>2018-12-07T12:19:51Z</time>
      </trkpt>
      <trkpt lat="43.91196" lon="4.12657">
        <ele>232.3</ele>
        <time>2018-12-07T12:20:02Z</time>
      </trkpt>
      <trkpt lat="43.91198" lon="4.1264">
        <ele>231.81</ele>
        <time>2018-12-07T12:20:12Z</time>
      </trkpt>
      <trkpt lat="43.912" lon="4.12631">
        <ele>231.81</ele>
        <time>2018-12-07T12:20:18Z</time>
      </trkpt>
      <trkpt lat="43.91203" lon="4.12608">
        <ele>230.85</ele>
        <time>2018-12-07T12:20:32Z</time>
      </trkpt>
      <trkpt lat="43.91203" lon="4.12605">
        <ele>231.33</ele>
        <time>2018-12-07T12:20:34Z</time>
      </trkpt>
      <trkpt lat="43.91205" lon="4.12598">
        <ele>231.33</ele>
        <time>2018-12-07T12:20:38Z</time>
      </trkpt>
      <trkpt lat="43.91208" lon="4.12591">
        <ele>231.33</ele>
        <time>2018-12-07T12:20:44Z</time>
      </trkpt>
      <trkpt lat="43.91212" lon="4.12573">
        <ele>230.85</ele>
        <time>2018-12-07T12:20:56Z</time>
      </trkpt>
      <trkpt lat="43.91213" lon="4.12555">
        <ele>231.33</ele>
        <time>2018-12-07T12:21:08Z</time>
      </trkpt>
      <trkpt lat="43.91217" lon="4.12533">
        <ele>231.33</ele>
        <time>2018-12-07T12:21:21Z</time>
      </trkpt>
      <trkpt lat="43.91217" lon="4.12512">
        <ele>231.33</ele>
        <time>2018-12-07T12:21:34Z</time>
      </trkpt>
      <trkpt lat="43.91219" lon="4.12492">
        <ele>231.81</ele>
        <time>2018-12-07T12:21:46Z</time>
      </trkpt>
      <trkpt lat="43.9122" lon="4.12485">
        <ele>231.81</ele>
        <time>2018-12-07T12:21:51Z</time>
      </trkpt>
      <trkpt lat="43.91219" lon="4.12481">
        <ele>222.68</ele>
        <time>2018-12-07T12:21:54Z</time>
      </trkpt>
      <trkpt lat="43.91219" lon="4.1248">
        <ele>244.31</ele>
        <time>2018-12-07T12:21:55Z</time>
      </trkpt>
      <trkpt lat="43.91219" lon="4.12478">
        <ele>232.78</ele>
        <time>2018-12-07T12:21:56Z</time>
      </trkpt>
      <trkpt lat="43.9122" lon="4.12475">
        <ele>232.3</ele>
        <time>2018-12-07T12:21:58Z</time>
      </trkpt>
      <trkpt lat="43.91219" lon="4.12457">
        <ele>233.74</ele>
        <time>2018-12-07T12:22:11Z</time>
      </trkpt>
      <trkpt lat="43.91219" lon="4.12453">
        <ele>233.74</ele>
        <time>2018-12-07T12:22:15Z</time>
      </trkpt>
      <trkpt lat="43.9122" lon="4.12445">
        <ele>233.74</ele>
        <time>2018-12-07T12:22:21Z</time>
      </trkpt>
      <trkpt lat="43.91219" lon="4.12433">
        <ele>234.22</ele>
        <time>2018-12-07T12:22:28Z</time>
      </trkpt>
      <trkpt lat="43.91223" lon="4.12414">
        <ele>234.22</ele>
        <time>2018-12-07T12:22:41Z</time>
      </trkpt>
      <trkpt lat="43.91223" lon="4.12411">
        <ele>235.18</ele>
        <time>2018-12-07T12:22:43Z</time>
      </trkpt>
      <trkpt lat="43.91225" lon="4.12403">
        <ele>234.7</ele>
        <time>2018-12-07T12:22:56Z</time>
      </trkpt>
      <trkpt lat="43.91225" lon="4.12391">
        <ele>234.7</ele>
        <time>2018-12-07T12:23:03Z</time>
      </trkpt>
      <trkpt lat="43.91225" lon="4.12376">
        <ele>233.74</ele>
        <time>2018-12-07T12:23:13Z</time>
      </trkpt>
      <trkpt lat="43.91225" lon="4.1237">
        <ele>234.22</ele>
        <time>2018-12-07T12:23:16Z</time>
      </trkpt>
      <trkpt lat="43.91228" lon="4.12348">
        <ele>233.26</ele>
        <time>2018-12-07T12:23:29Z</time>
      </trkpt>
      <trkpt lat="43.9123" lon="4.12331">
        <ele>233.74</ele>
        <time>2018-12-07T12:23:40Z</time>
      </trkpt>
      <trkpt lat="43.91228" lon="4.12315">
        <ele>233.74</ele>
        <time>2018-12-07T12:23:50Z</time>
      </trkpt>
      <trkpt lat="43.91227" lon="4.12308">
        <ele>233.26</ele>
        <time>2018-12-07T12:23:55Z</time>
      </trkpt>
      <trkpt lat="43.91224" lon="4.12288">
        <ele>233.26</ele>
        <time>2018-12-07T12:24:09Z</time>
      </trkpt>
      <trkpt lat="43.91223" lon="4.12286">
        <ele>234.22</ele>
        <time>2018-12-07T12:24:11Z</time>
      </trkpt>
      <trkpt lat="43.91219" lon="4.12268">
        <ele>233.74</ele>
        <time>2018-12-07T12:24:23Z</time>
      </trkpt>
      <trkpt lat="43.91219" lon="4.12265">
        <ele>233.74</ele>
        <time>2018-12-07T12:24:25Z</time>
      </trkpt>
      <trkpt lat="43.91215" lon="4.12247">
        <ele>233.74</ele>
        <time>2018-12-07T12:24:37Z</time>
      </trkpt>
      <trkpt lat="43.91211" lon="4.12234">
        <ele>233.74</ele>
        <time>2018-12-07T12:24:47Z</time>
      </trkpt>
      <trkpt lat="43.91202" lon="4.12217">
        <ele>233.74</ele>
        <time>2018-12-07T12:25:02Z</time>
      </trkpt>
      <trkpt lat="43.91196" lon="4.12202">
        <ele>233.26</ele>
        <time>2018-12-07T12:25:14Z</time>
      </trkpt>
      <trkpt lat="43.91187" lon="4.12184">
        <ele>234.22</ele>
        <time>2018-12-07T12:25:29Z</time>
      </trkpt>
      <trkpt lat="43.91185" lon="4.12179">
        <ele>234.22</ele>
        <time>2018-12-07T12:25:33Z</time>
      </trkpt>
      <trkpt lat="43.91179" lon="4.12169">
        <ele>235.18</ele>
        <time>2018-12-07T12:25:43Z</time>
      </trkpt>
      <trkpt lat="43.91177" lon="4.12163">
        <ele>230.85</ele>
        <time>2018-12-07T12:25:46Z</time>
      </trkpt>
      <trkpt lat="43.91176" lon="4.1216">
        <ele>226.05</ele>
        <time>2018-12-07T12:25:48Z</time>
      </trkpt>
      <trkpt lat="43.91175" lon="4.12159">
        <ele>250.08</ele>
        <time>2018-12-07T12:25:49Z</time>
      </trkpt>
      <trkpt lat="43.91174" lon="4.12154">
        <ele>235.18</ele>
        <time>2018-12-07T12:25:52Z</time>
      </trkpt>
      <trkpt lat="43.91169" lon="4.12139">
        <ele>235.66</ele>
        <time>2018-12-07T12:26:04Z</time>
      </trkpt>
      <trkpt lat="43.91168" lon="4.12138">
        <ele>236.14</ele>
        <time>2018-12-07T12:26:05Z</time>
      </trkpt>
      <trkpt lat="43.91164" lon="4.12128">
        <ele>235.66</ele>
        <time>2018-12-07T12:26:13Z</time>
      </trkpt>
      <trkpt lat="43.91157" lon="4.12118">
        <ele>236.14</ele>
        <time>2018-12-07T12:26:21Z</time>
      </trkpt>
      <trkpt lat="43.91151" lon="4.12114">
        <ele>236.14</ele>
        <time>2018-12-07T12:26:27Z</time>
      </trkpt>
      <trkpt lat="43.91148" lon="4.12111">
        <ele>236.62</ele>
        <time>2018-12-07T12:26:30Z</time>
      </trkpt>
      <trkpt lat="43.91144" lon="4.12109">
        <ele>236.62</ele>
        <time>2018-12-07T12:26:33Z</time>
      </trkpt>
      <trkpt lat="43.91132" lon="4.12106">
        <ele>236.62</ele>
        <time>2018-12-07T12:26:43Z</time>
      </trkpt>
      <trkpt lat="43.91127" lon="4.12102">
        <ele>236.62</ele>
        <time>2018-12-07T12:26:49Z</time>
      </trkpt>
      <trkpt lat="43.91119" lon="4.121">
        <ele>236.62</ele>
        <time>2018-12-07T12:26:56Z</time>
      </trkpt>
      <trkpt lat="43.91114" lon="4.12095">
        <ele>237.1</ele>
        <time>2018-12-07T12:27:02Z</time>
      </trkpt>
      <trkpt lat="43.91104" lon="4.12084">
        <ele>237.1</ele>
        <time>2018-12-07T12:27:14Z</time>
      </trkpt>
      <trkpt lat="43.91103" lon="4.12082">
        <ele>237.1</ele>
        <time>2018-12-07T12:27:16Z</time>
      </trkpt>
      <trkpt lat="43.9109" lon="4.12075">
        <ele>237.1</ele>
        <time>2018-12-07T12:27:28Z</time>
      </trkpt>
      <trkpt lat="43.91084" lon="4.12073">
        <ele>237.58</ele>
        <time>2018-12-07T12:27:34Z</time>
      </trkpt>
      <trkpt lat="43.91079" lon="4.12069">
        <ele>238.06</ele>
        <time>2018-12-07T12:27:40Z</time>
      </trkpt>
      <trkpt lat="43.91066" lon="4.12062">
        <ele>239.02</ele>
        <time>2018-12-07T12:27:52Z</time>
      </trkpt>
      <trkpt lat="43.91065" lon="4.12062">
        <ele>238.54</ele>
        <time>2018-12-07T12:27:53Z</time>
      </trkpt>
      <trkpt lat="43.91058" lon="4.12059">
        <ele>239.02</ele>
        <time>2018-12-07T12:27:59Z</time>
      </trkpt>
      <trkpt lat="43.91046" lon="4.12057">
        <ele>239.02</ele>
        <time>2018-12-07T12:28:11Z</time>
      </trkpt>
      <trkpt lat="43.91043" lon="4.12055">
        <ele>239.02</ele>
        <time>2018-12-07T12:28:13Z</time>
      </trkpt>
      <trkpt lat="43.91027" lon="4.12048">
        <ele>238.54</ele>
        <time>2018-12-07T12:28:27Z</time>
      </trkpt>
      <trkpt lat="43.91024" lon="4.12046">
        <ele>239.02</ele>
        <time>2018-12-07T12:28:31Z</time>
      </trkpt>
      <trkpt lat="43.91007" lon="4.12039">
        <ele>238.54</ele>
        <time>2018-12-07T12:28:45Z</time>
      </trkpt>
      <trkpt lat="43.91003" lon="4.12036">
        <ele>239.02</ele>
        <time>2018-12-07T12:28:50Z</time>
      </trkpt>
      <trkpt lat="43.90998" lon="4.12028">
        <ele>238.06</ele>
        <time>2018-12-07T12:28:57Z</time>
      </trkpt>
      <trkpt lat="43.90992" lon="4.12023">
        <ele>238.06</ele>
        <time>2018-12-07T12:29:03Z</time>
      </trkpt>
      <trkpt lat="43.90989" lon="4.12014">
        <ele>238.06</ele>
        <time>2018-12-07T12:29:09Z</time>
      </trkpt>
      <trkpt lat="43.90984" lon="4.12003">
        <ele>237.1</ele>
        <time>2018-12-07T12:29:17Z</time>
      </trkpt>
      <trkpt lat="43.90977" lon="4.11983">
        <ele>236.14</ele>
        <time>2018-12-07T12:29:32Z</time>
      </trkpt>
      <trkpt lat="43.9097" lon="4.11964">
        <ele>234.7</ele>
        <time>2018-12-07T12:29:46Z</time>
      </trkpt>
      <trkpt lat="43.90965" lon="4.11953">
        <ele>220.28</ele>
        <time>2018-12-07T12:29:54Z</time>
      </trkpt>
      <trkpt lat="43.90965" lon="4.11951">
        <ele>224.12</ele>
        <time>2018-12-07T12:29:55Z</time>
      </trkpt>
      <trkpt lat="43.90965" lon="4.1195">
        <ele>251.04</ele>
        <time>2018-12-07T12:29:56Z</time>
      </trkpt>
      <trkpt lat="43.90964" lon="4.11949">
        <ele>233.74</ele>
        <time>2018-12-07T12:29:57Z</time>
      </trkpt>
      <trkpt lat="43.90963" lon="4.11948">
        <ele>221.24</ele>
        <time>2018-12-07T12:29:58Z</time>
      </trkpt>
      <trkpt lat="43.90963" lon="4.11946">
        <ele>250.56</ele>
        <time>2018-12-07T12:29:59Z</time>
      </trkpt>
      <trkpt lat="43.90962" lon="4.11945">
        <ele>229.41</ele>
        <time>2018-12-07T12:30:00Z</time>
      </trkpt>
      <trkpt lat="43.90962" lon="4.11943">
        <ele>238.06</ele>
        <time>2018-12-07T12:30:01Z</time>
      </trkpt>
      <trkpt lat="43.90961" lon="4.11942">
        <ele>232.3</ele>
        <time>2018-12-07T12:30:02Z</time>
      </trkpt>
      <trkpt lat="43.90959" lon="4.11935">
        <ele>232.78</ele>
        <time>2018-12-07T12:30:13Z</time>
      </trkpt>
      <trkpt lat="43.90965" lon="4.11925">
        <ele>236.14</ele>
        <time>2018-12-07T12:30:21Z</time>
      </trkpt>
      <trkpt lat="43.90965" lon="4.11924">
        <ele>235.18</ele>
        <time>2018-12-07T12:30:22Z</time>
      </trkpt>
      <trkpt lat="43.90965" lon="4.11923">
        <ele>234.22</ele>
        <time>2018-12-07T12:30:23Z</time>
      </trkpt>
      <trkpt lat="43.90966" lon="4.11919">
        <ele>235.18</ele>
        <time>2018-12-07T12:30:25Z</time>
      </trkpt>
      <trkpt lat="43.90967" lon="4.11913">
        <ele>237.58</ele>
        <time>2018-12-07T12:30:28Z</time>
      </trkpt>
      <trkpt lat="43.90967" lon="4.11912">
        <ele>237.1</ele>
        <time>2018-12-07T12:30:29Z</time>
      </trkpt>
      <trkpt lat="43.90973" lon="4.11906">
        <ele>239.02</ele>
        <time>2018-12-07T12:30:36Z</time>
      </trkpt>
      <trkpt lat="43.90977" lon="4.11903">
        <ele>238.06</ele>
        <time>2018-12-07T12:30:41Z</time>
      </trkpt>
      <trkpt lat="43.90982" lon="4.11899">
        <ele>239.99</ele>
        <time>2018-12-07T12:30:53Z</time>
      </trkpt>
      <trkpt lat="43.90982" lon="4.11898">
        <ele>239.02</ele>
        <time>2018-12-07T12:30:54Z</time>
      </trkpt>
      <trkpt lat="43.90976" lon="4.11881">
        <ele>239.51</ele>
        <time>2018-12-07T12:31:06Z</time>
      </trkpt>
      <trkpt lat="43.90968" lon="4.11865">
        <ele>239.51</ele>
        <time>2018-12-07T12:31:19Z</time>
      </trkpt>
      <trkpt lat="43.90967" lon="4.11864">
        <ele>239.51</ele>
        <time>2018-12-07T12:31:20Z</time>
      </trkpt>
      <trkpt lat="43.9096" lon="4.11856">
        <ele>240.47</ele>
        <time>2018-12-07T12:31:25Z</time>
      </trkpt>
      <trkpt lat="43.90951" lon="4.11851">
        <ele>239.99</ele>
        <time>2018-12-07T12:31:33Z</time>
      </trkpt>
      <trkpt lat="43.90943" lon="4.11846">
        <ele>240.95</ele>
        <time>2018-12-07T12:31:40Z</time>
      </trkpt>
      <trkpt lat="43.90938" lon="4.11838">
        <ele>240.95</ele>
        <time>2018-12-07T12:31:53Z</time>
      </trkpt>
      <trkpt lat="43.9093" lon="4.11844">
        <ele>241.43</ele>
        <time>2018-12-07T12:32:05Z</time>
      </trkpt>
      <trkpt lat="43.90927" lon="4.11843">
        <ele>238.06</ele>
        <time>2018-12-07T12:32:10Z</time>
      </trkpt>
      <trkpt lat="43.90927" lon="4.11842">
        <ele>242.39</ele>
        <time>2018-12-07T12:32:11Z</time>
      </trkpt>
      <trkpt lat="43.90925" lon="4.11842">
        <ele>238.54</ele>
        <time>2018-12-07T12:32:13Z</time>
      </trkpt>
      <trkpt lat="43.90926" lon="4.11843">
        <ele>241.91</ele>
        <time>2018-12-07T12:32:17Z</time>
      </trkpt>
      <trkpt lat="43.90934" lon="4.11846">
        <ele>240.95</ele>
        <time>2018-12-07T12:32:33Z</time>
      </trkpt>
      <trkpt lat="43.90939" lon="4.11844">
        <ele>242.39</ele>
        <time>2018-12-07T12:32:45Z</time>
      </trkpt>
      <trkpt lat="43.9094" lon="4.11842">
        <ele>240.95</ele>
        <time>2018-12-07T12:33:00Z</time>
      </trkpt>
      <trkpt lat="43.90938" lon="4.11837">
        <ele>240.47</ele>
        <time>2018-12-07T12:33:05Z</time>
      </trkpt>
      <trkpt lat="43.90939" lon="4.11839">
        <ele>240.95</ele>
        <time>2018-12-07T12:33:20Z</time>
      </trkpt>
      <trkpt lat="43.90943" lon="4.11845">
        <ele>240.47</ele>
        <time>2018-12-07T12:33:32Z</time>
      </trkpt>
      <trkpt lat="43.90955" lon="4.11852">
        <ele>239.99</ele>
        <time>2018-12-07T12:33:45Z</time>
      </trkpt>
      <trkpt lat="43.90964" lon="4.11861">
        <ele>239.99</ele>
        <time>2018-12-07T12:33:57Z</time>
      </trkpt>
      <trkpt lat="43.9097" lon="4.11876">
        <ele>239.51</ele>
        <time>2018-12-07T12:34:08Z</time>
      </trkpt>
      <trkpt lat="43.9098" lon="4.11895">
        <ele>239.51</ele>
        <time>2018-12-07T12:34:23Z</time>
      </trkpt>
      <trkpt lat="43.9098" lon="4.11899">
        <ele>239.51</ele>
        <time>2018-12-07T12:34:27Z</time>
      </trkpt>
      <trkpt lat="43.90973" lon="4.11905">
        <ele>237.58</ele>
        <time>2018-12-07T12:34:40Z</time>
      </trkpt>
      <trkpt lat="43.90971" lon="4.11908">
        <ele>234.7</ele>
        <time>2018-12-07T12:34:53Z</time>
      </trkpt>
      <trkpt lat="43.90967" lon="4.11915">
        <ele>232.3</ele>
        <time>2018-12-07T12:35:07Z</time>
      </trkpt>
      <trkpt lat="43.90964" lon="4.11918">
        <ele>231.81</ele>
        <time>2018-12-07T12:35:10Z</time>
      </trkpt>
      <trkpt lat="43.9096" lon="4.11919">
        <ele>231.33</ele>
        <time>2018-12-07T12:35:13Z</time>
      </trkpt>
      <trkpt lat="43.90947" lon="4.11918">
        <ele>230.37</ele>
        <time>2018-12-07T12:35:25Z</time>
      </trkpt>
      <trkpt lat="43.90935" lon="4.11917">
        <ele>229.41</ele>
        <time>2018-12-07T12:35:35Z</time>
      </trkpt>
      <trkpt lat="43.90927" lon="4.11918">
        <ele>228.93</ele>
        <time>2018-12-07T12:35:43Z</time>
      </trkpt>
      <trkpt lat="43.90917" lon="4.1192">
        <ele>228.93</ele>
        <time>2018-12-07T12:35:54Z</time>
      </trkpt>
      <trkpt lat="43.90913" lon="4.11919">
        <ele>228.45</ele>
        <time>2018-12-07T12:35:57Z</time>
      </trkpt>
      <trkpt lat="43.90907" lon="4.11922">
        <ele>228.45</ele>
        <time>2018-12-07T12:36:03Z</time>
      </trkpt>
      <trkpt lat="43.90903" lon="4.11923">
        <ele>229.41</ele>
        <time>2018-12-07T12:36:07Z</time>
      </trkpt>
      <trkpt lat="43.9089" lon="4.11927">
        <ele>227.49</ele>
        <time>2018-12-07T12:36:20Z</time>
      </trkpt>
      <trkpt lat="43.90888" lon="4.11927">
        <ele>227.97</ele>
        <time>2018-12-07T12:36:21Z</time>
      </trkpt>
      <trkpt lat="43.90876" lon="4.11934">
        <ele>226.53</ele>
        <time>2018-12-07T12:36:34Z</time>
      </trkpt>
      <trkpt lat="43.9086" lon="4.11945">
        <ele>226.05</ele>
        <time>2018-12-07T12:36:49Z</time>
      </trkpt>
      <trkpt lat="43.90855" lon="4.11948">
        <ele>226.05</ele>
        <time>2018-12-07T12:36:55Z</time>
      </trkpt>
      <trkpt lat="43.90841" lon="4.11952">
        <ele>226.05</ele>
        <time>2018-12-07T12:37:05Z</time>
      </trkpt>
      <trkpt lat="43.90832" lon="4.11957">
        <ele>225.09</ele>
        <time>2018-12-07T12:37:15Z</time>
      </trkpt>
      <trkpt lat="43.90827" lon="4.1196">
        <ele>225.57</ele>
        <time>2018-12-07T12:37:18Z</time>
      </trkpt>
      <trkpt lat="43.90809" lon="4.11971">
        <ele>224.61</ele>
        <time>2018-12-07T12:37:29Z</time>
      </trkpt>
      <trkpt lat="43.90805" lon="4.11975">
        <ele>223.64</ele>
        <time>2018-12-07T12:37:34Z</time>
      </trkpt>
      <trkpt lat="43.90798" lon="4.11974">
        <ele>223.64</ele>
        <time>2018-12-07T12:37:43Z</time>
      </trkpt>
      <trkpt lat="43.90795" lon="4.11975">
        <ele>222.68</ele>
        <time>2018-12-07T12:37:45Z</time>
      </trkpt>
      <trkpt lat="43.90788" lon="4.1198">
        <ele>223.16</ele>
        <time>2018-12-07T12:37:51Z</time>
      </trkpt>
      <trkpt lat="43.90782" lon="4.11983">
        <ele>222.68</ele>
        <time>2018-12-07T12:37:55Z</time>
      </trkpt>
      <trkpt lat="43.90768" lon="4.11989">
        <ele>222.68</ele>
        <time>2018-12-07T12:38:07Z</time>
      </trkpt>
      <trkpt lat="43.90767" lon="4.11989">
        <ele>222.2</ele>
        <time>2018-12-07T12:38:08Z</time>
      </trkpt>
      <trkpt lat="43.90757" lon="4.11993">
        <ele>221.72</ele>
        <time>2018-12-07T12:38:16Z</time>
      </trkpt>
      <trkpt lat="43.90747" lon="4.11999">
        <ele>220.28</ele>
        <time>2018-12-07T12:38:25Z</time>
      </trkpt>
      <trkpt lat="43.90745" lon="4.12">
        <ele>220.28</ele>
        <time>2018-12-07T12:38:26Z</time>
      </trkpt>
      <trkpt lat="43.90736" lon="4.12005">
        <ele>219.32</ele>
        <time>2018-12-07T12:38:33Z</time>
      </trkpt>
      <trkpt lat="43.90727" lon="4.12013">
        <ele>218.36</ele>
        <time>2018-12-07T12:38:44Z</time>
      </trkpt>
      <trkpt lat="43.90713" lon="4.12021">
        <ele>215.95</ele>
        <time>2018-12-07T12:38:59Z</time>
      </trkpt>
      <trkpt lat="43.9071" lon="4.12023">
        <ele>215.95</ele>
        <time>2018-12-07T12:39:02Z</time>
      </trkpt>
      <trkpt lat="43.90694" lon="4.12031">
        <ele>214.99</ele>
        <time>2018-12-07T12:39:13Z</time>
      </trkpt>
      <trkpt lat="43.90675" lon="4.12039">
        <ele>213.55</ele>
        <time>2018-12-07T12:39:27Z</time>
      </trkpt>
      <trkpt lat="43.90665" lon="4.12043">
        <ele>212.11</ele>
        <time>2018-12-07T12:39:38Z</time>
      </trkpt>
      <trkpt lat="43.90657" lon="4.12045">
        <ele>214.99</ele>
        <time>2018-12-07T12:39:43Z</time>
      </trkpt>
      <trkpt lat="43.90656" lon="4.12045">
        <ele>212.11</ele>
        <time>2018-12-07T12:39:44Z</time>
      </trkpt>
      <trkpt lat="43.90654" lon="4.12046">
        <ele>213.55</ele>
        <time>2018-12-07T12:39:46Z</time>
      </trkpt>
      <trkpt lat="43.90654" lon="4.12046">
        <ele>211.63</ele>
        <time>2018-12-07T12:39:47Z</time>
      </trkpt>
      <trkpt lat="43.90648" lon="4.12046">
        <ele>211.15</ele>
        <time>2018-12-07T12:39:51Z</time>
      </trkpt>
      <trkpt lat="43.90643" lon="4.12046">
        <ele>210.67</ele>
        <time>2018-12-07T12:39:56Z</time>
      </trkpt>
      <trkpt lat="43.9064" lon="4.12047">
        <ele>211.15</ele>
        <time>2018-12-07T12:39:58Z</time>
      </trkpt>
      <trkpt lat="43.90632" lon="4.12046">
        <ele>209.7</ele>
        <time>2018-12-07T12:40:04Z</time>
      </trkpt>
      <trkpt lat="43.9063" lon="4.12042">
        <ele>210.19</ele>
        <time>2018-12-07T12:40:08Z</time>
      </trkpt>
      <trkpt lat="43.90619" lon="4.12036">
        <ele>208.26</ele>
        <time>2018-12-07T12:40:16Z</time>
      </trkpt>
      <trkpt lat="43.90611" lon="4.12026">
        <ele>206.34</ele>
        <time>2018-12-07T12:40:27Z</time>
      </trkpt>
      <trkpt lat="43.9061" lon="4.12018">
        <ele>205.38</ele>
        <time>2018-12-07T12:40:33Z</time>
      </trkpt>
      <trkpt lat="43.90615" lon="4.11997">
        <ele>204.9</ele>
        <time>2018-12-07T12:40:45Z</time>
      </trkpt>
      <trkpt lat="43.90619" lon="4.11984">
        <ele>204.42</ele>
        <time>2018-12-07T12:40:53Z</time>
      </trkpt>
      <trkpt lat="43.90626" lon="4.11963">
        <ele>204.42</ele>
        <time>2018-12-07T12:41:06Z</time>
      </trkpt>
      <trkpt lat="43.90633" lon="4.11948">
        <ele>204.42</ele>
        <time>2018-12-07T12:41:18Z</time>
      </trkpt>
      <trkpt lat="43.90635" lon="4.1194">
        <ele>203.94</ele>
        <time>2018-12-07T12:41:22Z</time>
      </trkpt>
      <trkpt lat="43.9064" lon="4.1192">
        <ele>204.42</ele>
        <time>2018-12-07T12:41:35Z</time>
      </trkpt>
      <trkpt lat="43.90642" lon="4.11917">
        <ele>204.42</ele>
        <time>2018-12-07T12:41:38Z</time>
      </trkpt>
      <trkpt lat="43.90647" lon="4.11908">
        <ele>204.42</ele>
        <time>2018-12-07T12:41:43Z</time>
      </trkpt>
      <trkpt lat="43.90649" lon="4.11898">
        <ele>203.94</ele>
        <time>2018-12-07T12:41:49Z</time>
      </trkpt>
      <trkpt lat="43.90651" lon="4.11885">
        <ele>203.46</ele>
        <time>2018-12-07T12:41:57Z</time>
      </trkpt>
      <trkpt lat="43.90657" lon="4.11874">
        <ele>203.46</ele>
        <time>2018-12-07T12:42:04Z</time>
      </trkpt>
      <trkpt lat="43.90663" lon="4.11852">
        <ele>203.94</ele>
        <time>2018-12-07T12:42:18Z</time>
      </trkpt>
      <trkpt lat="43.90664" lon="4.11851">
        <ele>204.42</ele>
        <time>2018-12-07T12:42:19Z</time>
      </trkpt>
      <trkpt lat="43.90665" lon="4.11847">
        <ele>204.42</ele>
        <time>2018-12-07T12:42:22Z</time>
      </trkpt>
      <trkpt lat="43.9067" lon="4.11835">
        <ele>204.42</ele>
        <time>2018-12-07T12:42:33Z</time>
      </trkpt>
      <trkpt lat="43.90671" lon="4.11827">
        <ele>204.9</ele>
        <time>2018-12-07T12:42:37Z</time>
      </trkpt>
      <trkpt lat="43.90672" lon="4.11823">
        <ele>200.57</ele>
        <time>2018-12-07T12:42:39Z</time>
      </trkpt>
      <trkpt lat="43.90674" lon="4.1182">
        <ele>200.57</ele>
        <time>2018-12-07T12:42:41Z</time>
      </trkpt>
      <trkpt lat="43.90674" lon="4.11817">
        <ele>207.3</ele>
        <time>2018-12-07T12:42:42Z</time>
      </trkpt>
      <trkpt lat="43.90675" lon="4.11814">
        <ele>202.49</ele>
        <time>2018-12-07T12:42:44Z</time>
      </trkpt>
      <trkpt lat="43.90675" lon="4.11813">
        <ele>205.86</ele>
        <time>2018-12-07T12:42:45Z</time>
      </trkpt>
      <trkpt lat="43.90681" lon="4.11793">
        <ele>205.38</ele>
        <time>2018-12-07T12:42:57Z</time>
      </trkpt>
      <trkpt lat="43.90682" lon="4.1179">
        <ele>201.53</ele>
        <time>2018-12-07T12:42:59Z</time>
      </trkpt>
      <trkpt lat="43.90683" lon="4.11789">
        <ele>211.15</ele>
        <time>2018-12-07T12:43:00Z</time>
      </trkpt>
      <trkpt lat="43.90683" lon="4.11787">
        <ele>203.94</ele>
        <time>2018-12-07T12:43:01Z</time>
      </trkpt>
      <trkpt lat="43.90683" lon="4.11786">
        <ele>194.8</ele>
        <time>2018-12-07T12:43:02Z</time>
      </trkpt>
      <trkpt lat="43.90684" lon="4.11784">
        <ele>214.99</ele>
        <time>2018-12-07T12:43:03Z</time>
      </trkpt>
      <trkpt lat="43.90684" lon="4.11782">
        <ele>204.9</ele>
        <time>2018-12-07T12:43:04Z</time>
      </trkpt>
      <trkpt lat="43.90684" lon="4.1178">
        <ele>204.9</ele>
        <time>2018-12-07T12:43:06Z</time>
      </trkpt>
      <trkpt lat="43.9069" lon="4.11755">
        <ele>205.86</ele>
        <time>2018-12-07T12:43:20Z</time>
      </trkpt>
      <trkpt lat="43.90693" lon="4.11747">
        <ele>205.86</ele>
        <time>2018-12-07T12:43:25Z</time>
      </trkpt>
      <trkpt lat="43.90693" lon="4.11742">
        <ele>205.86</ele>
        <time>2018-12-07T12:43:28Z</time>
      </trkpt>
      <trkpt lat="43.90694" lon="4.11731">
        <ele>205.86</ele>
        <time>2018-12-07T12:43:36Z</time>
      </trkpt>
      <trkpt lat="43.90694" lon="4.11725">
        <ele>205.86</ele>
        <time>2018-12-07T12:43:40Z</time>
      </trkpt>
      <trkpt lat="43.90692" lon="4.1171">
        <ele>205.86</ele>
        <time>2018-12-07T12:43:49Z</time>
      </trkpt>
      <trkpt lat="43.90691" lon="4.11705">
        <ele>205.86</ele>
        <time>2018-12-07T12:43:52Z</time>
      </trkpt>
      <trkpt lat="43.90691" lon="4.11691">
        <ele>205.86</ele>
        <time>2018-12-07T12:43:59Z</time>
      </trkpt>
      <trkpt lat="43.90692" lon="4.11684">
        <ele>205.86</ele>
        <time>2018-12-07T12:44:03Z</time>
      </trkpt>
      <trkpt lat="43.90687" lon="4.11687">
        <ele>206.34</ele>
        <time>2018-12-07T12:44:10Z</time>
      </trkpt>
      <trkpt lat="43.90685" lon="4.11686">
        <ele>205.86</ele>
        <time>2018-12-07T12:44:12Z</time>
      </trkpt>
      <trkpt lat="43.90677" lon="4.11678">
        <ele>206.34</ele>
        <time>2018-12-07T12:44:25Z</time>
      </trkpt>
      <trkpt lat="43.90676" lon="4.11678">
        <ele>206.34</ele>
        <time>2018-12-07T12:44:35Z</time>
      </trkpt>
      <trkpt lat="43.90671" lon="4.11681">
        <ele>206.82</ele>
        <time>2018-12-07T12:44:40Z</time>
      </trkpt>
      <trkpt lat="43.90664" lon="4.1168">
        <ele>208.26</ele>
        <time>2018-12-07T12:44:48Z</time>
      </trkpt>
      <trkpt lat="43.90658" lon="4.11682">
        <ele>209.22</ele>
        <time>2018-12-07T12:44:54Z</time>
      </trkpt>
      <trkpt lat="43.9065" lon="4.11684">
        <ele>210.67</ele>
        <time>2018-12-07T12:45:01Z</time>
      </trkpt>
      <trkpt lat="43.90638" lon="4.11683">
        <ele>212.59</ele>
        <time>2018-12-07T12:45:16Z</time>
      </trkpt>
      <trkpt lat="43.90637" lon="4.11681">
        <ele>213.07</ele>
        <time>2018-12-07T12:45:27Z</time>
      </trkpt>
      <trkpt lat="43.90636" lon="4.11678">
        <ele>213.07</ele>
        <time>2018-12-07T12:45:29Z</time>
      </trkpt>
      <trkpt lat="43.90632" lon="4.11672">
        <ele>214.03</ele>
        <time>2018-12-07T12:45:33Z</time>
      </trkpt>
      <trkpt lat="43.90629" lon="4.11665">
        <ele>215.47</ele>
        <time>2018-12-07T12:45:40Z</time>
      </trkpt>
      <trkpt lat="43.90626" lon="4.11664">
        <ele>215.95</ele>
        <time>2018-12-07T12:45:42Z</time>
      </trkpt>
      <trkpt lat="43.90617" lon="4.11667">
        <ele>217.88</ele>
        <time>2018-12-07T12:45:54Z</time>
      </trkpt>
      <trkpt lat="43.90618" lon="4.1167">
        <ele>217.4</ele>
        <time>2018-12-07T12:46:12Z</time>
      </trkpt>
      <trkpt lat="43.90618" lon="4.1167">
        <ele>216.91</ele>
        <time>2018-12-07T12:46:33Z</time>
      </trkpt>
      <trkpt lat="43.90606" lon="4.11668">
        <ele>217.88</ele>
        <time>2018-12-07T12:46:46Z</time>
      </trkpt>
      <trkpt lat="43.90597" lon="4.11666">
        <ele>218.36</ele>
        <time>2018-12-07T12:46:57Z</time>
      </trkpt>
      <trkpt lat="43.90591" lon="4.11668">
        <ele>216.91</ele>
        <time>2018-12-07T12:47:13Z</time>
      </trkpt>
      <trkpt lat="43.90587" lon="4.11671">
        <ele>217.4</ele>
        <time>2018-12-07T12:47:25Z</time>
      </trkpt>
      <trkpt lat="43.90586" lon="4.11675">
        <ele>218.36</ele>
        <time>2018-12-07T12:47:38Z</time>
      </trkpt>
      <trkpt lat="43.90583" lon="4.11673">
        <ele>218.36</ele>
        <time>2018-12-07T12:47:58Z</time>
      </trkpt>
      <trkpt lat="43.90581" lon="4.1168">
        <ele>217.88</ele>
        <time>2018-12-07T12:48:13Z</time>
      </trkpt>
      <trkpt lat="43.90577" lon="4.11686">
        <ele>217.88</ele>
        <time>2018-12-07T12:48:25Z</time>
      </trkpt>
      <trkpt lat="43.90575" lon="4.11693">
        <ele>218.84</ele>
        <time>2018-12-07T12:48:37Z</time>
      </trkpt>
      <trkpt lat="43.90575" lon="4.11694">
        <ele>215.47</ele>
        <time>2018-12-07T12:48:49Z</time>
      </trkpt>
      <trkpt lat="43.90575" lon="4.11694">
        <ele>220.28</ele>
        <time>2018-12-07T12:48:50Z</time>
      </trkpt>
      <trkpt lat="43.90575" lon="4.11694">
        <ele>217.4</ele>
        <time>2018-12-07T12:48:53Z</time>
      </trkpt>
      <trkpt lat="43.90575" lon="4.11694">
        <ele>213.07</ele>
        <time>2018-12-07T12:49:03Z</time>
      </trkpt>
      <trkpt lat="43.90575" lon="4.11694">
        <ele>221.24</ele>
        <time>2018-12-07T12:49:04Z</time>
      </trkpt>
      <trkpt lat="43.90575" lon="4.11694">
        <ele>214.03</ele>
        <time>2018-12-07T12:49:05Z</time>
      </trkpt>
      <trkpt lat="43.90575" lon="4.11695">
        <ele>221.72</ele>
        <time>2018-12-07T12:49:06Z</time>
      </trkpt>
      <trkpt lat="43.90576" lon="4.11695">
        <ele>217.88</ele>
        <time>2018-12-07T12:49:08Z</time>
      </trkpt>
      <trkpt lat="43.90576" lon="4.11695">
        <ele>217.88</ele>
        <time>2018-12-07T12:49:09Z</time>
      </trkpt>
      <trkpt lat="43.90576" lon="4.11696">
        <ele>214.51</ele>
        <time>2018-12-07T12:49:11Z</time>
      </trkpt>
      <trkpt lat="43.90576" lon="4.11696">
        <ele>220.76</ele>
        <time>2018-12-07T12:49:12Z</time>
      </trkpt>
      <trkpt lat="43.90577" lon="4.11697">
        <ele>217.4</ele>
        <time>2018-12-07T12:49:13Z</time>
      </trkpt>
      <trkpt lat="43.90578" lon="4.11697">
        <ele>220.76</ele>
        <time>2018-12-07T12:49:20Z</time>
      </trkpt>
      <trkpt lat="43.90583" lon="4.11696">
        <ele>218.84</ele>
        <time>2018-12-07T12:49:35Z</time>
      </trkpt>
      <trkpt lat="43.90585" lon="4.11696">
        <ele>218.36</ele>
        <time>2018-12-07T12:49:57Z</time>
      </trkpt>
      <trkpt lat="43.90585" lon="4.11696">
        <ele>217.88</ele>
        <time>2018-12-07T12:50:17Z</time>
      </trkpt>
      <trkpt lat="43.90585" lon="4.11697">
        <ele>213.55</ele>
        <time>2018-12-07T12:50:36Z</time>
      </trkpt>
      <trkpt lat="43.90585" lon="4.11697">
        <ele>221.72</ele>
        <time>2018-12-07T12:50:37Z</time>
      </trkpt>
      <trkpt lat="43.90586" lon="4.11697">
        <ele>217.4</ele>
        <time>2018-12-07T12:50:38Z</time>
      </trkpt>
      <trkpt lat="43.9059" lon="4.117">
        <ele>215.95</ele>
        <time>2018-12-07T12:50:51Z</time>
      </trkpt>
      <trkpt lat="43.90592" lon="4.11701">
        <ele>212.59</ele>
        <time>2018-12-07T12:50:59Z</time>
      </trkpt>
      <trkpt lat="43.90592" lon="4.11701">
        <ele>215.95</ele>
        <time>2018-12-07T12:51:00Z</time>
      </trkpt>
      <trkpt lat="43.90594" lon="4.11702">
        <ele>214.99</ele>
        <time>2018-12-07T12:51:14Z</time>
      </trkpt>
      <trkpt lat="43.90595" lon="4.11702">
        <ele>211.63</ele>
        <time>2018-12-07T12:51:24Z</time>
      </trkpt>
      <trkpt lat="43.90596" lon="4.11702">
        <ele>215.47</ele>
        <time>2018-12-07T12:51:25Z</time>
      </trkpt>
      <trkpt lat="43.90597" lon="4.11702">
        <ele>208.74</ele>
        <time>2018-12-07T12:51:28Z</time>
      </trkpt>
      <trkpt lat="43.90597" lon="4.11702">
        <ele>208.26</ele>
        <time>2018-12-07T12:51:29Z</time>
      </trkpt>
      <trkpt lat="43.90597" lon="4.11702">
        <ele>224.12</ele>
        <time>2018-12-07T12:51:30Z</time>
      </trkpt>
      <trkpt lat="43.90597" lon="4.11702">
        <ele>215.95</ele>
        <time>2018-12-07T12:51:31Z</time>
      </trkpt>
      <trkpt lat="43.90605" lon="4.11693">
        <ele>214.03</ele>
        <time>2018-12-07T12:51:44Z</time>
      </trkpt>
      <trkpt lat="43.90607" lon="4.11678">
        <ele>213.55</ele>
        <time>2018-12-07T12:51:59Z</time>
      </trkpt>
      <trkpt lat="43.90606" lon="4.11677">
        <ele>214.03</ele>
        <time>2018-12-07T12:52:00Z</time>
      </trkpt>
      <trkpt lat="43.90604" lon="4.11673">
        <ele>213.55</ele>
        <time>2018-12-07T12:52:04Z</time>
      </trkpt>
      <trkpt lat="43.90602" lon="4.11671">
        <ele>214.03</ele>
        <time>2018-12-07T12:52:06Z</time>
      </trkpt>
      <trkpt lat="43.90599" lon="4.11663">
        <ele>213.55</ele>
        <time>2018-12-07T12:52:18Z</time>
      </trkpt>
      <trkpt lat="43.90598" lon="4.11663">
        <ele>213.55</ele>
        <time>2018-12-07T12:52:40Z</time>
      </trkpt>
      <trkpt lat="43.90598" lon="4.11663">
        <ele>213.55</ele>
        <time>2018-12-07T12:53:07Z</time>
      </trkpt>
      <trkpt lat="43.90598" lon="4.11663">
        <ele>213.55</ele>
        <time>2018-12-07T12:53:31Z</time>
      </trkpt>
      <trkpt lat="43.90598" lon="4.11663">
        <ele>213.55</ele>
        <time>2018-12-07T12:54:00Z</time>
      </trkpt>
      <trkpt lat="43.90598" lon="4.11663">
        <ele>213.55</ele>
        <time>2018-12-07T12:54:30Z</time>
      </trkpt>
      <trkpt lat="43.90598" lon="4.11662">
        <ele>213.55</ele>
        <time>2018-12-07T12:55:04Z</time>
      </trkpt>
      <trkpt lat="43.90598" lon="4.11662">
        <ele>213.55</ele>
        <time>2018-12-07T12:55:25Z</time>
      </trkpt>
      <trkpt lat="43.90598" lon="4.11662">
        <ele>213.55</ele>
        <time>2018-12-07T12:55:43Z</time>
      </trkpt>
      <trkpt lat="43.90598" lon="4.11662">
        <ele>213.07</ele>
        <time>2018-12-07T12:56:03Z</time>
      </trkpt>
      <trkpt lat="43.90601" lon="4.11664">
        <ele>213.55</ele>
        <time>2018-12-07T12:56:21Z</time>
      </trkpt>
      <trkpt lat="43.90611" lon="4.11666">
        <ele>212.59</ele>
        <time>2018-12-07T12:56:35Z</time>
      </trkpt>
      <trkpt lat="43.90618" lon="4.11664">
        <ele>212.11</ele>
        <time>2018-12-07T12:56:48Z</time>
      </trkpt>
      <trkpt lat="43.90629" lon="4.11668">
        <ele>209.7</ele>
        <time>2018-12-07T12:57:02Z</time>
      </trkpt>
      <trkpt lat="43.90634" lon="4.11679">
        <ele>207.3</ele>
        <time>2018-12-07T12:57:15Z</time>
      </trkpt>
      <trkpt lat="43.90644" lon="4.11686">
        <ele>205.86</ele>
        <time>2018-12-07T12:57:28Z</time>
      </trkpt>
      <trkpt lat="43.90653" lon="4.11683">
        <ele>202.98</ele>
        <time>2018-12-07T12:57:41Z</time>
      </trkpt>
      <trkpt lat="43.90663" lon="4.11681">
        <ele>201.05</ele>
        <time>2018-12-07T12:57:55Z</time>
      </trkpt>
      <trkpt lat="43.90668" lon="4.11681">
        <ele>201.05</ele>
        <time>2018-12-07T12:58:00Z</time>
      </trkpt>
      <trkpt lat="43.9068" lon="4.11678">
        <ele>201.53</ele>
        <time>2018-12-07T12:58:11Z</time>
      </trkpt>
      <trkpt lat="43.90693" lon="4.11677">
        <ele>200.57</ele>
        <time>2018-12-07T12:58:27Z</time>
      </trkpt>
      <trkpt lat="43.90697" lon="4.11677">
        <ele>201.05</ele>
        <time>2018-12-07T12:58:45Z</time>
      </trkpt>
      <trkpt lat="43.90697" lon="4.11674">
        <ele>200.57</ele>
        <time>2018-12-07T12:59:04Z</time>
      </trkpt>
      <trkpt lat="43.90699" lon="4.11671">
        <ele>201.05</ele>
        <time>2018-12-07T12:59:09Z</time>
      </trkpt>
      <trkpt lat="43.9071" lon="4.11658">
        <ele>200.09</ele>
        <time>2018-12-07T12:59:25Z</time>
      </trkpt>
      <trkpt lat="43.90723" lon="4.11646">
        <ele>197.69</ele>
        <time>2018-12-07T12:59:40Z</time>
      </trkpt>
      <trkpt lat="43.90725" lon="4.1164">
        <ele>196.73</ele>
        <time>2018-12-07T12:59:45Z</time>
      </trkpt>
      <trkpt lat="43.90724" lon="4.1163">
        <ele>194.8</ele>
        <time>2018-12-07T12:59:54Z</time>
      </trkpt>
      <trkpt lat="43.90723" lon="4.11628">
        <ele>194.8</ele>
        <time>2018-12-07T12:59:57Z</time>
      </trkpt>
      <trkpt lat="43.90718" lon="4.11626">
        <ele>194.32</ele>
        <time>2018-12-07T13:00:02Z</time>
      </trkpt>
      <trkpt lat="43.90706" lon="4.11628">
        <ele>193.36</ele>
        <time>2018-12-07T13:00:15Z</time>
      </trkpt>
      <trkpt lat="43.90702" lon="4.11627">
        <ele>193.36</ele>
        <time>2018-12-07T13:00:19Z</time>
      </trkpt>
      <trkpt lat="43.90686" lon="4.11625">
        <ele>191.92</ele>
        <time>2018-12-07T13:00:34Z</time>
      </trkpt>
      <trkpt lat="43.90675" lon="4.11619">
        <ele>190.48</ele>
        <time>2018-12-07T13:00:44Z</time>
      </trkpt>
      <trkpt lat="43.9067" lon="4.11617">
        <ele>189.52</ele>
        <time>2018-12-07T13:00:49Z</time>
      </trkpt>
      <trkpt lat="43.90664" lon="4.11611">
        <ele>188.56</ele>
        <time>2018-12-07T13:00:56Z</time>
      </trkpt>
      <trkpt lat="43.90653" lon="4.11601">
        <ele>186.15</ele>
        <time>2018-12-07T13:01:08Z</time>
      </trkpt>
      <trkpt lat="43.9065" lon="4.11595">
        <ele>185.19</ele>
        <time>2018-12-07T13:01:14Z</time>
      </trkpt>
      <trkpt lat="43.90645" lon="4.11585">
        <ele>183.75</ele>
        <time>2018-12-07T13:01:22Z</time>
      </trkpt>
      <trkpt lat="43.90643" lon="4.11577">
        <ele>182.31</ele>
        <time>2018-12-07T13:01:27Z</time>
      </trkpt>
      <trkpt lat="43.90642" lon="4.11571">
        <ele>182.79</ele>
        <time>2018-12-07T13:01:31Z</time>
      </trkpt>
      <trkpt lat="43.9064" lon="4.11567">
        <ele>181.83</ele>
        <time>2018-12-07T13:01:34Z</time>
      </trkpt>
      <trkpt lat="43.90638" lon="4.11557">
        <ele>180.87</ele>
        <time>2018-12-07T13:01:41Z</time>
      </trkpt>
      <trkpt lat="43.90637" lon="4.11554">
        <ele>180.38</ele>
        <time>2018-12-07T13:01:43Z</time>
      </trkpt>
      <trkpt lat="43.90634" lon="4.11532">
        <ele>178.94</ele>
        <time>2018-12-07T13:01:57Z</time>
      </trkpt>
      <trkpt lat="43.90633" lon="4.11528">
        <ele>178.46</ele>
        <time>2018-12-07T13:01:59Z</time>
      </trkpt>
      <trkpt lat="43.90631" lon="4.11516">
        <ele>177.02</ele>
        <time>2018-12-07T13:02:08Z</time>
      </trkpt>
      <trkpt lat="43.90631" lon="4.11513">
        <ele>177.5</ele>
        <time>2018-12-07T13:02:10Z</time>
      </trkpt>
      <trkpt lat="43.90631" lon="4.11501">
        <ele>176.54</ele>
        <time>2018-12-07T13:02:17Z</time>
      </trkpt>
      <trkpt lat="43.9063" lon="4.11496">
        <ele>175.58</ele>
        <time>2018-12-07T13:02:20Z</time>
      </trkpt>
      <trkpt lat="43.90631" lon="4.11492">
        <ele>175.58</ele>
        <time>2018-12-07T13:02:22Z</time>
      </trkpt>
      <trkpt lat="43.90631" lon="4.11488">
        <ele>175.1</ele>
        <time>2018-12-07T13:02:25Z</time>
      </trkpt>
      <trkpt lat="43.90631" lon="4.11478">
        <ele>174.14</ele>
        <time>2018-12-07T13:02:32Z</time>
      </trkpt>
      <trkpt lat="43.90623" lon="4.11462">
        <ele>172.69</ele>
        <time>2018-12-07T13:02:44Z</time>
      </trkpt>
      <trkpt lat="43.90618" lon="4.1145">
        <ele>170.77</ele>
        <time>2018-12-07T13:02:54Z</time>
      </trkpt>
      <trkpt lat="43.90614" lon="4.11434">
        <ele>168.85</ele>
        <time>2018-12-07T13:03:04Z</time>
      </trkpt>
      <trkpt lat="43.90612" lon="4.11419">
        <ele>167.41</ele>
        <time>2018-12-07T13:03:15Z</time>
      </trkpt>
      <trkpt lat="43.90612" lon="4.11414">
        <ele>166.45</ele>
        <time>2018-12-07T13:03:18Z</time>
      </trkpt>
      <trkpt lat="43.90611" lon="4.11411">
        <ele>166.45</ele>
        <time>2018-12-07T13:03:20Z</time>
      </trkpt>
      <trkpt lat="43.90608" lon="4.114">
        <ele>165.48</ele>
        <time>2018-12-07T13:03:30Z</time>
      </trkpt>
      <trkpt lat="43.90607" lon="4.11394">
        <ele>164.04</ele>
        <time>2018-12-07T13:03:35Z</time>
      </trkpt>
      <trkpt lat="43.90605" lon="4.11386">
        <ele>163.08</ele>
        <time>2018-12-07T13:03:41Z</time>
      </trkpt>
      <trkpt lat="43.90604" lon="4.11378">
        <ele>163.08</ele>
        <time>2018-12-07T13:03:46Z</time>
      </trkpt>
      <trkpt lat="43.90602" lon="4.1137">
        <ele>162.6</ele>
        <time>2018-12-07T13:03:51Z</time>
      </trkpt>
      <trkpt lat="43.90601" lon="4.11362">
        <ele>161.64</ele>
        <time>2018-12-07T13:03:56Z</time>
      </trkpt>
      <trkpt lat="43.90601" lon="4.11356">
        <ele>161.16</ele>
        <time>2018-12-07T13:04:01Z</time>
      </trkpt>
      <trkpt lat="43.906" lon="4.11352">
        <ele>161.16</ele>
        <time>2018-12-07T13:04:03Z</time>
      </trkpt>
      <trkpt lat="43.90599" lon="4.11341">
        <ele>160.2</ele>
        <time>2018-12-07T13:04:15Z</time>
      </trkpt>
      <trkpt lat="43.90599" lon="4.11339">
        <ele>160.2</ele>
        <time>2018-12-07T13:04:26Z</time>
      </trkpt>
      <trkpt lat="43.90598" lon="4.11337">
        <ele>160.2</ele>
        <time>2018-12-07T13:04:28Z</time>
      </trkpt>
      <trkpt lat="43.90598" lon="4.11333">
        <ele>159.72</ele>
        <time>2018-12-07T13:04:32Z</time>
      </trkpt>
      <trkpt lat="43.90601" lon="4.11324">
        <ele>158.75</ele>
        <time>2018-12-07T13:04:40Z</time>
      </trkpt>
      <trkpt lat="43.90602" lon="4.11305">
        <ele>157.31</ele>
        <time>2018-12-07T13:04:51Z</time>
      </trkpt>
      <trkpt lat="43.90602" lon="4.11303">
        <ele>157.31</ele>
        <time>2018-12-07T13:04:54Z</time>
      </trkpt>
      <trkpt lat="43.90597" lon="4.11291">
        <ele>157.31</ele>
        <time>2018-12-07T13:05:03Z</time>
      </trkpt>
      <trkpt lat="43.90589" lon="4.11278">
        <ele>158.27</ele>
        <time>2018-12-07T13:05:14Z</time>
      </trkpt>
      <trkpt lat="43.90586" lon="4.11273">
        <ele>159.72</ele>
        <time>2018-12-07T13:05:19Z</time>
      </trkpt>
      <trkpt lat="43.90582" lon="4.11266">
        <ele>159.24</ele>
        <time>2018-12-07T13:05:25Z</time>
      </trkpt>
      <trkpt lat="43.90581" lon="4.11264">
        <ele>160.2</ele>
        <time>2018-12-07T13:05:27Z</time>
      </trkpt>
      <trkpt lat="43.90578" lon="4.1126">
        <ele>160.2</ele>
        <time>2018-12-07T13:05:31Z</time>
      </trkpt>
      <trkpt lat="43.90571" lon="4.11254">
        <ele>160.68</ele>
        <time>2018-12-07T13:05:42Z</time>
      </trkpt>
      <trkpt lat="43.90567" lon="4.11248">
        <ele>159.72</ele>
        <time>2018-12-07T13:05:50Z</time>
      </trkpt>
      <trkpt lat="43.90562" lon="4.11242">
        <ele>161.16</ele>
        <time>2018-12-07T13:05:58Z</time>
      </trkpt>
      <trkpt lat="43.90558" lon="4.11238">
        <ele>161.16</ele>
        <time>2018-12-07T13:06:03Z</time>
      </trkpt>
      <trkpt lat="43.90553" lon="4.11233">
        <ele>160.68</ele>
        <time>2018-12-07T13:06:08Z</time>
      </trkpt>
      <trkpt lat="43.90538" lon="4.11227">
        <ele>160.2</ele>
        <time>2018-12-07T13:06:20Z</time>
      </trkpt>
      <trkpt lat="43.90537" lon="4.11226">
        <ele>163.56</ele>
        <time>2018-12-07T13:06:21Z</time>
      </trkpt>
      <trkpt lat="43.90536" lon="4.11225">
        <ele>161.64</ele>
        <time>2018-12-07T13:06:22Z</time>
      </trkpt>
      <trkpt lat="43.90531" lon="4.11223">
        <ele>162.12</ele>
        <time>2018-12-07T13:06:28Z</time>
      </trkpt>
      <trkpt lat="43.90524" lon="4.11218">
        <ele>162.6</ele>
        <time>2018-12-07T13:06:36Z</time>
      </trkpt>
      <trkpt lat="43.90516" lon="4.11215">
        <ele>163.56</ele>
        <time>2018-12-07T13:06:43Z</time>
      </trkpt>
      <trkpt lat="43.90508" lon="4.1121">
        <ele>163.56</ele>
        <time>2018-12-07T13:06:53Z</time>
      </trkpt>
      <trkpt lat="43.90502" lon="4.11205">
        <ele>163.56</ele>
        <time>2018-12-07T13:06:59Z</time>
      </trkpt>
      <trkpt lat="43.90498" lon="4.11203">
        <ele>164.04</ele>
        <time>2018-12-07T13:07:03Z</time>
      </trkpt>
      <trkpt lat="43.90489" lon="4.11195">
        <ele>165.48</ele>
        <time>2018-12-07T13:07:14Z</time>
      </trkpt>
      <trkpt lat="43.90488" lon="4.11193">
        <ele>165.48</ele>
        <time>2018-12-07T13:07:16Z</time>
      </trkpt>
      <trkpt lat="43.90481" lon="4.11189">
        <ele>165.48</ele>
        <time>2018-12-07T13:07:24Z</time>
      </trkpt>
      <trkpt lat="43.90474" lon="4.11184">
        <ele>166.45</ele>
        <time>2018-12-07T13:07:31Z</time>
      </trkpt>
      <trkpt lat="43.90471" lon="4.11182">
        <ele>166.45</ele>
        <time>2018-12-07T13:07:34Z</time>
      </trkpt>
      <trkpt lat="43.90451" lon="4.11178">
        <ele>166.93</ele>
        <time>2018-12-07T13:07:49Z</time>
      </trkpt>
      <trkpt lat="43.90441" lon="4.11174">
        <ele>167.89</ele>
        <time>2018-12-07T13:07:57Z</time>
      </trkpt>
      <trkpt lat="43.90439" lon="4.11171">
        <ele>167.41</ele>
        <time>2018-12-07T13:08:00Z</time>
      </trkpt>
      <trkpt lat="43.90432" lon="4.11166">
        <ele>167.89</ele>
        <time>2018-12-07T13:08:05Z</time>
      </trkpt>
      <trkpt lat="43.90429" lon="4.11164">
        <ele>167.41</ele>
        <time>2018-12-07T13:08:09Z</time>
      </trkpt>
      <trkpt lat="43.90425" lon="4.11159">
        <ele>167.41</ele>
        <time>2018-12-07T13:08:13Z</time>
      </trkpt>
      <trkpt lat="43.90413" lon="4.11154">
        <ele>167.89</ele>
        <time>2018-12-07T13:08:25Z</time>
      </trkpt>
      <trkpt lat="43.90409" lon="4.11151">
        <ele>168.85</ele>
        <time>2018-12-07T13:08:31Z</time>
      </trkpt>
      <trkpt lat="43.90406" lon="4.1115">
        <ele>168.85</ele>
        <time>2018-12-07T13:08:34Z</time>
      </trkpt>
      <trkpt lat="43.90396" lon="4.11144">
        <ele>168.37</ele>
        <time>2018-12-07T13:08:44Z</time>
      </trkpt>
      <trkpt lat="43.90388" lon="4.1114">
        <ele>167.89</ele>
        <time>2018-12-07T13:08:50Z</time>
      </trkpt>
      <trkpt lat="43.90383" lon="4.11138">
        <ele>167.89</ele>
        <time>2018-12-07T13:08:55Z</time>
      </trkpt>
      <trkpt lat="43.90377" lon="4.11132">
        <ele>166.45</ele>
        <time>2018-12-07T13:09:03Z</time>
      </trkpt>
      <trkpt lat="43.90373" lon="4.11128">
        <ele>165.48</ele>
        <time>2018-12-07T13:09:07Z</time>
      </trkpt>
      <trkpt lat="43.9037" lon="4.11124">
        <ele>165.48</ele>
        <time>2018-12-07T13:09:10Z</time>
      </trkpt>
      <trkpt lat="43.90351" lon="4.11123">
        <ele>162.6</ele>
        <time>2018-12-07T13:09:23Z</time>
      </trkpt>
      <trkpt lat="43.90346" lon="4.11122">
        <ele>162.12</ele>
        <time>2018-12-07T13:09:28Z</time>
      </trkpt>
      <trkpt lat="43.90323" lon="4.11111">
        <ele>158.75</ele>
        <time>2018-12-07T13:09:44Z</time>
      </trkpt>
      <trkpt lat="43.90321" lon="4.11108">
        <ele>158.27</ele>
        <time>2018-12-07T13:09:46Z</time>
      </trkpt>
      <trkpt lat="43.90306" lon="4.11096">
        <ele>154.91</ele>
        <time>2018-12-07T13:10:00Z</time>
      </trkpt>
      <trkpt lat="43.90305" lon="4.11094">
        <ele>153.95</ele>
        <time>2018-12-07T13:10:02Z</time>
      </trkpt>
      <trkpt lat="43.90303" lon="4.11087">
        <ele>152.99</ele>
        <time>2018-12-07T13:10:07Z</time>
      </trkpt>
      <trkpt lat="43.90296" lon="4.11085">
        <ele>151.54</ele>
        <time>2018-12-07T13:10:18Z</time>
      </trkpt>
      <trkpt lat="43.90296" lon="4.11086">
        <ele>151.06</ele>
        <time>2018-12-07T13:10:19Z</time>
      </trkpt>
      <trkpt lat="43.90293" lon="4.11096">
        <ele>151.54</ele>
        <time>2018-12-07T13:10:32Z</time>
      </trkpt>
      <trkpt lat="43.90291" lon="4.11106">
        <ele>152.03</ele>
        <time>2018-12-07T13:10:45Z</time>
      </trkpt>
      <trkpt lat="43.90293" lon="4.11103">
        <ele>151.54</ele>
        <time>2018-12-07T13:11:06Z</time>
      </trkpt>
      <trkpt lat="43.90293" lon="4.11096">
        <ele>151.54</ele>
        <time>2018-12-07T13:11:25Z</time>
      </trkpt>
      <trkpt lat="43.90294" lon="4.11095">
        <ele>151.06</ele>
        <time>2018-12-07T13:11:26Z</time>
      </trkpt>
      <trkpt lat="43.90294" lon="4.11084">
        <ele>151.06</ele>
        <time>2018-12-07T13:11:37Z</time>
      </trkpt>
      <trkpt lat="43.90293" lon="4.11077">
        <ele>150.58</ele>
        <time>2018-12-07T13:11:42Z</time>
      </trkpt>
      <trkpt lat="43.90293" lon="4.11074">
        <ele>150.1</ele>
        <time>2018-12-07T13:11:44Z</time>
      </trkpt>
      <trkpt lat="43.90289" lon="4.11069">
        <ele>150.1</ele>
        <time>2018-12-07T13:11:49Z</time>
      </trkpt>
      <trkpt lat="43.90286" lon="4.11056">
        <ele>149.62</ele>
        <time>2018-12-07T13:11:59Z</time>
      </trkpt>
      <trkpt lat="43.90279" lon="4.11051">
        <ele>150.1</ele>
        <time>2018-12-07T13:12:14Z</time>
      </trkpt>
      <trkpt lat="43.90274" lon="4.11047">
        <ele>150.58</ele>
        <time>2018-12-07T13:12:24Z</time>
      </trkpt>
      <trkpt lat="43.90263" lon="4.11041">
        <ele>150.58</ele>
        <time>2018-12-07T13:12:38Z</time>
      </trkpt>
      <trkpt lat="43.90258" lon="4.11038">
        <ele>151.06</ele>
        <time>2018-12-07T13:12:44Z</time>
      </trkpt>
      <trkpt lat="43.90247" lon="4.11028">
        <ele>151.54</ele>
        <time>2018-12-07T13:12:57Z</time>
      </trkpt>
      <trkpt lat="43.90241" lon="4.11022">
        <ele>152.03</ele>
        <time>2018-12-07T13:13:02Z</time>
      </trkpt>
      <trkpt lat="43.90238" lon="4.11022">
        <ele>152.51</ele>
        <time>2018-12-07T13:13:08Z</time>
      </trkpt>
      <trkpt lat="43.90241" lon="4.11028">
        <ele>152.99</ele>
        <time>2018-12-07T13:13:20Z</time>
      </trkpt>
      <trkpt lat="43.90241" lon="4.11025">
        <ele>151.54</ele>
        <time>2018-12-07T13:13:42Z</time>
      </trkpt>
      <trkpt lat="43.90236" lon="4.11022">
        <ele>150.58</ele>
        <time>2018-12-07T13:13:54Z</time>
      </trkpt>
      <trkpt lat="43.90235" lon="4.11021">
        <ele>150.1</ele>
        <time>2018-12-07T13:14:13Z</time>
      </trkpt>
      <trkpt lat="43.90235" lon="4.1102">
        <ele>150.1</ele>
        <time>2018-12-07T13:14:20Z</time>
      </trkpt>
      <trkpt lat="43.90229" lon="4.11015">
        <ele>145.3</ele>
        <time>2018-12-07T13:14:33Z</time>
      </trkpt>
      <trkpt lat="43.90229" lon="4.11015">
        <ele>151.54</ele>
        <time>2018-12-07T13:14:34Z</time>
      </trkpt>
      <trkpt lat="43.90229" lon="4.11015">
        <ele>148.18</ele>
        <time>2018-12-07T13:14:38Z</time>
      </trkpt>
      <trkpt lat="43.90229" lon="4.11015">
        <ele>138.09</ele>
        <time>2018-12-07T13:14:43Z</time>
      </trkpt>
      <trkpt lat="43.90229" lon="4.11015">
        <ele>156.83</ele>
        <time>2018-12-07T13:14:44Z</time>
      </trkpt>
      <trkpt lat="43.90229" lon="4.11015">
        <ele>152.03</ele>
        <time>2018-12-07T13:14:45Z</time>
      </trkpt>
      <trkpt lat="43.90229" lon="4.11015">
        <ele>148.66</ele>
        <time>2018-12-07T13:14:46Z</time>
      </trkpt>
      <trkpt lat="43.90229" lon="4.11015">
        <ele>148.66</ele>
        <time>2018-12-07T13:14:47Z</time>
      </trkpt>
      <trkpt lat="43.90228" lon="4.11014">
        <ele>148.18</ele>
        <time>2018-12-07T13:14:55Z</time>
      </trkpt>
      <trkpt lat="43.90219" lon="4.11007">
        <ele>146.74</ele>
        <time>2018-12-07T13:15:08Z</time>
      </trkpt>
      <trkpt lat="43.90212" lon="4.11007">
        <ele>145.3</ele>
        <time>2018-12-07T13:15:22Z</time>
      </trkpt>
      <trkpt lat="43.90203" lon="4.11004">
        <ele>143.85</ele>
        <time>2018-12-07T13:15:29Z</time>
      </trkpt>
      <trkpt lat="43.9019" lon="4.11001">
        <ele>141.93</ele>
        <time>2018-12-07T13:15:44Z</time>
      </trkpt>
      <trkpt lat="43.90192" lon="4.10993">
        <ele>140.49</ele>
        <time>2018-12-07T13:15:56Z</time>
      </trkpt>
      <trkpt lat="43.90203" lon="4.10985">
        <ele>138.09</ele>
        <time>2018-12-07T13:16:10Z</time>
      </trkpt>
      <trkpt lat="43.90211" lon="4.10979">
        <ele>136.64</ele>
        <time>2018-12-07T13:16:21Z</time>
      </trkpt>
      <trkpt lat="43.90215" lon="4.10978">
        <ele>136.16</ele>
        <time>2018-12-07T13:16:23Z</time>
      </trkpt>
      <trkpt lat="43.90222" lon="4.10975">
        <ele>134.24</ele>
        <time>2018-12-07T13:16:31Z</time>
      </trkpt>
      <trkpt lat="43.90231" lon="4.10972">
        <ele>133.76</ele>
        <time>2018-12-07T13:16:39Z</time>
      </trkpt>
      <trkpt lat="43.90234" lon="4.10972">
        <ele>134.24</ele>
        <time>2018-12-07T13:16:41Z</time>
      </trkpt>
      <trkpt lat="43.9025" lon="4.10971">
        <ele>132.32</ele>
        <time>2018-12-07T13:16:55Z</time>
      </trkpt>
      <trkpt lat="43.90257" lon="4.10973">
        <ele>130.4</ele>
        <time>2018-12-07T13:17:04Z</time>
      </trkpt>
      <trkpt lat="43.90274" lon="4.10975">
        <ele>127.51</ele>
        <time>2018-12-07T13:17:20Z</time>
      </trkpt>
      <trkpt lat="43.90289" lon="4.10978">
        <ele>124.63</ele>
        <time>2018-12-07T13:17:34Z</time>
      </trkpt>
      <trkpt lat="43.903" lon="4.10981">
        <ele>120.78</ele>
        <time>2018-12-07T13:17:46Z</time>
      </trkpt>
      <trkpt lat="43.90301" lon="4.10981">
        <ele>121.26</ele>
        <time>2018-12-07T13:17:47Z</time>
      </trkpt>
      <trkpt lat="43.9031" lon="4.10981">
        <ele>119.34</ele>
        <time>2018-12-07T13:17:56Z</time>
      </trkpt>
      <trkpt lat="43.90326" lon="4.10973">
        <ele>116.46</ele>
        <time>2018-12-07T13:18:13Z</time>
      </trkpt>
      <trkpt lat="43.90327" lon="4.10971">
        <ele>115.98</ele>
        <time>2018-12-07T13:18:15Z</time>
      </trkpt>
      <trkpt lat="43.90337" lon="4.10956">
        <ele>113.57</ele>
        <time>2018-12-07T13:18:30Z</time>
      </trkpt>
      <trkpt lat="43.90337" lon="4.10955">
        <ele>111.17</ele>
        <time>2018-12-07T13:18:46Z</time>
      </trkpt>
      <trkpt lat="43.90335" lon="4.10954">
        <ele>113.57</ele>
        <time>2018-12-07T13:18:55Z</time>
      </trkpt>
      <trkpt lat="43.90322" lon="4.10949">
        <ele>106.84</ele>
        <time>2018-12-07T13:19:04Z</time>
      </trkpt>
      <trkpt lat="43.90321" lon="4.10949">
        <ele>120.78</ele>
        <time>2018-12-07T13:19:05Z</time>
      </trkpt>
      <trkpt lat="43.9032" lon="4.10949">
        <ele>113.57</ele>
        <time>2018-12-07T13:19:06Z</time>
      </trkpt>
      <trkpt lat="43.90316" lon="4.10947">
        <ele>112.13</ele>
        <time>2018-12-07T13:19:09Z</time>
      </trkpt>
      <trkpt lat="43.90305" lon="4.10939">
        <ele>112.13</ele>
        <time>2018-12-07T13:19:24Z</time>
      </trkpt>
      <trkpt lat="43.90304" lon="4.10938">
        <ele>112.61</ele>
        <time>2018-12-07T13:19:27Z</time>
      </trkpt>
      <trkpt lat="43.90301" lon="4.10935">
        <ele>110.69</ele>
        <time>2018-12-07T13:19:30Z</time>
      </trkpt>
      <trkpt lat="43.90295" lon="4.10929">
        <ele>112.61</ele>
        <time>2018-12-07T13:19:37Z</time>
      </trkpt>
      <trkpt lat="43.90282" lon="4.10914">
        <ele>110.21</ele>
        <time>2018-12-07T13:19:51Z</time>
      </trkpt>
      <trkpt lat="43.90281" lon="4.10913">
        <ele>109.73</ele>
        <time>2018-12-07T13:19:52Z</time>
      </trkpt>
      <trkpt lat="43.90275" lon="4.10907">
        <ele>108.29</ele>
        <time>2018-12-07T13:20:00Z</time>
      </trkpt>
      <trkpt lat="43.90273" lon="4.10905">
        <ele>107.81</ele>
        <time>2018-12-07T13:20:03Z</time>
      </trkpt>
      <trkpt lat="43.90263" lon="4.10901">
        <ele>106.36</ele>
        <time>2018-12-07T13:20:16Z</time>
      </trkpt>
      <trkpt lat="43.90262" lon="4.10901">
        <ele>106.36</ele>
        <time>2018-12-07T13:20:17Z</time>
      </trkpt>
      <trkpt lat="43.90258" lon="4.10899">
        <ele>105.4</ele>
        <time>2018-12-07T13:20:21Z</time>
      </trkpt>
      <trkpt lat="43.90254" lon="4.10893">
        <ele>103.96</ele>
        <time>2018-12-07T13:20:29Z</time>
      </trkpt>
      <trkpt lat="43.90252" lon="4.10892">
        <ele>103.96</ele>
        <time>2018-12-07T13:20:31Z</time>
      </trkpt>
      <trkpt lat="43.90244" lon="4.10889">
        <ele>102.52</ele>
        <time>2018-12-07T13:20:39Z</time>
      </trkpt>
      <trkpt lat="43.9023" lon="4.1088">
        <ele>100.11</ele>
        <time>2018-12-07T13:20:51Z</time>
      </trkpt>
      <trkpt lat="43.90218" lon="4.10875">
        <ele>98.67</ele>
        <time>2018-12-07T13:21:03Z</time>
      </trkpt>
      <trkpt lat="43.9021" lon="4.10874">
        <ele>98.19</ele>
        <time>2018-12-07T13:21:10Z</time>
      </trkpt>
      <trkpt lat="43.90192" lon="4.1087">
        <ele>96.27</ele>
        <time>2018-12-07T13:21:25Z</time>
      </trkpt>
      <trkpt lat="43.90181" lon="4.10868">
        <ele>95.31</ele>
        <time>2018-12-07T13:21:37Z</time>
      </trkpt>
      <trkpt lat="43.90165" lon="4.10869">
        <ele>94.35</ele>
        <time>2018-12-07T13:21:51Z</time>
      </trkpt>
      <trkpt lat="43.90147" lon="4.10872">
        <ele>92.9</ele>
        <time>2018-12-07T13:22:07Z</time>
      </trkpt>
      <trkpt lat="43.90134" lon="4.10878">
        <ele>92.42</ele>
        <time>2018-12-07T13:22:18Z</time>
      </trkpt>
      <trkpt lat="43.90125" lon="4.1088">
        <ele>91.94</ele>
        <time>2018-12-07T13:22:26Z</time>
      </trkpt>
      <trkpt lat="43.90114" lon="4.10883">
        <ele>91.46</ele>
        <time>2018-12-07T13:22:34Z</time>
      </trkpt>
      <trkpt lat="43.90098" lon="4.10879">
        <ele>91.46</ele>
        <time>2018-12-07T13:22:48Z</time>
      </trkpt>
      <trkpt lat="43.90093" lon="4.10878">
        <ele>90.02</ele>
        <time>2018-12-07T13:22:53Z</time>
      </trkpt>
      <trkpt lat="43.90077" lon="4.1087">
        <ele>89.06</ele>
        <time>2018-12-07T13:23:07Z</time>
      </trkpt>
      <trkpt lat="43.9007" lon="4.10865">
        <ele>88.1</ele>
        <time>2018-12-07T13:23:14Z</time>
      </trkpt>
      <trkpt lat="43.90065" lon="4.10863">
        <ele>86.66</ele>
        <time>2018-12-07T13:23:23Z</time>
      </trkpt>
      <trkpt lat="43.90063" lon="4.10863">
        <ele>87.14</ele>
        <time>2018-12-07T13:23:35Z</time>
      </trkpt>
      <trkpt lat="43.90055" lon="4.10853">
        <ele>87.62</ele>
        <time>2018-12-07T13:23:45Z</time>
      </trkpt>
      <trkpt lat="43.90054" lon="4.10847">
        <ele>87.14</ele>
        <time>2018-12-07T13:23:50Z</time>
      </trkpt>
      <trkpt lat="43.90052" lon="4.10839">
        <ele>87.14</ele>
        <time>2018-12-07T13:23:56Z</time>
      </trkpt>
      <trkpt lat="43.9005" lon="4.10833">
        <ele>87.14</ele>
        <time>2018-12-07T13:24:02Z</time>
      </trkpt>
      <trkpt lat="43.90045" lon="4.10817">
        <ele>86.66</ele>
        <time>2018-12-07T13:24:14Z</time>
      </trkpt>
      <trkpt lat="43.90043" lon="4.10814">
        <ele>88.1</ele>
        <time>2018-12-07T13:24:17Z</time>
      </trkpt>
      <trkpt lat="43.90035" lon="4.10801">
        <ele>88.1</ele>
        <time>2018-12-07T13:24:33Z</time>
      </trkpt>
      <trkpt lat="43.90027" lon="4.10797">
        <ele>89.06</ele>
        <time>2018-12-07T13:24:44Z</time>
      </trkpt>
      <trkpt lat="43.90019" lon="4.1079">
        <ele>89.54</ele>
        <time>2018-12-07T13:24:55Z</time>
      </trkpt>
      <trkpt lat="43.90011" lon="4.10786">
        <ele>88.58</ele>
        <time>2018-12-07T13:25:04Z</time>
      </trkpt>
      <trkpt lat="43.90007" lon="4.10785">
        <ele>91.94</ele>
        <time>2018-12-07T13:25:09Z</time>
      </trkpt>
      <trkpt lat="43.90002" lon="4.10783">
        <ele>91.46</ele>
        <time>2018-12-07T13:25:14Z</time>
      </trkpt>
      <trkpt lat="43.89999" lon="4.10782">
        <ele>92.9</ele>
        <time>2018-12-07T13:25:17Z</time>
      </trkpt>
      <trkpt lat="43.8999" lon="4.10784">
        <ele>91.94</ele>
        <time>2018-12-07T13:25:25Z</time>
      </trkpt>
      <trkpt lat="43.89979" lon="4.10782">
        <ele>91.46</ele>
        <time>2018-12-07T13:25:37Z</time>
      </trkpt>
      <trkpt lat="43.89969" lon="4.10779">
        <ele>90.02</ele>
        <time>2018-12-07T13:25:47Z</time>
      </trkpt>
      <trkpt lat="43.89966" lon="4.10767">
        <ele>92.42</ele>
        <time>2018-12-07T13:25:56Z</time>
      </trkpt>
      <trkpt lat="43.89966" lon="4.10766">
        <ele>92.42</ele>
        <time>2018-12-07T13:25:57Z</time>
      </trkpt>
      <trkpt lat="43.89967" lon="4.10757">
        <ele>92.42</ele>
        <time>2018-12-07T13:26:03Z</time>
      </trkpt>
      <trkpt lat="43.89962" lon="4.10748">
        <ele>95.31</ele>
        <time>2018-12-07T13:26:12Z</time>
      </trkpt>
      <trkpt lat="43.89961" lon="4.10742">
        <ele>92.9</ele>
        <time>2018-12-07T13:26:18Z</time>
      </trkpt>
      <trkpt lat="43.8996" lon="4.10737">
        <ele>91.94</ele>
        <time>2018-12-07T13:26:21Z</time>
      </trkpt>
      <trkpt lat="43.89959" lon="4.10736">
        <ele>95.79</ele>
        <time>2018-12-07T13:26:22Z</time>
      </trkpt>
      <trkpt lat="43.89957" lon="4.10734">
        <ele>92.42</ele>
        <time>2018-12-07T13:26:24Z</time>
      </trkpt>
      <trkpt lat="43.89956" lon="4.10733">
        <ele>96.75</ele>
        <time>2018-12-07T13:26:25Z</time>
      </trkpt>
      <trkpt lat="43.89954" lon="4.10731">
        <ele>95.31</ele>
        <time>2018-12-07T13:26:28Z</time>
      </trkpt>
      <trkpt lat="43.89953" lon="4.10728">
        <ele>94.83</ele>
        <time>2018-12-07T13:26:31Z</time>
      </trkpt>
      <trkpt lat="43.89953" lon="4.10726">
        <ele>95.79</ele>
        <time>2018-12-07T13:26:33Z</time>
      </trkpt>
      <trkpt lat="43.89948" lon="4.10725">
        <ele>98.67</ele>
        <time>2018-12-07T13:26:39Z</time>
      </trkpt>
      <trkpt lat="43.89941" lon="4.10744">
        <ele>97.71</ele>
        <time>2018-12-07T13:26:54Z</time>
      </trkpt>
      <trkpt lat="43.89938" lon="4.1075">
        <ele>97.71</ele>
        <time>2018-12-07T13:26:59Z</time>
      </trkpt>
      <trkpt lat="43.89936" lon="4.10756">
        <ele>98.19</ele>
        <time>2018-12-07T13:27:04Z</time>
      </trkpt>
      <trkpt lat="43.8993" lon="4.10763">
        <ele>98.19</ele>
        <time>2018-12-07T13:27:10Z</time>
      </trkpt>
      <trkpt lat="43.89924" lon="4.1077">
        <ele>97.71</ele>
        <time>2018-12-07T13:27:17Z</time>
      </trkpt>
      <trkpt lat="43.8992" lon="4.10771">
        <ele>97.23</ele>
        <time>2018-12-07T13:27:20Z</time>
      </trkpt>
      <trkpt lat="43.89906" lon="4.10779">
        <ele>98.67</ele>
        <time>2018-12-07T13:27:34Z</time>
      </trkpt>
      <trkpt lat="43.89892" lon="4.10783">
        <ele>97.71</ele>
        <time>2018-12-07T13:27:47Z</time>
      </trkpt>
      <trkpt lat="43.89881" lon="4.10783">
        <ele>98.67</ele>
        <time>2018-12-07T13:27:56Z</time>
      </trkpt>
      <trkpt lat="43.89869" lon="4.1078">
        <ele>99.63</ele>
        <time>2018-12-07T13:28:09Z</time>
      </trkpt>
      <trkpt lat="43.89859" lon="4.10776">
        <ele>100.11</ele>
        <time>2018-12-07T13:28:23Z</time>
      </trkpt>
      <trkpt lat="43.89853" lon="4.10771">
        <ele>100.11</ele>
        <time>2018-12-07T13:28:31Z</time>
      </trkpt>
      <trkpt lat="43.8985" lon="4.10769">
        <ele>99.63</ele>
        <time>2018-12-07T13:28:35Z</time>
      </trkpt>
      <trkpt lat="43.89848" lon="4.10767">
        <ele>100.6</ele>
        <time>2018-12-07T13:28:37Z</time>
      </trkpt>
      <trkpt lat="43.89845" lon="4.10767">
        <ele>99.15</ele>
        <time>2018-12-07T13:28:40Z</time>
      </trkpt>
      <trkpt lat="43.89839" lon="4.10764">
        <ele>100.11</ele>
        <time>2018-12-07T13:28:47Z</time>
      </trkpt>
      <trkpt lat="43.8983" lon="4.10759">
        <ele>100.11</ele>
        <time>2018-12-07T13:28:55Z</time>
      </trkpt>
      <trkpt lat="43.89827" lon="4.1076">
        <ele>100.11</ele>
        <time>2018-12-07T13:28:58Z</time>
      </trkpt>
      <trkpt lat="43.89824" lon="4.10759">
        <ele>100.11</ele>
        <time>2018-12-07T13:29:00Z</time>
      </trkpt>
      <trkpt lat="43.89822" lon="4.10757">
        <ele>100.6</ele>
        <time>2018-12-07T13:29:03Z</time>
      </trkpt>
      <trkpt lat="43.89815" lon="4.10754">
        <ele>100.11</ele>
        <time>2018-12-07T13:29:12Z</time>
      </trkpt>
      <trkpt lat="43.89801" lon="4.10749">
        <ele>100.11</ele>
        <time>2018-12-07T13:29:26Z</time>
      </trkpt>
      <trkpt lat="43.898" lon="4.10749">
        <ele>100.11</ele>
        <time>2018-12-07T13:29:27Z</time>
      </trkpt>
      <trkpt lat="43.89794" lon="4.10747">
        <ele>100.11</ele>
        <time>2018-12-07T13:29:31Z</time>
      </trkpt>
      <trkpt lat="43.89791" lon="4.10747">
        <ele>100.11</ele>
        <time>2018-12-07T13:29:36Z</time>
      </trkpt>
      <trkpt lat="43.89789" lon="4.10748">
        <ele>100.6</ele>
        <time>2018-12-07T13:29:38Z</time>
      </trkpt>
      <trkpt lat="43.89773" lon="4.1075">
        <ele>100.6</ele>
        <time>2018-12-07T13:29:52Z</time>
      </trkpt>
      <trkpt lat="43.89768" lon="4.10752">
        <ele>100.6</ele>
        <time>2018-12-07T13:30:03Z</time>
      </trkpt>
      <trkpt lat="43.89767" lon="4.10749">
        <ele>100.11</ele>
        <time>2018-12-07T13:30:09Z</time>
      </trkpt>
      <trkpt lat="43.89758" lon="4.10753">
        <ele>101.08</ele>
        <time>2018-12-07T13:30:22Z</time>
      </trkpt>
      <trkpt lat="43.89753" lon="4.10751">
        <ele>100.6</ele>
        <time>2018-12-07T13:30:29Z</time>
      </trkpt>
      <trkpt lat="43.89747" lon="4.10745">
        <ele>100.6</ele>
        <time>2018-12-07T13:30:34Z</time>
      </trkpt>
      <trkpt lat="43.89739" lon="4.1074">
        <ele>101.08</ele>
        <time>2018-12-07T13:30:42Z</time>
      </trkpt>
      <trkpt lat="43.89733" lon="4.10736">
        <ele>101.08</ele>
        <time>2018-12-07T13:30:47Z</time>
      </trkpt>
      <trkpt lat="43.8973" lon="4.10732">
        <ele>100.6</ele>
        <time>2018-12-07T13:30:51Z</time>
      </trkpt>
      <trkpt lat="43.89724" lon="4.10727">
        <ele>101.08</ele>
        <time>2018-12-07T13:30:56Z</time>
      </trkpt>
      <trkpt lat="43.89713" lon="4.10719">
        <ele>101.56</ele>
        <time>2018-12-07T13:31:10Z</time>
      </trkpt>
      <trkpt lat="43.89698" lon="4.10713">
        <ele>102.04</ele>
        <time>2018-12-07T13:31:22Z</time>
      </trkpt>
      <trkpt lat="43.89688" lon="4.10705">
        <ele>102.04</ele>
        <time>2018-12-07T13:31:34Z</time>
      </trkpt>
      <trkpt lat="43.89675" lon="4.10697">
        <ele>103</ele>
        <time>2018-12-07T13:31:47Z</time>
      </trkpt>
      <trkpt lat="43.89662" lon="4.10688">
        <ele>100.11</ele>
        <time>2018-12-07T13:31:58Z</time>
      </trkpt>
      <trkpt lat="43.89661" lon="4.10687">
        <ele>103.48</ele>
        <time>2018-12-07T13:31:59Z</time>
      </trkpt>
      <trkpt lat="43.89659" lon="4.10686">
        <ele>104.44</ele>
        <time>2018-12-07T13:32:01Z</time>
      </trkpt>
      <trkpt lat="43.89646" lon="4.10677">
        <ele>103.96</ele>
        <time>2018-12-07T13:32:13Z</time>
      </trkpt>
      <trkpt lat="43.89632" lon="4.10667">
        <ele>102.52</ele>
        <time>2018-12-07T13:32:28Z</time>
      </trkpt>
      <trkpt lat="43.89631" lon="4.10667">
        <ele>108.77</ele>
        <time>2018-12-07T13:32:29Z</time>
      </trkpt>
      <trkpt lat="43.8963" lon="4.10666">
        <ele>104.44</ele>
        <time>2018-12-07T13:32:30Z</time>
      </trkpt>
      <trkpt lat="43.89614" lon="4.1066">
        <ele>104.44</ele>
        <time>2018-12-07T13:32:45Z</time>
      </trkpt>
      <trkpt lat="43.89611" lon="4.10664">
        <ele>104.92</ele>
        <time>2018-12-07T13:32:52Z</time>
      </trkpt>
      <trkpt lat="43.89609" lon="4.10669">
        <ele>105.4</ele>
        <time>2018-12-07T13:32:57Z</time>
      </trkpt>
      <trkpt lat="43.89609" lon="4.10674">
        <ele>105.88</ele>
        <time>2018-12-07T13:33:01Z</time>
      </trkpt>
      <trkpt lat="43.896" lon="4.10694">
        <ele>108.77</ele>
        <time>2018-12-07T13:33:15Z</time>
      </trkpt>
      <trkpt lat="43.89599" lon="4.10694">
        <ele>108.29</ele>
        <time>2018-12-07T13:33:16Z</time>
      </trkpt>
      <trkpt lat="43.89592" lon="4.10696">
        <ele>108.77</ele>
        <time>2018-12-07T13:33:22Z</time>
      </trkpt>
      <trkpt lat="43.89584" lon="4.10692">
        <ele>109.25</ele>
        <time>2018-12-07T13:33:30Z</time>
      </trkpt>
      <trkpt lat="43.8957" lon="4.10682">
        <ele>109.73</ele>
        <time>2018-12-07T13:33:42Z</time>
      </trkpt>
      <trkpt lat="43.89568" lon="4.10681">
        <ele>109.73</ele>
        <time>2018-12-07T13:33:45Z</time>
      </trkpt>
      <trkpt lat="43.89564" lon="4.10677">
        <ele>110.21</ele>
        <time>2018-12-07T13:33:49Z</time>
      </trkpt>
      <trkpt lat="43.89559" lon="4.10674">
        <ele>106.36</ele>
        <time>2018-12-07T13:33:54Z</time>
      </trkpt>
      <trkpt lat="43.89558" lon="4.10673">
        <ele>113.57</ele>
        <time>2018-12-07T13:33:55Z</time>
      </trkpt>
      <trkpt lat="43.89557" lon="4.10672">
        <ele>109.25</ele>
        <time>2018-12-07T13:33:56Z</time>
      </trkpt>
      <trkpt lat="43.8954" lon="4.10665">
        <ele>111.17</ele>
        <time>2018-12-07T13:34:10Z</time>
      </trkpt>
      <trkpt lat="43.8953" lon="4.10658">
        <ele>111.17</ele>
        <time>2018-12-07T13:34:19Z</time>
      </trkpt>
      <trkpt lat="43.89514" lon="4.1065">
        <ele>111.17</ele>
        <time>2018-12-07T13:34:33Z</time>
      </trkpt>
      <trkpt lat="43.89504" lon="4.10645">
        <ele>111.17</ele>
        <time>2018-12-07T13:34:43Z</time>
      </trkpt>
      <trkpt lat="43.895" lon="4.10642">
        <ele>110.69</ele>
        <time>2018-12-07T13:34:48Z</time>
      </trkpt>
      <trkpt lat="43.89493" lon="4.10639">
        <ele>111.17</ele>
        <time>2018-12-07T13:34:54Z</time>
      </trkpt>
      <trkpt lat="43.89484" lon="4.10634">
        <ele>110.69</ele>
        <time>2018-12-07T13:35:03Z</time>
      </trkpt>
      <trkpt lat="43.89482" lon="4.10633">
        <ele>110.69</ele>
        <time>2018-12-07T13:35:05Z</time>
      </trkpt>
      <trkpt lat="43.89479" lon="4.10633">
        <ele>110.69</ele>
        <time>2018-12-07T13:35:07Z</time>
      </trkpt>
      <trkpt lat="43.89475" lon="4.10634">
        <ele>110.21</ele>
        <time>2018-12-07T13:35:11Z</time>
      </trkpt>
      <trkpt lat="43.89472" lon="4.10633">
        <ele>110.21</ele>
        <time>2018-12-07T13:35:13Z</time>
      </trkpt>
      <trkpt lat="43.89468" lon="4.10631">
        <ele>110.21</ele>
        <time>2018-12-07T13:35:17Z</time>
      </trkpt>
      <trkpt lat="43.89459" lon="4.10631">
        <ele>109.25</ele>
        <time>2018-12-07T13:35:25Z</time>
      </trkpt>
      <trkpt lat="43.89457" lon="4.10627">
        <ele>110.21</ele>
        <time>2018-12-07T13:35:28Z</time>
      </trkpt>
      <trkpt lat="43.8945" lon="4.10625">
        <ele>110.69</ele>
        <time>2018-12-07T13:35:33Z</time>
      </trkpt>
      <trkpt lat="43.89446" lon="4.10624">
        <ele>110.69</ele>
        <time>2018-12-07T13:35:38Z</time>
      </trkpt>
      <trkpt lat="43.89442" lon="4.10622">
        <ele>110.21</ele>
        <time>2018-12-07T13:35:43Z</time>
      </trkpt>
      <trkpt lat="43.89433" lon="4.10618">
        <ele>110.69</ele>
        <time>2018-12-07T13:35:49Z</time>
      </trkpt>
      <trkpt lat="43.89428" lon="4.10618">
        <ele>110.69</ele>
        <time>2018-12-07T13:35:54Z</time>
      </trkpt>
      <trkpt lat="43.89426" lon="4.10617">
        <ele>110.69</ele>
        <time>2018-12-07T13:35:56Z</time>
      </trkpt>
      <trkpt lat="43.89422" lon="4.10616">
        <ele>110.21</ele>
        <time>2018-12-07T13:36:03Z</time>
      </trkpt>
      <trkpt lat="43.89415" lon="4.10613">
        <ele>110.21</ele>
        <time>2018-12-07T13:36:08Z</time>
      </trkpt>
      <trkpt lat="43.894" lon="4.10611">
        <ele>110.21</ele>
        <time>2018-12-07T13:36:21Z</time>
      </trkpt>
      <trkpt lat="43.89381" lon="4.1061">
        <ele>109.25</ele>
        <time>2018-12-07T13:36:36Z</time>
      </trkpt>
      <trkpt lat="43.89366" lon="4.10609">
        <ele>108.77</ele>
        <time>2018-12-07T13:36:49Z</time>
      </trkpt>
      <trkpt lat="43.89348" lon="4.1061">
        <ele>107.32</ele>
        <time>2018-12-07T13:37:02Z</time>
      </trkpt>
      <trkpt lat="43.89338" lon="4.10608">
        <ele>107.32</ele>
        <time>2018-12-07T13:37:09Z</time>
      </trkpt>
      <trkpt lat="43.89332" lon="4.10606">
        <ele>107.81</ele>
        <time>2018-12-07T13:37:14Z</time>
      </trkpt>
      <trkpt lat="43.89324" lon="4.10603">
        <ele>107.32</ele>
        <time>2018-12-07T13:37:21Z</time>
      </trkpt>
      <trkpt lat="43.89322" lon="4.10601">
        <ele>107.32</ele>
        <time>2018-12-07T13:37:23Z</time>
      </trkpt>
      <trkpt lat="43.89305" lon="4.10595">
        <ele>108.77</ele>
        <time>2018-12-07T13:37:38Z</time>
      </trkpt>
      <trkpt lat="43.89291" lon="4.10589">
        <ele>108.77</ele>
        <time>2018-12-07T13:37:51Z</time>
      </trkpt>
      <trkpt lat="43.89277" lon="4.10588">
        <ele>109.25</ele>
        <time>2018-12-07T13:38:05Z</time>
      </trkpt>
      <trkpt lat="43.89259" lon="4.10583">
        <ele>108.77</ele>
        <time>2018-12-07T13:38:21Z</time>
      </trkpt>
      <trkpt lat="43.89245" lon="4.10582">
        <ele>110.21</ele>
        <time>2018-12-07T13:38:35Z</time>
      </trkpt>
      <trkpt lat="43.89229" lon="4.10582">
        <ele>110.21</ele>
        <time>2018-12-07T13:38:49Z</time>
      </trkpt>
      <trkpt lat="43.89217" lon="4.10575">
        <ele>110.69</ele>
        <time>2018-12-07T13:38:59Z</time>
      </trkpt>
      <trkpt lat="43.89206" lon="4.10569">
        <ele>111.65</ele>
        <time>2018-12-07T13:39:10Z</time>
      </trkpt>
      <trkpt lat="43.89196" lon="4.1056">
        <ele>112.13</ele>
        <time>2018-12-07T13:39:25Z</time>
      </trkpt>
      <trkpt lat="43.89195" lon="4.1056">
        <ele>112.13</ele>
        <time>2018-12-07T13:39:29Z</time>
      </trkpt>
      <trkpt lat="43.89189" lon="4.10555">
        <ele>112.61</ele>
        <time>2018-12-07T13:39:34Z</time>
      </trkpt>
      <trkpt lat="43.89184" lon="4.10555">
        <ele>113.09</ele>
        <time>2018-12-07T13:39:38Z</time>
      </trkpt>
      <trkpt lat="43.89178" lon="4.10552">
        <ele>113.09</ele>
        <time>2018-12-07T13:39:43Z</time>
      </trkpt>
      <trkpt lat="43.89171" lon="4.10548">
        <ele>113.57</ele>
        <time>2018-12-07T13:39:50Z</time>
      </trkpt>
      <trkpt lat="43.89156" lon="4.10536">
        <ele>113.57</ele>
        <time>2018-12-07T13:40:04Z</time>
      </trkpt>
      <trkpt lat="43.89148" lon="4.10531">
        <ele>113.57</ele>
        <time>2018-12-07T13:40:11Z</time>
      </trkpt>
      <trkpt lat="43.89132" lon="4.10523">
        <ele>112.61</ele>
        <time>2018-12-07T13:40:24Z</time>
      </trkpt>
      <trkpt lat="43.89118" lon="4.10517">
        <ele>112.61</ele>
        <time>2018-12-07T13:40:37Z</time>
      </trkpt>
      <trkpt lat="43.89106" lon="4.10509">
        <ele>112.13</ele>
        <time>2018-12-07T13:40:49Z</time>
      </trkpt>
      <trkpt lat="43.89095" lon="4.10498">
        <ele>111.65</ele>
        <time>2018-12-07T13:41:03Z</time>
      </trkpt>
      <trkpt lat="43.89086" lon="4.10488">
        <ele>109.73</ele>
        <time>2018-12-07T13:41:15Z</time>
      </trkpt>
      <trkpt lat="43.89075" lon="4.10483">
        <ele>109.25</ele>
        <time>2018-12-07T13:41:26Z</time>
      </trkpt>
      <trkpt lat="43.89059" lon="4.10479">
        <ele>107.81</ele>
        <time>2018-12-07T13:41:40Z</time>
      </trkpt>
      <trkpt lat="43.89049" lon="4.10474">
        <ele>107.32</ele>
        <time>2018-12-07T13:41:52Z</time>
      </trkpt>
      <trkpt lat="43.89047" lon="4.10472">
        <ele>106.84</ele>
        <time>2018-12-07T13:41:54Z</time>
      </trkpt>
      <trkpt lat="43.89042" lon="4.10469">
        <ele>108.29</ele>
        <time>2018-12-07T13:41:58Z</time>
      </trkpt>
      <trkpt lat="43.89029" lon="4.10459">
        <ele>107.32</ele>
        <time>2018-12-07T13:42:10Z</time>
      </trkpt>
      <trkpt lat="43.89025" lon="4.10457">
        <ele>108.29</ele>
        <time>2018-12-07T13:42:14Z</time>
      </trkpt>
      <trkpt lat="43.89013" lon="4.10446">
        <ele>105.88</ele>
        <time>2018-12-07T13:42:27Z</time>
      </trkpt>
      <trkpt lat="43.89008" lon="4.10442">
        <ele>105.88</ele>
        <time>2018-12-07T13:42:33Z</time>
      </trkpt>
      <trkpt lat="43.88998" lon="4.10436">
        <ele>105.4</ele>
        <time>2018-12-07T13:42:43Z</time>
      </trkpt>
      <trkpt lat="43.88978" lon="4.10431">
        <ele>104.44</ele>
        <time>2018-12-07T13:42:59Z</time>
      </trkpt>
      <trkpt lat="43.88967" lon="4.10427">
        <ele>103.96</ele>
        <time>2018-12-07T13:43:10Z</time>
      </trkpt>
      <trkpt lat="43.88962" lon="4.10425">
        <ele>104.44</ele>
        <time>2018-12-07T13:43:14Z</time>
      </trkpt>
      <trkpt lat="43.88958" lon="4.10425">
        <ele>103.96</ele>
        <time>2018-12-07T13:43:19Z</time>
      </trkpt>
      <trkpt lat="43.88949" lon="4.10425">
        <ele>104.44</ele>
        <time>2018-12-07T13:43:26Z</time>
      </trkpt>
      <trkpt lat="43.88945" lon="4.10423">
        <ele>104.92</ele>
        <time>2018-12-07T13:43:31Z</time>
      </trkpt>
      <trkpt lat="43.88936" lon="4.10419">
        <ele>104.44</ele>
        <time>2018-12-07T13:43:38Z</time>
      </trkpt>
      <trkpt lat="43.88922" lon="4.10411">
        <ele>104.92</ele>
        <time>2018-12-07T13:43:50Z</time>
      </trkpt>
      <trkpt lat="43.88917" lon="4.10408">
        <ele>104.92</ele>
        <time>2018-12-07T13:43:56Z</time>
      </trkpt>
      <trkpt lat="43.88912" lon="4.10405">
        <ele>104.44</ele>
        <time>2018-12-07T13:44:00Z</time>
      </trkpt>
      <trkpt lat="43.88902" lon="4.10399">
        <ele>104.44</ele>
        <time>2018-12-07T13:44:07Z</time>
      </trkpt>
      <trkpt lat="43.88885" lon="4.10391">
        <ele>104.44</ele>
        <time>2018-12-07T13:44:20Z</time>
      </trkpt>
      <trkpt lat="43.88883" lon="4.10388">
        <ele>103.96</ele>
        <time>2018-12-07T13:44:24Z</time>
      </trkpt>
      <trkpt lat="43.88873" lon="4.1038">
        <ele>103.96</ele>
        <time>2018-12-07T13:44:34Z</time>
      </trkpt>
      <trkpt lat="43.88867" lon="4.10377">
        <ele>104.44</ele>
        <time>2018-12-07T13:44:38Z</time>
      </trkpt>
      <trkpt lat="43.88864" lon="4.10376">
        <ele>103.96</ele>
        <time>2018-12-07T13:44:41Z</time>
      </trkpt>
      <trkpt lat="43.8885" lon="4.10368">
        <ele>104.44</ele>
        <time>2018-12-07T13:44:53Z</time>
      </trkpt>
      <trkpt lat="43.88845" lon="4.10367">
        <ele>103.96</ele>
        <time>2018-12-07T13:44:56Z</time>
      </trkpt>
      <trkpt lat="43.88834" lon="4.10362">
        <ele>103.48</ele>
        <time>2018-12-07T13:45:04Z</time>
      </trkpt>
      <trkpt lat="43.88829" lon="4.10361">
        <ele>104.92</ele>
        <time>2018-12-07T13:45:10Z</time>
      </trkpt>
      <trkpt lat="43.88812" lon="4.10358">
        <ele>104.92</ele>
        <time>2018-12-07T13:45:26Z</time>
      </trkpt>
      <trkpt lat="43.88797" lon="4.10354">
        <ele>105.4</ele>
        <time>2018-12-07T13:45:39Z</time>
      </trkpt>
      <trkpt lat="43.88781" lon="4.10351">
        <ele>104.44</ele>
        <time>2018-12-07T13:45:53Z</time>
      </trkpt>
      <trkpt lat="43.88779" lon="4.10351">
        <ele>104.92</ele>
        <time>2018-12-07T13:45:55Z</time>
      </trkpt>
      <trkpt lat="43.88753" lon="4.10348">
        <ele>105.4</ele>
        <time>2018-12-07T13:46:14Z</time>
      </trkpt>
      <trkpt lat="43.88735" lon="4.10345">
        <ele>104.44</ele>
        <time>2018-12-07T13:46:29Z</time>
      </trkpt>
      <trkpt lat="43.8872" lon="4.10341">
        <ele>103.96</ele>
        <time>2018-12-07T13:46:41Z</time>
      </trkpt>
      <trkpt lat="43.88705" lon="4.10337">
        <ele>104.44</ele>
        <time>2018-12-07T13:46:53Z</time>
      </trkpt>
      <trkpt lat="43.88684" lon="4.1033">
        <ele>103.96</ele>
        <time>2018-12-07T13:47:11Z</time>
      </trkpt>
      <trkpt lat="43.88661" lon="4.10327">
        <ele>103.96</ele>
        <time>2018-12-07T13:47:27Z</time>
      </trkpt>
      <trkpt lat="43.88657" lon="4.1032">
        <ele>103.96</ele>
        <time>2018-12-07T13:47:34Z</time>
      </trkpt>
      <trkpt lat="43.8865" lon="4.10309">
        <ele>103.48</ele>
        <time>2018-12-07T13:47:44Z</time>
      </trkpt>
      <trkpt lat="43.8864" lon="4.10303">
        <ele>104.44</ele>
        <time>2018-12-07T13:47:51Z</time>
      </trkpt>
      <trkpt lat="43.88635" lon="4.10302">
        <ele>103.96</ele>
        <time>2018-12-07T13:47:56Z</time>
      </trkpt>
      <trkpt lat="43.88624" lon="4.10298">
        <ele>104.44</ele>
        <time>2018-12-07T13:48:05Z</time>
      </trkpt>
      <trkpt lat="43.88616" lon="4.10293">
        <ele>103.96</ele>
        <time>2018-12-07T13:48:12Z</time>
      </trkpt>
      <trkpt lat="43.88607" lon="4.10287">
        <ele>104.44</ele>
        <time>2018-12-07T13:48:25Z</time>
      </trkpt>
      <trkpt lat="43.88602" lon="4.10286">
        <ele>104.92</ele>
        <time>2018-12-07T13:48:39Z</time>
      </trkpt>
      <trkpt lat="43.88602" lon="4.10285">
        <ele>105.4</ele>
        <time>2018-12-07T13:48:56Z</time>
      </trkpt>
      <trkpt lat="43.88601" lon="4.10285">
        <ele>103.96</ele>
        <time>2018-12-07T13:49:07Z</time>
      </trkpt>
      <trkpt lat="43.88588" lon="4.1028">
        <ele>105.4</ele>
        <time>2018-12-07T13:49:18Z</time>
      </trkpt>
      <trkpt lat="43.88571" lon="4.10273">
        <ele>105.88</ele>
        <time>2018-12-07T13:49:30Z</time>
      </trkpt>
      <trkpt lat="43.88555" lon="4.10268">
        <ele>106.36</ele>
        <time>2018-12-07T13:49:43Z</time>
      </trkpt>
      <trkpt lat="43.88538" lon="4.10259">
        <ele>105.88</ele>
        <time>2018-12-07T13:50:02Z</time>
      </trkpt>
      <trkpt lat="43.88536" lon="4.10256">
        <ele>106.36</ele>
        <time>2018-12-07T13:50:10Z</time>
      </trkpt>
      <trkpt lat="43.88529" lon="4.10252">
        <ele>106.36</ele>
        <time>2018-12-07T13:50:18Z</time>
      </trkpt>
      <trkpt lat="43.88524" lon="4.10251">
        <ele>106.36</ele>
        <time>2018-12-07T13:50:22Z</time>
      </trkpt>
      <trkpt lat="43.88512" lon="4.10249">
        <ele>107.32</ele>
        <time>2018-12-07T13:50:32Z</time>
      </trkpt>
      <trkpt lat="43.88505" lon="4.10246">
        <ele>106.36</ele>
        <time>2018-12-07T13:50:37Z</time>
      </trkpt>
      <trkpt lat="43.88489" lon="4.10239">
        <ele>106.84</ele>
        <time>2018-12-07T13:50:51Z</time>
      </trkpt>
      <trkpt lat="43.88487" lon="4.1024">
        <ele>106.36</ele>
        <time>2018-12-07T13:50:53Z</time>
      </trkpt>
      <trkpt lat="43.88465" lon="4.10228">
        <ele>107.32</ele>
        <time>2018-12-07T13:51:10Z</time>
      </trkpt>
      <trkpt lat="43.8845" lon="4.1022">
        <ele>107.81</ele>
        <time>2018-12-07T13:51:24Z</time>
      </trkpt>
      <trkpt lat="43.88443" lon="4.10218">
        <ele>107.32</ele>
        <time>2018-12-07T13:51:30Z</time>
      </trkpt>
      <trkpt lat="43.88429" lon="4.1021">
        <ele>108.77</ele>
        <time>2018-12-07T13:51:42Z</time>
      </trkpt>
      <trkpt lat="43.88414" lon="4.10203">
        <ele>108.29</ele>
        <time>2018-12-07T13:51:57Z</time>
      </trkpt>
      <trkpt lat="43.88401" lon="4.10191">
        <ele>107.32</ele>
        <time>2018-12-07T13:52:13Z</time>
      </trkpt>
      <trkpt lat="43.884" lon="4.10189">
        <ele>108.77</ele>
        <time>2018-12-07T13:52:15Z</time>
      </trkpt>
      <trkpt lat="43.88396" lon="4.10185">
        <ele>107.81</ele>
        <time>2018-12-07T13:52:19Z</time>
      </trkpt>
      <trkpt lat="43.8839" lon="4.10182">
        <ele>107.32</ele>
        <time>2018-12-07T13:52:26Z</time>
      </trkpt>
      <trkpt lat="43.88372" lon="4.10176">
        <ele>107.32</ele>
        <time>2018-12-07T13:52:43Z</time>
      </trkpt>
      <trkpt lat="43.88367" lon="4.10176">
        <ele>106.84</ele>
        <time>2018-12-07T13:52:48Z</time>
      </trkpt>
      <trkpt lat="43.88355" lon="4.10168">
        <ele>105.88</ele>
        <time>2018-12-07T13:52:59Z</time>
      </trkpt>
      <trkpt lat="43.88347" lon="4.10163">
        <ele>105.88</ele>
        <time>2018-12-07T13:53:07Z</time>
      </trkpt>
      <trkpt lat="43.88336" lon="4.10159">
        <ele>105.4</ele>
        <time>2018-12-07T13:53:18Z</time>
      </trkpt>
      <trkpt lat="43.88333" lon="4.10157">
        <ele>105.4</ele>
        <time>2018-12-07T13:53:21Z</time>
      </trkpt>
      <trkpt lat="43.88326" lon="4.10151">
        <ele>105.4</ele>
        <time>2018-12-07T13:53:29Z</time>
      </trkpt>
      <trkpt lat="43.88321" lon="4.10145">
        <ele>104.44</ele>
        <time>2018-12-07T13:53:35Z</time>
      </trkpt>
      <trkpt lat="43.88318" lon="4.10145">
        <ele>104.44</ele>
        <time>2018-12-07T13:53:48Z</time>
      </trkpt>
      <trkpt lat="43.88318" lon="4.10143">
        <ele>104.44</ele>
        <time>2018-12-07T13:54:07Z</time>
      </trkpt>
      <trkpt lat="43.88318" lon="4.10145">
        <ele>103.96</ele>
        <time>2018-12-07T13:54:31Z</time>
      </trkpt>
      <trkpt lat="43.88315" lon="4.10138">
        <ele>103.48</ele>
        <time>2018-12-07T13:54:38Z</time>
      </trkpt>
      <trkpt lat="43.88314" lon="4.10137">
        <ele>103.96</ele>
        <time>2018-12-07T13:54:54Z</time>
      </trkpt>
      <trkpt lat="43.88313" lon="4.10133">
        <ele>103</ele>
        <time>2018-12-07T13:55:14Z</time>
      </trkpt>
      <trkpt lat="43.88302" lon="4.10119">
        <ele>103</ele>
        <time>2018-12-07T13:55:26Z</time>
      </trkpt>
      <trkpt lat="43.88292" lon="4.10113">
        <ele>102.04</ele>
        <time>2018-12-07T13:55:38Z</time>
      </trkpt>
      <trkpt lat="43.88289" lon="4.10113">
        <ele>101.56</ele>
        <time>2018-12-07T13:55:40Z</time>
      </trkpt>
      <trkpt lat="43.88273" lon="4.10109">
        <ele>101.08</ele>
        <time>2018-12-07T13:55:54Z</time>
      </trkpt>
      <trkpt lat="43.88271" lon="4.10109">
        <ele>101.08</ele>
        <time>2018-12-07T13:55:57Z</time>
      </trkpt>
      <trkpt lat="43.88267" lon="4.10108">
        <ele>100.6</ele>
        <time>2018-12-07T13:56:00Z</time>
      </trkpt>
      <trkpt lat="43.88256" lon="4.10104">
        <ele>100.11</ele>
        <time>2018-12-07T13:56:07Z</time>
      </trkpt>
      <trkpt lat="43.88247" lon="4.10102">
        <ele>99.63</ele>
        <time>2018-12-07T13:56:16Z</time>
      </trkpt>
      <trkpt lat="43.88239" lon="4.101">
        <ele>99.15</ele>
        <time>2018-12-07T13:56:22Z</time>
      </trkpt>
      <trkpt lat="43.88236" lon="4.10096">
        <ele>99.15</ele>
        <time>2018-12-07T13:56:25Z</time>
      </trkpt>
      <trkpt lat="43.88209" lon="4.10087">
        <ele>99.15</ele>
        <time>2018-12-07T13:56:43Z</time>
      </trkpt>
      <trkpt lat="43.88193" lon="4.10081">
        <ele>98.19</ele>
        <time>2018-12-07T13:56:57Z</time>
      </trkpt>
      <trkpt lat="43.8817" lon="4.10076">
        <ele>95.79</ele>
        <time>2018-12-07T13:57:13Z</time>
      </trkpt>
      <trkpt lat="43.8815" lon="4.10069">
        <ele>96.75</ele>
        <time>2018-12-07T13:57:27Z</time>
      </trkpt>
      <trkpt lat="43.8813" lon="4.10065">
        <ele>95.31</ele>
        <time>2018-12-07T13:57:43Z</time>
      </trkpt>
      <trkpt lat="43.88112" lon="4.10061">
        <ele>94.83</ele>
        <time>2018-12-07T13:57:57Z</time>
      </trkpt>
      <trkpt lat="43.881" lon="4.10055">
        <ele>94.35</ele>
        <time>2018-12-07T13:58:07Z</time>
      </trkpt>
      <trkpt lat="43.88096" lon="4.10043">
        <ele>94.35</ele>
        <time>2018-12-07T13:58:13Z</time>
      </trkpt>
      <trkpt lat="43.88088" lon="4.10023">
        <ele>93.87</ele>
        <time>2018-12-07T13:58:26Z</time>
      </trkpt>
      <trkpt lat="43.88091" lon="4.10003">
        <ele>92.42</ele>
        <time>2018-12-07T13:58:38Z</time>
      </trkpt>
      <trkpt lat="43.88092" lon="4.1">
        <ele>92.9</ele>
        <time>2018-12-07T13:58:40Z</time>
      </trkpt>
      <trkpt lat="43.88096" lon="4.09987">
        <ele>92.9</ele>
        <time>2018-12-07T13:58:46Z</time>
      </trkpt>
      <trkpt lat="43.88096" lon="4.0997">
        <ele>91.94</ele>
        <time>2018-12-07T13:58:57Z</time>
      </trkpt>
      <trkpt lat="43.88099" lon="4.09961">
        <ele>91.46</ele>
        <time>2018-12-07T13:59:01Z</time>
      </trkpt>
      <trkpt lat="43.88107" lon="4.09935">
        <ele>90.98</ele>
        <time>2018-12-07T13:59:17Z</time>
      </trkpt>
      <trkpt lat="43.8811" lon="4.09926">
        <ele>90.5</ele>
        <time>2018-12-07T13:59:23Z</time>
      </trkpt>
      <trkpt lat="43.8811" lon="4.09919">
        <ele>90.5</ele>
        <time>2018-12-07T13:59:27Z</time>
      </trkpt>
      <trkpt lat="43.88113" lon="4.09909">
        <ele>90.02</ele>
        <time>2018-12-07T13:59:34Z</time>
      </trkpt>
      <trkpt lat="43.88117" lon="4.09888">
        <ele>90.02</ele>
        <time>2018-12-07T13:59:47Z</time>
      </trkpt>
      <trkpt lat="43.88117" lon="4.09885">
        <ele>89.06</ele>
        <time>2018-12-07T13:59:49Z</time>
      </trkpt>
      <trkpt lat="43.88124" lon="4.09863">
        <ele>89.54</ele>
        <time>2018-12-07T14:00:02Z</time>
      </trkpt>
      <trkpt lat="43.8813" lon="4.09844">
        <ele>88.58</ele>
        <time>2018-12-07T14:00:15Z</time>
      </trkpt>
      <trkpt lat="43.88136" lon="4.09828">
        <ele>88.1</ele>
        <time>2018-12-07T14:00:29Z</time>
      </trkpt>
      <trkpt lat="43.88144" lon="4.09824">
        <ele>88.1</ele>
        <time>2018-12-07T14:00:36Z</time>
      </trkpt>
      <trkpt lat="43.88152" lon="4.09826">
        <ele>88.58</ele>
        <time>2018-12-07T14:00:46Z</time>
      </trkpt>
      <trkpt lat="43.88156" lon="4.09828">
        <ele>88.1</ele>
        <time>2018-12-07T14:00:49Z</time>
      </trkpt>
      <trkpt lat="43.88168" lon="4.09838">
        <ele>89.06</ele>
        <time>2018-12-07T14:01:01Z</time>
      </trkpt>
      <trkpt lat="43.88171" lon="4.09842">
        <ele>89.06</ele>
        <time>2018-12-07T14:01:06Z</time>
      </trkpt>
      <trkpt lat="43.88175" lon="4.0985">
        <ele>83.29</ele>
        <time>2018-12-07T14:01:14Z</time>
      </trkpt>
      <trkpt lat="43.88176" lon="4.0985">
        <ele>95.31</ele>
        <time>2018-12-07T14:01:15Z</time>
      </trkpt>
      <trkpt lat="43.88176" lon="4.09851">
        <ele>88.58</ele>
        <time>2018-12-07T14:01:16Z</time>
      </trkpt>
      <trkpt lat="43.88176" lon="4.09853">
        <ele>84.25</ele>
        <time>2018-12-07T14:01:19Z</time>
      </trkpt>
      <trkpt lat="43.88177" lon="4.09854">
        <ele>94.35</ele>
        <time>2018-12-07T14:01:20Z</time>
      </trkpt>
      <trkpt lat="43.88177" lon="4.09855">
        <ele>89.06</ele>
        <time>2018-12-07T14:01:21Z</time>
      </trkpt>
    </trkseg>
  </trk>
</gpx>